<?xml version="1.0" encoding="UTF-8" standalone="no" ?>
<gpx xmlns="http://www.topografix.com/GPX/1/1" xmlns:xsi="http://www.w3.org/2001/XMLSchema-instance" xsi:schemaLocation="http://www.topografix.com/GPX/1/1 http://www.topografix.com/GPX/1/1/gpx.xsd" version="1.1" creator="VisuGPX - https://www.visugpx.com">
  <metadata>
    <name>Sortie 22/12/2019</name>
    <desc><![CDATA[Sortie VTT du dimanche 22 décembre 2019]]></desc>
  </metadata>
  <trk>
    <name><![CDATA[Pornichet Cyclisme]]></name>
    <trkseg>
      <trkpt lat="47.2587" lon="-2.32477">
        <ele>113.40000152588</ele>
        <time>2019-12-22T08:03:35.000Z</time>
      </trkpt>
      <trkpt lat="47.25857" lon="-2.32478">
        <ele>113.40000152588</ele>
        <time>2019-12-22T08:03:38.000Z</time>
      </trkpt>
      <trkpt lat="47.25851" lon="-2.32477">
        <ele>113.80000305176</ele>
        <time>2019-12-22T08:03:39.000Z</time>
      </trkpt>
      <trkpt lat="47.25842" lon="-2.32475">
        <ele>113.80000305176</ele>
        <time>2019-12-22T08:03:41.000Z</time>
      </trkpt>
      <trkpt lat="47.25824" lon="-2.32469">
        <ele>113.80000305176</ele>
        <time>2019-12-22T08:03:45.000Z</time>
      </trkpt>
      <trkpt lat="47.25815" lon="-2.32463">
        <ele>113.80000305176</ele>
        <time>2019-12-22T08:03:47.000Z</time>
      </trkpt>
      <trkpt lat="47.25802" lon="-2.32457">
        <ele>113.80000305176</ele>
        <time>2019-12-22T08:03:52.000Z</time>
      </trkpt>
      <trkpt lat="47.25796" lon="-2.32453">
        <ele>113.80000305176</ele>
        <time>2019-12-22T08:03:58.000Z</time>
      </trkpt>
      <trkpt lat="47.25787" lon="-2.3246">
        <ele>113.80000305176</ele>
        <time>2019-12-22T08:04:02.000Z</time>
      </trkpt>
      <trkpt lat="47.25778" lon="-2.32456">
        <ele>113.80000305176</ele>
        <time>2019-12-22T08:04:05.000Z</time>
      </trkpt>
      <trkpt lat="47.25771" lon="-2.32441">
        <ele>113.80000305176</ele>
        <time>2019-12-22T08:04:08.000Z</time>
      </trkpt>
      <trkpt lat="47.25767" lon="-2.32436">
        <ele>113.80000305176</ele>
        <time>2019-12-22T08:04:09.000Z</time>
      </trkpt>
      <trkpt lat="47.25753" lon="-2.32431">
        <ele>113.80000305176</ele>
        <time>2019-12-22T08:04:12.000Z</time>
      </trkpt>
      <trkpt lat="47.25749" lon="-2.32431">
        <ele>113.80000305176</ele>
        <time>2019-12-22T08:04:13.000Z</time>
      </trkpt>
      <trkpt lat="47.25739" lon="-2.3243">
        <ele>113.80000305176</ele>
        <time>2019-12-22T08:04:15.000Z</time>
      </trkpt>
      <trkpt lat="47.25733" lon="-2.3243">
        <ele>113.80000305176</ele>
        <time>2019-12-22T08:04:16.000Z</time>
      </trkpt>
      <trkpt lat="47.25705" lon="-2.32426">
        <ele>113.80000305176</ele>
        <time>2019-12-22T08:04:21.000Z</time>
      </trkpt>
      <trkpt lat="47.25673" lon="-2.32422">
        <ele>113.80000305176</ele>
        <time>2019-12-22T08:04:27.000Z</time>
      </trkpt>
      <trkpt lat="47.25668" lon="-2.32423">
        <ele>113.80000305176</ele>
        <time>2019-12-22T08:04:28.000Z</time>
      </trkpt>
      <trkpt lat="47.25662" lon="-2.32431">
        <ele>113.80000305176</ele>
        <time>2019-12-22T08:04:30.000Z</time>
      </trkpt>
      <trkpt lat="47.25662" lon="-2.32448">
        <ele>113.80000305176</ele>
        <time>2019-12-22T08:04:33.000Z</time>
      </trkpt>
      <trkpt lat="47.25666" lon="-2.3246">
        <ele>113.80000305176</ele>
        <time>2019-12-22T08:04:35.000Z</time>
      </trkpt>
      <trkpt lat="47.25667" lon="-2.32467">
        <ele>114.19999694824</ele>
        <time>2019-12-22T08:04:36.000Z</time>
      </trkpt>
      <trkpt lat="47.25669" lon="-2.32473">
        <ele>115.19999694824</ele>
        <time>2019-12-22T08:04:37.000Z</time>
      </trkpt>
      <trkpt lat="47.25672" lon="-2.32479">
        <ele>115.59999847412</ele>
        <time>2019-12-22T08:04:38.000Z</time>
      </trkpt>
      <trkpt lat="47.25674" lon="-2.32485">
        <ele>116</ele>
        <time>2019-12-22T08:04:39.000Z</time>
      </trkpt>
      <trkpt lat="47.25684" lon="-2.32515">
        <ele>116.59999847412</ele>
        <time>2019-12-22T08:04:44.000Z</time>
      </trkpt>
      <trkpt lat="47.25686" lon="-2.3252">
        <ele>117</ele>
        <time>2019-12-22T08:04:45.000Z</time>
      </trkpt>
      <trkpt lat="47.25688" lon="-2.32526">
        <ele>117.40000152588</ele>
        <time>2019-12-22T08:04:46.000Z</time>
      </trkpt>
      <trkpt lat="47.2569" lon="-2.32532">
        <ele>117.80000305176</ele>
        <time>2019-12-22T08:04:47.000Z</time>
      </trkpt>
      <trkpt lat="47.25692" lon="-2.32538">
        <ele>118.19999694824</ele>
        <time>2019-12-22T08:04:48.000Z</time>
      </trkpt>
      <trkpt lat="47.25698" lon="-2.32555">
        <ele>118.19999694824</ele>
        <time>2019-12-22T08:04:51.000Z</time>
      </trkpt>
      <trkpt lat="47.25711" lon="-2.32596">
        <ele>118.19999694824</ele>
        <time>2019-12-22T08:04:58.000Z</time>
      </trkpt>
      <trkpt lat="47.25712" lon="-2.32602">
        <ele>118.19999694824</ele>
        <time>2019-12-22T08:04:59.000Z</time>
      </trkpt>
      <trkpt lat="47.25713" lon="-2.32615">
        <ele>118.19999694824</ele>
        <time>2019-12-22T08:05:01.000Z</time>
      </trkpt>
      <trkpt lat="47.25712" lon="-2.3262">
        <ele>119.19999694824</ele>
        <time>2019-12-22T08:05:02.000Z</time>
      </trkpt>
      <trkpt lat="47.2571" lon="-2.32624">
        <ele>119.59999847412</ele>
        <time>2019-12-22T08:05:03.000Z</time>
      </trkpt>
      <trkpt lat="47.25706" lon="-2.32627">
        <ele>120.19999694824</ele>
        <time>2019-12-22T08:05:04.000Z</time>
      </trkpt>
      <trkpt lat="47.25702" lon="-2.32629">
        <ele>120.59999847412</ele>
        <time>2019-12-22T08:05:05.000Z</time>
      </trkpt>
      <trkpt lat="47.25693" lon="-2.32632">
        <ele>120.59999847412</ele>
        <time>2019-12-22T08:05:07.000Z</time>
      </trkpt>
      <trkpt lat="47.2568" lon="-2.32635">
        <ele>120.59999847412</ele>
        <time>2019-12-22T08:05:10.000Z</time>
      </trkpt>
      <trkpt lat="47.25665" lon="-2.32643">
        <ele>121.19999694824</ele>
        <time>2019-12-22T08:05:14.000Z</time>
      </trkpt>
      <trkpt lat="47.25661" lon="-2.32644">
        <ele>121.59999847412</ele>
        <time>2019-12-22T08:05:15.000Z</time>
      </trkpt>
      <trkpt lat="47.25657" lon="-2.32647">
        <ele>122.19999694824</ele>
        <time>2019-12-22T08:05:16.000Z</time>
      </trkpt>
      <trkpt lat="47.25653" lon="-2.32648">
        <ele>122.59999847412</ele>
        <time>2019-12-22T08:05:17.000Z</time>
      </trkpt>
      <trkpt lat="47.25649" lon="-2.3265">
        <ele>123.19999694824</ele>
        <time>2019-12-22T08:05:18.000Z</time>
      </trkpt>
      <trkpt lat="47.2564" lon="-2.32653">
        <ele>123.19999694824</ele>
        <time>2019-12-22T08:05:20.000Z</time>
      </trkpt>
      <trkpt lat="47.25612" lon="-2.32663">
        <ele>123.19999694824</ele>
        <time>2019-12-22T08:05:27.000Z</time>
      </trkpt>
      <trkpt lat="47.25587" lon="-2.32674">
        <ele>123.19999694824</ele>
        <time>2019-12-22T08:05:33.000Z</time>
      </trkpt>
      <trkpt lat="47.25562" lon="-2.32686">
        <ele>123.19999694824</ele>
        <time>2019-12-22T08:05:39.000Z</time>
      </trkpt>
      <trkpt lat="47.25558" lon="-2.32688">
        <ele>123.19999694824</ele>
        <time>2019-12-22T08:05:40.000Z</time>
      </trkpt>
      <trkpt lat="47.25523" lon="-2.32699">
        <ele>123.19999694824</ele>
        <time>2019-12-22T08:05:47.000Z</time>
      </trkpt>
      <trkpt lat="47.25508" lon="-2.32701">
        <ele>123.19999694824</ele>
        <time>2019-12-22T08:05:50.000Z</time>
      </trkpt>
      <trkpt lat="47.25494" lon="-2.32702">
        <ele>123.19999694824</ele>
        <time>2019-12-22T08:05:53.000Z</time>
      </trkpt>
      <trkpt lat="47.25479" lon="-2.32709">
        <ele>123.19999694824</ele>
        <time>2019-12-22T08:05:56.000Z</time>
      </trkpt>
      <trkpt lat="47.25471" lon="-2.32717">
        <ele>123.19999694824</ele>
        <time>2019-12-22T08:05:58.000Z</time>
      </trkpt>
      <trkpt lat="47.2545" lon="-2.32747">
        <ele>123.19999694824</ele>
        <time>2019-12-22T08:06:04.000Z</time>
      </trkpt>
      <trkpt lat="47.25435" lon="-2.32775">
        <ele>123.19999694824</ele>
        <time>2019-12-22T08:06:09.000Z</time>
      </trkpt>
      <trkpt lat="47.25432" lon="-2.32782">
        <ele>123.19999694824</ele>
        <time>2019-12-22T08:06:10.000Z</time>
      </trkpt>
      <trkpt lat="47.25426" lon="-2.32793">
        <ele>123.19999694824</ele>
        <time>2019-12-22T08:06:12.000Z</time>
      </trkpt>
      <trkpt lat="47.25415" lon="-2.32808">
        <ele>123.19999694824</ele>
        <time>2019-12-22T08:06:15.000Z</time>
      </trkpt>
      <trkpt lat="47.25395" lon="-2.32834">
        <ele>122.59999847412</ele>
        <time>2019-12-22T08:06:20.000Z</time>
      </trkpt>
      <trkpt lat="47.25391" lon="-2.32839">
        <ele>122</ele>
        <time>2019-12-22T08:06:21.000Z</time>
      </trkpt>
      <trkpt lat="47.25387" lon="-2.32843">
        <ele>121.59999847412</ele>
        <time>2019-12-22T08:06:22.000Z</time>
      </trkpt>
      <trkpt lat="47.25383" lon="-2.32848">
        <ele>121</ele>
        <time>2019-12-22T08:06:23.000Z</time>
      </trkpt>
      <trkpt lat="47.25379" lon="-2.32853">
        <ele>120.40000152588</ele>
        <time>2019-12-22T08:06:24.000Z</time>
      </trkpt>
      <trkpt lat="47.25353" lon="-2.32879">
        <ele>120.40000152588</ele>
        <time>2019-12-22T08:06:30.000Z</time>
      </trkpt>
      <trkpt lat="47.25327" lon="-2.32905">
        <ele>120.40000152588</ele>
        <time>2019-12-22T08:06:36.000Z</time>
      </trkpt>
      <trkpt lat="47.25311" lon="-2.32922">
        <ele>120.40000152588</ele>
        <time>2019-12-22T08:06:40.000Z</time>
      </trkpt>
      <trkpt lat="47.25305" lon="-2.32934">
        <ele>120.40000152588</ele>
        <time>2019-12-22T08:06:42.000Z</time>
      </trkpt>
      <trkpt lat="47.25306" lon="-2.32954">
        <ele>120.40000152588</ele>
        <time>2019-12-22T08:06:45.000Z</time>
      </trkpt>
      <trkpt lat="47.25313" lon="-2.32979">
        <ele>120.40000152588</ele>
        <time>2019-12-22T08:06:49.000Z</time>
      </trkpt>
      <trkpt lat="47.25318" lon="-2.3299">
        <ele>120.40000152588</ele>
        <time>2019-12-22T08:06:51.000Z</time>
      </trkpt>
      <trkpt lat="47.25322" lon="-2.33">
        <ele>120.40000152588</ele>
        <time>2019-12-22T08:06:53.000Z</time>
      </trkpt>
      <trkpt lat="47.25324" lon="-2.33007">
        <ele>120.40000152588</ele>
        <time>2019-12-22T08:06:54.000Z</time>
      </trkpt>
      <trkpt lat="47.25336" lon="-2.33037">
        <ele>120.40000152588</ele>
        <time>2019-12-22T08:06:59.000Z</time>
      </trkpt>
      <trkpt lat="47.25348" lon="-2.33069">
        <ele>120.40000152588</ele>
        <time>2019-12-22T08:07:05.000Z</time>
      </trkpt>
      <trkpt lat="47.25351" lon="-2.33076">
        <ele>120.40000152588</ele>
        <time>2019-12-22T08:07:06.000Z</time>
      </trkpt>
      <trkpt lat="47.25356" lon="-2.33087">
        <ele>120.40000152588</ele>
        <time>2019-12-22T08:07:08.000Z</time>
      </trkpt>
      <trkpt lat="47.2536" lon="-2.33096">
        <ele>120.40000152588</ele>
        <time>2019-12-22T08:07:10.000Z</time>
      </trkpt>
      <trkpt lat="47.25365" lon="-2.33102">
        <ele>120</ele>
        <time>2019-12-22T08:07:12.000Z</time>
      </trkpt>
      <trkpt lat="47.25366" lon="-2.33104">
        <ele>119.59999847412</ele>
        <time>2019-12-22T08:07:13.000Z</time>
      </trkpt>
      <trkpt lat="47.25368" lon="-2.33106">
        <ele>119.19999694824</ele>
        <time>2019-12-22T08:07:14.000Z</time>
      </trkpt>
      <trkpt lat="47.25369" lon="-2.33108">
        <ele>118.59999847412</ele>
        <time>2019-12-22T08:07:15.000Z</time>
      </trkpt>
      <trkpt lat="47.2537" lon="-2.3311">
        <ele>118.19999694824</ele>
        <time>2019-12-22T08:07:16.000Z</time>
      </trkpt>
      <trkpt lat="47.2537" lon="-2.33114">
        <ele>118.19999694824</ele>
        <time>2019-12-22T08:07:20.000Z</time>
      </trkpt>
      <trkpt lat="47.25377" lon="-2.33126">
        <ele>118.19999694824</ele>
        <time>2019-12-22T08:12:26.000Z</time>
      </trkpt>
      <trkpt lat="47.25379" lon="-2.33131">
        <ele>118.19999694824</ele>
        <time>2019-12-22T08:12:28.000Z</time>
      </trkpt>
      <trkpt lat="47.25387" lon="-2.33145">
        <ele>118.19999694824</ele>
        <time>2019-12-22T08:12:34.000Z</time>
      </trkpt>
      <trkpt lat="47.25396" lon="-2.33163">
        <ele>118.19999694824</ele>
        <time>2019-12-22T08:12:39.000Z</time>
      </trkpt>
      <trkpt lat="47.25406" lon="-2.33187">
        <ele>118.19999694824</ele>
        <time>2019-12-22T08:12:45.000Z</time>
      </trkpt>
      <trkpt lat="47.25408" lon="-2.33191">
        <ele>118.59999847412</ele>
        <time>2019-12-22T08:12:46.000Z</time>
      </trkpt>
      <trkpt lat="47.2541" lon="-2.33195">
        <ele>119</ele>
        <time>2019-12-22T08:12:47.000Z</time>
      </trkpt>
      <trkpt lat="47.25412" lon="-2.33199">
        <ele>119.59999847412</ele>
        <time>2019-12-22T08:12:48.000Z</time>
      </trkpt>
      <trkpt lat="47.25414" lon="-2.33203">
        <ele>120</ele>
        <time>2019-12-22T08:12:49.000Z</time>
      </trkpt>
      <trkpt lat="47.25416" lon="-2.33207">
        <ele>120.40000152588</ele>
        <time>2019-12-22T08:12:50.000Z</time>
      </trkpt>
      <trkpt lat="47.2542" lon="-2.33216">
        <ele>120.40000152588</ele>
        <time>2019-12-22T08:12:52.000Z</time>
      </trkpt>
      <trkpt lat="47.25431" lon="-2.33246">
        <ele>120.40000152588</ele>
        <time>2019-12-22T08:12:58.000Z</time>
      </trkpt>
      <trkpt lat="47.25445" lon="-2.33279">
        <ele>120.40000152588</ele>
        <time>2019-12-22T08:13:05.000Z</time>
      </trkpt>
      <trkpt lat="47.25448" lon="-2.333">
        <ele>120.40000152588</ele>
        <time>2019-12-22T08:13:09.000Z</time>
      </trkpt>
      <trkpt lat="47.2544" lon="-2.33323">
        <ele>120.40000152588</ele>
        <time>2019-12-22T08:13:14.000Z</time>
      </trkpt>
      <trkpt lat="47.25433" lon="-2.33343">
        <ele>120.40000152588</ele>
        <time>2019-12-22T08:13:18.000Z</time>
      </trkpt>
      <trkpt lat="47.25431" lon="-2.33354">
        <ele>120.40000152588</ele>
        <time>2019-12-22T08:13:20.000Z</time>
      </trkpt>
      <trkpt lat="47.25431" lon="-2.33367">
        <ele>120.40000152588</ele>
        <time>2019-12-22T08:13:22.000Z</time>
      </trkpt>
      <trkpt lat="47.25431" lon="-2.33399">
        <ele>120.40000152588</ele>
        <time>2019-12-22T08:13:27.000Z</time>
      </trkpt>
      <trkpt lat="47.25432" lon="-2.33446">
        <ele>120.40000152588</ele>
        <time>2019-12-22T08:13:34.000Z</time>
      </trkpt>
      <trkpt lat="47.25432" lon="-2.33459">
        <ele>120.40000152588</ele>
        <time>2019-12-22T08:13:36.000Z</time>
      </trkpt>
      <trkpt lat="47.25438" lon="-2.33484">
        <ele>120.40000152588</ele>
        <time>2019-12-22T08:13:40.000Z</time>
      </trkpt>
      <trkpt lat="47.25444" lon="-2.33511">
        <ele>120.40000152588</ele>
        <time>2019-12-22T08:13:45.000Z</time>
      </trkpt>
      <trkpt lat="47.25445" lon="-2.33516">
        <ele>120.40000152588</ele>
        <time>2019-12-22T08:13:46.000Z</time>
      </trkpt>
      <trkpt lat="47.25451" lon="-2.3354">
        <ele>120.40000152588</ele>
        <time>2019-12-22T08:13:51.000Z</time>
      </trkpt>
      <trkpt lat="47.25455" lon="-2.33565">
        <ele>120.40000152588</ele>
        <time>2019-12-22T08:13:56.000Z</time>
      </trkpt>
      <trkpt lat="47.25454" lon="-2.33574">
        <ele>120.40000152588</ele>
        <time>2019-12-22T08:13:58.000Z</time>
      </trkpt>
      <trkpt lat="47.25453" lon="-2.33577">
        <ele>120.40000152588</ele>
        <time>2019-12-22T08:13:59.000Z</time>
      </trkpt>
      <trkpt lat="47.25438" lon="-2.33588">
        <ele>120.40000152588</ele>
        <time>2019-12-22T08:14:04.000Z</time>
      </trkpt>
      <trkpt lat="47.25436" lon="-2.33605">
        <ele>120.40000152588</ele>
        <time>2019-12-22T08:14:08.000Z</time>
      </trkpt>
      <trkpt lat="47.2544" lon="-2.33631">
        <ele>120.40000152588</ele>
        <time>2019-12-22T08:14:12.000Z</time>
      </trkpt>
      <trkpt lat="47.25441" lon="-2.33637">
        <ele>120.40000152588</ele>
        <time>2019-12-22T08:14:13.000Z</time>
      </trkpt>
      <trkpt lat="47.25446" lon="-2.33674">
        <ele>120.40000152588</ele>
        <time>2019-12-22T08:14:19.000Z</time>
      </trkpt>
      <trkpt lat="47.25449" lon="-2.3369">
        <ele>120</ele>
        <time>2019-12-22T08:14:22.000Z</time>
      </trkpt>
      <trkpt lat="47.25449" lon="-2.33695">
        <ele>119.40000152588</ele>
        <time>2019-12-22T08:14:23.000Z</time>
      </trkpt>
      <trkpt lat="47.2545" lon="-2.33701">
        <ele>119</ele>
        <time>2019-12-22T08:14:24.000Z</time>
      </trkpt>
      <trkpt lat="47.25451" lon="-2.33706">
        <ele>118.19999694824</ele>
        <time>2019-12-22T08:14:25.000Z</time>
      </trkpt>
      <trkpt lat="47.25451" lon="-2.33711">
        <ele>118.19999694824</ele>
        <time>2019-12-22T08:14:26.000Z</time>
      </trkpt>
      <trkpt lat="47.25454" lon="-2.33735">
        <ele>118.19999694824</ele>
        <time>2019-12-22T08:14:30.000Z</time>
      </trkpt>
      <trkpt lat="47.25457" lon="-2.3374">
        <ele>118.19999694824</ele>
        <time>2019-12-22T08:14:31.000Z</time>
      </trkpt>
      <trkpt lat="47.25473" lon="-2.33751">
        <ele>118.19999694824</ele>
        <time>2019-12-22T08:14:35.000Z</time>
      </trkpt>
      <trkpt lat="47.25487" lon="-2.33755">
        <ele>118.19999694824</ele>
        <time>2019-12-22T08:14:38.000Z</time>
      </trkpt>
      <trkpt lat="47.25496" lon="-2.33755">
        <ele>118.19999694824</ele>
        <time>2019-12-22T08:14:40.000Z</time>
      </trkpt>
      <trkpt lat="47.25528" lon="-2.33756">
        <ele>118.19999694824</ele>
        <time>2019-12-22T08:14:47.000Z</time>
      </trkpt>
      <trkpt lat="47.25551" lon="-2.33756">
        <ele>118.59999847412</ele>
        <time>2019-12-22T08:14:52.000Z</time>
      </trkpt>
      <trkpt lat="47.25555" lon="-2.33755">
        <ele>119</ele>
        <time>2019-12-22T08:14:53.000Z</time>
      </trkpt>
      <trkpt lat="47.25559" lon="-2.33755">
        <ele>119.40000152588</ele>
        <time>2019-12-22T08:14:54.000Z</time>
      </trkpt>
      <trkpt lat="47.25563" lon="-2.33755">
        <ele>119.80000305176</ele>
        <time>2019-12-22T08:14:55.000Z</time>
      </trkpt>
      <trkpt lat="47.25567" lon="-2.33755">
        <ele>120.19999694824</ele>
        <time>2019-12-22T08:14:56.000Z</time>
      </trkpt>
      <trkpt lat="47.25587" lon="-2.33754">
        <ele>120.19999694824</ele>
        <time>2019-12-22T08:15:00.000Z</time>
      </trkpt>
      <trkpt lat="47.25591" lon="-2.33754">
        <ele>120.19999694824</ele>
        <time>2019-12-22T08:15:01.000Z</time>
      </trkpt>
      <trkpt lat="47.25608" lon="-2.33755">
        <ele>120.19999694824</ele>
        <time>2019-12-22T08:15:05.000Z</time>
      </trkpt>
      <trkpt lat="47.25627" lon="-2.33765">
        <ele>120.19999694824</ele>
        <time>2019-12-22T08:15:10.000Z</time>
      </trkpt>
      <trkpt lat="47.25635" lon="-2.33778">
        <ele>120.19999694824</ele>
        <time>2019-12-22T08:15:13.000Z</time>
      </trkpt>
      <trkpt lat="47.25639" lon="-2.33811">
        <ele>120.19999694824</ele>
        <time>2019-12-22T08:15:18.000Z</time>
      </trkpt>
      <trkpt lat="47.25641" lon="-2.33834">
        <ele>120.19999694824</ele>
        <time>2019-12-22T08:15:21.000Z</time>
      </trkpt>
      <trkpt lat="47.25644" lon="-2.33848">
        <ele>120.19999694824</ele>
        <time>2019-12-22T08:15:23.000Z</time>
      </trkpt>
      <trkpt lat="47.25651" lon="-2.33886">
        <ele>120.19999694824</ele>
        <time>2019-12-22T08:15:29.000Z</time>
      </trkpt>
      <trkpt lat="47.2566" lon="-2.33936">
        <ele>120.19999694824</ele>
        <time>2019-12-22T08:15:37.000Z</time>
      </trkpt>
      <trkpt lat="47.25662" lon="-2.33948">
        <ele>120.19999694824</ele>
        <time>2019-12-22T08:15:39.000Z</time>
      </trkpt>
      <trkpt lat="47.25661" lon="-2.33967">
        <ele>120.19999694824</ele>
        <time>2019-12-22T08:15:42.000Z</time>
      </trkpt>
      <trkpt lat="47.2566" lon="-2.33974">
        <ele>120.19999694824</ele>
        <time>2019-12-22T08:15:43.000Z</time>
      </trkpt>
      <trkpt lat="47.25656" lon="-2.34">
        <ele>120.19999694824</ele>
        <time>2019-12-22T08:15:47.000Z</time>
      </trkpt>
      <trkpt lat="47.25654" lon="-2.34006">
        <ele>120.19999694824</ele>
        <time>2019-12-22T08:15:48.000Z</time>
      </trkpt>
      <trkpt lat="47.25654" lon="-2.34012">
        <ele>120.19999694824</ele>
        <time>2019-12-22T08:15:49.000Z</time>
      </trkpt>
      <trkpt lat="47.25653" lon="-2.34025">
        <ele>120.19999694824</ele>
        <time>2019-12-22T08:15:51.000Z</time>
      </trkpt>
      <trkpt lat="47.25652" lon="-2.34031">
        <ele>120.59999847412</ele>
        <time>2019-12-22T08:15:52.000Z</time>
      </trkpt>
      <trkpt lat="47.25651" lon="-2.34037">
        <ele>121</ele>
        <time>2019-12-22T08:15:53.000Z</time>
      </trkpt>
      <trkpt lat="47.2565" lon="-2.34042">
        <ele>121.59999847412</ele>
        <time>2019-12-22T08:15:54.000Z</time>
      </trkpt>
      <trkpt lat="47.2565" lon="-2.34048">
        <ele>122</ele>
        <time>2019-12-22T08:15:55.000Z</time>
      </trkpt>
      <trkpt lat="47.25649" lon="-2.34053">
        <ele>121.59999847412</ele>
        <time>2019-12-22T08:15:56.000Z</time>
      </trkpt>
      <trkpt lat="47.25648" lon="-2.34059">
        <ele>121.19999694824</ele>
        <time>2019-12-22T08:15:57.000Z</time>
      </trkpt>
      <trkpt lat="47.25647" lon="-2.34064">
        <ele>120.80000305176</ele>
        <time>2019-12-22T08:15:58.000Z</time>
      </trkpt>
      <trkpt lat="47.25646" lon="-2.3407">
        <ele>120.19999694824</ele>
        <time>2019-12-22T08:15:59.000Z</time>
      </trkpt>
      <trkpt lat="47.25645" lon="-2.34075">
        <ele>119.80000305176</ele>
        <time>2019-12-22T08:16:00.000Z</time>
      </trkpt>
      <trkpt lat="47.25641" lon="-2.34096">
        <ele>119.80000305176</ele>
        <time>2019-12-22T08:16:04.000Z</time>
      </trkpt>
      <trkpt lat="47.2564" lon="-2.34102">
        <ele>119.80000305176</ele>
        <time>2019-12-22T08:16:05.000Z</time>
      </trkpt>
      <trkpt lat="47.25642" lon="-2.34126">
        <ele>119.80000305176</ele>
        <time>2019-12-22T08:16:09.000Z</time>
      </trkpt>
      <trkpt lat="47.25643" lon="-2.34131">
        <ele>119.80000305176</ele>
        <time>2019-12-22T08:16:10.000Z</time>
      </trkpt>
      <trkpt lat="47.25656" lon="-2.34161">
        <ele>119.80000305176</ele>
        <time>2019-12-22T08:16:16.000Z</time>
      </trkpt>
      <trkpt lat="47.25676" lon="-2.34191">
        <ele>119.80000305176</ele>
        <time>2019-12-22T08:16:23.000Z</time>
      </trkpt>
      <trkpt lat="47.25684" lon="-2.34193">
        <ele>119.80000305176</ele>
        <time>2019-12-22T08:16:25.000Z</time>
      </trkpt>
      <trkpt lat="47.25693" lon="-2.34191">
        <ele>119.80000305176</ele>
        <time>2019-12-22T08:16:27.000Z</time>
      </trkpt>
      <trkpt lat="47.25726" lon="-2.34185">
        <ele>119.80000305176</ele>
        <time>2019-12-22T08:16:33.000Z</time>
      </trkpt>
      <trkpt lat="47.25756" lon="-2.34178">
        <ele>119.80000305176</ele>
        <time>2019-12-22T08:16:39.000Z</time>
      </trkpt>
      <trkpt lat="47.25779" lon="-2.34175">
        <ele>119.80000305176</ele>
        <time>2019-12-22T08:16:45.000Z</time>
      </trkpt>
      <trkpt lat="47.25794" lon="-2.34172">
        <ele>119.80000305176</ele>
        <time>2019-12-22T08:16:49.000Z</time>
      </trkpt>
      <trkpt lat="47.25797" lon="-2.34171">
        <ele>119.80000305176</ele>
        <time>2019-12-22T08:16:50.000Z</time>
      </trkpt>
      <trkpt lat="47.25816" lon="-2.34173">
        <ele>119.80000305176</ele>
        <time>2019-12-22T08:16:55.000Z</time>
      </trkpt>
      <trkpt lat="47.25827" lon="-2.34169">
        <ele>119.80000305176</ele>
        <time>2019-12-22T08:16:59.000Z</time>
      </trkpt>
      <trkpt lat="47.25833" lon="-2.34156">
        <ele>119.80000305176</ele>
        <time>2019-12-22T08:17:03.000Z</time>
      </trkpt>
      <trkpt lat="47.25836" lon="-2.34154">
        <ele>119.80000305176</ele>
        <time>2019-12-22T08:17:04.000Z</time>
      </trkpt>
      <trkpt lat="47.25849" lon="-2.34157">
        <ele>119.80000305176</ele>
        <time>2019-12-22T08:17:08.000Z</time>
      </trkpt>
      <trkpt lat="47.25852" lon="-2.34158">
        <ele>119.80000305176</ele>
        <time>2019-12-22T08:17:09.000Z</time>
      </trkpt>
      <trkpt lat="47.2586" lon="-2.34161">
        <ele>119.40000152588</ele>
        <time>2019-12-22T08:17:11.000Z</time>
      </trkpt>
      <trkpt lat="47.25863" lon="-2.34162">
        <ele>118.80000305176</ele>
        <time>2019-12-22T08:17:12.000Z</time>
      </trkpt>
      <trkpt lat="47.25866" lon="-2.34163">
        <ele>118.19999694824</ele>
        <time>2019-12-22T08:17:13.000Z</time>
      </trkpt>
      <trkpt lat="47.25868" lon="-2.34163">
        <ele>117.59999847412</ele>
        <time>2019-12-22T08:17:14.000Z</time>
      </trkpt>
      <trkpt lat="47.2587" lon="-2.34162">
        <ele>117</ele>
        <time>2019-12-22T08:17:15.000Z</time>
      </trkpt>
      <trkpt lat="47.25876" lon="-2.34161">
        <ele>117</ele>
        <time>2019-12-22T08:17:17.000Z</time>
      </trkpt>
      <trkpt lat="47.25882" lon="-2.34156">
        <ele>117</ele>
        <time>2019-12-22T08:17:19.000Z</time>
      </trkpt>
      <trkpt lat="47.25893" lon="-2.34147">
        <ele>117</ele>
        <time>2019-12-22T08:17:22.000Z</time>
      </trkpt>
      <trkpt lat="47.25904" lon="-2.34141">
        <ele>117</ele>
        <time>2019-12-22T08:17:25.000Z</time>
      </trkpt>
      <trkpt lat="47.25912" lon="-2.34136">
        <ele>117</ele>
        <time>2019-12-22T08:17:27.000Z</time>
      </trkpt>
      <trkpt lat="47.25931" lon="-2.34124">
        <ele>117</ele>
        <time>2019-12-22T08:17:32.000Z</time>
      </trkpt>
      <trkpt lat="47.25939" lon="-2.3412">
        <ele>117</ele>
        <time>2019-12-22T08:17:34.000Z</time>
      </trkpt>
      <trkpt lat="47.25953" lon="-2.3411">
        <ele>117</ele>
        <time>2019-12-22T08:17:38.000Z</time>
      </trkpt>
      <trkpt lat="47.25973" lon="-2.34111">
        <ele>117</ele>
        <time>2019-12-22T08:17:43.000Z</time>
      </trkpt>
      <trkpt lat="47.25992" lon="-2.34111">
        <ele>117</ele>
        <time>2019-12-22T08:17:48.000Z</time>
      </trkpt>
      <trkpt lat="47.26011" lon="-2.3412">
        <ele>117</ele>
        <time>2019-12-22T08:17:53.000Z</time>
      </trkpt>
      <trkpt lat="47.26016" lon="-2.34122">
        <ele>117</ele>
        <time>2019-12-22T08:17:54.000Z</time>
      </trkpt>
      <trkpt lat="47.26037" lon="-2.34132">
        <ele>117</ele>
        <time>2019-12-22T08:17:59.000Z</time>
      </trkpt>
      <trkpt lat="47.26041" lon="-2.34134">
        <ele>117</ele>
        <time>2019-12-22T08:18:00.000Z</time>
      </trkpt>
      <trkpt lat="47.26072" lon="-2.34151">
        <ele>117</ele>
        <time>2019-12-22T08:18:08.000Z</time>
      </trkpt>
      <trkpt lat="47.26084" lon="-2.34156">
        <ele>116.59999847412</ele>
        <time>2019-12-22T08:18:11.000Z</time>
      </trkpt>
      <trkpt lat="47.26089" lon="-2.34158">
        <ele>116.19999694824</ele>
        <time>2019-12-22T08:18:12.000Z</time>
      </trkpt>
      <trkpt lat="47.26093" lon="-2.3416">
        <ele>115.59999847412</ele>
        <time>2019-12-22T08:18:13.000Z</time>
      </trkpt>
      <trkpt lat="47.26097" lon="-2.34163">
        <ele>115.19999694824</ele>
        <time>2019-12-22T08:18:14.000Z</time>
      </trkpt>
      <trkpt lat="47.261" lon="-2.34165">
        <ele>114.80000305176</ele>
        <time>2019-12-22T08:18:15.000Z</time>
      </trkpt>
      <trkpt lat="47.26107" lon="-2.34169">
        <ele>114.80000305176</ele>
        <time>2019-12-22T08:18:17.000Z</time>
      </trkpt>
      <trkpt lat="47.26113" lon="-2.34173">
        <ele>114.80000305176</ele>
        <time>2019-12-22T08:18:21.000Z</time>
      </trkpt>
      <trkpt lat="47.26114" lon="-2.34173">
        <ele>114.80000305176</ele>
        <time>2019-12-22T08:18:22.000Z</time>
      </trkpt>
      <trkpt lat="47.26115" lon="-2.34167">
        <ele>114.80000305176</ele>
        <time>2019-12-22T08:18:25.000Z</time>
      </trkpt>
      <trkpt lat="47.26117" lon="-2.34158">
        <ele>114.80000305176</ele>
        <time>2019-12-22T08:18:27.000Z</time>
      </trkpt>
      <trkpt lat="47.26119" lon="-2.34151">
        <ele>114.80000305176</ele>
        <time>2019-12-22T08:18:29.000Z</time>
      </trkpt>
      <trkpt lat="47.26122" lon="-2.34149">
        <ele>114.80000305176</ele>
        <time>2019-12-22T08:18:30.000Z</time>
      </trkpt>
      <trkpt lat="47.26129" lon="-2.3415">
        <ele>114.80000305176</ele>
        <time>2019-12-22T08:18:32.000Z</time>
      </trkpt>
      <trkpt lat="47.26132" lon="-2.34152">
        <ele>115.59999847412</ele>
        <time>2019-12-22T08:18:33.000Z</time>
      </trkpt>
      <trkpt lat="47.26136" lon="-2.34153">
        <ele>116.59999847412</ele>
        <time>2019-12-22T08:18:34.000Z</time>
      </trkpt>
      <trkpt lat="47.2614" lon="-2.34155">
        <ele>117.40000152588</ele>
        <time>2019-12-22T08:18:35.000Z</time>
      </trkpt>
      <trkpt lat="47.26144" lon="-2.34158">
        <ele>118.40000152588</ele>
        <time>2019-12-22T08:18:36.000Z</time>
      </trkpt>
      <trkpt lat="47.26148" lon="-2.34161">
        <ele>118</ele>
        <time>2019-12-22T08:18:37.000Z</time>
      </trkpt>
      <trkpt lat="47.26151" lon="-2.34166">
        <ele>117.80000305176</ele>
        <time>2019-12-22T08:18:38.000Z</time>
      </trkpt>
      <trkpt lat="47.26155" lon="-2.3417">
        <ele>117.40000152588</ele>
        <time>2019-12-22T08:18:39.000Z</time>
      </trkpt>
      <trkpt lat="47.26158" lon="-2.34174">
        <ele>117</ele>
        <time>2019-12-22T08:18:40.000Z</time>
      </trkpt>
      <trkpt lat="47.26162" lon="-2.34178">
        <ele>116.80000305176</ele>
        <time>2019-12-22T08:18:41.000Z</time>
      </trkpt>
      <trkpt lat="47.26169" lon="-2.34185">
        <ele>116.80000305176</ele>
        <time>2019-12-22T08:18:43.000Z</time>
      </trkpt>
      <trkpt lat="47.26188" lon="-2.34204">
        <ele>117.19999694824</ele>
        <time>2019-12-22T08:18:48.000Z</time>
      </trkpt>
      <trkpt lat="47.26192" lon="-2.34208">
        <ele>117.80000305176</ele>
        <time>2019-12-22T08:18:49.000Z</time>
      </trkpt>
      <trkpt lat="47.26195" lon="-2.34212">
        <ele>118.40000152588</ele>
        <time>2019-12-22T08:18:50.000Z</time>
      </trkpt>
      <trkpt lat="47.26199" lon="-2.34216">
        <ele>119.40000152588</ele>
        <time>2019-12-22T08:18:51.000Z</time>
      </trkpt>
      <trkpt lat="47.26226" lon="-2.34242">
        <ele>118.80000305176</ele>
        <time>2019-12-22T08:18:58.000Z</time>
      </trkpt>
      <trkpt lat="47.2623" lon="-2.34246">
        <ele>118.40000152588</ele>
        <time>2019-12-22T08:18:59.000Z</time>
      </trkpt>
      <trkpt lat="47.26234" lon="-2.3425">
        <ele>118</ele>
        <time>2019-12-22T08:19:00.000Z</time>
      </trkpt>
      <trkpt lat="47.26238" lon="-2.34254">
        <ele>117.59999847412</ele>
        <time>2019-12-22T08:19:01.000Z</time>
      </trkpt>
      <trkpt lat="47.26242" lon="-2.34258">
        <ele>117</ele>
        <time>2019-12-22T08:19:02.000Z</time>
      </trkpt>
      <trkpt lat="47.26252" lon="-2.34269">
        <ele>117</ele>
        <time>2019-12-22T08:19:05.000Z</time>
      </trkpt>
      <trkpt lat="47.26259" lon="-2.34277">
        <ele>117</ele>
        <time>2019-12-22T08:19:07.000Z</time>
      </trkpt>
      <trkpt lat="47.26271" lon="-2.34289">
        <ele>117</ele>
        <time>2019-12-22T08:19:10.000Z</time>
      </trkpt>
      <trkpt lat="47.26274" lon="-2.34293">
        <ele>117</ele>
        <time>2019-12-22T08:19:11.000Z</time>
      </trkpt>
      <trkpt lat="47.26297" lon="-2.34316">
        <ele>117</ele>
        <time>2019-12-22T08:19:17.000Z</time>
      </trkpt>
      <trkpt lat="47.26323" lon="-2.34341">
        <ele>117</ele>
        <time>2019-12-22T08:19:24.000Z</time>
      </trkpt>
      <trkpt lat="47.26332" lon="-2.34346">
        <ele>117</ele>
        <time>2019-12-22T08:19:26.000Z</time>
      </trkpt>
      <trkpt lat="47.2634" lon="-2.34352">
        <ele>117</ele>
        <time>2019-12-22T08:19:28.000Z</time>
      </trkpt>
      <trkpt lat="47.26343" lon="-2.34356">
        <ele>117.59999847412</ele>
        <time>2019-12-22T08:19:29.000Z</time>
      </trkpt>
      <trkpt lat="47.26347" lon="-2.34361">
        <ele>118</ele>
        <time>2019-12-22T08:19:30.000Z</time>
      </trkpt>
      <trkpt lat="47.26351" lon="-2.34366">
        <ele>118.40000152588</ele>
        <time>2019-12-22T08:19:31.000Z</time>
      </trkpt>
      <trkpt lat="47.26355" lon="-2.34369">
        <ele>119</ele>
        <time>2019-12-22T08:19:32.000Z</time>
      </trkpt>
      <trkpt lat="47.26359" lon="-2.34372">
        <ele>119.40000152588</ele>
        <time>2019-12-22T08:19:33.000Z</time>
      </trkpt>
      <trkpt lat="47.26366" lon="-2.34379">
        <ele>119.40000152588</ele>
        <time>2019-12-22T08:19:35.000Z</time>
      </trkpt>
      <trkpt lat="47.26381" lon="-2.34392">
        <ele>119</ele>
        <time>2019-12-22T08:19:39.000Z</time>
      </trkpt>
      <trkpt lat="47.26385" lon="-2.34395">
        <ele>118.19999694824</ele>
        <time>2019-12-22T08:19:40.000Z</time>
      </trkpt>
      <trkpt lat="47.26389" lon="-2.34398">
        <ele>117.80000305176</ele>
        <time>2019-12-22T08:19:41.000Z</time>
      </trkpt>
      <trkpt lat="47.26393" lon="-2.34401">
        <ele>117.40000152588</ele>
        <time>2019-12-22T08:19:42.000Z</time>
      </trkpt>
      <trkpt lat="47.26401" lon="-2.34407">
        <ele>116.80000305176</ele>
        <time>2019-12-22T08:19:44.000Z</time>
      </trkpt>
      <trkpt lat="47.26405" lon="-2.34411">
        <ele>116.40000152588</ele>
        <time>2019-12-22T08:19:45.000Z</time>
      </trkpt>
      <trkpt lat="47.26409" lon="-2.34414">
        <ele>116</ele>
        <time>2019-12-22T08:19:46.000Z</time>
      </trkpt>
      <trkpt lat="47.26412" lon="-2.34417">
        <ele>115.40000152588</ele>
        <time>2019-12-22T08:19:47.000Z</time>
      </trkpt>
      <trkpt lat="47.26416" lon="-2.3442">
        <ele>115</ele>
        <time>2019-12-22T08:19:48.000Z</time>
      </trkpt>
      <trkpt lat="47.26444" lon="-2.34444">
        <ele>115</ele>
        <time>2019-12-22T08:19:55.000Z</time>
      </trkpt>
      <trkpt lat="47.2646" lon="-2.34457">
        <ele>115.59999847412</ele>
        <time>2019-12-22T08:19:59.000Z</time>
      </trkpt>
      <trkpt lat="47.26464" lon="-2.34459">
        <ele>116.19999694824</ele>
        <time>2019-12-22T08:20:00.000Z</time>
      </trkpt>
      <trkpt lat="47.26468" lon="-2.34462">
        <ele>117.19999694824</ele>
        <time>2019-12-22T08:20:01.000Z</time>
      </trkpt>
      <trkpt lat="47.26472" lon="-2.34465">
        <ele>118</ele>
        <time>2019-12-22T08:20:02.000Z</time>
      </trkpt>
      <trkpt lat="47.26475" lon="-2.34467">
        <ele>119</ele>
        <time>2019-12-22T08:20:03.000Z</time>
      </trkpt>
      <trkpt lat="47.26479" lon="-2.3447">
        <ele>120</ele>
        <time>2019-12-22T08:20:04.000Z</time>
      </trkpt>
      <trkpt lat="47.26482" lon="-2.34473">
        <ele>120.80000305176</ele>
        <time>2019-12-22T08:20:05.000Z</time>
      </trkpt>
      <trkpt lat="47.26489" lon="-2.34479">
        <ele>120.19999694824</ele>
        <time>2019-12-22T08:20:07.000Z</time>
      </trkpt>
      <trkpt lat="47.26493" lon="-2.34481">
        <ele>119.80000305176</ele>
        <time>2019-12-22T08:20:08.000Z</time>
      </trkpt>
      <trkpt lat="47.26497" lon="-2.34484">
        <ele>119</ele>
        <time>2019-12-22T08:20:09.000Z</time>
      </trkpt>
      <trkpt lat="47.26501" lon="-2.34487">
        <ele>118.19999694824</ele>
        <time>2019-12-22T08:20:10.000Z</time>
      </trkpt>
      <trkpt lat="47.26506" lon="-2.3449">
        <ele>117.40000152588</ele>
        <time>2019-12-22T08:20:11.000Z</time>
      </trkpt>
      <trkpt lat="47.26511" lon="-2.34492">
        <ele>116.59999847412</ele>
        <time>2019-12-22T08:20:12.000Z</time>
      </trkpt>
      <trkpt lat="47.26516" lon="-2.34495">
        <ele>116</ele>
        <time>2019-12-22T08:20:13.000Z</time>
      </trkpt>
      <trkpt lat="47.2652" lon="-2.34498">
        <ele>115.19999694824</ele>
        <time>2019-12-22T08:20:14.000Z</time>
      </trkpt>
      <trkpt lat="47.26525" lon="-2.34501">
        <ele>114.40000152588</ele>
        <time>2019-12-22T08:20:15.000Z</time>
      </trkpt>
      <trkpt lat="47.26529" lon="-2.34503">
        <ele>113.59999847412</ele>
        <time>2019-12-22T08:20:16.000Z</time>
      </trkpt>
      <trkpt lat="47.26533" lon="-2.34506">
        <ele>113.59999847412</ele>
        <time>2019-12-22T08:20:17.000Z</time>
      </trkpt>
      <trkpt lat="47.26537" lon="-2.34509">
        <ele>114.19999694824</ele>
        <time>2019-12-22T08:20:18.000Z</time>
      </trkpt>
      <trkpt lat="47.26541" lon="-2.34512">
        <ele>114.59999847412</ele>
        <time>2019-12-22T08:20:19.000Z</time>
      </trkpt>
      <trkpt lat="47.26544" lon="-2.34516">
        <ele>115.40000152588</ele>
        <time>2019-12-22T08:20:20.000Z</time>
      </trkpt>
      <trkpt lat="47.26547" lon="-2.34521">
        <ele>116</ele>
        <time>2019-12-22T08:20:21.000Z</time>
      </trkpt>
      <trkpt lat="47.2655" lon="-2.34526">
        <ele>116.80000305176</ele>
        <time>2019-12-22T08:20:22.000Z</time>
      </trkpt>
      <trkpt lat="47.26554" lon="-2.3453">
        <ele>117.40000152588</ele>
        <time>2019-12-22T08:20:23.000Z</time>
      </trkpt>
      <trkpt lat="47.26558" lon="-2.34534">
        <ele>118.19999694824</ele>
        <time>2019-12-22T08:20:24.000Z</time>
      </trkpt>
      <trkpt lat="47.26565" lon="-2.34542">
        <ele>118.19999694824</ele>
        <time>2019-12-22T08:20:26.000Z</time>
      </trkpt>
      <trkpt lat="47.26595" lon="-2.34575">
        <ele>118.19999694824</ele>
        <time>2019-12-22T08:20:34.000Z</time>
      </trkpt>
      <trkpt lat="47.26598" lon="-2.34579">
        <ele>117.80000305176</ele>
        <time>2019-12-22T08:20:35.000Z</time>
      </trkpt>
      <trkpt lat="47.26602" lon="-2.34583">
        <ele>117.40000152588</ele>
        <time>2019-12-22T08:20:36.000Z</time>
      </trkpt>
      <trkpt lat="47.26606" lon="-2.34587">
        <ele>117</ele>
        <time>2019-12-22T08:20:37.000Z</time>
      </trkpt>
      <trkpt lat="47.2661" lon="-2.34592">
        <ele>116.40000152588</ele>
        <time>2019-12-22T08:20:38.000Z</time>
      </trkpt>
      <trkpt lat="47.26613" lon="-2.34596">
        <ele>116</ele>
        <time>2019-12-22T08:20:39.000Z</time>
      </trkpt>
      <trkpt lat="47.2662" lon="-2.34604">
        <ele>116</ele>
        <time>2019-12-22T08:20:41.000Z</time>
      </trkpt>
      <trkpt lat="47.26644" lon="-2.34634">
        <ele>116</ele>
        <time>2019-12-22T08:20:48.000Z</time>
      </trkpt>
      <trkpt lat="47.26672" lon="-2.34667">
        <ele>116</ele>
        <time>2019-12-22T08:20:56.000Z</time>
      </trkpt>
      <trkpt lat="47.26701" lon="-2.34702">
        <ele>116</ele>
        <time>2019-12-22T08:21:04.000Z</time>
      </trkpt>
      <trkpt lat="47.26708" lon="-2.34711">
        <ele>116</ele>
        <time>2019-12-22T08:21:06.000Z</time>
      </trkpt>
      <trkpt lat="47.26727" lon="-2.34732">
        <ele>116</ele>
        <time>2019-12-22T08:21:11.000Z</time>
      </trkpt>
      <trkpt lat="47.26751" lon="-2.34766">
        <ele>116</ele>
        <time>2019-12-22T08:21:18.000Z</time>
      </trkpt>
      <trkpt lat="47.26758" lon="-2.34775">
        <ele>116.59999847412</ele>
        <time>2019-12-22T08:21:20.000Z</time>
      </trkpt>
      <trkpt lat="47.26761" lon="-2.34779">
        <ele>117</ele>
        <time>2019-12-22T08:21:21.000Z</time>
      </trkpt>
      <trkpt lat="47.26765" lon="-2.34782">
        <ele>117.59999847412</ele>
        <time>2019-12-22T08:21:22.000Z</time>
      </trkpt>
      <trkpt lat="47.26768" lon="-2.34786">
        <ele>118</ele>
        <time>2019-12-22T08:21:23.000Z</time>
      </trkpt>
      <trkpt lat="47.26772" lon="-2.3479">
        <ele>118.59999847412</ele>
        <time>2019-12-22T08:21:24.000Z</time>
      </trkpt>
      <trkpt lat="47.26778" lon="-2.34798">
        <ele>118.59999847412</ele>
        <time>2019-12-22T08:21:26.000Z</time>
      </trkpt>
      <trkpt lat="47.26794" lon="-2.34823">
        <ele>118.59999847412</ele>
        <time>2019-12-22T08:21:31.000Z</time>
      </trkpt>
      <trkpt lat="47.26816" lon="-2.34854">
        <ele>118.59999847412</ele>
        <time>2019-12-22T08:21:38.000Z</time>
      </trkpt>
      <trkpt lat="47.26823" lon="-2.34863">
        <ele>118.19999694824</ele>
        <time>2019-12-22T08:21:40.000Z</time>
      </trkpt>
      <trkpt lat="47.26826" lon="-2.34868">
        <ele>117.80000305176</ele>
        <time>2019-12-22T08:21:41.000Z</time>
      </trkpt>
      <trkpt lat="47.2683" lon="-2.34873">
        <ele>117.40000152588</ele>
        <time>2019-12-22T08:21:42.000Z</time>
      </trkpt>
      <trkpt lat="47.26833" lon="-2.34878">
        <ele>117</ele>
        <time>2019-12-22T08:21:43.000Z</time>
      </trkpt>
      <trkpt lat="47.26837" lon="-2.34882">
        <ele>116.59999847412</ele>
        <time>2019-12-22T08:21:44.000Z</time>
      </trkpt>
      <trkpt lat="47.26843" lon="-2.34892">
        <ele>116.59999847412</ele>
        <time>2019-12-22T08:21:46.000Z</time>
      </trkpt>
      <trkpt lat="47.26864" lon="-2.34925">
        <ele>116.59999847412</ele>
        <time>2019-12-22T08:21:53.000Z</time>
      </trkpt>
      <trkpt lat="47.26885" lon="-2.34958">
        <ele>116.59999847412</ele>
        <time>2019-12-22T08:22:00.000Z</time>
      </trkpt>
      <trkpt lat="47.26888" lon="-2.34963">
        <ele>116.59999847412</ele>
        <time>2019-12-22T08:22:01.000Z</time>
      </trkpt>
      <trkpt lat="47.26917" lon="-2.35006">
        <ele>116.59999847412</ele>
        <time>2019-12-22T08:22:10.000Z</time>
      </trkpt>
      <trkpt lat="47.2693" lon="-2.35025">
        <ele>117</ele>
        <time>2019-12-22T08:22:14.000Z</time>
      </trkpt>
      <trkpt lat="47.26933" lon="-2.3503">
        <ele>117.40000152588</ele>
        <time>2019-12-22T08:22:15.000Z</time>
      </trkpt>
      <trkpt lat="47.26936" lon="-2.35035">
        <ele>117.80000305176</ele>
        <time>2019-12-22T08:22:16.000Z</time>
      </trkpt>
      <trkpt lat="47.26939" lon="-2.3504">
        <ele>118.19999694824</ele>
        <time>2019-12-22T08:22:17.000Z</time>
      </trkpt>
      <trkpt lat="47.26942" lon="-2.35046">
        <ele>118.59999847412</ele>
        <time>2019-12-22T08:22:18.000Z</time>
      </trkpt>
      <trkpt lat="47.26951" lon="-2.3506">
        <ele>118.59999847412</ele>
        <time>2019-12-22T08:22:21.000Z</time>
      </trkpt>
      <trkpt lat="47.26961" lon="-2.35075">
        <ele>118.59999847412</ele>
        <time>2019-12-22T08:22:24.000Z</time>
      </trkpt>
      <trkpt lat="47.26976" lon="-2.35098">
        <ele>118.59999847412</ele>
        <time>2019-12-22T08:22:29.000Z</time>
      </trkpt>
      <trkpt lat="47.26979" lon="-2.35103">
        <ele>118.59999847412</ele>
        <time>2019-12-22T08:22:30.000Z</time>
      </trkpt>
      <trkpt lat="47.2699" lon="-2.3512">
        <ele>118.59999847412</ele>
        <time>2019-12-22T08:22:34.000Z</time>
      </trkpt>
      <trkpt lat="47.26999" lon="-2.35133">
        <ele>118.19999694824</ele>
        <time>2019-12-22T08:22:37.000Z</time>
      </trkpt>
      <trkpt lat="47.27002" lon="-2.35137">
        <ele>117.80000305176</ele>
        <time>2019-12-22T08:22:38.000Z</time>
      </trkpt>
      <trkpt lat="47.27005" lon="-2.35142">
        <ele>117.40000152588</ele>
        <time>2019-12-22T08:22:39.000Z</time>
      </trkpt>
      <trkpt lat="47.27008" lon="-2.35147">
        <ele>117</ele>
        <time>2019-12-22T08:22:40.000Z</time>
      </trkpt>
      <trkpt lat="47.27011" lon="-2.35151">
        <ele>116.59999847412</ele>
        <time>2019-12-22T08:22:41.000Z</time>
      </trkpt>
      <trkpt lat="47.27017" lon="-2.35161">
        <ele>116.59999847412</ele>
        <time>2019-12-22T08:22:43.000Z</time>
      </trkpt>
      <trkpt lat="47.27043" lon="-2.352">
        <ele>116.59999847412</ele>
        <time>2019-12-22T08:22:51.000Z</time>
      </trkpt>
      <trkpt lat="47.27065" lon="-2.35233">
        <ele>116.59999847412</ele>
        <time>2019-12-22T08:22:58.000Z</time>
      </trkpt>
      <trkpt lat="47.27091" lon="-2.35272">
        <ele>116.59999847412</ele>
        <time>2019-12-22T08:23:06.000Z</time>
      </trkpt>
      <trkpt lat="47.27109" lon="-2.35302">
        <ele>117</ele>
        <time>2019-12-22T08:23:12.000Z</time>
      </trkpt>
      <trkpt lat="47.27111" lon="-2.35307">
        <ele>117.40000152588</ele>
        <time>2019-12-22T08:23:13.000Z</time>
      </trkpt>
      <trkpt lat="47.27114" lon="-2.3531">
        <ele>117.80000305176</ele>
        <time>2019-12-22T08:23:14.000Z</time>
      </trkpt>
      <trkpt lat="47.27116" lon="-2.35314">
        <ele>118.19999694824</ele>
        <time>2019-12-22T08:23:15.000Z</time>
      </trkpt>
      <trkpt lat="47.27119" lon="-2.35317">
        <ele>118.59999847412</ele>
        <time>2019-12-22T08:23:16.000Z</time>
      </trkpt>
      <trkpt lat="47.27125" lon="-2.35329">
        <ele>118.59999847412</ele>
        <time>2019-12-22T08:23:20.000Z</time>
      </trkpt>
      <trkpt lat="47.2713" lon="-2.35335">
        <ele>118.59999847412</ele>
        <time>2019-12-22T08:23:24.000Z</time>
      </trkpt>
      <trkpt lat="47.27132" lon="-2.35337">
        <ele>118.59999847412</ele>
        <time>2019-12-22T08:23:25.000Z</time>
      </trkpt>
      <trkpt lat="47.27139" lon="-2.35348">
        <ele>118.59999847412</ele>
        <time>2019-12-22T08:23:32.000Z</time>
      </trkpt>
      <trkpt lat="47.27138" lon="-2.35347">
        <ele>118.59999847412</ele>
        <time>2019-12-22T08:23:33.000Z</time>
      </trkpt>
      <trkpt lat="47.27141" lon="-2.35352">
        <ele>118.59999847412</ele>
        <time>2019-12-22T08:23:42.000Z</time>
      </trkpt>
      <trkpt lat="47.27142" lon="-2.35354">
        <ele>118.59999847412</ele>
        <time>2019-12-22T08:23:43.000Z</time>
      </trkpt>
      <trkpt lat="47.27151" lon="-2.3537">
        <ele>118.59999847412</ele>
        <time>2019-12-22T08:23:48.000Z</time>
      </trkpt>
      <trkpt lat="47.27163" lon="-2.35394">
        <ele>118.59999847412</ele>
        <time>2019-12-22T08:23:54.000Z</time>
      </trkpt>
      <trkpt lat="47.27168" lon="-2.35407">
        <ele>119</ele>
        <time>2019-12-22T08:23:57.000Z</time>
      </trkpt>
      <trkpt lat="47.2717" lon="-2.35411">
        <ele>119.40000152588</ele>
        <time>2019-12-22T08:23:58.000Z</time>
      </trkpt>
      <trkpt lat="47.27173" lon="-2.35415">
        <ele>119.80000305176</ele>
        <time>2019-12-22T08:23:59.000Z</time>
      </trkpt>
      <trkpt lat="47.27175" lon="-2.35419">
        <ele>120.19999694824</ele>
        <time>2019-12-22T08:24:00.000Z</time>
      </trkpt>
      <trkpt lat="47.27178" lon="-2.35423">
        <ele>120.59999847412</ele>
        <time>2019-12-22T08:24:01.000Z</time>
      </trkpt>
      <trkpt lat="47.27193" lon="-2.35449">
        <ele>120.59999847412</ele>
        <time>2019-12-22T08:24:07.000Z</time>
      </trkpt>
      <trkpt lat="47.27201" lon="-2.35462">
        <ele>120.59999847412</ele>
        <time>2019-12-22T08:24:10.000Z</time>
      </trkpt>
      <trkpt lat="47.27206" lon="-2.35472">
        <ele>120.59999847412</ele>
        <time>2019-12-22T08:24:12.000Z</time>
      </trkpt>
      <trkpt lat="47.27223" lon="-2.35508">
        <ele>120.59999847412</ele>
        <time>2019-12-22T08:24:19.000Z</time>
      </trkpt>
      <trkpt lat="47.27225" lon="-2.35513">
        <ele>120.19999694824</ele>
        <time>2019-12-22T08:24:20.000Z</time>
      </trkpt>
      <trkpt lat="47.27227" lon="-2.35518">
        <ele>119.80000305176</ele>
        <time>2019-12-22T08:24:21.000Z</time>
      </trkpt>
      <trkpt lat="47.2723" lon="-2.35523">
        <ele>119.19999694824</ele>
        <time>2019-12-22T08:24:22.000Z</time>
      </trkpt>
      <trkpt lat="47.27232" lon="-2.35528">
        <ele>118.80000305176</ele>
        <time>2019-12-22T08:24:23.000Z</time>
      </trkpt>
      <trkpt lat="47.27234" lon="-2.35534">
        <ele>118.40000152588</ele>
        <time>2019-12-22T08:24:24.000Z</time>
      </trkpt>
      <trkpt lat="47.27245" lon="-2.35553">
        <ele>118.40000152588</ele>
        <time>2019-12-22T08:24:28.000Z</time>
      </trkpt>
      <trkpt lat="47.27247" lon="-2.35559">
        <ele>118.40000152588</ele>
        <time>2019-12-22T08:24:29.000Z</time>
      </trkpt>
      <trkpt lat="47.27259" lon="-2.35587">
        <ele>118.40000152588</ele>
        <time>2019-12-22T08:24:34.000Z</time>
      </trkpt>
      <trkpt lat="47.27282" lon="-2.35637">
        <ele>118.40000152588</ele>
        <time>2019-12-22T08:24:43.000Z</time>
      </trkpt>
      <trkpt lat="47.273" lon="-2.35677">
        <ele>118.40000152588</ele>
        <time>2019-12-22T08:24:50.000Z</time>
      </trkpt>
      <trkpt lat="47.27321" lon="-2.35719">
        <ele>118.40000152588</ele>
        <time>2019-12-22T08:24:57.000Z</time>
      </trkpt>
      <trkpt lat="47.27326" lon="-2.35732">
        <ele>118.40000152588</ele>
        <time>2019-12-22T08:24:59.000Z</time>
      </trkpt>
      <trkpt lat="47.27332" lon="-2.35753">
        <ele>118.40000152588</ele>
        <time>2019-12-22T08:25:02.000Z</time>
      </trkpt>
      <trkpt lat="47.27334" lon="-2.35759">
        <ele>118.40000152588</ele>
        <time>2019-12-22T08:25:03.000Z</time>
      </trkpt>
      <trkpt lat="47.27346" lon="-2.35797">
        <ele>118.40000152588</ele>
        <time>2019-12-22T08:25:09.000Z</time>
      </trkpt>
      <trkpt lat="47.2736" lon="-2.35832">
        <ele>118.80000305176</ele>
        <time>2019-12-22T08:25:15.000Z</time>
      </trkpt>
      <trkpt lat="47.27362" lon="-2.35838">
        <ele>119.19999694824</ele>
        <time>2019-12-22T08:25:16.000Z</time>
      </trkpt>
      <trkpt lat="47.27364" lon="-2.35843">
        <ele>119.59999847412</ele>
        <time>2019-12-22T08:25:17.000Z</time>
      </trkpt>
      <trkpt lat="47.27367" lon="-2.35849">
        <ele>120</ele>
        <time>2019-12-22T08:25:18.000Z</time>
      </trkpt>
      <trkpt lat="47.27369" lon="-2.35855">
        <ele>120.59999847412</ele>
        <time>2019-12-22T08:25:19.000Z</time>
      </trkpt>
      <trkpt lat="47.27372" lon="-2.3586">
        <ele>120.59999847412</ele>
        <time>2019-12-22T08:25:20.000Z</time>
      </trkpt>
      <trkpt lat="47.27378" lon="-2.35877">
        <ele>120</ele>
        <time>2019-12-22T08:25:23.000Z</time>
      </trkpt>
      <trkpt lat="47.27381" lon="-2.35882">
        <ele>119.59999847412</ele>
        <time>2019-12-22T08:25:24.000Z</time>
      </trkpt>
      <trkpt lat="47.27383" lon="-2.35887">
        <ele>119.19999694824</ele>
        <time>2019-12-22T08:25:25.000Z</time>
      </trkpt>
      <trkpt lat="47.27385" lon="-2.35893">
        <ele>118.40000152588</ele>
        <time>2019-12-22T08:25:26.000Z</time>
      </trkpt>
      <trkpt lat="47.27392" lon="-2.3591">
        <ele>118.40000152588</ele>
        <time>2019-12-22T08:25:29.000Z</time>
      </trkpt>
      <trkpt lat="47.27396" lon="-2.35922">
        <ele>118.40000152588</ele>
        <time>2019-12-22T08:25:31.000Z</time>
      </trkpt>
      <trkpt lat="47.27413" lon="-2.35962">
        <ele>118.40000152588</ele>
        <time>2019-12-22T08:25:38.000Z</time>
      </trkpt>
      <trkpt lat="47.27429" lon="-2.36003">
        <ele>118.40000152588</ele>
        <time>2019-12-22T08:25:45.000Z</time>
      </trkpt>
      <trkpt lat="47.27449" lon="-2.36047">
        <ele>118.40000152588</ele>
        <time>2019-12-22T08:25:53.000Z</time>
      </trkpt>
      <trkpt lat="47.27454" lon="-2.36058">
        <ele>119</ele>
        <time>2019-12-22T08:25:55.000Z</time>
      </trkpt>
      <trkpt lat="47.27457" lon="-2.36063">
        <ele>119.40000152588</ele>
        <time>2019-12-22T08:25:56.000Z</time>
      </trkpt>
      <trkpt lat="47.2746" lon="-2.36069">
        <ele>119.80000305176</ele>
        <time>2019-12-22T08:25:57.000Z</time>
      </trkpt>
      <trkpt lat="47.27462" lon="-2.36075">
        <ele>120.19999694824</ele>
        <time>2019-12-22T08:25:58.000Z</time>
      </trkpt>
      <trkpt lat="47.27465" lon="-2.3608">
        <ele>120.80000305176</ele>
        <time>2019-12-22T08:25:59.000Z</time>
      </trkpt>
      <trkpt lat="47.27467" lon="-2.36086">
        <ele>120.80000305176</ele>
        <time>2019-12-22T08:26:00.000Z</time>
      </trkpt>
      <trkpt lat="47.27468" lon="-2.36093">
        <ele>120.80000305176</ele>
        <time>2019-12-22T08:26:01.000Z</time>
      </trkpt>
      <trkpt lat="47.27488" lon="-2.36152">
        <ele>120.80000305176</ele>
        <time>2019-12-22T08:26:10.000Z</time>
      </trkpt>
      <trkpt lat="47.27506" lon="-2.362">
        <ele>120.80000305176</ele>
        <time>2019-12-22T08:26:18.000Z</time>
      </trkpt>
      <trkpt lat="47.27525" lon="-2.36247">
        <ele>120.80000305176</ele>
        <time>2019-12-22T08:26:26.000Z</time>
      </trkpt>
      <trkpt lat="47.27541" lon="-2.3629">
        <ele>120.80000305176</ele>
        <time>2019-12-22T08:26:33.000Z</time>
      </trkpt>
      <trkpt lat="47.27557" lon="-2.36331">
        <ele>120.80000305176</ele>
        <time>2019-12-22T08:26:40.000Z</time>
      </trkpt>
      <trkpt lat="47.27572" lon="-2.36371">
        <ele>120.80000305176</ele>
        <time>2019-12-22T08:26:47.000Z</time>
      </trkpt>
      <trkpt lat="47.27589" lon="-2.36419">
        <ele>120.80000305176</ele>
        <time>2019-12-22T08:26:55.000Z</time>
      </trkpt>
      <trkpt lat="47.27604" lon="-2.36459">
        <ele>120.80000305176</ele>
        <time>2019-12-22T08:27:02.000Z</time>
      </trkpt>
      <trkpt lat="47.27621" lon="-2.36505">
        <ele>120.80000305176</ele>
        <time>2019-12-22T08:27:10.000Z</time>
      </trkpt>
      <trkpt lat="47.27636" lon="-2.36546">
        <ele>120.80000305176</ele>
        <time>2019-12-22T08:27:17.000Z</time>
      </trkpt>
      <trkpt lat="47.27648" lon="-2.36582">
        <ele>120.80000305176</ele>
        <time>2019-12-22T08:27:23.000Z</time>
      </trkpt>
      <trkpt lat="47.27663" lon="-2.36625">
        <ele>120.80000305176</ele>
        <time>2019-12-22T08:27:30.000Z</time>
      </trkpt>
      <trkpt lat="47.27678" lon="-2.3667">
        <ele>120.80000305176</ele>
        <time>2019-12-22T08:27:37.000Z</time>
      </trkpt>
      <trkpt lat="47.27696" lon="-2.36724">
        <ele>120.80000305176</ele>
        <time>2019-12-22T08:27:46.000Z</time>
      </trkpt>
      <trkpt lat="47.27708" lon="-2.36759">
        <ele>120.80000305176</ele>
        <time>2019-12-22T08:27:52.000Z</time>
      </trkpt>
      <trkpt lat="47.2772" lon="-2.36796">
        <ele>120.80000305176</ele>
        <time>2019-12-22T08:27:58.000Z</time>
      </trkpt>
      <trkpt lat="47.27722" lon="-2.36802">
        <ele>120.80000305176</ele>
        <time>2019-12-22T08:27:59.000Z</time>
      </trkpt>
      <trkpt lat="47.27728" lon="-2.3682">
        <ele>120.80000305176</ele>
        <time>2019-12-22T08:28:02.000Z</time>
      </trkpt>
      <trkpt lat="47.27733" lon="-2.36839">
        <ele>120.80000305176</ele>
        <time>2019-12-22T08:28:05.000Z</time>
      </trkpt>
      <trkpt lat="47.27748" lon="-2.36891">
        <ele>120.80000305176</ele>
        <time>2019-12-22T08:28:13.000Z</time>
      </trkpt>
      <trkpt lat="47.27764" lon="-2.36942">
        <ele>120.80000305176</ele>
        <time>2019-12-22T08:28:21.000Z</time>
      </trkpt>
      <trkpt lat="47.27772" lon="-2.36974">
        <ele>120.80000305176</ele>
        <time>2019-12-22T08:28:26.000Z</time>
      </trkpt>
      <trkpt lat="47.27776" lon="-2.36987">
        <ele>120.80000305176</ele>
        <time>2019-12-22T08:28:28.000Z</time>
      </trkpt>
      <trkpt lat="47.27791" lon="-2.37042">
        <ele>120.80000305176</ele>
        <time>2019-12-22T08:28:37.000Z</time>
      </trkpt>
      <trkpt lat="47.27799" lon="-2.37073">
        <ele>120.80000305176</ele>
        <time>2019-12-22T08:28:42.000Z</time>
      </trkpt>
      <trkpt lat="47.27801" lon="-2.37079">
        <ele>120.80000305176</ele>
        <time>2019-12-22T08:28:43.000Z</time>
      </trkpt>
      <trkpt lat="47.27814" lon="-2.37126">
        <ele>120.80000305176</ele>
        <time>2019-12-22T08:28:51.000Z</time>
      </trkpt>
      <trkpt lat="47.27827" lon="-2.37165">
        <ele>120.80000305176</ele>
        <time>2019-12-22T08:28:58.000Z</time>
      </trkpt>
      <trkpt lat="47.27831" lon="-2.37169">
        <ele>120.80000305176</ele>
        <time>2019-12-22T08:28:59.000Z</time>
      </trkpt>
      <trkpt lat="47.27835" lon="-2.37179">
        <ele>120.80000305176</ele>
        <time>2019-12-22T08:29:01.000Z</time>
      </trkpt>
      <trkpt lat="47.27837" lon="-2.37192">
        <ele>120.80000305176</ele>
        <time>2019-12-22T08:29:03.000Z</time>
      </trkpt>
      <trkpt lat="47.27837" lon="-2.37212">
        <ele>120.80000305176</ele>
        <time>2019-12-22T08:29:06.000Z</time>
      </trkpt>
      <trkpt lat="47.2784" lon="-2.37224">
        <ele>120.80000305176</ele>
        <time>2019-12-22T08:29:08.000Z</time>
      </trkpt>
      <trkpt lat="47.27847" lon="-2.37249">
        <ele>120.80000305176</ele>
        <time>2019-12-22T08:29:12.000Z</time>
      </trkpt>
      <trkpt lat="47.2785" lon="-2.37262">
        <ele>120.80000305176</ele>
        <time>2019-12-22T08:29:14.000Z</time>
      </trkpt>
      <trkpt lat="47.27859" lon="-2.37294">
        <ele>120.80000305176</ele>
        <time>2019-12-22T08:29:19.000Z</time>
      </trkpt>
      <trkpt lat="47.27869" lon="-2.37331">
        <ele>120.80000305176</ele>
        <time>2019-12-22T08:29:26.000Z</time>
      </trkpt>
      <trkpt lat="47.2788" lon="-2.37374">
        <ele>120.80000305176</ele>
        <time>2019-12-22T08:29:33.000Z</time>
      </trkpt>
      <trkpt lat="47.27888" lon="-2.37406">
        <ele>120.80000305176</ele>
        <time>2019-12-22T08:29:38.000Z</time>
      </trkpt>
      <trkpt lat="47.27889" lon="-2.37412">
        <ele>120.80000305176</ele>
        <time>2019-12-22T08:29:39.000Z</time>
      </trkpt>
      <trkpt lat="47.27898" lon="-2.37453">
        <ele>120.80000305176</ele>
        <time>2019-12-22T08:29:46.000Z</time>
      </trkpt>
      <trkpt lat="47.27912" lon="-2.37508">
        <ele>120.80000305176</ele>
        <time>2019-12-22T08:29:55.000Z</time>
      </trkpt>
      <trkpt lat="47.27912" lon="-2.37514">
        <ele>120.80000305176</ele>
        <time>2019-12-22T08:29:56.000Z</time>
      </trkpt>
      <trkpt lat="47.27917" lon="-2.37533">
        <ele>120.80000305176</ele>
        <time>2019-12-22T08:30:00.000Z</time>
      </trkpt>
      <trkpt lat="47.27922" lon="-2.37551">
        <ele>120.80000305176</ele>
        <time>2019-12-22T08:30:05.000Z</time>
      </trkpt>
      <trkpt lat="47.27922" lon="-2.37553">
        <ele>120.80000305176</ele>
        <time>2019-12-22T08:30:07.000Z</time>
      </trkpt>
      <trkpt lat="47.27923" lon="-2.37558">
        <ele>118.59999847412</ele>
        <time>2019-12-22T08:33:02.000Z</time>
      </trkpt>
      <trkpt lat="47.27926" lon="-2.37574">
        <ele>118.59999847412</ele>
        <time>2019-12-22T08:33:08.000Z</time>
      </trkpt>
      <trkpt lat="47.27928" lon="-2.37581">
        <ele>119</ele>
        <time>2019-12-22T08:33:10.000Z</time>
      </trkpt>
      <trkpt lat="47.27929" lon="-2.37586">
        <ele>119.59999847412</ele>
        <time>2019-12-22T08:33:11.000Z</time>
      </trkpt>
      <trkpt lat="47.2793" lon="-2.37591">
        <ele>120</ele>
        <time>2019-12-22T08:33:12.000Z</time>
      </trkpt>
      <trkpt lat="47.27931" lon="-2.37598">
        <ele>120.40000152588</ele>
        <time>2019-12-22T08:33:13.000Z</time>
      </trkpt>
      <trkpt lat="47.27933" lon="-2.37605">
        <ele>120.80000305176</ele>
        <time>2019-12-22T08:33:14.000Z</time>
      </trkpt>
      <trkpt lat="47.27943" lon="-2.37644">
        <ele>120.80000305176</ele>
        <time>2019-12-22T08:33:20.000Z</time>
      </trkpt>
      <trkpt lat="47.27953" lon="-2.37692">
        <ele>120.80000305176</ele>
        <time>2019-12-22T08:33:27.000Z</time>
      </trkpt>
      <trkpt lat="47.27955" lon="-2.37705">
        <ele>120.80000305176</ele>
        <time>2019-12-22T08:33:29.000Z</time>
      </trkpt>
      <trkpt lat="47.2796" lon="-2.37723">
        <ele>120.80000305176</ele>
        <time>2019-12-22T08:33:32.000Z</time>
      </trkpt>
      <trkpt lat="47.27972" lon="-2.37765">
        <ele>120.80000305176</ele>
        <time>2019-12-22T08:33:39.000Z</time>
      </trkpt>
      <trkpt lat="47.27984" lon="-2.37801">
        <ele>120.80000305176</ele>
        <time>2019-12-22T08:33:45.000Z</time>
      </trkpt>
      <trkpt lat="47.27985" lon="-2.37827">
        <ele>120.80000305176</ele>
        <time>2019-12-22T08:33:49.000Z</time>
      </trkpt>
      <trkpt lat="47.27987" lon="-2.37834">
        <ele>120.80000305176</ele>
        <time>2019-12-22T08:33:50.000Z</time>
      </trkpt>
      <trkpt lat="47.27993" lon="-2.37873">
        <ele>120.80000305176</ele>
        <time>2019-12-22T08:33:56.000Z</time>
      </trkpt>
      <trkpt lat="47.28" lon="-2.37911">
        <ele>120.80000305176</ele>
        <time>2019-12-22T08:34:02.000Z</time>
      </trkpt>
      <trkpt lat="47.2801" lon="-2.37966">
        <ele>120.80000305176</ele>
        <time>2019-12-22T08:34:11.000Z</time>
      </trkpt>
      <trkpt lat="47.28012" lon="-2.37973">
        <ele>120.80000305176</ele>
        <time>2019-12-22T08:34:12.000Z</time>
      </trkpt>
      <trkpt lat="47.28017" lon="-2.37998">
        <ele>121.19999694824</ele>
        <time>2019-12-22T08:34:16.000Z</time>
      </trkpt>
      <trkpt lat="47.28018" lon="-2.38004">
        <ele>121.59999847412</ele>
        <time>2019-12-22T08:34:17.000Z</time>
      </trkpt>
      <trkpt lat="47.28019" lon="-2.38011">
        <ele>122</ele>
        <time>2019-12-22T08:34:18.000Z</time>
      </trkpt>
      <trkpt lat="47.2802" lon="-2.38018">
        <ele>122.40000152588</ele>
        <time>2019-12-22T08:34:19.000Z</time>
      </trkpt>
      <trkpt lat="47.28021" lon="-2.38023">
        <ele>122.80000305176</ele>
        <time>2019-12-22T08:34:20.000Z</time>
      </trkpt>
      <trkpt lat="47.28026" lon="-2.38047">
        <ele>122.80000305176</ele>
        <time>2019-12-22T08:34:24.000Z</time>
      </trkpt>
      <trkpt lat="47.28028" lon="-2.38053">
        <ele>122.80000305176</ele>
        <time>2019-12-22T08:34:25.000Z</time>
      </trkpt>
      <trkpt lat="47.28031" lon="-2.38064">
        <ele>122.40000152588</ele>
        <time>2019-12-22T08:34:27.000Z</time>
      </trkpt>
      <trkpt lat="47.28032" lon="-2.3807">
        <ele>122</ele>
        <time>2019-12-22T08:34:28.000Z</time>
      </trkpt>
      <trkpt lat="47.28033" lon="-2.38076">
        <ele>121.40000152588</ele>
        <time>2019-12-22T08:34:29.000Z</time>
      </trkpt>
      <trkpt lat="47.28034" lon="-2.38083">
        <ele>120.59999847412</ele>
        <time>2019-12-22T08:34:30.000Z</time>
      </trkpt>
      <trkpt lat="47.28036" lon="-2.38102">
        <ele>120.59999847412</ele>
        <time>2019-12-22T08:34:33.000Z</time>
      </trkpt>
      <trkpt lat="47.28037" lon="-2.38108">
        <ele>121.19999694824</ele>
        <time>2019-12-22T08:34:34.000Z</time>
      </trkpt>
      <trkpt lat="47.28038" lon="-2.38114">
        <ele>121.59999847412</ele>
        <time>2019-12-22T08:34:35.000Z</time>
      </trkpt>
      <trkpt lat="47.28039" lon="-2.3812">
        <ele>122.19999694824</ele>
        <time>2019-12-22T08:34:36.000Z</time>
      </trkpt>
      <trkpt lat="47.2804" lon="-2.38125">
        <ele>122.80000305176</ele>
        <time>2019-12-22T08:34:37.000Z</time>
      </trkpt>
      <trkpt lat="47.28041" lon="-2.38131">
        <ele>123.40000152588</ele>
        <time>2019-12-22T08:34:38.000Z</time>
      </trkpt>
      <trkpt lat="47.28042" lon="-2.38137">
        <ele>123</ele>
        <time>2019-12-22T08:34:39.000Z</time>
      </trkpt>
      <trkpt lat="47.28044" lon="-2.38144">
        <ele>122.59999847412</ele>
        <time>2019-12-22T08:34:40.000Z</time>
      </trkpt>
      <trkpt lat="47.28045" lon="-2.3815">
        <ele>122.19999694824</ele>
        <time>2019-12-22T08:34:41.000Z</time>
      </trkpt>
      <trkpt lat="47.28046" lon="-2.38156">
        <ele>121.80000305176</ele>
        <time>2019-12-22T08:34:42.000Z</time>
      </trkpt>
      <trkpt lat="47.28048" lon="-2.38162">
        <ele>121.40000152588</ele>
        <time>2019-12-22T08:34:43.000Z</time>
      </trkpt>
      <trkpt lat="47.28051" lon="-2.3818">
        <ele>121.40000152588</ele>
        <time>2019-12-22T08:34:46.000Z</time>
      </trkpt>
      <trkpt lat="47.28053" lon="-2.38193">
        <ele>121.40000152588</ele>
        <time>2019-12-22T08:34:48.000Z</time>
      </trkpt>
      <trkpt lat="47.28061" lon="-2.38237">
        <ele>121.40000152588</ele>
        <time>2019-12-22T08:34:55.000Z</time>
      </trkpt>
      <trkpt lat="47.28062" lon="-2.38243">
        <ele>121.40000152588</ele>
        <time>2019-12-22T08:34:56.000Z</time>
      </trkpt>
      <trkpt lat="47.28071" lon="-2.38285">
        <ele>121.40000152588</ele>
        <time>2019-12-22T08:35:03.000Z</time>
      </trkpt>
      <trkpt lat="47.28078" lon="-2.38323">
        <ele>121.40000152588</ele>
        <time>2019-12-22T08:35:09.000Z</time>
      </trkpt>
      <trkpt lat="47.2808" lon="-2.38336">
        <ele>121.40000152588</ele>
        <time>2019-12-22T08:35:11.000Z</time>
      </trkpt>
      <trkpt lat="47.28083" lon="-2.38356">
        <ele>121.40000152588</ele>
        <time>2019-12-22T08:35:14.000Z</time>
      </trkpt>
      <trkpt lat="47.28087" lon="-2.38381">
        <ele>121.40000152588</ele>
        <time>2019-12-22T08:35:18.000Z</time>
      </trkpt>
      <trkpt lat="47.28089" lon="-2.38393">
        <ele>120.59999847412</ele>
        <time>2019-12-22T08:35:20.000Z</time>
      </trkpt>
      <trkpt lat="47.28091" lon="-2.38399">
        <ele>120.19999694824</ele>
        <time>2019-12-22T08:35:21.000Z</time>
      </trkpt>
      <trkpt lat="47.28092" lon="-2.38406">
        <ele>119.59999847412</ele>
        <time>2019-12-22T08:35:22.000Z</time>
      </trkpt>
      <trkpt lat="47.28093" lon="-2.38412">
        <ele>119.19999694824</ele>
        <time>2019-12-22T08:35:23.000Z</time>
      </trkpt>
      <trkpt lat="47.28096" lon="-2.38431">
        <ele>119.19999694824</ele>
        <time>2019-12-22T08:35:26.000Z</time>
      </trkpt>
      <trkpt lat="47.28106" lon="-2.38492">
        <ele>119.19999694824</ele>
        <time>2019-12-22T08:35:36.000Z</time>
      </trkpt>
      <trkpt lat="47.28114" lon="-2.38542">
        <ele>119.19999694824</ele>
        <time>2019-12-22T08:35:44.000Z</time>
      </trkpt>
      <trkpt lat="47.28118" lon="-2.3857">
        <ele>119.19999694824</ele>
        <time>2019-12-22T08:35:50.000Z</time>
      </trkpt>
      <trkpt lat="47.2812" lon="-2.38587">
        <ele>119.19999694824</ele>
        <time>2019-12-22T08:35:57.000Z</time>
      </trkpt>
      <trkpt lat="47.2812" lon="-2.38588">
        <ele>119.19999694824</ele>
        <time>2019-12-22T08:35:58.000Z</time>
      </trkpt>
      <trkpt lat="47.28121" lon="-2.38589">
        <ele>119.19999694824</ele>
        <time>2019-12-22T08:36:17.000Z</time>
      </trkpt>
      <trkpt lat="47.28122" lon="-2.38594">
        <ele>119.19999694824</ele>
        <time>2019-12-22T08:36:19.000Z</time>
      </trkpt>
      <trkpt lat="47.28124" lon="-2.38609">
        <ele>119.19999694824</ele>
        <time>2019-12-22T08:36:22.000Z</time>
      </trkpt>
      <trkpt lat="47.28124" lon="-2.38615">
        <ele>119.19999694824</ele>
        <time>2019-12-22T08:36:23.000Z</time>
      </trkpt>
      <trkpt lat="47.28128" lon="-2.38666">
        <ele>119.19999694824</ele>
        <time>2019-12-22T08:36:31.000Z</time>
      </trkpt>
      <trkpt lat="47.28128" lon="-2.38673">
        <ele>119.80000305176</ele>
        <time>2019-12-22T08:36:32.000Z</time>
      </trkpt>
      <trkpt lat="47.28129" lon="-2.38679">
        <ele>120.59999847412</ele>
        <time>2019-12-22T08:36:33.000Z</time>
      </trkpt>
      <trkpt lat="47.28129" lon="-2.38685">
        <ele>121</ele>
        <time>2019-12-22T08:36:34.000Z</time>
      </trkpt>
      <trkpt lat="47.2813" lon="-2.38692">
        <ele>121.40000152588</ele>
        <time>2019-12-22T08:36:35.000Z</time>
      </trkpt>
      <trkpt lat="47.28132" lon="-2.38712">
        <ele>121.40000152588</ele>
        <time>2019-12-22T08:36:38.000Z</time>
      </trkpt>
      <trkpt lat="47.28133" lon="-2.38724">
        <ele>121</ele>
        <time>2019-12-22T08:36:40.000Z</time>
      </trkpt>
      <trkpt lat="47.28134" lon="-2.38731">
        <ele>120.59999847412</ele>
        <time>2019-12-22T08:36:41.000Z</time>
      </trkpt>
      <trkpt lat="47.28134" lon="-2.38737">
        <ele>120.19999694824</ele>
        <time>2019-12-22T08:36:42.000Z</time>
      </trkpt>
      <trkpt lat="47.28135" lon="-2.38743">
        <ele>119.80000305176</ele>
        <time>2019-12-22T08:36:43.000Z</time>
      </trkpt>
      <trkpt lat="47.28135" lon="-2.38749">
        <ele>119.40000152588</ele>
        <time>2019-12-22T08:36:44.000Z</time>
      </trkpt>
      <trkpt lat="47.28138" lon="-2.38775">
        <ele>119.40000152588</ele>
        <time>2019-12-22T08:36:48.000Z</time>
      </trkpt>
      <trkpt lat="47.28143" lon="-2.38829">
        <ele>119.40000152588</ele>
        <time>2019-12-22T08:36:56.000Z</time>
      </trkpt>
      <trkpt lat="47.2815" lon="-2.38882">
        <ele>119.40000152588</ele>
        <time>2019-12-22T08:37:04.000Z</time>
      </trkpt>
      <trkpt lat="47.2816" lon="-2.38935">
        <ele>119.40000152588</ele>
        <time>2019-12-22T08:37:12.000Z</time>
      </trkpt>
      <trkpt lat="47.28168" lon="-2.38979">
        <ele>119.40000152588</ele>
        <time>2019-12-22T08:37:19.000Z</time>
      </trkpt>
      <trkpt lat="47.28169" lon="-2.38985">
        <ele>119.40000152588</ele>
        <time>2019-12-22T08:37:20.000Z</time>
      </trkpt>
      <trkpt lat="47.28172" lon="-2.3903">
        <ele>119.40000152588</ele>
        <time>2019-12-22T08:37:27.000Z</time>
      </trkpt>
      <trkpt lat="47.28176" lon="-2.39056">
        <ele>119.40000152588</ele>
        <time>2019-12-22T08:37:32.000Z</time>
      </trkpt>
      <trkpt lat="47.28177" lon="-2.39069">
        <ele>119.40000152588</ele>
        <time>2019-12-22T08:37:36.000Z</time>
      </trkpt>
      <trkpt lat="47.28178" lon="-2.39075">
        <ele>119.40000152588</ele>
        <time>2019-12-22T08:37:40.000Z</time>
      </trkpt>
      <trkpt lat="47.28179" lon="-2.3908">
        <ele>119.40000152588</ele>
        <time>2019-12-22T08:37:47.000Z</time>
      </trkpt>
      <trkpt lat="47.2818" lon="-2.39099">
        <ele>119.40000152588</ele>
        <time>2019-12-22T08:37:51.000Z</time>
      </trkpt>
      <trkpt lat="47.28181" lon="-2.39127">
        <ele>119.40000152588</ele>
        <time>2019-12-22T08:37:56.000Z</time>
      </trkpt>
      <trkpt lat="47.28182" lon="-2.39159">
        <ele>119.40000152588</ele>
        <time>2019-12-22T08:38:01.000Z</time>
      </trkpt>
      <trkpt lat="47.28182" lon="-2.39166">
        <ele>119.40000152588</ele>
        <time>2019-12-22T08:38:02.000Z</time>
      </trkpt>
      <trkpt lat="47.28182" lon="-2.39179">
        <ele>119.40000152588</ele>
        <time>2019-12-22T08:38:04.000Z</time>
      </trkpt>
      <trkpt lat="47.28183" lon="-2.39199">
        <ele>119.40000152588</ele>
        <time>2019-12-22T08:38:07.000Z</time>
      </trkpt>
      <trkpt lat="47.28183" lon="-2.39205">
        <ele>119.40000152588</ele>
        <time>2019-12-22T08:38:08.000Z</time>
      </trkpt>
      <trkpt lat="47.28183" lon="-2.39217">
        <ele>119.80000305176</ele>
        <time>2019-12-22T08:38:10.000Z</time>
      </trkpt>
      <trkpt lat="47.28183" lon="-2.39224">
        <ele>120.40000152588</ele>
        <time>2019-12-22T08:38:11.000Z</time>
      </trkpt>
      <trkpt lat="47.28184" lon="-2.3923">
        <ele>120.80000305176</ele>
        <time>2019-12-22T08:38:12.000Z</time>
      </trkpt>
      <trkpt lat="47.28184" lon="-2.39237">
        <ele>121.59999847412</ele>
        <time>2019-12-22T08:38:13.000Z</time>
      </trkpt>
      <trkpt lat="47.28185" lon="-2.39243">
        <ele>121.59999847412</ele>
        <time>2019-12-22T08:38:14.000Z</time>
      </trkpt>
      <trkpt lat="47.28185" lon="-2.3925">
        <ele>121.59999847412</ele>
        <time>2019-12-22T08:38:15.000Z</time>
      </trkpt>
      <trkpt lat="47.28186" lon="-2.39278">
        <ele>121.59999847412</ele>
        <time>2019-12-22T08:38:19.000Z</time>
      </trkpt>
      <trkpt lat="47.28188" lon="-2.3933">
        <ele>121.59999847412</ele>
        <time>2019-12-22T08:38:26.000Z</time>
      </trkpt>
      <trkpt lat="47.28189" lon="-2.39357">
        <ele>121.59999847412</ele>
        <time>2019-12-22T08:38:30.000Z</time>
      </trkpt>
      <trkpt lat="47.28189" lon="-2.39364">
        <ele>121.59999847412</ele>
        <time>2019-12-22T08:38:31.000Z</time>
      </trkpt>
      <trkpt lat="47.2819" lon="-2.3942">
        <ele>121.59999847412</ele>
        <time>2019-12-22T08:38:39.000Z</time>
      </trkpt>
      <trkpt lat="47.2819" lon="-2.39457">
        <ele>121.59999847412</ele>
        <time>2019-12-22T08:38:45.000Z</time>
      </trkpt>
      <trkpt lat="47.2819" lon="-2.39506">
        <ele>121.59999847412</ele>
        <time>2019-12-22T08:38:52.000Z</time>
      </trkpt>
      <trkpt lat="47.28189" lon="-2.39556">
        <ele>121.59999847412</ele>
        <time>2019-12-22T08:38:59.000Z</time>
      </trkpt>
      <trkpt lat="47.28188" lon="-2.39611">
        <ele>121.59999847412</ele>
        <time>2019-12-22T08:39:07.000Z</time>
      </trkpt>
      <trkpt lat="47.28187" lon="-2.39669">
        <ele>121.59999847412</ele>
        <time>2019-12-22T08:39:15.000Z</time>
      </trkpt>
      <trkpt lat="47.28185" lon="-2.39715">
        <ele>121.59999847412</ele>
        <time>2019-12-22T08:39:21.000Z</time>
      </trkpt>
      <trkpt lat="47.28181" lon="-2.39779">
        <ele>121.59999847412</ele>
        <time>2019-12-22T08:39:29.000Z</time>
      </trkpt>
      <trkpt lat="47.28176" lon="-2.39852">
        <ele>121.59999847412</ele>
        <time>2019-12-22T08:39:38.000Z</time>
      </trkpt>
      <trkpt lat="47.2817" lon="-2.39923">
        <ele>121.59999847412</ele>
        <time>2019-12-22T08:39:47.000Z</time>
      </trkpt>
      <trkpt lat="47.28169" lon="-2.39938">
        <ele>121.59999847412</ele>
        <time>2019-12-22T08:39:49.000Z</time>
      </trkpt>
      <trkpt lat="47.2817" lon="-2.39966">
        <ele>121.59999847412</ele>
        <time>2019-12-22T08:39:53.000Z</time>
      </trkpt>
      <trkpt lat="47.28168" lon="-2.40008">
        <ele>121.59999847412</ele>
        <time>2019-12-22T08:39:59.000Z</time>
      </trkpt>
      <trkpt lat="47.28166" lon="-2.40022">
        <ele>121.59999847412</ele>
        <time>2019-12-22T08:40:01.000Z</time>
      </trkpt>
      <trkpt lat="47.28164" lon="-2.40044">
        <ele>121.59999847412</ele>
        <time>2019-12-22T08:40:04.000Z</time>
      </trkpt>
      <trkpt lat="47.2816" lon="-2.40079">
        <ele>121.59999847412</ele>
        <time>2019-12-22T08:40:09.000Z</time>
      </trkpt>
      <trkpt lat="47.28158" lon="-2.40094">
        <ele>121.59999847412</ele>
        <time>2019-12-22T08:40:11.000Z</time>
      </trkpt>
      <trkpt lat="47.28154" lon="-2.40153">
        <ele>121.59999847412</ele>
        <time>2019-12-22T08:40:19.000Z</time>
      </trkpt>
      <trkpt lat="47.2815" lon="-2.40197">
        <ele>121.59999847412</ele>
        <time>2019-12-22T08:40:25.000Z</time>
      </trkpt>
      <trkpt lat="47.28145" lon="-2.40256">
        <ele>121.59999847412</ele>
        <time>2019-12-22T08:40:33.000Z</time>
      </trkpt>
      <trkpt lat="47.28137" lon="-2.40315">
        <ele>121.59999847412</ele>
        <time>2019-12-22T08:40:41.000Z</time>
      </trkpt>
      <trkpt lat="47.28132" lon="-2.40367">
        <ele>121.59999847412</ele>
        <time>2019-12-22T08:40:48.000Z</time>
      </trkpt>
      <trkpt lat="47.2812" lon="-2.40429">
        <ele>121.59999847412</ele>
        <time>2019-12-22T08:40:57.000Z</time>
      </trkpt>
      <trkpt lat="47.28116" lon="-2.40442">
        <ele>121.59999847412</ele>
        <time>2019-12-22T08:40:59.000Z</time>
      </trkpt>
      <trkpt lat="47.28096" lon="-2.40476">
        <ele>121.59999847412</ele>
        <time>2019-12-22T08:41:05.000Z</time>
      </trkpt>
      <trkpt lat="47.2808" lon="-2.40507">
        <ele>121.59999847412</ele>
        <time>2019-12-22T08:41:10.000Z</time>
      </trkpt>
      <trkpt lat="47.28078" lon="-2.40514">
        <ele>121.59999847412</ele>
        <time>2019-12-22T08:41:11.000Z</time>
      </trkpt>
      <trkpt lat="47.28071" lon="-2.40555">
        <ele>121.59999847412</ele>
        <time>2019-12-22T08:41:17.000Z</time>
      </trkpt>
      <trkpt lat="47.28063" lon="-2.40601">
        <ele>121.59999847412</ele>
        <time>2019-12-22T08:41:24.000Z</time>
      </trkpt>
      <trkpt lat="47.28061" lon="-2.40614">
        <ele>121.59999847412</ele>
        <time>2019-12-22T08:41:26.000Z</time>
      </trkpt>
      <trkpt lat="47.28063" lon="-2.40627">
        <ele>121.59999847412</ele>
        <time>2019-12-22T08:41:28.000Z</time>
      </trkpt>
      <trkpt lat="47.28068" lon="-2.40669">
        <ele>121.59999847412</ele>
        <time>2019-12-22T08:41:34.000Z</time>
      </trkpt>
      <trkpt lat="47.28069" lon="-2.40677">
        <ele>121.59999847412</ele>
        <time>2019-12-22T08:41:35.000Z</time>
      </trkpt>
      <trkpt lat="47.28068" lon="-2.40699">
        <ele>121.59999847412</ele>
        <time>2019-12-22T08:41:38.000Z</time>
      </trkpt>
      <trkpt lat="47.28064" lon="-2.40714">
        <ele>121.59999847412</ele>
        <time>2019-12-22T08:41:40.000Z</time>
      </trkpt>
      <trkpt lat="47.28061" lon="-2.40728">
        <ele>121.19999694824</ele>
        <time>2019-12-22T08:41:42.000Z</time>
      </trkpt>
      <trkpt lat="47.28059" lon="-2.40736">
        <ele>120.80000305176</ele>
        <time>2019-12-22T08:41:43.000Z</time>
      </trkpt>
      <trkpt lat="47.28058" lon="-2.40743">
        <ele>120.40000152588</ele>
        <time>2019-12-22T08:41:44.000Z</time>
      </trkpt>
      <trkpt lat="47.28057" lon="-2.4075">
        <ele>120</ele>
        <time>2019-12-22T08:41:45.000Z</time>
      </trkpt>
      <trkpt lat="47.28055" lon="-2.40757">
        <ele>119.59999847412</ele>
        <time>2019-12-22T08:41:46.000Z</time>
      </trkpt>
      <trkpt lat="47.2805" lon="-2.40785">
        <ele>120</ele>
        <time>2019-12-22T08:41:50.000Z</time>
      </trkpt>
      <trkpt lat="47.28048" lon="-2.40792">
        <ele>120.40000152588</ele>
        <time>2019-12-22T08:41:51.000Z</time>
      </trkpt>
      <trkpt lat="47.28047" lon="-2.40799">
        <ele>121</ele>
        <time>2019-12-22T08:41:52.000Z</time>
      </trkpt>
      <trkpt lat="47.28046" lon="-2.40806">
        <ele>121.80000305176</ele>
        <time>2019-12-22T08:41:53.000Z</time>
      </trkpt>
      <trkpt lat="47.28044" lon="-2.40819">
        <ele>121.80000305176</ele>
        <time>2019-12-22T08:41:55.000Z</time>
      </trkpt>
      <trkpt lat="47.28047" lon="-2.40832">
        <ele>121.80000305176</ele>
        <time>2019-12-22T08:41:57.000Z</time>
      </trkpt>
      <trkpt lat="47.28057" lon="-2.40856">
        <ele>121.80000305176</ele>
        <time>2019-12-22T08:42:01.000Z</time>
      </trkpt>
      <trkpt lat="47.28063" lon="-2.40867">
        <ele>121.80000305176</ele>
        <time>2019-12-22T08:42:03.000Z</time>
      </trkpt>
      <trkpt lat="47.28072" lon="-2.40883">
        <ele>121.80000305176</ele>
        <time>2019-12-22T08:42:06.000Z</time>
      </trkpt>
      <trkpt lat="47.28078" lon="-2.40894">
        <ele>121.40000152588</ele>
        <time>2019-12-22T08:42:08.000Z</time>
      </trkpt>
      <trkpt lat="47.28082" lon="-2.40899">
        <ele>121</ele>
        <time>2019-12-22T08:42:09.000Z</time>
      </trkpt>
      <trkpt lat="47.28085" lon="-2.40904">
        <ele>120.59999847412</ele>
        <time>2019-12-22T08:42:10.000Z</time>
      </trkpt>
      <trkpt lat="47.28089" lon="-2.40909">
        <ele>120.19999694824</ele>
        <time>2019-12-22T08:42:11.000Z</time>
      </trkpt>
      <trkpt lat="47.28092" lon="-2.40915">
        <ele>119.80000305176</ele>
        <time>2019-12-22T08:42:12.000Z</time>
      </trkpt>
      <trkpt lat="47.28094" lon="-2.40921">
        <ele>119.80000305176</ele>
        <time>2019-12-22T08:42:13.000Z</time>
      </trkpt>
      <trkpt lat="47.28093" lon="-2.40943">
        <ele>119.80000305176</ele>
        <time>2019-12-22T08:42:16.000Z</time>
      </trkpt>
      <trkpt lat="47.28088" lon="-2.40958">
        <ele>119.80000305176</ele>
        <time>2019-12-22T08:42:18.000Z</time>
      </trkpt>
      <trkpt lat="47.28079" lon="-2.40988">
        <ele>119.80000305176</ele>
        <time>2019-12-22T08:42:22.000Z</time>
      </trkpt>
      <trkpt lat="47.2807" lon="-2.41026">
        <ele>119.80000305176</ele>
        <time>2019-12-22T08:42:27.000Z</time>
      </trkpt>
      <trkpt lat="47.28068" lon="-2.41033">
        <ele>119.80000305176</ele>
        <time>2019-12-22T08:42:28.000Z</time>
      </trkpt>
      <trkpt lat="47.28065" lon="-2.41049">
        <ele>119.80000305176</ele>
        <time>2019-12-22T08:42:30.000Z</time>
      </trkpt>
      <trkpt lat="47.28058" lon="-2.4107">
        <ele>119.40000152588</ele>
        <time>2019-12-22T08:42:33.000Z</time>
      </trkpt>
      <trkpt lat="47.28056" lon="-2.41079">
        <ele>119</ele>
        <time>2019-12-22T08:42:34.000Z</time>
      </trkpt>
      <trkpt lat="47.28054" lon="-2.41087">
        <ele>118.59999847412</ele>
        <time>2019-12-22T08:42:35.000Z</time>
      </trkpt>
      <trkpt lat="47.28052" lon="-2.41095">
        <ele>118.19999694824</ele>
        <time>2019-12-22T08:42:36.000Z</time>
      </trkpt>
      <trkpt lat="47.28051" lon="-2.41103">
        <ele>117.59999847412</ele>
        <time>2019-12-22T08:42:37.000Z</time>
      </trkpt>
      <trkpt lat="47.28044" lon="-2.41142">
        <ele>117.59999847412</ele>
        <time>2019-12-22T08:42:42.000Z</time>
      </trkpt>
      <trkpt lat="47.28042" lon="-2.41157">
        <ele>117.59999847412</ele>
        <time>2019-12-22T08:42:44.000Z</time>
      </trkpt>
      <trkpt lat="47.28037" lon="-2.41185">
        <ele>117.59999847412</ele>
        <time>2019-12-22T08:42:48.000Z</time>
      </trkpt>
      <trkpt lat="47.28035" lon="-2.41191">
        <ele>117.59999847412</ele>
        <time>2019-12-22T08:42:49.000Z</time>
      </trkpt>
      <trkpt lat="47.28028" lon="-2.41216">
        <ele>117.59999847412</ele>
        <time>2019-12-22T08:42:53.000Z</time>
      </trkpt>
      <trkpt lat="47.28023" lon="-2.41242">
        <ele>117.59999847412</ele>
        <time>2019-12-22T08:42:57.000Z</time>
      </trkpt>
      <trkpt lat="47.2802" lon="-2.41256">
        <ele>117.59999847412</ele>
        <time>2019-12-22T08:42:59.000Z</time>
      </trkpt>
      <trkpt lat="47.28007" lon="-2.41304">
        <ele>117.59999847412</ele>
        <time>2019-12-22T08:43:06.000Z</time>
      </trkpt>
      <trkpt lat="47.28003" lon="-2.41333">
        <ele>118</ele>
        <time>2019-12-22T08:43:10.000Z</time>
      </trkpt>
      <trkpt lat="47.28002" lon="-2.4134">
        <ele>118.59999847412</ele>
        <time>2019-12-22T08:43:11.000Z</time>
      </trkpt>
      <trkpt lat="47.28" lon="-2.41347">
        <ele>119</ele>
        <time>2019-12-22T08:43:12.000Z</time>
      </trkpt>
      <trkpt lat="47.27999" lon="-2.41354">
        <ele>119.40000152588</ele>
        <time>2019-12-22T08:43:13.000Z</time>
      </trkpt>
      <trkpt lat="47.27998" lon="-2.41361">
        <ele>119.80000305176</ele>
        <time>2019-12-22T08:43:14.000Z</time>
      </trkpt>
      <trkpt lat="47.27992" lon="-2.41414">
        <ele>119.80000305176</ele>
        <time>2019-12-22T08:43:21.000Z</time>
      </trkpt>
      <trkpt lat="47.27983" lon="-2.41464">
        <ele>119.80000305176</ele>
        <time>2019-12-22T08:43:28.000Z</time>
      </trkpt>
      <trkpt lat="47.27972" lon="-2.41507">
        <ele>119.80000305176</ele>
        <time>2019-12-22T08:43:34.000Z</time>
      </trkpt>
      <trkpt lat="47.27954" lon="-2.41555">
        <ele>119.80000305176</ele>
        <time>2019-12-22T08:43:41.000Z</time>
      </trkpt>
      <trkpt lat="47.27932" lon="-2.41598">
        <ele>119.80000305176</ele>
        <time>2019-12-22T08:43:48.000Z</time>
      </trkpt>
      <trkpt lat="47.27906" lon="-2.41647">
        <ele>119.80000305176</ele>
        <time>2019-12-22T08:43:56.000Z</time>
      </trkpt>
      <trkpt lat="47.27886" lon="-2.41683">
        <ele>119.80000305176</ele>
        <time>2019-12-22T08:44:02.000Z</time>
      </trkpt>
      <trkpt lat="47.2787" lon="-2.41709">
        <ele>119.80000305176</ele>
        <time>2019-12-22T08:44:08.000Z</time>
      </trkpt>
      <trkpt lat="47.27857" lon="-2.41738">
        <ele>119.80000305176</ele>
        <time>2019-12-22T08:44:15.000Z</time>
      </trkpt>
      <trkpt lat="47.27849" lon="-2.41761">
        <ele>119.80000305176</ele>
        <time>2019-12-22T08:44:19.000Z</time>
      </trkpt>
      <trkpt lat="47.27847" lon="-2.41768">
        <ele>119.80000305176</ele>
        <time>2019-12-22T08:44:20.000Z</time>
      </trkpt>
      <trkpt lat="47.27836" lon="-2.41791">
        <ele>119.80000305176</ele>
        <time>2019-12-22T08:44:24.000Z</time>
      </trkpt>
      <trkpt lat="47.27824" lon="-2.41814">
        <ele>119.80000305176</ele>
        <time>2019-12-22T08:44:28.000Z</time>
      </trkpt>
      <trkpt lat="47.27822" lon="-2.41821">
        <ele>119.80000305176</ele>
        <time>2019-12-22T08:44:29.000Z</time>
      </trkpt>
      <trkpt lat="47.27815" lon="-2.41841">
        <ele>119.80000305176</ele>
        <time>2019-12-22T08:44:32.000Z</time>
      </trkpt>
      <trkpt lat="47.2781" lon="-2.41854">
        <ele>119.80000305176</ele>
        <time>2019-12-22T08:44:34.000Z</time>
      </trkpt>
      <trkpt lat="47.27791" lon="-2.41903">
        <ele>119.80000305176</ele>
        <time>2019-12-22T08:44:41.000Z</time>
      </trkpt>
      <trkpt lat="47.27777" lon="-2.41946">
        <ele>119.80000305176</ele>
        <time>2019-12-22T08:44:47.000Z</time>
      </trkpt>
      <trkpt lat="47.27775" lon="-2.41953">
        <ele>119.80000305176</ele>
        <time>2019-12-22T08:44:48.000Z</time>
      </trkpt>
      <trkpt lat="47.27765" lon="-2.41982">
        <ele>119.80000305176</ele>
        <time>2019-12-22T08:44:52.000Z</time>
      </trkpt>
      <trkpt lat="47.2776" lon="-2.41996">
        <ele>119.80000305176</ele>
        <time>2019-12-22T08:44:54.000Z</time>
      </trkpt>
      <trkpt lat="47.27758" lon="-2.42004">
        <ele>119.80000305176</ele>
        <time>2019-12-22T08:44:55.000Z</time>
      </trkpt>
      <trkpt lat="47.27749" lon="-2.42043">
        <ele>119.80000305176</ele>
        <time>2019-12-22T08:45:00.000Z</time>
      </trkpt>
      <trkpt lat="47.27741" lon="-2.42096">
        <ele>119.80000305176</ele>
        <time>2019-12-22T08:45:07.000Z</time>
      </trkpt>
      <trkpt lat="47.27739" lon="-2.42145">
        <ele>119.40000152588</ele>
        <time>2019-12-22T08:45:13.000Z</time>
      </trkpt>
      <trkpt lat="47.27739" lon="-2.42153">
        <ele>118.80000305176</ele>
        <time>2019-12-22T08:45:14.000Z</time>
      </trkpt>
      <trkpt lat="47.27739" lon="-2.42161">
        <ele>118.40000152588</ele>
        <time>2019-12-22T08:45:15.000Z</time>
      </trkpt>
      <trkpt lat="47.2774" lon="-2.42169">
        <ele>118</ele>
        <time>2019-12-22T08:45:16.000Z</time>
      </trkpt>
      <trkpt lat="47.2774" lon="-2.42177">
        <ele>117.59999847412</ele>
        <time>2019-12-22T08:45:17.000Z</time>
      </trkpt>
      <trkpt lat="47.27739" lon="-2.42202">
        <ele>117.59999847412</ele>
        <time>2019-12-22T08:45:20.000Z</time>
      </trkpt>
      <trkpt lat="47.27741" lon="-2.42268">
        <ele>117.59999847412</ele>
        <time>2019-12-22T08:45:28.000Z</time>
      </trkpt>
      <trkpt lat="47.27744" lon="-2.42314">
        <ele>117.59999847412</ele>
        <time>2019-12-22T08:45:34.000Z</time>
      </trkpt>
      <trkpt lat="47.27751" lon="-2.42368">
        <ele>117.59999847412</ele>
        <time>2019-12-22T08:45:41.000Z</time>
      </trkpt>
      <trkpt lat="47.27759" lon="-2.4242">
        <ele>117.59999847412</ele>
        <time>2019-12-22T08:45:48.000Z</time>
      </trkpt>
      <trkpt lat="47.2777" lon="-2.42473">
        <ele>117.59999847412</ele>
        <time>2019-12-22T08:45:55.000Z</time>
      </trkpt>
      <trkpt lat="47.2779" lon="-2.42527">
        <ele>117.59999847412</ele>
        <time>2019-12-22T08:46:03.000Z</time>
      </trkpt>
      <trkpt lat="47.27806" lon="-2.42573">
        <ele>117.59999847412</ele>
        <time>2019-12-22T08:46:10.000Z</time>
      </trkpt>
      <trkpt lat="47.27819" lon="-2.42619">
        <ele>117.59999847412</ele>
        <time>2019-12-22T08:46:17.000Z</time>
      </trkpt>
      <trkpt lat="47.27827" lon="-2.42671">
        <ele>117.59999847412</ele>
        <time>2019-12-22T08:46:25.000Z</time>
      </trkpt>
      <trkpt lat="47.27827" lon="-2.42678">
        <ele>118</ele>
        <time>2019-12-22T08:46:26.000Z</time>
      </trkpt>
      <trkpt lat="47.27828" lon="-2.42684">
        <ele>118.40000152588</ele>
        <time>2019-12-22T08:46:27.000Z</time>
      </trkpt>
      <trkpt lat="47.27829" lon="-2.42691">
        <ele>119</ele>
        <time>2019-12-22T08:46:28.000Z</time>
      </trkpt>
      <trkpt lat="47.2783" lon="-2.42697">
        <ele>119.40000152588</ele>
        <time>2019-12-22T08:46:29.000Z</time>
      </trkpt>
      <trkpt lat="47.2783" lon="-2.42704">
        <ele>119.80000305176</ele>
        <time>2019-12-22T08:46:30.000Z</time>
      </trkpt>
      <trkpt lat="47.27831" lon="-2.4271">
        <ele>119.80000305176</ele>
        <time>2019-12-22T08:46:31.000Z</time>
      </trkpt>
      <trkpt lat="47.27831" lon="-2.42731">
        <ele>119.80000305176</ele>
        <time>2019-12-22T08:46:34.000Z</time>
      </trkpt>
      <trkpt lat="47.27832" lon="-2.42752">
        <ele>119.80000305176</ele>
        <time>2019-12-22T08:46:37.000Z</time>
      </trkpt>
      <trkpt lat="47.27834" lon="-2.42798">
        <ele>119.80000305176</ele>
        <time>2019-12-22T08:46:44.000Z</time>
      </trkpt>
      <trkpt lat="47.27835" lon="-2.4284">
        <ele>119.80000305176</ele>
        <time>2019-12-22T08:46:50.000Z</time>
      </trkpt>
      <trkpt lat="47.27836" lon="-2.42848">
        <ele>119.80000305176</ele>
        <time>2019-12-22T08:46:51.000Z</time>
      </trkpt>
      <trkpt lat="47.27837" lon="-2.42878">
        <ele>119.80000305176</ele>
        <time>2019-12-22T08:46:55.000Z</time>
      </trkpt>
      <trkpt lat="47.27839" lon="-2.42912">
        <ele>119.80000305176</ele>
        <time>2019-12-22T08:47:00.000Z</time>
      </trkpt>
      <trkpt lat="47.2784" lon="-2.42918">
        <ele>119.80000305176</ele>
        <time>2019-12-22T08:47:01.000Z</time>
      </trkpt>
      <trkpt lat="47.27842" lon="-2.42939">
        <ele>119.80000305176</ele>
        <time>2019-12-22T08:47:04.000Z</time>
      </trkpt>
      <trkpt lat="47.27844" lon="-2.42961">
        <ele>119.80000305176</ele>
        <time>2019-12-22T08:47:07.000Z</time>
      </trkpt>
      <trkpt lat="47.27845" lon="-2.42968">
        <ele>119.80000305176</ele>
        <time>2019-12-22T08:47:08.000Z</time>
      </trkpt>
      <trkpt lat="47.27848" lon="-2.43003">
        <ele>119.80000305176</ele>
        <time>2019-12-22T08:47:13.000Z</time>
      </trkpt>
      <trkpt lat="47.27853" lon="-2.43052">
        <ele>119.80000305176</ele>
        <time>2019-12-22T08:47:20.000Z</time>
      </trkpt>
      <trkpt lat="47.27853" lon="-2.4306">
        <ele>119.80000305176</ele>
        <time>2019-12-22T08:47:21.000Z</time>
      </trkpt>
      <trkpt lat="47.27855" lon="-2.43091">
        <ele>119.80000305176</ele>
        <time>2019-12-22T08:47:25.000Z</time>
      </trkpt>
      <trkpt lat="47.27856" lon="-2.43099">
        <ele>119.80000305176</ele>
        <time>2019-12-22T08:47:26.000Z</time>
      </trkpt>
      <trkpt lat="47.27861" lon="-2.4315">
        <ele>119.80000305176</ele>
        <time>2019-12-22T08:47:33.000Z</time>
      </trkpt>
      <trkpt lat="47.27862" lon="-2.43157">
        <ele>119.80000305176</ele>
        <time>2019-12-22T08:47:34.000Z</time>
      </trkpt>
      <trkpt lat="47.27864" lon="-2.43185">
        <ele>119.80000305176</ele>
        <time>2019-12-22T08:47:38.000Z</time>
      </trkpt>
      <trkpt lat="47.27866" lon="-2.43208">
        <ele>119.80000305176</ele>
        <time>2019-12-22T08:47:41.000Z</time>
      </trkpt>
      <trkpt lat="47.27869" lon="-2.43244">
        <ele>119.80000305176</ele>
        <time>2019-12-22T08:47:46.000Z</time>
      </trkpt>
      <trkpt lat="47.27872" lon="-2.43278">
        <ele>119.80000305176</ele>
        <time>2019-12-22T08:47:51.000Z</time>
      </trkpt>
      <trkpt lat="47.27877" lon="-2.43291">
        <ele>119.80000305176</ele>
        <time>2019-12-22T08:47:53.000Z</time>
      </trkpt>
      <trkpt lat="47.27878" lon="-2.43299">
        <ele>119.80000305176</ele>
        <time>2019-12-22T08:47:54.000Z</time>
      </trkpt>
      <trkpt lat="47.27877" lon="-2.43314">
        <ele>119.80000305176</ele>
        <time>2019-12-22T08:47:56.000Z</time>
      </trkpt>
      <trkpt lat="47.27875" lon="-2.43338">
        <ele>119.80000305176</ele>
        <time>2019-12-22T08:47:59.000Z</time>
      </trkpt>
      <trkpt lat="47.27873" lon="-2.43361">
        <ele>119.80000305176</ele>
        <time>2019-12-22T08:48:02.000Z</time>
      </trkpt>
      <trkpt lat="47.2787" lon="-2.43399">
        <ele>119.40000152588</ele>
        <time>2019-12-22T08:48:07.000Z</time>
      </trkpt>
      <trkpt lat="47.27869" lon="-2.43407">
        <ele>119</ele>
        <time>2019-12-22T08:48:08.000Z</time>
      </trkpt>
      <trkpt lat="47.27869" lon="-2.43415">
        <ele>118.59999847412</ele>
        <time>2019-12-22T08:48:09.000Z</time>
      </trkpt>
      <trkpt lat="47.27868" lon="-2.43422">
        <ele>118.19999694824</ele>
        <time>2019-12-22T08:48:10.000Z</time>
      </trkpt>
      <trkpt lat="47.27867" lon="-2.4343">
        <ele>117.80000305176</ele>
        <time>2019-12-22T08:48:11.000Z</time>
      </trkpt>
      <trkpt lat="47.27859" lon="-2.43485">
        <ele>117.80000305176</ele>
        <time>2019-12-22T08:48:19.000Z</time>
      </trkpt>
      <trkpt lat="47.27857" lon="-2.4351">
        <ele>117.80000305176</ele>
        <time>2019-12-22T08:48:23.000Z</time>
      </trkpt>
      <trkpt lat="47.27856" lon="-2.43525">
        <ele>117.80000305176</ele>
        <time>2019-12-22T08:48:25.000Z</time>
      </trkpt>
      <trkpt lat="47.27852" lon="-2.43555">
        <ele>117.80000305176</ele>
        <time>2019-12-22T08:48:29.000Z</time>
      </trkpt>
      <trkpt lat="47.2785" lon="-2.4357">
        <ele>117.80000305176</ele>
        <time>2019-12-22T08:48:31.000Z</time>
      </trkpt>
      <trkpt lat="47.27847" lon="-2.43584">
        <ele>117.80000305176</ele>
        <time>2019-12-22T08:48:33.000Z</time>
      </trkpt>
      <trkpt lat="47.2784" lon="-2.43613">
        <ele>117.80000305176</ele>
        <time>2019-12-22T08:48:37.000Z</time>
      </trkpt>
      <trkpt lat="47.27824" lon="-2.43672">
        <ele>117.80000305176</ele>
        <time>2019-12-22T08:48:45.000Z</time>
      </trkpt>
      <trkpt lat="47.27813" lon="-2.43713">
        <ele>118.19999694824</ele>
        <time>2019-12-22T08:48:51.000Z</time>
      </trkpt>
      <trkpt lat="47.27811" lon="-2.4372">
        <ele>118.59999847412</ele>
        <time>2019-12-22T08:48:52.000Z</time>
      </trkpt>
      <trkpt lat="47.27809" lon="-2.43726">
        <ele>119.59999847412</ele>
        <time>2019-12-22T08:48:53.000Z</time>
      </trkpt>
      <trkpt lat="47.27807" lon="-2.43733">
        <ele>120</ele>
        <time>2019-12-22T08:48:54.000Z</time>
      </trkpt>
      <trkpt lat="47.27799" lon="-2.43759">
        <ele>120</ele>
        <time>2019-12-22T08:48:58.000Z</time>
      </trkpt>
      <trkpt lat="47.27791" lon="-2.43797">
        <ele>119.59999847412</ele>
        <time>2019-12-22T08:49:04.000Z</time>
      </trkpt>
      <trkpt lat="47.27791" lon="-2.43804">
        <ele>119.19999694824</ele>
        <time>2019-12-22T08:49:05.000Z</time>
      </trkpt>
      <trkpt lat="47.27792" lon="-2.4381">
        <ele>118.59999847412</ele>
        <time>2019-12-22T08:49:06.000Z</time>
      </trkpt>
      <trkpt lat="47.27793" lon="-2.43817">
        <ele>118.19999694824</ele>
        <time>2019-12-22T08:49:07.000Z</time>
      </trkpt>
      <trkpt lat="47.27795" lon="-2.43823">
        <ele>117.80000305176</ele>
        <time>2019-12-22T08:49:08.000Z</time>
      </trkpt>
      <trkpt lat="47.27796" lon="-2.4383">
        <ele>117.80000305176</ele>
        <time>2019-12-22T08:49:09.000Z</time>
      </trkpt>
      <trkpt lat="47.27791" lon="-2.43851">
        <ele>117.80000305176</ele>
        <time>2019-12-22T08:49:12.000Z</time>
      </trkpt>
      <trkpt lat="47.27779" lon="-2.43864">
        <ele>117.80000305176</ele>
        <time>2019-12-22T08:49:15.000Z</time>
      </trkpt>
      <trkpt lat="47.27775" lon="-2.43868">
        <ele>117.80000305176</ele>
        <time>2019-12-22T08:49:16.000Z</time>
      </trkpt>
      <trkpt lat="47.27766" lon="-2.43888">
        <ele>117.80000305176</ele>
        <time>2019-12-22T08:49:19.000Z</time>
      </trkpt>
      <trkpt lat="47.27764" lon="-2.43895">
        <ele>117.80000305176</ele>
        <time>2019-12-22T08:49:20.000Z</time>
      </trkpt>
      <trkpt lat="47.27748" lon="-2.43945">
        <ele>117.80000305176</ele>
        <time>2019-12-22T08:49:27.000Z</time>
      </trkpt>
      <trkpt lat="47.27735" lon="-2.43994">
        <ele>117.80000305176</ele>
        <time>2019-12-22T08:49:34.000Z</time>
      </trkpt>
      <trkpt lat="47.27721" lon="-2.44044">
        <ele>117.80000305176</ele>
        <time>2019-12-22T08:49:41.000Z</time>
      </trkpt>
      <trkpt lat="47.27718" lon="-2.44059">
        <ele>117.80000305176</ele>
        <time>2019-12-22T08:49:43.000Z</time>
      </trkpt>
      <trkpt lat="47.27718" lon="-2.44075">
        <ele>117.80000305176</ele>
        <time>2019-12-22T08:49:45.000Z</time>
      </trkpt>
      <trkpt lat="47.27717" lon="-2.44082">
        <ele>117.80000305176</ele>
        <time>2019-12-22T08:49:46.000Z</time>
      </trkpt>
      <trkpt lat="47.27716" lon="-2.44098">
        <ele>117.80000305176</ele>
        <time>2019-12-22T08:49:48.000Z</time>
      </trkpt>
      <trkpt lat="47.27717" lon="-2.44115">
        <ele>117.80000305176</ele>
        <time>2019-12-22T08:49:50.000Z</time>
      </trkpt>
      <trkpt lat="47.27724" lon="-2.44168">
        <ele>117.80000305176</ele>
        <time>2019-12-22T08:49:57.000Z</time>
      </trkpt>
      <trkpt lat="47.27726" lon="-2.44226">
        <ele>117.80000305176</ele>
        <time>2019-12-22T08:50:05.000Z</time>
      </trkpt>
      <trkpt lat="47.27728" lon="-2.44297">
        <ele>117.80000305176</ele>
        <time>2019-12-22T08:50:15.000Z</time>
      </trkpt>
      <trkpt lat="47.27729" lon="-2.44352">
        <ele>117.80000305176</ele>
        <time>2019-12-22T08:50:23.000Z</time>
      </trkpt>
      <trkpt lat="47.27731" lon="-2.44401">
        <ele>117.80000305176</ele>
        <time>2019-12-22T08:50:30.000Z</time>
      </trkpt>
      <trkpt lat="47.27738" lon="-2.44447">
        <ele>117.80000305176</ele>
        <time>2019-12-22T08:50:37.000Z</time>
      </trkpt>
      <trkpt lat="47.27742" lon="-2.44484">
        <ele>118.19999694824</ele>
        <time>2019-12-22T08:50:42.000Z</time>
      </trkpt>
      <trkpt lat="47.27743" lon="-2.44491">
        <ele>118.59999847412</ele>
        <time>2019-12-22T08:50:43.000Z</time>
      </trkpt>
      <trkpt lat="47.27743" lon="-2.44498">
        <ele>119</ele>
        <time>2019-12-22T08:50:44.000Z</time>
      </trkpt>
      <trkpt lat="47.27744" lon="-2.44505">
        <ele>119.59999847412</ele>
        <time>2019-12-22T08:50:45.000Z</time>
      </trkpt>
      <trkpt lat="47.27744" lon="-2.44512">
        <ele>120</ele>
        <time>2019-12-22T08:50:46.000Z</time>
      </trkpt>
      <trkpt lat="47.27744" lon="-2.44536">
        <ele>119.40000152588</ele>
        <time>2019-12-22T08:50:50.000Z</time>
      </trkpt>
      <trkpt lat="47.27744" lon="-2.4454">
        <ele>119</ele>
        <time>2019-12-22T08:50:51.000Z</time>
      </trkpt>
      <trkpt lat="47.27744" lon="-2.44543">
        <ele>118.59999847412</ele>
        <time>2019-12-22T08:50:52.000Z</time>
      </trkpt>
      <trkpt lat="47.27744" lon="-2.44547">
        <ele>118.19999694824</ele>
        <time>2019-12-22T08:50:53.000Z</time>
      </trkpt>
      <trkpt lat="47.27744" lon="-2.44551">
        <ele>117.59999847412</ele>
        <time>2019-12-22T08:50:54.000Z</time>
      </trkpt>
      <trkpt lat="47.27742" lon="-2.4456">
        <ele>117.59999847412</ele>
        <time>2019-12-22T08:50:56.000Z</time>
      </trkpt>
      <trkpt lat="47.27739" lon="-2.44586">
        <ele>117.59999847412</ele>
        <time>2019-12-22T08:51:01.000Z</time>
      </trkpt>
      <trkpt lat="47.27736" lon="-2.44609">
        <ele>117.59999847412</ele>
        <time>2019-12-22T08:51:05.000Z</time>
      </trkpt>
      <trkpt lat="47.27736" lon="-2.44614">
        <ele>118</ele>
        <time>2019-12-22T08:51:06.000Z</time>
      </trkpt>
      <trkpt lat="47.27736" lon="-2.44621">
        <ele>118.59999847412</ele>
        <time>2019-12-22T08:51:07.000Z</time>
      </trkpt>
      <trkpt lat="47.27735" lon="-2.44627">
        <ele>119</ele>
        <time>2019-12-22T08:51:08.000Z</time>
      </trkpt>
      <trkpt lat="47.27735" lon="-2.44632">
        <ele>119.40000152588</ele>
        <time>2019-12-22T08:51:09.000Z</time>
      </trkpt>
      <trkpt lat="47.27734" lon="-2.44637">
        <ele>120</ele>
        <time>2019-12-22T08:51:10.000Z</time>
      </trkpt>
      <trkpt lat="47.27733" lon="-2.44654">
        <ele>120</ele>
        <time>2019-12-22T08:51:13.000Z</time>
      </trkpt>
      <trkpt lat="47.27727" lon="-2.44698">
        <ele>120</ele>
        <time>2019-12-22T08:51:21.000Z</time>
      </trkpt>
      <trkpt lat="47.27722" lon="-2.44729">
        <ele>120</ele>
        <time>2019-12-22T08:51:26.000Z</time>
      </trkpt>
      <trkpt lat="47.27721" lon="-2.4474">
        <ele>120</ele>
        <time>2019-12-22T08:51:28.000Z</time>
      </trkpt>
      <trkpt lat="47.27722" lon="-2.44751">
        <ele>120</ele>
        <time>2019-12-22T08:51:32.000Z</time>
      </trkpt>
      <trkpt lat="47.27721" lon="-2.44754">
        <ele>120</ele>
        <time>2019-12-22T08:51:34.000Z</time>
      </trkpt>
      <trkpt lat="47.27717" lon="-2.44754">
        <ele>120</ele>
        <time>2019-12-22T08:51:37.000Z</time>
      </trkpt>
      <trkpt lat="47.27703" lon="-2.44758">
        <ele>120</ele>
        <time>2019-12-22T08:51:42.000Z</time>
      </trkpt>
      <trkpt lat="47.27695" lon="-2.44761">
        <ele>119.19999694824</ele>
        <time>2019-12-22T08:51:44.000Z</time>
      </trkpt>
      <trkpt lat="47.27691" lon="-2.44763">
        <ele>118.59999847412</ele>
        <time>2019-12-22T08:51:45.000Z</time>
      </trkpt>
      <trkpt lat="47.27688" lon="-2.44764">
        <ele>117.40000152588</ele>
        <time>2019-12-22T08:51:46.000Z</time>
      </trkpt>
      <trkpt lat="47.27683" lon="-2.44766">
        <ele>116.59999847412</ele>
        <time>2019-12-22T08:51:47.000Z</time>
      </trkpt>
      <trkpt lat="47.27679" lon="-2.44768">
        <ele>116.59999847412</ele>
        <time>2019-12-22T08:51:48.000Z</time>
      </trkpt>
      <trkpt lat="47.27655" lon="-2.44776">
        <ele>116.59999847412</ele>
        <time>2019-12-22T08:51:53.000Z</time>
      </trkpt>
      <trkpt lat="47.27646" lon="-2.44779">
        <ele>117</ele>
        <time>2019-12-22T08:51:55.000Z</time>
      </trkpt>
      <trkpt lat="47.27642" lon="-2.44779">
        <ele>117.40000152588</ele>
        <time>2019-12-22T08:51:56.000Z</time>
      </trkpt>
      <trkpt lat="47.27637" lon="-2.4478">
        <ele>118</ele>
        <time>2019-12-22T08:51:57.000Z</time>
      </trkpt>
      <trkpt lat="47.27632" lon="-2.44781">
        <ele>118.40000152588</ele>
        <time>2019-12-22T08:51:58.000Z</time>
      </trkpt>
      <trkpt lat="47.27628" lon="-2.44782">
        <ele>118.80000305176</ele>
        <time>2019-12-22T08:51:59.000Z</time>
      </trkpt>
      <trkpt lat="47.27596" lon="-2.44792">
        <ele>118.80000305176</ele>
        <time>2019-12-22T08:52:06.000Z</time>
      </trkpt>
      <trkpt lat="47.27591" lon="-2.44794">
        <ele>118.80000305176</ele>
        <time>2019-12-22T08:52:07.000Z</time>
      </trkpt>
      <trkpt lat="47.27573" lon="-2.44801">
        <ele>118.80000305176</ele>
        <time>2019-12-22T08:52:11.000Z</time>
      </trkpt>
      <trkpt lat="47.27564" lon="-2.44804">
        <ele>118.80000305176</ele>
        <time>2019-12-22T08:52:13.000Z</time>
      </trkpt>
      <trkpt lat="47.27539" lon="-2.44813">
        <ele>118.80000305176</ele>
        <time>2019-12-22T08:52:19.000Z</time>
      </trkpt>
      <trkpt lat="47.27535" lon="-2.44817">
        <ele>118.80000305176</ele>
        <time>2019-12-22T08:52:20.000Z</time>
      </trkpt>
      <trkpt lat="47.27528" lon="-2.44824">
        <ele>118.80000305176</ele>
        <time>2019-12-22T08:52:22.000Z</time>
      </trkpt>
      <trkpt lat="47.27525" lon="-2.44828">
        <ele>118.80000305176</ele>
        <time>2019-12-22T08:52:23.000Z</time>
      </trkpt>
      <trkpt lat="47.27504" lon="-2.44846">
        <ele>118.80000305176</ele>
        <time>2019-12-22T08:52:29.000Z</time>
      </trkpt>
      <trkpt lat="47.27493" lon="-2.44855">
        <ele>118.80000305176</ele>
        <time>2019-12-22T08:52:32.000Z</time>
      </trkpt>
      <trkpt lat="47.27484" lon="-2.44856">
        <ele>118.80000305176</ele>
        <time>2019-12-22T08:52:34.000Z</time>
      </trkpt>
      <trkpt lat="47.27471" lon="-2.44853">
        <ele>118.80000305176</ele>
        <time>2019-12-22T08:52:37.000Z</time>
      </trkpt>
      <trkpt lat="47.27462" lon="-2.44853">
        <ele>118.80000305176</ele>
        <time>2019-12-22T08:52:39.000Z</time>
      </trkpt>
      <trkpt lat="47.27458" lon="-2.44856">
        <ele>118.80000305176</ele>
        <time>2019-12-22T08:52:40.000Z</time>
      </trkpt>
      <trkpt lat="47.27445" lon="-2.44875">
        <ele>118.80000305176</ele>
        <time>2019-12-22T08:52:44.000Z</time>
      </trkpt>
      <trkpt lat="47.27423" lon="-2.44903">
        <ele>119.19999694824</ele>
        <time>2019-12-22T08:52:51.000Z</time>
      </trkpt>
      <trkpt lat="47.2742" lon="-2.44906">
        <ele>119.59999847412</ele>
        <time>2019-12-22T08:52:52.000Z</time>
      </trkpt>
      <trkpt lat="47.27417" lon="-2.44909">
        <ele>120</ele>
        <time>2019-12-22T08:52:53.000Z</time>
      </trkpt>
      <trkpt lat="47.27413" lon="-2.44912">
        <ele>120.40000152588</ele>
        <time>2019-12-22T08:52:54.000Z</time>
      </trkpt>
      <trkpt lat="47.2741" lon="-2.44914">
        <ele>121</ele>
        <time>2019-12-22T08:52:55.000Z</time>
      </trkpt>
      <trkpt lat="47.27402" lon="-2.44918">
        <ele>121</ele>
        <time>2019-12-22T08:52:57.000Z</time>
      </trkpt>
      <trkpt lat="47.27386" lon="-2.44928">
        <ele>121</ele>
        <time>2019-12-22T08:53:01.000Z</time>
      </trkpt>
      <trkpt lat="47.27377" lon="-2.44932">
        <ele>121</ele>
        <time>2019-12-22T08:53:03.000Z</time>
      </trkpt>
      <trkpt lat="47.27368" lon="-2.44937">
        <ele>121</ele>
        <time>2019-12-22T08:53:05.000Z</time>
      </trkpt>
      <trkpt lat="47.27352" lon="-2.44946">
        <ele>121</ele>
        <time>2019-12-22T08:53:09.000Z</time>
      </trkpt>
      <trkpt lat="47.27343" lon="-2.44949">
        <ele>121</ele>
        <time>2019-12-22T08:53:11.000Z</time>
      </trkpt>
      <trkpt lat="47.27334" lon="-2.44953">
        <ele>121</ele>
        <time>2019-12-22T08:53:13.000Z</time>
      </trkpt>
      <trkpt lat="47.27327" lon="-2.44956">
        <ele>121.40000152588</ele>
        <time>2019-12-22T08:53:15.000Z</time>
      </trkpt>
      <trkpt lat="47.27323" lon="-2.44958">
        <ele>121.80000305176</ele>
        <time>2019-12-22T08:53:16.000Z</time>
      </trkpt>
      <trkpt lat="47.27319" lon="-2.44959">
        <ele>122.19999694824</ele>
        <time>2019-12-22T08:53:17.000Z</time>
      </trkpt>
      <trkpt lat="47.27314" lon="-2.44961">
        <ele>122.59999847412</ele>
        <time>2019-12-22T08:53:18.000Z</time>
      </trkpt>
      <trkpt lat="47.2731" lon="-2.44961">
        <ele>123</ele>
        <time>2019-12-22T08:53:19.000Z</time>
      </trkpt>
      <trkpt lat="47.27301" lon="-2.44962">
        <ele>122.59999847412</ele>
        <time>2019-12-22T08:53:21.000Z</time>
      </trkpt>
      <trkpt lat="47.27296" lon="-2.44963">
        <ele>122.19999694824</ele>
        <time>2019-12-22T08:53:22.000Z</time>
      </trkpt>
      <trkpt lat="47.27292" lon="-2.44963">
        <ele>121.80000305176</ele>
        <time>2019-12-22T08:53:23.000Z</time>
      </trkpt>
      <trkpt lat="47.27287" lon="-2.44963">
        <ele>121.40000152588</ele>
        <time>2019-12-22T08:53:24.000Z</time>
      </trkpt>
      <trkpt lat="47.27282" lon="-2.44963">
        <ele>121</ele>
        <time>2019-12-22T08:53:25.000Z</time>
      </trkpt>
      <trkpt lat="47.27278" lon="-2.44964">
        <ele>121</ele>
        <time>2019-12-22T08:53:26.000Z</time>
      </trkpt>
      <trkpt lat="47.27263" lon="-2.44966">
        <ele>121</ele>
        <time>2019-12-22T08:53:29.000Z</time>
      </trkpt>
      <trkpt lat="47.27236" lon="-2.44979">
        <ele>121</ele>
        <time>2019-12-22T08:53:35.000Z</time>
      </trkpt>
      <trkpt lat="47.27204" lon="-2.4499">
        <ele>121</ele>
        <time>2019-12-22T08:53:42.000Z</time>
      </trkpt>
      <trkpt lat="47.27185" lon="-2.44993">
        <ele>121</ele>
        <time>2019-12-22T08:53:46.000Z</time>
      </trkpt>
      <trkpt lat="47.27171" lon="-2.44996">
        <ele>121</ele>
        <time>2019-12-22T08:53:49.000Z</time>
      </trkpt>
      <trkpt lat="47.27152" lon="-2.44998">
        <ele>121</ele>
        <time>2019-12-22T08:53:53.000Z</time>
      </trkpt>
      <trkpt lat="47.27148" lon="-2.44999">
        <ele>121.40000152588</ele>
        <time>2019-12-22T08:53:54.000Z</time>
      </trkpt>
      <trkpt lat="47.27143" lon="-2.44999">
        <ele>121.80000305176</ele>
        <time>2019-12-22T08:53:55.000Z</time>
      </trkpt>
      <trkpt lat="47.27139" lon="-2.45">
        <ele>122.19999694824</ele>
        <time>2019-12-22T08:53:56.000Z</time>
      </trkpt>
      <trkpt lat="47.27134" lon="-2.45">
        <ele>122.59999847412</ele>
        <time>2019-12-22T08:53:57.000Z</time>
      </trkpt>
      <trkpt lat="47.2713" lon="-2.45">
        <ele>123</ele>
        <time>2019-12-22T08:53:58.000Z</time>
      </trkpt>
      <trkpt lat="47.27113" lon="-2.44999">
        <ele>123</ele>
        <time>2019-12-22T08:54:02.000Z</time>
      </trkpt>
      <trkpt lat="47.27088" lon="-2.44997">
        <ele>123</ele>
        <time>2019-12-22T08:54:08.000Z</time>
      </trkpt>
      <trkpt lat="47.27065" lon="-2.45">
        <ele>123</ele>
        <time>2019-12-22T08:54:14.000Z</time>
      </trkpt>
      <trkpt lat="47.27063" lon="-2.4501">
        <ele>123</ele>
        <time>2019-12-22T08:54:16.000Z</time>
      </trkpt>
      <trkpt lat="47.27063" lon="-2.45016">
        <ele>123</ele>
        <time>2019-12-22T08:54:17.000Z</time>
      </trkpt>
      <trkpt lat="47.27063" lon="-2.45043">
        <ele>123.59999847412</ele>
        <time>2019-12-22T08:54:21.000Z</time>
      </trkpt>
      <trkpt lat="47.27063" lon="-2.4505">
        <ele>124</ele>
        <time>2019-12-22T08:54:22.000Z</time>
      </trkpt>
      <trkpt lat="47.27063" lon="-2.45056">
        <ele>124.40000152588</ele>
        <time>2019-12-22T08:54:23.000Z</time>
      </trkpt>
      <trkpt lat="47.27063" lon="-2.45062">
        <ele>125</ele>
        <time>2019-12-22T08:54:24.000Z</time>
      </trkpt>
      <trkpt lat="47.27063" lon="-2.45068">
        <ele>125.40000152588</ele>
        <time>2019-12-22T08:54:25.000Z</time>
      </trkpt>
      <trkpt lat="47.27063" lon="-2.45093">
        <ele>125.40000152588</ele>
        <time>2019-12-22T08:54:29.000Z</time>
      </trkpt>
      <trkpt lat="47.27061" lon="-2.45135">
        <ele>125.40000152588</ele>
        <time>2019-12-22T08:54:36.000Z</time>
      </trkpt>
      <trkpt lat="47.27059" lon="-2.45193">
        <ele>125.40000152588</ele>
        <time>2019-12-22T08:54:45.000Z</time>
      </trkpt>
      <trkpt lat="47.2706" lon="-2.45205">
        <ele>125.40000152588</ele>
        <time>2019-12-22T08:54:47.000Z</time>
      </trkpt>
      <trkpt lat="47.27061" lon="-2.45231">
        <ele>125.40000152588</ele>
        <time>2019-12-22T08:54:51.000Z</time>
      </trkpt>
      <trkpt lat="47.27061" lon="-2.45288">
        <ele>125.40000152588</ele>
        <time>2019-12-22T08:54:59.000Z</time>
      </trkpt>
      <trkpt lat="47.27063" lon="-2.45301">
        <ele>125.40000152588</ele>
        <time>2019-12-22T08:55:01.000Z</time>
      </trkpt>
      <trkpt lat="47.27065" lon="-2.4532">
        <ele>125.40000152588</ele>
        <time>2019-12-22T08:55:04.000Z</time>
      </trkpt>
      <trkpt lat="47.27066" lon="-2.45333">
        <ele>125.40000152588</ele>
        <time>2019-12-22T08:55:06.000Z</time>
      </trkpt>
      <trkpt lat="47.27068" lon="-2.45348">
        <ele>125.40000152588</ele>
        <time>2019-12-22T08:55:08.000Z</time>
      </trkpt>
      <trkpt lat="47.27069" lon="-2.45362">
        <ele>125.40000152588</ele>
        <time>2019-12-22T08:55:10.000Z</time>
      </trkpt>
      <trkpt lat="47.2707" lon="-2.45413">
        <ele>125.40000152588</ele>
        <time>2019-12-22T08:55:17.000Z</time>
      </trkpt>
      <trkpt lat="47.27067" lon="-2.45458">
        <ele>125.40000152588</ele>
        <time>2019-12-22T08:55:23.000Z</time>
      </trkpt>
      <trkpt lat="47.27065" lon="-2.45465">
        <ele>125.40000152588</ele>
        <time>2019-12-22T08:55:24.000Z</time>
      </trkpt>
      <trkpt lat="47.27058" lon="-2.45498">
        <ele>125.40000152588</ele>
        <time>2019-12-22T08:55:29.000Z</time>
      </trkpt>
      <trkpt lat="47.27058" lon="-2.45505">
        <ele>125.40000152588</ele>
        <time>2019-12-22T08:55:30.000Z</time>
      </trkpt>
      <trkpt lat="47.27058" lon="-2.45545">
        <ele>125.40000152588</ele>
        <time>2019-12-22T08:55:36.000Z</time>
      </trkpt>
      <trkpt lat="47.2706" lon="-2.45565">
        <ele>125.40000152588</ele>
        <time>2019-12-22T08:55:39.000Z</time>
      </trkpt>
      <trkpt lat="47.2706" lon="-2.45578">
        <ele>125.40000152588</ele>
        <time>2019-12-22T08:55:41.000Z</time>
      </trkpt>
      <trkpt lat="47.27068" lon="-2.45637">
        <ele>125.40000152588</ele>
        <time>2019-12-22T08:55:50.000Z</time>
      </trkpt>
      <trkpt lat="47.27069" lon="-2.45643">
        <ele>125</ele>
        <time>2019-12-22T08:55:51.000Z</time>
      </trkpt>
      <trkpt lat="47.2707" lon="-2.4565">
        <ele>124.59999847412</ele>
        <time>2019-12-22T08:55:52.000Z</time>
      </trkpt>
      <trkpt lat="47.27071" lon="-2.45656">
        <ele>124.19999694824</ele>
        <time>2019-12-22T08:55:53.000Z</time>
      </trkpt>
      <trkpt lat="47.27072" lon="-2.45662">
        <ele>123.80000305176</ele>
        <time>2019-12-22T08:55:54.000Z</time>
      </trkpt>
      <trkpt lat="47.27073" lon="-2.45668">
        <ele>123.40000152588</ele>
        <time>2019-12-22T08:55:55.000Z</time>
      </trkpt>
      <trkpt lat="47.27076" lon="-2.45685">
        <ele>123.40000152588</ele>
        <time>2019-12-22T08:55:58.000Z</time>
      </trkpt>
      <trkpt lat="47.27078" lon="-2.45691">
        <ele>123.40000152588</ele>
        <time>2019-12-22T08:55:59.000Z</time>
      </trkpt>
      <trkpt lat="47.27082" lon="-2.45707">
        <ele>123.40000152588</ele>
        <time>2019-12-22T08:56:02.000Z</time>
      </trkpt>
      <trkpt lat="47.27085" lon="-2.45712">
        <ele>123.40000152588</ele>
        <time>2019-12-22T08:56:03.000Z</time>
      </trkpt>
      <trkpt lat="47.27091" lon="-2.45729">
        <ele>123.40000152588</ele>
        <time>2019-12-22T08:56:06.000Z</time>
      </trkpt>
      <trkpt lat="47.27097" lon="-2.4574">
        <ele>123.40000152588</ele>
        <time>2019-12-22T08:56:08.000Z</time>
      </trkpt>
      <trkpt lat="47.27103" lon="-2.45751">
        <ele>123.40000152588</ele>
        <time>2019-12-22T08:56:10.000Z</time>
      </trkpt>
      <trkpt lat="47.27107" lon="-2.45756">
        <ele>123.40000152588</ele>
        <time>2019-12-22T08:56:11.000Z</time>
      </trkpt>
      <trkpt lat="47.27113" lon="-2.45767">
        <ele>123.40000152588</ele>
        <time>2019-12-22T08:56:13.000Z</time>
      </trkpt>
      <trkpt lat="47.27133" lon="-2.45806">
        <ele>123.40000152588</ele>
        <time>2019-12-22T08:56:20.000Z</time>
      </trkpt>
      <trkpt lat="47.27148" lon="-2.45842">
        <ele>123.40000152588</ele>
        <time>2019-12-22T08:56:26.000Z</time>
      </trkpt>
      <trkpt lat="47.27164" lon="-2.45877">
        <ele>123.40000152588</ele>
        <time>2019-12-22T08:56:33.000Z</time>
      </trkpt>
      <trkpt lat="47.2717" lon="-2.45892">
        <ele>123.40000152588</ele>
        <time>2019-12-22T08:56:36.000Z</time>
      </trkpt>
      <trkpt lat="47.27174" lon="-2.45906">
        <ele>123.40000152588</ele>
        <time>2019-12-22T08:56:38.000Z</time>
      </trkpt>
      <trkpt lat="47.27183" lon="-2.45933">
        <ele>123.40000152588</ele>
        <time>2019-12-22T08:56:42.000Z</time>
      </trkpt>
      <trkpt lat="47.27186" lon="-2.4594">
        <ele>123.40000152588</ele>
        <time>2019-12-22T08:56:43.000Z</time>
      </trkpt>
      <trkpt lat="47.27204" lon="-2.45984">
        <ele>123.40000152588</ele>
        <time>2019-12-22T08:56:50.000Z</time>
      </trkpt>
      <trkpt lat="47.27219" lon="-2.46038">
        <ele>123.40000152588</ele>
        <time>2019-12-22T08:56:58.000Z</time>
      </trkpt>
      <trkpt lat="47.27228" lon="-2.46082">
        <ele>123.40000152588</ele>
        <time>2019-12-22T08:57:04.000Z</time>
      </trkpt>
      <trkpt lat="47.27237" lon="-2.46132">
        <ele>123.40000152588</ele>
        <time>2019-12-22T08:57:11.000Z</time>
      </trkpt>
      <trkpt lat="47.27249" lon="-2.46179">
        <ele>123.40000152588</ele>
        <time>2019-12-22T08:57:18.000Z</time>
      </trkpt>
      <trkpt lat="47.27265" lon="-2.46224">
        <ele>123.40000152588</ele>
        <time>2019-12-22T08:57:25.000Z</time>
      </trkpt>
      <trkpt lat="47.27284" lon="-2.46271">
        <ele>123.40000152588</ele>
        <time>2019-12-22T08:57:32.000Z</time>
      </trkpt>
      <trkpt lat="47.2729" lon="-2.46283">
        <ele>122.59999847412</ele>
        <time>2019-12-22T08:57:34.000Z</time>
      </trkpt>
      <trkpt lat="47.27292" lon="-2.46289">
        <ele>122.19999694824</ele>
        <time>2019-12-22T08:57:35.000Z</time>
      </trkpt>
      <trkpt lat="47.27295" lon="-2.46296">
        <ele>121.59999847412</ele>
        <time>2019-12-22T08:57:36.000Z</time>
      </trkpt>
      <trkpt lat="47.27298" lon="-2.46302">
        <ele>121.19999694824</ele>
        <time>2019-12-22T08:57:37.000Z</time>
      </trkpt>
      <trkpt lat="47.27305" lon="-2.46321">
        <ele>121.19999694824</ele>
        <time>2019-12-22T08:57:40.000Z</time>
      </trkpt>
      <trkpt lat="47.27316" lon="-2.46344">
        <ele>121.19999694824</ele>
        <time>2019-12-22T08:57:44.000Z</time>
      </trkpt>
      <trkpt lat="47.2732" lon="-2.46356">
        <ele>121.19999694824</ele>
        <time>2019-12-22T08:57:46.000Z</time>
      </trkpt>
      <trkpt lat="47.27328" lon="-2.4638">
        <ele>121.80000305176</ele>
        <time>2019-12-22T08:57:50.000Z</time>
      </trkpt>
      <trkpt lat="47.2733" lon="-2.46386">
        <ele>122.19999694824</ele>
        <time>2019-12-22T08:57:51.000Z</time>
      </trkpt>
      <trkpt lat="47.27332" lon="-2.46392">
        <ele>122.59999847412</ele>
        <time>2019-12-22T08:57:52.000Z</time>
      </trkpt>
      <trkpt lat="47.27334" lon="-2.46397">
        <ele>123</ele>
        <time>2019-12-22T08:57:53.000Z</time>
      </trkpt>
      <trkpt lat="47.27336" lon="-2.46403">
        <ele>123.59999847412</ele>
        <time>2019-12-22T08:57:54.000Z</time>
      </trkpt>
      <trkpt lat="47.27348" lon="-2.46438">
        <ele>123.59999847412</ele>
        <time>2019-12-22T08:58:00.000Z</time>
      </trkpt>
      <trkpt lat="47.27353" lon="-2.4645">
        <ele>123.59999847412</ele>
        <time>2019-12-22T08:58:02.000Z</time>
      </trkpt>
      <trkpt lat="47.27361" lon="-2.46471">
        <ele>123.59999847412</ele>
        <time>2019-12-22T08:58:06.000Z</time>
      </trkpt>
      <trkpt lat="47.27372" lon="-2.46511">
        <ele>123.59999847412</ele>
        <time>2019-12-22T08:58:12.000Z</time>
      </trkpt>
      <trkpt lat="47.27387" lon="-2.46556">
        <ele>123.59999847412</ele>
        <time>2019-12-22T08:58:19.000Z</time>
      </trkpt>
      <trkpt lat="47.27403" lon="-2.46607">
        <ele>123.59999847412</ele>
        <time>2019-12-22T08:58:27.000Z</time>
      </trkpt>
      <trkpt lat="47.27412" lon="-2.46638">
        <ele>123.59999847412</ele>
        <time>2019-12-22T08:58:32.000Z</time>
      </trkpt>
      <trkpt lat="47.27427" lon="-2.46684">
        <ele>123.59999847412</ele>
        <time>2019-12-22T08:58:39.000Z</time>
      </trkpt>
      <trkpt lat="47.2744" lon="-2.46726">
        <ele>123.59999847412</ele>
        <time>2019-12-22T08:58:45.000Z</time>
      </trkpt>
      <trkpt lat="47.27448" lon="-2.46753">
        <ele>123.59999847412</ele>
        <time>2019-12-22T08:58:49.000Z</time>
      </trkpt>
      <trkpt lat="47.27452" lon="-2.46766">
        <ele>123.59999847412</ele>
        <time>2019-12-22T08:58:51.000Z</time>
      </trkpt>
      <trkpt lat="47.27454" lon="-2.46773">
        <ele>123.59999847412</ele>
        <time>2019-12-22T08:58:52.000Z</time>
      </trkpt>
      <trkpt lat="47.27461" lon="-2.46799">
        <ele>123.59999847412</ele>
        <time>2019-12-22T08:58:56.000Z</time>
      </trkpt>
      <trkpt lat="47.27469" lon="-2.46824">
        <ele>124</ele>
        <time>2019-12-22T08:59:00.000Z</time>
      </trkpt>
      <trkpt lat="47.27471" lon="-2.46831">
        <ele>124.40000152588</ele>
        <time>2019-12-22T08:59:01.000Z</time>
      </trkpt>
      <trkpt lat="47.27472" lon="-2.46837">
        <ele>124.80000305176</ele>
        <time>2019-12-22T08:59:02.000Z</time>
      </trkpt>
      <trkpt lat="47.27474" lon="-2.46844">
        <ele>125.19999694824</ele>
        <time>2019-12-22T08:59:03.000Z</time>
      </trkpt>
      <trkpt lat="47.27476" lon="-2.4685">
        <ele>125.59999847412</ele>
        <time>2019-12-22T08:59:04.000Z</time>
      </trkpt>
      <trkpt lat="47.27486" lon="-2.4688">
        <ele>125.59999847412</ele>
        <time>2019-12-22T08:59:09.000Z</time>
      </trkpt>
      <trkpt lat="47.27487" lon="-2.46886">
        <ele>125.59999847412</ele>
        <time>2019-12-22T08:59:10.000Z</time>
      </trkpt>
      <trkpt lat="47.27487" lon="-2.46906">
        <ele>125.59999847412</ele>
        <time>2019-12-22T08:59:13.000Z</time>
      </trkpt>
      <trkpt lat="47.2748" lon="-2.46924">
        <ele>126.19999694824</ele>
        <time>2019-12-22T08:59:16.000Z</time>
      </trkpt>
      <trkpt lat="47.27477" lon="-2.46929">
        <ele>126.59999847412</ele>
        <time>2019-12-22T08:59:17.000Z</time>
      </trkpt>
      <trkpt lat="47.27473" lon="-2.46933">
        <ele>127</ele>
        <time>2019-12-22T08:59:18.000Z</time>
      </trkpt>
      <trkpt lat="47.27469" lon="-2.46937">
        <ele>127.40000152588</ele>
        <time>2019-12-22T08:59:19.000Z</time>
      </trkpt>
      <trkpt lat="47.27465" lon="-2.4694">
        <ele>127.80000305176</ele>
        <time>2019-12-22T08:59:20.000Z</time>
      </trkpt>
      <trkpt lat="47.27457" lon="-2.46946">
        <ele>127.80000305176</ele>
        <time>2019-12-22T08:59:22.000Z</time>
      </trkpt>
      <trkpt lat="47.2744" lon="-2.46962">
        <ele>127.80000305176</ele>
        <time>2019-12-22T08:59:27.000Z</time>
      </trkpt>
      <trkpt lat="47.27439" lon="-2.46986">
        <ele>127.80000305176</ele>
        <time>2019-12-22T08:59:31.000Z</time>
      </trkpt>
      <trkpt lat="47.27451" lon="-2.4702">
        <ele>127.80000305176</ele>
        <time>2019-12-22T08:59:36.000Z</time>
      </trkpt>
      <trkpt lat="47.27457" lon="-2.4704">
        <ele>127.40000152588</ele>
        <time>2019-12-22T08:59:39.000Z</time>
      </trkpt>
      <trkpt lat="47.2746" lon="-2.47046">
        <ele>126.80000305176</ele>
        <time>2019-12-22T08:59:40.000Z</time>
      </trkpt>
      <trkpt lat="47.27462" lon="-2.47053">
        <ele>126.40000152588</ele>
        <time>2019-12-22T08:59:41.000Z</time>
      </trkpt>
      <trkpt lat="47.27465" lon="-2.4706">
        <ele>126</ele>
        <time>2019-12-22T08:59:42.000Z</time>
      </trkpt>
      <trkpt lat="47.27467" lon="-2.47067">
        <ele>125.40000152588</ele>
        <time>2019-12-22T08:59:43.000Z</time>
      </trkpt>
      <trkpt lat="47.27487" lon="-2.47125">
        <ele>125.40000152588</ele>
        <time>2019-12-22T08:59:51.000Z</time>
      </trkpt>
      <trkpt lat="47.27504" lon="-2.47173">
        <ele>125.40000152588</ele>
        <time>2019-12-22T08:59:58.000Z</time>
      </trkpt>
      <trkpt lat="47.27514" lon="-2.47201">
        <ele>125</ele>
        <time>2019-12-22T09:00:02.000Z</time>
      </trkpt>
      <trkpt lat="47.27517" lon="-2.47208">
        <ele>124.59999847412</ele>
        <time>2019-12-22T09:00:03.000Z</time>
      </trkpt>
      <trkpt lat="47.27519" lon="-2.47215">
        <ele>124.19999694824</ele>
        <time>2019-12-22T09:00:04.000Z</time>
      </trkpt>
      <trkpt lat="47.27521" lon="-2.47222">
        <ele>123.80000305176</ele>
        <time>2019-12-22T09:00:05.000Z</time>
      </trkpt>
      <trkpt lat="47.27524" lon="-2.47228">
        <ele>123.40000152588</ele>
        <time>2019-12-22T09:00:06.000Z</time>
      </trkpt>
      <trkpt lat="47.27542" lon="-2.47276">
        <ele>123.40000152588</ele>
        <time>2019-12-22T09:00:13.000Z</time>
      </trkpt>
      <trkpt lat="47.27556" lon="-2.47308">
        <ele>123.40000152588</ele>
        <time>2019-12-22T09:00:18.000Z</time>
      </trkpt>
      <trkpt lat="47.27562" lon="-2.47322">
        <ele>123.40000152588</ele>
        <time>2019-12-22T09:00:20.000Z</time>
      </trkpt>
      <trkpt lat="47.27585" lon="-2.47376">
        <ele>123.40000152588</ele>
        <time>2019-12-22T09:00:28.000Z</time>
      </trkpt>
      <trkpt lat="47.27604" lon="-2.47428">
        <ele>123.40000152588</ele>
        <time>2019-12-22T09:00:36.000Z</time>
      </trkpt>
      <trkpt lat="47.27619" lon="-2.47476">
        <ele>123.40000152588</ele>
        <time>2019-12-22T09:00:43.000Z</time>
      </trkpt>
      <trkpt lat="47.2762" lon="-2.47483">
        <ele>123.40000152588</ele>
        <time>2019-12-22T09:00:44.000Z</time>
      </trkpt>
      <trkpt lat="47.27626" lon="-2.47506">
        <ele>123.40000152588</ele>
        <time>2019-12-22T09:00:48.000Z</time>
      </trkpt>
      <trkpt lat="47.27628" lon="-2.47511">
        <ele>123.40000152588</ele>
        <time>2019-12-22T09:00:49.000Z</time>
      </trkpt>
      <trkpt lat="47.27636" lon="-2.47534">
        <ele>123.40000152588</ele>
        <time>2019-12-22T09:00:53.000Z</time>
      </trkpt>
      <trkpt lat="47.2765" lon="-2.47571">
        <ele>123.40000152588</ele>
        <time>2019-12-22T09:00:59.000Z</time>
      </trkpt>
      <trkpt lat="47.27664" lon="-2.47607">
        <ele>123.40000152588</ele>
        <time>2019-12-22T09:01:05.000Z</time>
      </trkpt>
      <trkpt lat="47.27678" lon="-2.47641">
        <ele>123.80000305176</ele>
        <time>2019-12-22T09:01:11.000Z</time>
      </trkpt>
      <trkpt lat="47.2768" lon="-2.47647">
        <ele>124.19999694824</ele>
        <time>2019-12-22T09:01:12.000Z</time>
      </trkpt>
      <trkpt lat="47.27681" lon="-2.47653">
        <ele>124.59999847412</ele>
        <time>2019-12-22T09:01:13.000Z</time>
      </trkpt>
      <trkpt lat="47.27682" lon="-2.47659">
        <ele>125</ele>
        <time>2019-12-22T09:01:14.000Z</time>
      </trkpt>
      <trkpt lat="47.27682" lon="-2.47666">
        <ele>125.40000152588</ele>
        <time>2019-12-22T09:01:15.000Z</time>
      </trkpt>
      <trkpt lat="47.27683" lon="-2.47679">
        <ele>125.40000152588</ele>
        <time>2019-12-22T09:01:17.000Z</time>
      </trkpt>
      <trkpt lat="47.27685" lon="-2.47692">
        <ele>125.40000152588</ele>
        <time>2019-12-22T09:01:19.000Z</time>
      </trkpt>
      <trkpt lat="47.27687" lon="-2.47719">
        <ele>125.40000152588</ele>
        <time>2019-12-22T09:01:23.000Z</time>
      </trkpt>
      <trkpt lat="47.2769" lon="-2.47741">
        <ele>125.40000152588</ele>
        <time>2019-12-22T09:01:26.000Z</time>
      </trkpt>
      <trkpt lat="47.27693" lon="-2.47754">
        <ele>125.40000152588</ele>
        <time>2019-12-22T09:01:28.000Z</time>
      </trkpt>
      <trkpt lat="47.27695" lon="-2.4776">
        <ele>125.80000305176</ele>
        <time>2019-12-22T09:01:29.000Z</time>
      </trkpt>
      <trkpt lat="47.27696" lon="-2.47767">
        <ele>126.19999694824</ele>
        <time>2019-12-22T09:01:30.000Z</time>
      </trkpt>
      <trkpt lat="47.27697" lon="-2.47774">
        <ele>126.59999847412</ele>
        <time>2019-12-22T09:01:31.000Z</time>
      </trkpt>
      <trkpt lat="47.27698" lon="-2.47781">
        <ele>127</ele>
        <time>2019-12-22T09:01:32.000Z</time>
      </trkpt>
      <trkpt lat="47.277" lon="-2.47787">
        <ele>127.40000152588</ele>
        <time>2019-12-22T09:01:33.000Z</time>
      </trkpt>
      <trkpt lat="47.27702" lon="-2.47801">
        <ele>127.40000152588</ele>
        <time>2019-12-22T09:01:35.000Z</time>
      </trkpt>
      <trkpt lat="47.27711" lon="-2.47861">
        <ele>127.40000152588</ele>
        <time>2019-12-22T09:01:44.000Z</time>
      </trkpt>
      <trkpt lat="47.2772" lon="-2.47908">
        <ele>127.40000152588</ele>
        <time>2019-12-22T09:01:51.000Z</time>
      </trkpt>
      <trkpt lat="47.27724" lon="-2.47926">
        <ele>127.40000152588</ele>
        <time>2019-12-22T09:01:54.000Z</time>
      </trkpt>
      <trkpt lat="47.27726" lon="-2.47937">
        <ele>128</ele>
        <time>2019-12-22T09:01:56.000Z</time>
      </trkpt>
      <trkpt lat="47.27727" lon="-2.47943">
        <ele>128.39999389648</ele>
        <time>2019-12-22T09:01:57.000Z</time>
      </trkpt>
      <trkpt lat="47.27728" lon="-2.47948">
        <ele>128.80000305176</ele>
        <time>2019-12-22T09:01:58.000Z</time>
      </trkpt>
      <trkpt lat="47.2773" lon="-2.47952">
        <ele>129.19999694824</ele>
        <time>2019-12-22T09:01:59.000Z</time>
      </trkpt>
      <trkpt lat="47.27731" lon="-2.47956">
        <ele>129.60000610352</ele>
        <time>2019-12-22T09:02:00.000Z</time>
      </trkpt>
      <trkpt lat="47.27734" lon="-2.47964">
        <ele>129.60000610352</ele>
        <time>2019-12-22T09:02:02.000Z</time>
      </trkpt>
      <trkpt lat="47.27736" lon="-2.47966">
        <ele>129.60000610352</ele>
        <time>2019-12-22T09:02:03.000Z</time>
      </trkpt>
      <trkpt lat="47.27743" lon="-2.47966">
        <ele>129.60000610352</ele>
        <time>2019-12-22T09:02:05.000Z</time>
      </trkpt>
      <trkpt lat="47.27754" lon="-2.47962">
        <ele>129.60000610352</ele>
        <time>2019-12-22T09:02:08.000Z</time>
      </trkpt>
      <trkpt lat="47.27761" lon="-2.47961">
        <ele>129.60000610352</ele>
        <time>2019-12-22T09:02:10.000Z</time>
      </trkpt>
      <trkpt lat="47.27777" lon="-2.47949">
        <ele>129.60000610352</ele>
        <time>2019-12-22T09:02:15.000Z</time>
      </trkpt>
      <trkpt lat="47.27789" lon="-2.47928">
        <ele>129.60000610352</ele>
        <time>2019-12-22T09:02:20.000Z</time>
      </trkpt>
      <trkpt lat="47.27793" lon="-2.4792">
        <ele>129.19999694824</ele>
        <time>2019-12-22T09:02:22.000Z</time>
      </trkpt>
      <trkpt lat="47.27794" lon="-2.47916">
        <ele>128.80000305176</ele>
        <time>2019-12-22T09:02:23.000Z</time>
      </trkpt>
      <trkpt lat="47.27796" lon="-2.47912">
        <ele>128.39999389648</ele>
        <time>2019-12-22T09:02:24.000Z</time>
      </trkpt>
      <trkpt lat="47.27798" lon="-2.47907">
        <ele>128</ele>
        <time>2019-12-22T09:02:25.000Z</time>
      </trkpt>
      <trkpt lat="47.278" lon="-2.47902">
        <ele>127.40000152588</ele>
        <time>2019-12-22T09:02:26.000Z</time>
      </trkpt>
      <trkpt lat="47.27802" lon="-2.47897">
        <ele>127.40000152588</ele>
        <time>2019-12-22T09:02:27.000Z</time>
      </trkpt>
      <trkpt lat="47.27803" lon="-2.47891">
        <ele>127.40000152588</ele>
        <time>2019-12-22T09:02:28.000Z</time>
      </trkpt>
      <trkpt lat="47.27806" lon="-2.4787">
        <ele>127.40000152588</ele>
        <time>2019-12-22T09:02:32.000Z</time>
      </trkpt>
      <trkpt lat="47.27814" lon="-2.47839">
        <ele>127.40000152588</ele>
        <time>2019-12-22T09:02:38.000Z</time>
      </trkpt>
      <trkpt lat="47.27818" lon="-2.47826">
        <ele>127</ele>
        <time>2019-12-22T09:02:41.000Z</time>
      </trkpt>
      <trkpt lat="47.27818" lon="-2.47822">
        <ele>126.59999847412</ele>
        <time>2019-12-22T09:02:42.000Z</time>
      </trkpt>
      <trkpt lat="47.2782" lon="-2.47819">
        <ele>126.19999694824</ele>
        <time>2019-12-22T09:02:43.000Z</time>
      </trkpt>
      <trkpt lat="47.27822" lon="-2.47816">
        <ele>125.80000305176</ele>
        <time>2019-12-22T09:02:44.000Z</time>
      </trkpt>
      <trkpt lat="47.27824" lon="-2.47812">
        <ele>125.40000152588</ele>
        <time>2019-12-22T09:02:45.000Z</time>
      </trkpt>
      <trkpt lat="47.27832" lon="-2.47802">
        <ele>125.40000152588</ele>
        <time>2019-12-22T09:02:49.000Z</time>
      </trkpt>
      <trkpt lat="47.27838" lon="-2.47798">
        <ele>125.40000152588</ele>
        <time>2019-12-22T09:02:52.000Z</time>
      </trkpt>
      <trkpt lat="47.27841" lon="-2.47799">
        <ele>125.40000152588</ele>
        <time>2019-12-22T09:02:53.000Z</time>
      </trkpt>
      <trkpt lat="47.27847" lon="-2.47803">
        <ele>125.80000305176</ele>
        <time>2019-12-22T09:02:55.000Z</time>
      </trkpt>
      <trkpt lat="47.27849" lon="-2.47807">
        <ele>126.19999694824</ele>
        <time>2019-12-22T09:02:56.000Z</time>
      </trkpt>
      <trkpt lat="47.27851" lon="-2.47811">
        <ele>126.59999847412</ele>
        <time>2019-12-22T09:02:57.000Z</time>
      </trkpt>
      <trkpt lat="47.27853" lon="-2.47815">
        <ele>127</ele>
        <time>2019-12-22T09:02:58.000Z</time>
      </trkpt>
      <trkpt lat="47.27854" lon="-2.47819">
        <ele>127.40000152588</ele>
        <time>2019-12-22T09:02:59.000Z</time>
      </trkpt>
      <trkpt lat="47.27856" lon="-2.47824">
        <ele>127.40000152588</ele>
        <time>2019-12-22T09:03:00.000Z</time>
      </trkpt>
      <trkpt lat="47.27859" lon="-2.47839">
        <ele>127.40000152588</ele>
        <time>2019-12-22T09:03:03.000Z</time>
      </trkpt>
      <trkpt lat="47.27861" lon="-2.47849">
        <ele>127.80000305176</ele>
        <time>2019-12-22T09:03:05.000Z</time>
      </trkpt>
      <trkpt lat="47.27863" lon="-2.47854">
        <ele>128.19999694824</ele>
        <time>2019-12-22T09:03:06.000Z</time>
      </trkpt>
      <trkpt lat="47.27864" lon="-2.47858">
        <ele>128.60000610352</ele>
        <time>2019-12-22T09:03:07.000Z</time>
      </trkpt>
      <trkpt lat="47.27865" lon="-2.47863">
        <ele>129</ele>
        <time>2019-12-22T09:03:08.000Z</time>
      </trkpt>
      <trkpt lat="47.27866" lon="-2.47869">
        <ele>129.39999389648</ele>
        <time>2019-12-22T09:03:09.000Z</time>
      </trkpt>
      <trkpt lat="47.27868" lon="-2.47874">
        <ele>129.39999389648</ele>
        <time>2019-12-22T09:03:10.000Z</time>
      </trkpt>
      <trkpt lat="47.27869" lon="-2.47881">
        <ele>129.39999389648</ele>
        <time>2019-12-22T09:03:11.000Z</time>
      </trkpt>
      <trkpt lat="47.27872" lon="-2.47901">
        <ele>129.39999389648</ele>
        <time>2019-12-22T09:03:14.000Z</time>
      </trkpt>
      <trkpt lat="47.27873" lon="-2.47907">
        <ele>129.39999389648</ele>
        <time>2019-12-22T09:03:15.000Z</time>
      </trkpt>
      <trkpt lat="47.27879" lon="-2.47939">
        <ele>128.60000610352</ele>
        <time>2019-12-22T09:03:20.000Z</time>
      </trkpt>
      <trkpt lat="47.2788" lon="-2.47945">
        <ele>128.19999694824</ele>
        <time>2019-12-22T09:03:21.000Z</time>
      </trkpt>
      <trkpt lat="47.2788" lon="-2.47951">
        <ele>127.80000305176</ele>
        <time>2019-12-22T09:03:22.000Z</time>
      </trkpt>
      <trkpt lat="47.27881" lon="-2.47958">
        <ele>127.19999694824</ele>
        <time>2019-12-22T09:03:23.000Z</time>
      </trkpt>
      <trkpt lat="47.27884" lon="-2.47979">
        <ele>127.59999847412</ele>
        <time>2019-12-22T09:03:26.000Z</time>
      </trkpt>
      <trkpt lat="47.27885" lon="-2.47985">
        <ele>128</ele>
        <time>2019-12-22T09:03:27.000Z</time>
      </trkpt>
      <trkpt lat="47.27886" lon="-2.47992">
        <ele>128.60000610352</ele>
        <time>2019-12-22T09:03:28.000Z</time>
      </trkpt>
      <trkpt lat="47.27887" lon="-2.47999">
        <ele>129</ele>
        <time>2019-12-22T09:03:29.000Z</time>
      </trkpt>
      <trkpt lat="47.27889" lon="-2.48006">
        <ele>129.39999389648</ele>
        <time>2019-12-22T09:03:30.000Z</time>
      </trkpt>
      <trkpt lat="47.27894" lon="-2.48035">
        <ele>128.80000305176</ele>
        <time>2019-12-22T09:03:34.000Z</time>
      </trkpt>
      <trkpt lat="47.27895" lon="-2.48044">
        <ele>128.39999389648</ele>
        <time>2019-12-22T09:03:35.000Z</time>
      </trkpt>
      <trkpt lat="47.27896" lon="-2.48051">
        <ele>128</ele>
        <time>2019-12-22T09:03:36.000Z</time>
      </trkpt>
      <trkpt lat="47.27898" lon="-2.48059">
        <ele>127.40000152588</ele>
        <time>2019-12-22T09:03:37.000Z</time>
      </trkpt>
      <trkpt lat="47.27899" lon="-2.48067">
        <ele>127</ele>
        <time>2019-12-22T09:03:38.000Z</time>
      </trkpt>
      <trkpt lat="47.27907" lon="-2.48111">
        <ele>126.59999847412</ele>
        <time>2019-12-22T09:03:44.000Z</time>
      </trkpt>
      <trkpt lat="47.27908" lon="-2.48118">
        <ele>126</ele>
        <time>2019-12-22T09:03:45.000Z</time>
      </trkpt>
      <trkpt lat="47.27908" lon="-2.48125">
        <ele>125.59999847412</ele>
        <time>2019-12-22T09:03:46.000Z</time>
      </trkpt>
      <trkpt lat="47.27909" lon="-2.48133">
        <ele>125.19999694824</ele>
        <time>2019-12-22T09:03:47.000Z</time>
      </trkpt>
      <trkpt lat="47.2791" lon="-2.4814">
        <ele>124.80000305176</ele>
        <time>2019-12-22T09:03:48.000Z</time>
      </trkpt>
      <trkpt lat="47.27914" lon="-2.48169">
        <ele>124.80000305176</ele>
        <time>2019-12-22T09:03:52.000Z</time>
      </trkpt>
      <trkpt lat="47.27924" lon="-2.48235">
        <ele>124.80000305176</ele>
        <time>2019-12-22T09:04:01.000Z</time>
      </trkpt>
      <trkpt lat="47.27932" lon="-2.48295">
        <ele>124.80000305176</ele>
        <time>2019-12-22T09:04:09.000Z</time>
      </trkpt>
      <trkpt lat="47.27936" lon="-2.48325">
        <ele>124.80000305176</ele>
        <time>2019-12-22T09:04:13.000Z</time>
      </trkpt>
      <trkpt lat="47.27939" lon="-2.4834">
        <ele>124.80000305176</ele>
        <time>2019-12-22T09:04:15.000Z</time>
      </trkpt>
      <trkpt lat="47.27945" lon="-2.4839">
        <ele>124.80000305176</ele>
        <time>2019-12-22T09:04:22.000Z</time>
      </trkpt>
      <trkpt lat="47.27951" lon="-2.48427">
        <ele>124.80000305176</ele>
        <time>2019-12-22T09:04:28.000Z</time>
      </trkpt>
      <trkpt lat="47.27951" lon="-2.48434">
        <ele>124.80000305176</ele>
        <time>2019-12-22T09:04:29.000Z</time>
      </trkpt>
      <trkpt lat="47.27953" lon="-2.48441">
        <ele>124.80000305176</ele>
        <time>2019-12-22T09:04:30.000Z</time>
      </trkpt>
      <trkpt lat="47.27955" lon="-2.48464">
        <ele>124.80000305176</ele>
        <time>2019-12-22T09:04:33.000Z</time>
      </trkpt>
      <trkpt lat="47.27963" lon="-2.4851">
        <ele>124.80000305176</ele>
        <time>2019-12-22T09:04:39.000Z</time>
      </trkpt>
      <trkpt lat="47.27971" lon="-2.48567">
        <ele>124.80000305176</ele>
        <time>2019-12-22T09:04:47.000Z</time>
      </trkpt>
      <trkpt lat="47.27972" lon="-2.48574">
        <ele>125.19999694824</ele>
        <time>2019-12-22T09:04:48.000Z</time>
      </trkpt>
      <trkpt lat="47.27974" lon="-2.48581">
        <ele>125.59999847412</ele>
        <time>2019-12-22T09:04:49.000Z</time>
      </trkpt>
      <trkpt lat="47.27975" lon="-2.48587">
        <ele>126.19999694824</ele>
        <time>2019-12-22T09:04:50.000Z</time>
      </trkpt>
      <trkpt lat="47.27975" lon="-2.48594">
        <ele>126.59999847412</ele>
        <time>2019-12-22T09:04:51.000Z</time>
      </trkpt>
      <trkpt lat="47.27976" lon="-2.486">
        <ele>127</ele>
        <time>2019-12-22T09:04:52.000Z</time>
      </trkpt>
      <trkpt lat="47.27978" lon="-2.48612">
        <ele>127</ele>
        <time>2019-12-22T09:04:54.000Z</time>
      </trkpt>
      <trkpt lat="47.27986" lon="-2.48664">
        <ele>127</ele>
        <time>2019-12-22T09:05:02.000Z</time>
      </trkpt>
      <trkpt lat="47.2799" lon="-2.48696">
        <ele>127.59999847412</ele>
        <time>2019-12-22T09:05:07.000Z</time>
      </trkpt>
      <trkpt lat="47.27992" lon="-2.48702">
        <ele>128</ele>
        <time>2019-12-22T09:05:08.000Z</time>
      </trkpt>
      <trkpt lat="47.27993" lon="-2.48707">
        <ele>128.60000610352</ele>
        <time>2019-12-22T09:05:09.000Z</time>
      </trkpt>
      <trkpt lat="47.27993" lon="-2.48713">
        <ele>129</ele>
        <time>2019-12-22T09:05:10.000Z</time>
      </trkpt>
      <trkpt lat="47.27994" lon="-2.48719">
        <ele>129.39999389648</ele>
        <time>2019-12-22T09:05:11.000Z</time>
      </trkpt>
      <trkpt lat="47.28004" lon="-2.48756">
        <ele>129.39999389648</ele>
        <time>2019-12-22T09:05:18.000Z</time>
      </trkpt>
      <trkpt lat="47.28009" lon="-2.48777">
        <ele>129.39999389648</ele>
        <time>2019-12-22T09:05:22.000Z</time>
      </trkpt>
      <trkpt lat="47.28007" lon="-2.48787">
        <ele>129.39999389648</ele>
        <time>2019-12-22T09:05:24.000Z</time>
      </trkpt>
      <trkpt lat="47.28007" lon="-2.48791">
        <ele>129</ele>
        <time>2019-12-22T09:05:25.000Z</time>
      </trkpt>
      <trkpt lat="47.28007" lon="-2.48796">
        <ele>128.60000610352</ele>
        <time>2019-12-22T09:05:26.000Z</time>
      </trkpt>
      <trkpt lat="47.28007" lon="-2.48801">
        <ele>128</ele>
        <time>2019-12-22T09:05:27.000Z</time>
      </trkpt>
      <trkpt lat="47.28007" lon="-2.48805">
        <ele>127.59999847412</ele>
        <time>2019-12-22T09:05:28.000Z</time>
      </trkpt>
      <trkpt lat="47.28008" lon="-2.48809">
        <ele>127.19999694824</ele>
        <time>2019-12-22T09:05:29.000Z</time>
      </trkpt>
      <trkpt lat="47.2801" lon="-2.48822">
        <ele>127.19999694824</ele>
        <time>2019-12-22T09:05:33.000Z</time>
      </trkpt>
      <trkpt lat="47.28012" lon="-2.48832">
        <ele>127.19999694824</ele>
        <time>2019-12-22T09:05:37.000Z</time>
      </trkpt>
      <trkpt lat="47.28011" lon="-2.48838">
        <ele>127.19999694824</ele>
        <time>2019-12-22T09:05:39.000Z</time>
      </trkpt>
      <trkpt lat="47.28006" lon="-2.48836">
        <ele>127.19999694824</ele>
        <time>2019-12-22T09:05:42.000Z</time>
      </trkpt>
      <trkpt lat="47.28002" lon="-2.48825">
        <ele>127.19999694824</ele>
        <time>2019-12-22T09:05:45.000Z</time>
      </trkpt>
      <trkpt lat="47.28" lon="-2.48821">
        <ele>127.19999694824</ele>
        <time>2019-12-22T09:05:46.000Z</time>
      </trkpt>
      <trkpt lat="47.2799" lon="-2.48818">
        <ele>127.19999694824</ele>
        <time>2019-12-22T09:05:50.000Z</time>
      </trkpt>
      <trkpt lat="47.27986" lon="-2.48821">
        <ele>126.59999847412</ele>
        <time>2019-12-22T09:05:52.000Z</time>
      </trkpt>
      <trkpt lat="47.27985" lon="-2.48824">
        <ele>126.19999694824</ele>
        <time>2019-12-22T09:05:53.000Z</time>
      </trkpt>
      <trkpt lat="47.27984" lon="-2.48827">
        <ele>125.80000305176</ele>
        <time>2019-12-22T09:05:54.000Z</time>
      </trkpt>
      <trkpt lat="47.27983" lon="-2.48831">
        <ele>125.40000152588</ele>
        <time>2019-12-22T09:05:55.000Z</time>
      </trkpt>
      <trkpt lat="47.27982" lon="-2.48833">
        <ele>125</ele>
        <time>2019-12-22T09:05:56.000Z</time>
      </trkpt>
      <trkpt lat="47.27981" lon="-2.48838">
        <ele>125</ele>
        <time>2019-12-22T09:05:58.000Z</time>
      </trkpt>
      <trkpt lat="47.27982" lon="-2.48844">
        <ele>125</ele>
        <time>2019-12-22T09:06:00.000Z</time>
      </trkpt>
      <trkpt lat="47.27985" lon="-2.48854">
        <ele>125</ele>
        <time>2019-12-22T09:06:06.000Z</time>
      </trkpt>
      <trkpt lat="47.27985" lon="-2.48854">
        <ele>125</ele>
        <time>2019-12-22T09:06:07.000Z</time>
      </trkpt>
      <trkpt lat="47.27986" lon="-2.48862">
        <ele>122.80000305176</ele>
        <time>2019-12-22T09:06:29.000Z</time>
      </trkpt>
      <trkpt lat="47.27985" lon="-2.48871">
        <ele>122.80000305176</ele>
        <time>2019-12-22T09:06:31.000Z</time>
      </trkpt>
      <trkpt lat="47.27987" lon="-2.48895">
        <ele>123.40000152588</ele>
        <time>2019-12-22T09:06:35.000Z</time>
      </trkpt>
      <trkpt lat="47.27987" lon="-2.48901">
        <ele>123.80000305176</ele>
        <time>2019-12-22T09:06:36.000Z</time>
      </trkpt>
      <trkpt lat="47.27988" lon="-2.48906">
        <ele>124.40000152588</ele>
        <time>2019-12-22T09:06:37.000Z</time>
      </trkpt>
      <trkpt lat="47.27988" lon="-2.48911">
        <ele>125.40000152588</ele>
        <time>2019-12-22T09:06:38.000Z</time>
      </trkpt>
      <trkpt lat="47.27989" lon="-2.48928">
        <ele>125</ele>
        <time>2019-12-22T09:06:41.000Z</time>
      </trkpt>
      <trkpt lat="47.27989" lon="-2.48934">
        <ele>124.40000152588</ele>
        <time>2019-12-22T09:06:42.000Z</time>
      </trkpt>
      <trkpt lat="47.27989" lon="-2.4894">
        <ele>124</ele>
        <time>2019-12-22T09:06:43.000Z</time>
      </trkpt>
      <trkpt lat="47.2799" lon="-2.48946">
        <ele>123.40000152588</ele>
        <time>2019-12-22T09:06:44.000Z</time>
      </trkpt>
      <trkpt lat="47.27991" lon="-2.48952">
        <ele>123</ele>
        <time>2019-12-22T09:06:45.000Z</time>
      </trkpt>
      <trkpt lat="47.27992" lon="-2.48958">
        <ele>123</ele>
        <time>2019-12-22T09:06:46.000Z</time>
      </trkpt>
      <trkpt lat="47.27993" lon="-2.48969">
        <ele>123</ele>
        <time>2019-12-22T09:06:48.000Z</time>
      </trkpt>
      <trkpt lat="47.27995" lon="-2.48981">
        <ele>123</ele>
        <time>2019-12-22T09:06:50.000Z</time>
      </trkpt>
      <trkpt lat="47.27999" lon="-2.49005">
        <ele>123</ele>
        <time>2019-12-22T09:06:54.000Z</time>
      </trkpt>
      <trkpt lat="47.28007" lon="-2.49034">
        <ele>122.59999847412</ele>
        <time>2019-12-22T09:06:59.000Z</time>
      </trkpt>
      <trkpt lat="47.28009" lon="-2.4904">
        <ele>122.19999694824</ele>
        <time>2019-12-22T09:07:00.000Z</time>
      </trkpt>
      <trkpt lat="47.28008" lon="-2.49046">
        <ele>121.80000305176</ele>
        <time>2019-12-22T09:07:01.000Z</time>
      </trkpt>
      <trkpt lat="47.28008" lon="-2.49052">
        <ele>121</ele>
        <time>2019-12-22T09:07:02.000Z</time>
      </trkpt>
      <trkpt lat="47.28009" lon="-2.49075">
        <ele>121</ele>
        <time>2019-12-22T09:07:06.000Z</time>
      </trkpt>
      <trkpt lat="47.28011" lon="-2.4909">
        <ele>121</ele>
        <time>2019-12-22T09:07:10.000Z</time>
      </trkpt>
      <trkpt lat="47.28009" lon="-2.49103">
        <ele>121</ele>
        <time>2019-12-22T09:07:14.000Z</time>
      </trkpt>
      <trkpt lat="47.28007" lon="-2.49104">
        <ele>121</ele>
        <time>2019-12-22T09:07:15.000Z</time>
      </trkpt>
      <trkpt lat="47.27999" lon="-2.49112">
        <ele>121</ele>
        <time>2019-12-22T09:07:20.000Z</time>
      </trkpt>
      <trkpt lat="47.27998" lon="-2.49114">
        <ele>121</ele>
        <time>2019-12-22T09:07:21.000Z</time>
      </trkpt>
      <trkpt lat="47.27987" lon="-2.4912">
        <ele>121</ele>
        <time>2019-12-22T09:07:25.000Z</time>
      </trkpt>
      <trkpt lat="47.27977" lon="-2.49129">
        <ele>121</ele>
        <time>2019-12-22T09:07:29.000Z</time>
      </trkpt>
      <trkpt lat="47.27974" lon="-2.49134">
        <ele>121</ele>
        <time>2019-12-22T09:07:31.000Z</time>
      </trkpt>
      <trkpt lat="47.27973" lon="-2.49138">
        <ele>121</ele>
        <time>2019-12-22T09:07:33.000Z</time>
      </trkpt>
      <trkpt lat="47.27975" lon="-2.49147">
        <ele>121</ele>
        <time>2019-12-22T09:07:36.000Z</time>
      </trkpt>
      <trkpt lat="47.27976" lon="-2.49158">
        <ele>121</ele>
        <time>2019-12-22T09:07:39.000Z</time>
      </trkpt>
      <trkpt lat="47.27979" lon="-2.49175">
        <ele>121</ele>
        <time>2019-12-22T09:07:44.000Z</time>
      </trkpt>
      <trkpt lat="47.27977" lon="-2.49177">
        <ele>121</ele>
        <time>2019-12-22T09:07:46.000Z</time>
      </trkpt>
      <trkpt lat="47.27976" lon="-2.49178">
        <ele>121</ele>
        <time>2019-12-22T09:07:47.000Z</time>
      </trkpt>
      <trkpt lat="47.27975" lon="-2.49188">
        <ele>121</ele>
        <time>2019-12-22T09:07:51.000Z</time>
      </trkpt>
      <trkpt lat="47.27976" lon="-2.49192">
        <ele>121.59999847412</ele>
        <time>2019-12-22T09:07:52.000Z</time>
      </trkpt>
      <trkpt lat="47.27975" lon="-2.49196">
        <ele>122.19999694824</ele>
        <time>2019-12-22T09:07:53.000Z</time>
      </trkpt>
      <trkpt lat="47.27976" lon="-2.49199">
        <ele>122.59999847412</ele>
        <time>2019-12-22T09:07:54.000Z</time>
      </trkpt>
      <trkpt lat="47.27976" lon="-2.49204">
        <ele>123.19999694824</ele>
        <time>2019-12-22T09:07:55.000Z</time>
      </trkpt>
      <trkpt lat="47.27976" lon="-2.49207">
        <ele>123.80000305176</ele>
        <time>2019-12-22T09:07:56.000Z</time>
      </trkpt>
      <trkpt lat="47.27978" lon="-2.49219">
        <ele>123.80000305176</ele>
        <time>2019-12-22T09:07:59.000Z</time>
      </trkpt>
      <trkpt lat="47.27982" lon="-2.49242">
        <ele>123.80000305176</ele>
        <time>2019-12-22T09:08:05.000Z</time>
      </trkpt>
      <trkpt lat="47.27983" lon="-2.49246">
        <ele>123.40000152588</ele>
        <time>2019-12-22T09:08:06.000Z</time>
      </trkpt>
      <trkpt lat="47.27984" lon="-2.49249">
        <ele>122.80000305176</ele>
        <time>2019-12-22T09:08:07.000Z</time>
      </trkpt>
      <trkpt lat="47.27985" lon="-2.49253">
        <ele>122.40000152588</ele>
        <time>2019-12-22T09:08:08.000Z</time>
      </trkpt>
      <trkpt lat="47.27986" lon="-2.49256">
        <ele>121.80000305176</ele>
        <time>2019-12-22T09:08:09.000Z</time>
      </trkpt>
      <trkpt lat="47.27988" lon="-2.49258">
        <ele>121.40000152588</ele>
        <time>2019-12-22T09:08:10.000Z</time>
      </trkpt>
      <trkpt lat="47.27988" lon="-2.4926">
        <ele>121.40000152588</ele>
        <time>2019-12-22T09:08:11.000Z</time>
      </trkpt>
      <trkpt lat="47.27996" lon="-2.49263">
        <ele>121.40000152588</ele>
        <time>2019-12-22T09:08:15.000Z</time>
      </trkpt>
      <trkpt lat="47.27998" lon="-2.49261">
        <ele>120.59999847412</ele>
        <time>2019-12-22T09:08:16.000Z</time>
      </trkpt>
      <trkpt lat="47.28" lon="-2.49261">
        <ele>120.19999694824</ele>
        <time>2019-12-22T09:08:17.000Z</time>
      </trkpt>
      <trkpt lat="47.28002" lon="-2.49261">
        <ele>119.80000305176</ele>
        <time>2019-12-22T09:08:18.000Z</time>
      </trkpt>
      <trkpt lat="47.28004" lon="-2.49261">
        <ele>119.40000152588</ele>
        <time>2019-12-22T09:08:19.000Z</time>
      </trkpt>
      <trkpt lat="47.28007" lon="-2.49264">
        <ele>119.40000152588</ele>
        <time>2019-12-22T09:08:21.000Z</time>
      </trkpt>
      <trkpt lat="47.28014" lon="-2.49262">
        <ele>119.40000152588</ele>
        <time>2019-12-22T09:08:23.000Z</time>
      </trkpt>
      <trkpt lat="47.28022" lon="-2.49257">
        <ele>119.40000152588</ele>
        <time>2019-12-22T09:08:27.000Z</time>
      </trkpt>
      <trkpt lat="47.28033" lon="-2.49253">
        <ele>119.40000152588</ele>
        <time>2019-12-22T09:08:32.000Z</time>
      </trkpt>
      <trkpt lat="47.28036" lon="-2.49256">
        <ele>119.40000152588</ele>
        <time>2019-12-22T09:08:34.000Z</time>
      </trkpt>
      <trkpt lat="47.28048" lon="-2.49263">
        <ele>119.40000152588</ele>
        <time>2019-12-22T09:08:39.000Z</time>
      </trkpt>
      <trkpt lat="47.28057" lon="-2.4927">
        <ele>119.40000152588</ele>
        <time>2019-12-22T09:08:44.000Z</time>
      </trkpt>
      <trkpt lat="47.28057" lon="-2.49272">
        <ele>119.40000152588</ele>
        <time>2019-12-22T09:08:45.000Z</time>
      </trkpt>
      <trkpt lat="47.28054" lon="-2.49276">
        <ele>119.40000152588</ele>
        <time>2019-12-22T09:08:48.000Z</time>
      </trkpt>
      <trkpt lat="47.28042" lon="-2.49277">
        <ele>119.40000152588</ele>
        <time>2019-12-22T09:08:52.000Z</time>
      </trkpt>
      <trkpt lat="47.28031" lon="-2.49279">
        <ele>119.80000305176</ele>
        <time>2019-12-22T09:08:55.000Z</time>
      </trkpt>
      <trkpt lat="47.28028" lon="-2.4928">
        <ele>120.19999694824</ele>
        <time>2019-12-22T09:08:56.000Z</time>
      </trkpt>
      <trkpt lat="47.28024" lon="-2.49281">
        <ele>120.59999847412</ele>
        <time>2019-12-22T09:08:57.000Z</time>
      </trkpt>
      <trkpt lat="47.28021" lon="-2.49282">
        <ele>120.19999694824</ele>
        <time>2019-12-22T09:08:58.000Z</time>
      </trkpt>
      <trkpt lat="47.28018" lon="-2.49283">
        <ele>120</ele>
        <time>2019-12-22T09:08:59.000Z</time>
      </trkpt>
      <trkpt lat="47.28015" lon="-2.49285">
        <ele>119.59999847412</ele>
        <time>2019-12-22T09:09:00.000Z</time>
      </trkpt>
      <trkpt lat="47.28012" lon="-2.49284">
        <ele>119.40000152588</ele>
        <time>2019-12-22T09:09:01.000Z</time>
      </trkpt>
      <trkpt lat="47.28009" lon="-2.49282">
        <ele>119</ele>
        <time>2019-12-22T09:09:02.000Z</time>
      </trkpt>
      <trkpt lat="47.27987" lon="-2.4928">
        <ele>119</ele>
        <time>2019-12-22T09:09:09.000Z</time>
      </trkpt>
      <trkpt lat="47.27989" lon="-2.49293">
        <ele>119</ele>
        <time>2019-12-22T09:09:12.000Z</time>
      </trkpt>
      <trkpt lat="47.2799" lon="-2.49298">
        <ele>119</ele>
        <time>2019-12-22T09:09:13.000Z</time>
      </trkpt>
      <trkpt lat="47.27991" lon="-2.49302">
        <ele>119.59999847412</ele>
        <time>2019-12-22T09:09:14.000Z</time>
      </trkpt>
      <trkpt lat="47.27992" lon="-2.49306">
        <ele>120</ele>
        <time>2019-12-22T09:09:15.000Z</time>
      </trkpt>
      <trkpt lat="47.27993" lon="-2.49311">
        <ele>120.40000152588</ele>
        <time>2019-12-22T09:09:16.000Z</time>
      </trkpt>
      <trkpt lat="47.27994" lon="-2.49314">
        <ele>121</ele>
        <time>2019-12-22T09:09:17.000Z</time>
      </trkpt>
      <trkpt lat="47.27995" lon="-2.49319">
        <ele>121.59999847412</ele>
        <time>2019-12-22T09:09:18.000Z</time>
      </trkpt>
      <trkpt lat="47.27996" lon="-2.49323">
        <ele>122.19999694824</ele>
        <time>2019-12-22T09:09:19.000Z</time>
      </trkpt>
      <trkpt lat="47.27997" lon="-2.49328">
        <ele>122.80000305176</ele>
        <time>2019-12-22T09:09:20.000Z</time>
      </trkpt>
      <trkpt lat="47.27998" lon="-2.49332">
        <ele>123.40000152588</ele>
        <time>2019-12-22T09:09:21.000Z</time>
      </trkpt>
      <trkpt lat="47.28005" lon="-2.49351">
        <ele>123.40000152588</ele>
        <time>2019-12-22T09:09:25.000Z</time>
      </trkpt>
      <trkpt lat="47.28011" lon="-2.49373">
        <ele>123.40000152588</ele>
        <time>2019-12-22T09:09:30.000Z</time>
      </trkpt>
      <trkpt lat="47.28013" lon="-2.49396">
        <ele>123.40000152588</ele>
        <time>2019-12-22T09:09:35.000Z</time>
      </trkpt>
      <trkpt lat="47.28012" lon="-2.49421">
        <ele>123.40000152588</ele>
        <time>2019-12-22T09:09:41.000Z</time>
      </trkpt>
      <trkpt lat="47.28019" lon="-2.49443">
        <ele>123.40000152588</ele>
        <time>2019-12-22T09:09:47.000Z</time>
      </trkpt>
      <trkpt lat="47.28026" lon="-2.49465">
        <ele>123.40000152588</ele>
        <time>2019-12-22T09:09:53.000Z</time>
      </trkpt>
      <trkpt lat="47.28027" lon="-2.49487">
        <ele>123.40000152588</ele>
        <time>2019-12-22T09:09:59.000Z</time>
      </trkpt>
      <trkpt lat="47.28026" lon="-2.49486">
        <ele>123.40000152588</ele>
        <time>2019-12-22T09:10:01.000Z</time>
      </trkpt>
      <trkpt lat="47.28029" lon="-2.49503">
        <ele>123.40000152588</ele>
        <time>2019-12-22T09:11:23.000Z</time>
      </trkpt>
      <trkpt lat="47.2803" lon="-2.49505">
        <ele>123.40000152588</ele>
        <time>2019-12-22T09:11:24.000Z</time>
      </trkpt>
      <trkpt lat="47.2804" lon="-2.49526">
        <ele>123.40000152588</ele>
        <time>2019-12-22T09:11:30.000Z</time>
      </trkpt>
      <trkpt lat="47.28052" lon="-2.4954">
        <ele>123.40000152588</ele>
        <time>2019-12-22T09:11:34.000Z</time>
      </trkpt>
      <trkpt lat="47.2806" lon="-2.4955">
        <ele>123</ele>
        <time>2019-12-22T09:11:37.000Z</time>
      </trkpt>
      <trkpt lat="47.28062" lon="-2.49554">
        <ele>122.40000152588</ele>
        <time>2019-12-22T09:11:38.000Z</time>
      </trkpt>
      <trkpt lat="47.28064" lon="-2.49557">
        <ele>122</ele>
        <time>2019-12-22T09:11:39.000Z</time>
      </trkpt>
      <trkpt lat="47.28066" lon="-2.4956">
        <ele>121.59999847412</ele>
        <time>2019-12-22T09:11:40.000Z</time>
      </trkpt>
      <trkpt lat="47.28068" lon="-2.49563">
        <ele>121.19999694824</ele>
        <time>2019-12-22T09:11:41.000Z</time>
      </trkpt>
      <trkpt lat="47.28079" lon="-2.49578">
        <ele>121.19999694824</ele>
        <time>2019-12-22T09:11:47.000Z</time>
      </trkpt>
      <trkpt lat="47.28089" lon="-2.49593">
        <ele>121.19999694824</ele>
        <time>2019-12-22T09:11:54.000Z</time>
      </trkpt>
      <trkpt lat="47.28096" lon="-2.49611">
        <ele>121.19999694824</ele>
        <time>2019-12-22T09:12:00.000Z</time>
      </trkpt>
      <trkpt lat="47.28106" lon="-2.4963">
        <ele>121.19999694824</ele>
        <time>2019-12-22T09:12:05.000Z</time>
      </trkpt>
      <trkpt lat="47.28121" lon="-2.49654">
        <ele>121.19999694824</ele>
        <time>2019-12-22T09:12:11.000Z</time>
      </trkpt>
      <trkpt lat="47.28127" lon="-2.49676">
        <ele>121.19999694824</ele>
        <time>2019-12-22T09:12:15.000Z</time>
      </trkpt>
      <trkpt lat="47.28129" lon="-2.49693">
        <ele>121.19999694824</ele>
        <time>2019-12-22T09:12:18.000Z</time>
      </trkpt>
      <trkpt lat="47.28131" lon="-2.49704">
        <ele>121.19999694824</ele>
        <time>2019-12-22T09:12:20.000Z</time>
      </trkpt>
      <trkpt lat="47.28134" lon="-2.49728">
        <ele>121.19999694824</ele>
        <time>2019-12-22T09:12:24.000Z</time>
      </trkpt>
      <trkpt lat="47.28141" lon="-2.49781">
        <ele>121.19999694824</ele>
        <time>2019-12-22T09:12:32.000Z</time>
      </trkpt>
      <trkpt lat="47.28148" lon="-2.49826">
        <ele>121.19999694824</ele>
        <time>2019-12-22T09:12:38.000Z</time>
      </trkpt>
      <trkpt lat="47.28148" lon="-2.49833">
        <ele>121.19999694824</ele>
        <time>2019-12-22T09:12:39.000Z</time>
      </trkpt>
      <trkpt lat="47.28149" lon="-2.49848">
        <ele>121.19999694824</ele>
        <time>2019-12-22T09:12:41.000Z</time>
      </trkpt>
      <trkpt lat="47.28153" lon="-2.49868">
        <ele>121.19999694824</ele>
        <time>2019-12-22T09:12:44.000Z</time>
      </trkpt>
      <trkpt lat="47.28158" lon="-2.49913">
        <ele>121.19999694824</ele>
        <time>2019-12-22T09:12:51.000Z</time>
      </trkpt>
      <trkpt lat="47.2816" lon="-2.49931">
        <ele>121.19999694824</ele>
        <time>2019-12-22T09:12:54.000Z</time>
      </trkpt>
      <trkpt lat="47.28162" lon="-2.49944">
        <ele>121.19999694824</ele>
        <time>2019-12-22T09:12:56.000Z</time>
      </trkpt>
      <trkpt lat="47.28167" lon="-2.49962">
        <ele>121.19999694824</ele>
        <time>2019-12-22T09:12:59.000Z</time>
      </trkpt>
      <trkpt lat="47.28171" lon="-2.49974">
        <ele>121.19999694824</ele>
        <time>2019-12-22T09:13:01.000Z</time>
      </trkpt>
      <trkpt lat="47.28172" lon="-2.49979">
        <ele>120.80000305176</ele>
        <time>2019-12-22T09:13:02.000Z</time>
      </trkpt>
      <trkpt lat="47.28173" lon="-2.49985">
        <ele>120.40000152588</ele>
        <time>2019-12-22T09:13:03.000Z</time>
      </trkpt>
      <trkpt lat="47.28174" lon="-2.4999">
        <ele>120</ele>
        <time>2019-12-22T09:13:04.000Z</time>
      </trkpt>
      <trkpt lat="47.28174" lon="-2.49996">
        <ele>119.59999847412</ele>
        <time>2019-12-22T09:13:05.000Z</time>
      </trkpt>
      <trkpt lat="47.28175" lon="-2.50001">
        <ele>119.19999694824</ele>
        <time>2019-12-22T09:13:06.000Z</time>
      </trkpt>
      <trkpt lat="47.28175" lon="-2.50008">
        <ele>119.19999694824</ele>
        <time>2019-12-22T09:13:07.000Z</time>
      </trkpt>
      <trkpt lat="47.28179" lon="-2.50026">
        <ele>119.19999694824</ele>
        <time>2019-12-22T09:13:10.000Z</time>
      </trkpt>
      <trkpt lat="47.28181" lon="-2.50033">
        <ele>119.19999694824</ele>
        <time>2019-12-22T09:13:11.000Z</time>
      </trkpt>
      <trkpt lat="47.28184" lon="-2.50058">
        <ele>119.19999694824</ele>
        <time>2019-12-22T09:13:14.000Z</time>
      </trkpt>
      <trkpt lat="47.28185" lon="-2.50066">
        <ele>119.19999694824</ele>
        <time>2019-12-22T09:13:15.000Z</time>
      </trkpt>
      <trkpt lat="47.28191" lon="-2.50093">
        <ele>119.19999694824</ele>
        <time>2019-12-22T09:13:19.000Z</time>
      </trkpt>
      <trkpt lat="47.28194" lon="-2.50112">
        <ele>119.19999694824</ele>
        <time>2019-12-22T09:13:22.000Z</time>
      </trkpt>
      <trkpt lat="47.28197" lon="-2.50129">
        <ele>119.19999694824</ele>
        <time>2019-12-22T09:13:25.000Z</time>
      </trkpt>
      <trkpt lat="47.28203" lon="-2.50153">
        <ele>119.19999694824</ele>
        <time>2019-12-22T09:13:29.000Z</time>
      </trkpt>
      <trkpt lat="47.28204" lon="-2.50159">
        <ele>119.19999694824</ele>
        <time>2019-12-22T09:13:30.000Z</time>
      </trkpt>
      <trkpt lat="47.28213" lon="-2.50189">
        <ele>119.19999694824</ele>
        <time>2019-12-22T09:13:35.000Z</time>
      </trkpt>
      <trkpt lat="47.28223" lon="-2.50217">
        <ele>119.19999694824</ele>
        <time>2019-12-22T09:13:40.000Z</time>
      </trkpt>
      <trkpt lat="47.28228" lon="-2.50227">
        <ele>119.19999694824</ele>
        <time>2019-12-22T09:13:42.000Z</time>
      </trkpt>
      <trkpt lat="47.28241" lon="-2.50246">
        <ele>119.19999694824</ele>
        <time>2019-12-22T09:13:46.000Z</time>
      </trkpt>
      <trkpt lat="47.28244" lon="-2.5025">
        <ele>119.19999694824</ele>
        <time>2019-12-22T09:13:47.000Z</time>
      </trkpt>
      <trkpt lat="47.28258" lon="-2.50267">
        <ele>119.19999694824</ele>
        <time>2019-12-22T09:13:52.000Z</time>
      </trkpt>
      <trkpt lat="47.2826" lon="-2.5027">
        <ele>119.19999694824</ele>
        <time>2019-12-22T09:13:53.000Z</time>
      </trkpt>
      <trkpt lat="47.28265" lon="-2.50283">
        <ele>119.19999694824</ele>
        <time>2019-12-22T09:13:56.000Z</time>
      </trkpt>
      <trkpt lat="47.28274" lon="-2.50306">
        <ele>119.19999694824</ele>
        <time>2019-12-22T09:14:01.000Z</time>
      </trkpt>
      <trkpt lat="47.28282" lon="-2.50311">
        <ele>119.19999694824</ele>
        <time>2019-12-22T09:14:05.000Z</time>
      </trkpt>
      <trkpt lat="47.28284" lon="-2.5031">
        <ele>119.19999694824</ele>
        <time>2019-12-22T09:14:06.000Z</time>
      </trkpt>
      <trkpt lat="47.28289" lon="-2.50304">
        <ele>119.19999694824</ele>
        <time>2019-12-22T09:14:08.000Z</time>
      </trkpt>
      <trkpt lat="47.28295" lon="-2.50295">
        <ele>119.19999694824</ele>
        <time>2019-12-22T09:14:10.000Z</time>
      </trkpt>
      <trkpt lat="47.28303" lon="-2.5029">
        <ele>119.19999694824</ele>
        <time>2019-12-22T09:14:12.000Z</time>
      </trkpt>
      <trkpt lat="47.28316" lon="-2.50288">
        <ele>119.19999694824</ele>
        <time>2019-12-22T09:14:15.000Z</time>
      </trkpt>
      <trkpt lat="47.28324" lon="-2.5029">
        <ele>119.19999694824</ele>
        <time>2019-12-22T09:14:17.000Z</time>
      </trkpt>
      <trkpt lat="47.28337" lon="-2.50299">
        <ele>119.19999694824</ele>
        <time>2019-12-22T09:14:20.000Z</time>
      </trkpt>
      <trkpt lat="47.28345" lon="-2.50305">
        <ele>119.19999694824</ele>
        <time>2019-12-22T09:14:22.000Z</time>
      </trkpt>
      <trkpt lat="47.28357" lon="-2.50314">
        <ele>119.19999694824</ele>
        <time>2019-12-22T09:14:25.000Z</time>
      </trkpt>
      <trkpt lat="47.28365" lon="-2.50319">
        <ele>119.19999694824</ele>
        <time>2019-12-22T09:14:27.000Z</time>
      </trkpt>
      <trkpt lat="47.28381" lon="-2.5033">
        <ele>119.19999694824</ele>
        <time>2019-12-22T09:14:32.000Z</time>
      </trkpt>
      <trkpt lat="47.28403" lon="-2.5035">
        <ele>119.19999694824</ele>
        <time>2019-12-22T09:14:38.000Z</time>
      </trkpt>
      <trkpt lat="47.28427" lon="-2.50363">
        <ele>119.19999694824</ele>
        <time>2019-12-22T09:14:44.000Z</time>
      </trkpt>
      <trkpt lat="47.28461" lon="-2.50386">
        <ele>119.19999694824</ele>
        <time>2019-12-22T09:14:53.000Z</time>
      </trkpt>
      <trkpt lat="47.28483" lon="-2.504">
        <ele>119.19999694824</ele>
        <time>2019-12-22T09:14:59.000Z</time>
      </trkpt>
      <trkpt lat="47.2849" lon="-2.50405">
        <ele>119.19999694824</ele>
        <time>2019-12-22T09:15:01.000Z</time>
      </trkpt>
      <trkpt lat="47.2851" lon="-2.50417">
        <ele>119.19999694824</ele>
        <time>2019-12-22T09:15:06.000Z</time>
      </trkpt>
      <trkpt lat="47.28514" lon="-2.5042">
        <ele>119.19999694824</ele>
        <time>2019-12-22T09:15:07.000Z</time>
      </trkpt>
      <trkpt lat="47.28534" lon="-2.50435">
        <ele>119.19999694824</ele>
        <time>2019-12-22T09:15:12.000Z</time>
      </trkpt>
      <trkpt lat="47.28562" lon="-2.50452">
        <ele>119.19999694824</ele>
        <time>2019-12-22T09:15:18.000Z</time>
      </trkpt>
      <trkpt lat="47.28597" lon="-2.50474">
        <ele>119.19999694824</ele>
        <time>2019-12-22T09:15:26.000Z</time>
      </trkpt>
      <trkpt lat="47.28602" lon="-2.50477">
        <ele>119.19999694824</ele>
        <time>2019-12-22T09:15:27.000Z</time>
      </trkpt>
      <trkpt lat="47.28625" lon="-2.50493">
        <ele>119.19999694824</ele>
        <time>2019-12-22T09:15:32.000Z</time>
      </trkpt>
      <trkpt lat="47.2866" lon="-2.50516">
        <ele>119.19999694824</ele>
        <time>2019-12-22T09:15:40.000Z</time>
      </trkpt>
      <trkpt lat="47.28691" lon="-2.50537">
        <ele>119.19999694824</ele>
        <time>2019-12-22T09:15:47.000Z</time>
      </trkpt>
      <trkpt lat="47.28729" lon="-2.50563">
        <ele>119.19999694824</ele>
        <time>2019-12-22T09:15:55.000Z</time>
      </trkpt>
      <trkpt lat="47.28765" lon="-2.50585">
        <ele>119.19999694824</ele>
        <time>2019-12-22T09:16:02.000Z</time>
      </trkpt>
      <trkpt lat="47.28797" lon="-2.50601">
        <ele>119.19999694824</ele>
        <time>2019-12-22T09:16:08.000Z</time>
      </trkpt>
      <trkpt lat="47.28849" lon="-2.50626">
        <ele>119.19999694824</ele>
        <time>2019-12-22T09:16:17.000Z</time>
      </trkpt>
      <trkpt lat="47.28874" lon="-2.50645">
        <ele>119.19999694824</ele>
        <time>2019-12-22T09:16:22.000Z</time>
      </trkpt>
      <trkpt lat="47.28878" lon="-2.50648">
        <ele>119.59999847412</ele>
        <time>2019-12-22T09:16:23.000Z</time>
      </trkpt>
      <trkpt lat="47.28882" lon="-2.50651">
        <ele>120.19999694824</ele>
        <time>2019-12-22T09:16:24.000Z</time>
      </trkpt>
      <trkpt lat="47.28886" lon="-2.50655">
        <ele>120.59999847412</ele>
        <time>2019-12-22T09:16:25.000Z</time>
      </trkpt>
      <trkpt lat="47.2889" lon="-2.50659">
        <ele>121</ele>
        <time>2019-12-22T09:16:26.000Z</time>
      </trkpt>
      <trkpt lat="47.28894" lon="-2.50664">
        <ele>121.59999847412</ele>
        <time>2019-12-22T09:16:27.000Z</time>
      </trkpt>
      <trkpt lat="47.28901" lon="-2.50675">
        <ele>121.19999694824</ele>
        <time>2019-12-22T09:16:29.000Z</time>
      </trkpt>
      <trkpt lat="47.28905" lon="-2.5068">
        <ele>120.19999694824</ele>
        <time>2019-12-22T09:16:30.000Z</time>
      </trkpt>
      <trkpt lat="47.28908" lon="-2.50686">
        <ele>119.80000305176</ele>
        <time>2019-12-22T09:16:31.000Z</time>
      </trkpt>
      <trkpt lat="47.28911" lon="-2.50691">
        <ele>119.40000152588</ele>
        <time>2019-12-22T09:16:32.000Z</time>
      </trkpt>
      <trkpt lat="47.28933" lon="-2.50721">
        <ele>119.40000152588</ele>
        <time>2019-12-22T09:16:38.000Z</time>
      </trkpt>
      <trkpt lat="47.28937" lon="-2.50725">
        <ele>119.40000152588</ele>
        <time>2019-12-22T09:16:39.000Z</time>
      </trkpt>
      <trkpt lat="47.2896" lon="-2.5074">
        <ele>119.40000152588</ele>
        <time>2019-12-22T09:16:44.000Z</time>
      </trkpt>
      <trkpt lat="47.2897" lon="-2.50744">
        <ele>119.40000152588</ele>
        <time>2019-12-22T09:16:46.000Z</time>
      </trkpt>
      <trkpt lat="47.28991" lon="-2.50747">
        <ele>119.40000152588</ele>
        <time>2019-12-22T09:16:50.000Z</time>
      </trkpt>
      <trkpt lat="47.28996" lon="-2.50749">
        <ele>119.40000152588</ele>
        <time>2019-12-22T09:16:51.000Z</time>
      </trkpt>
      <trkpt lat="47.29016" lon="-2.50756">
        <ele>119.40000152588</ele>
        <time>2019-12-22T09:16:55.000Z</time>
      </trkpt>
      <trkpt lat="47.29028" lon="-2.50746">
        <ele>119.40000152588</ele>
        <time>2019-12-22T09:16:58.000Z</time>
      </trkpt>
      <trkpt lat="47.29033" lon="-2.50725">
        <ele>119.40000152588</ele>
        <time>2019-12-22T09:17:01.000Z</time>
      </trkpt>
      <trkpt lat="47.2904" lon="-2.507">
        <ele>119.40000152588</ele>
        <time>2019-12-22T09:17:05.000Z</time>
      </trkpt>
      <trkpt lat="47.29042" lon="-2.50694">
        <ele>119.40000152588</ele>
        <time>2019-12-22T09:17:06.000Z</time>
      </trkpt>
      <trkpt lat="47.29048" lon="-2.50683">
        <ele>119.40000152588</ele>
        <time>2019-12-22T09:17:08.000Z</time>
      </trkpt>
      <trkpt lat="47.29054" lon="-2.50676">
        <ele>119.40000152588</ele>
        <time>2019-12-22T09:17:10.000Z</time>
      </trkpt>
      <trkpt lat="47.29063" lon="-2.5068">
        <ele>119.40000152588</ele>
        <time>2019-12-22T09:17:13.000Z</time>
      </trkpt>
      <trkpt lat="47.2907" lon="-2.50684">
        <ele>119.40000152588</ele>
        <time>2019-12-22T09:17:15.000Z</time>
      </trkpt>
      <trkpt lat="47.2908" lon="-2.50685">
        <ele>119.40000152588</ele>
        <time>2019-12-22T09:17:18.000Z</time>
      </trkpt>
      <trkpt lat="47.29092" lon="-2.50682">
        <ele>119.40000152588</ele>
        <time>2019-12-22T09:17:21.000Z</time>
      </trkpt>
      <trkpt lat="47.291" lon="-2.50679">
        <ele>119.40000152588</ele>
        <time>2019-12-22T09:17:23.000Z</time>
      </trkpt>
      <trkpt lat="47.29108" lon="-2.50677">
        <ele>119.40000152588</ele>
        <time>2019-12-22T09:17:25.000Z</time>
      </trkpt>
      <trkpt lat="47.2912" lon="-2.50674">
        <ele>119.40000152588</ele>
        <time>2019-12-22T09:17:28.000Z</time>
      </trkpt>
      <trkpt lat="47.29124" lon="-2.50673">
        <ele>119.40000152588</ele>
        <time>2019-12-22T09:17:29.000Z</time>
      </trkpt>
      <trkpt lat="47.29153" lon="-2.50665">
        <ele>119.40000152588</ele>
        <time>2019-12-22T09:17:36.000Z</time>
      </trkpt>
      <trkpt lat="47.29157" lon="-2.50664">
        <ele>119.40000152588</ele>
        <time>2019-12-22T09:17:37.000Z</time>
      </trkpt>
      <trkpt lat="47.29175" lon="-2.50657">
        <ele>119.40000152588</ele>
        <time>2019-12-22T09:17:42.000Z</time>
      </trkpt>
      <trkpt lat="47.29182" lon="-2.50655">
        <ele>119.40000152588</ele>
        <time>2019-12-22T09:17:44.000Z</time>
      </trkpt>
      <trkpt lat="47.29189" lon="-2.5066">
        <ele>119.40000152588</ele>
        <time>2019-12-22T09:17:46.000Z</time>
      </trkpt>
      <trkpt lat="47.29195" lon="-2.50673">
        <ele>119.80000305176</ele>
        <time>2019-12-22T09:17:50.000Z</time>
      </trkpt>
      <trkpt lat="47.29195" lon="-2.50676">
        <ele>120.19999694824</ele>
        <time>2019-12-22T09:17:51.000Z</time>
      </trkpt>
      <trkpt lat="47.29195" lon="-2.50679">
        <ele>120.59999847412</ele>
        <time>2019-12-22T09:17:52.000Z</time>
      </trkpt>
      <trkpt lat="47.29194" lon="-2.50682">
        <ele>121</ele>
        <time>2019-12-22T09:17:53.000Z</time>
      </trkpt>
      <trkpt lat="47.29193" lon="-2.50685">
        <ele>121.40000152588</ele>
        <time>2019-12-22T09:17:54.000Z</time>
      </trkpt>
      <trkpt lat="47.29187" lon="-2.50705">
        <ele>121.40000152588</ele>
        <time>2019-12-22T09:18:00.000Z</time>
      </trkpt>
      <trkpt lat="47.29186" lon="-2.50718">
        <ele>121.80000305176</ele>
        <time>2019-12-22T09:18:05.000Z</time>
      </trkpt>
      <trkpt lat="47.29185" lon="-2.5072">
        <ele>122.19999694824</ele>
        <time>2019-12-22T09:18:06.000Z</time>
      </trkpt>
      <trkpt lat="47.29184" lon="-2.50722">
        <ele>122.80000305176</ele>
        <time>2019-12-22T09:18:07.000Z</time>
      </trkpt>
      <trkpt lat="47.29184" lon="-2.50724">
        <ele>123.59999847412</ele>
        <time>2019-12-22T09:18:08.000Z</time>
      </trkpt>
      <trkpt lat="47.29185" lon="-2.50732">
        <ele>123.59999847412</ele>
        <time>2019-12-22T09:18:11.000Z</time>
      </trkpt>
      <trkpt lat="47.2918" lon="-2.50749">
        <ele>123.59999847412</ele>
        <time>2019-12-22T09:18:15.000Z</time>
      </trkpt>
      <trkpt lat="47.29179" lon="-2.50774">
        <ele>123.59999847412</ele>
        <time>2019-12-22T09:18:21.000Z</time>
      </trkpt>
      <trkpt lat="47.29181" lon="-2.50785">
        <ele>123.59999847412</ele>
        <time>2019-12-22T09:18:23.000Z</time>
      </trkpt>
      <trkpt lat="47.29187" lon="-2.50792">
        <ele>123.59999847412</ele>
        <time>2019-12-22T09:18:25.000Z</time>
      </trkpt>
      <trkpt lat="47.29194" lon="-2.508">
        <ele>123.59999847412</ele>
        <time>2019-12-22T09:18:27.000Z</time>
      </trkpt>
      <trkpt lat="47.29205" lon="-2.50815">
        <ele>123.59999847412</ele>
        <time>2019-12-22T09:18:31.000Z</time>
      </trkpt>
      <trkpt lat="47.29213" lon="-2.50827">
        <ele>123.19999694824</ele>
        <time>2019-12-22T09:18:34.000Z</time>
      </trkpt>
      <trkpt lat="47.29215" lon="-2.50831">
        <ele>122.59999847412</ele>
        <time>2019-12-22T09:18:35.000Z</time>
      </trkpt>
      <trkpt lat="47.29217" lon="-2.50834">
        <ele>122.19999694824</ele>
        <time>2019-12-22T09:18:36.000Z</time>
      </trkpt>
      <trkpt lat="47.29219" lon="-2.50837">
        <ele>121.80000305176</ele>
        <time>2019-12-22T09:18:37.000Z</time>
      </trkpt>
      <trkpt lat="47.29221" lon="-2.50839">
        <ele>121.40000152588</ele>
        <time>2019-12-22T09:18:38.000Z</time>
      </trkpt>
      <trkpt lat="47.29223" lon="-2.50842">
        <ele>121.40000152588</ele>
        <time>2019-12-22T09:18:39.000Z</time>
      </trkpt>
      <trkpt lat="47.29227" lon="-2.50847">
        <ele>121.40000152588</ele>
        <time>2019-12-22T09:18:41.000Z</time>
      </trkpt>
      <trkpt lat="47.2923" lon="-2.50848">
        <ele>121</ele>
        <time>2019-12-22T09:18:42.000Z</time>
      </trkpt>
      <trkpt lat="47.29234" lon="-2.5085">
        <ele>120.59999847412</ele>
        <time>2019-12-22T09:18:43.000Z</time>
      </trkpt>
      <trkpt lat="47.29237" lon="-2.50851">
        <ele>120.19999694824</ele>
        <time>2019-12-22T09:18:44.000Z</time>
      </trkpt>
      <trkpt lat="47.29241" lon="-2.50853">
        <ele>119.80000305176</ele>
        <time>2019-12-22T09:18:45.000Z</time>
      </trkpt>
      <trkpt lat="47.29244" lon="-2.50856">
        <ele>119.40000152588</ele>
        <time>2019-12-22T09:18:46.000Z</time>
      </trkpt>
      <trkpt lat="47.29257" lon="-2.50869">
        <ele>119.40000152588</ele>
        <time>2019-12-22T09:18:51.000Z</time>
      </trkpt>
      <trkpt lat="47.29281" lon="-2.50881">
        <ele>119.40000152588</ele>
        <time>2019-12-22T09:18:59.000Z</time>
      </trkpt>
      <trkpt lat="47.29304" lon="-2.50898">
        <ele>119.40000152588</ele>
        <time>2019-12-22T09:19:06.000Z</time>
      </trkpt>
      <trkpt lat="47.29322" lon="-2.5091">
        <ele>119.40000152588</ele>
        <time>2019-12-22T09:19:11.000Z</time>
      </trkpt>
      <trkpt lat="47.29348" lon="-2.50928">
        <ele>119.40000152588</ele>
        <time>2019-12-22T09:19:18.000Z</time>
      </trkpt>
      <trkpt lat="47.2936" lon="-2.50932">
        <ele>119.40000152588</ele>
        <time>2019-12-22T09:19:21.000Z</time>
      </trkpt>
      <trkpt lat="47.29368" lon="-2.50933">
        <ele>119.40000152588</ele>
        <time>2019-12-22T09:19:23.000Z</time>
      </trkpt>
      <trkpt lat="47.29382" lon="-2.50945">
        <ele>119.40000152588</ele>
        <time>2019-12-22T09:19:27.000Z</time>
      </trkpt>
      <trkpt lat="47.29392" lon="-2.50969">
        <ele>119.40000152588</ele>
        <time>2019-12-22T09:19:32.000Z</time>
      </trkpt>
      <trkpt lat="47.29397" lon="-2.50985">
        <ele>119.40000152588</ele>
        <time>2019-12-22T09:19:35.000Z</time>
      </trkpt>
      <trkpt lat="47.29397" lon="-2.50998">
        <ele>119.40000152588</ele>
        <time>2019-12-22T09:19:37.000Z</time>
      </trkpt>
      <trkpt lat="47.29398" lon="-2.51004">
        <ele>119</ele>
        <time>2019-12-22T09:19:38.000Z</time>
      </trkpt>
      <trkpt lat="47.294" lon="-2.51009">
        <ele>118.59999847412</ele>
        <time>2019-12-22T09:19:39.000Z</time>
      </trkpt>
      <trkpt lat="47.29402" lon="-2.51014">
        <ele>118.19999694824</ele>
        <time>2019-12-22T09:19:40.000Z</time>
      </trkpt>
      <trkpt lat="47.29405" lon="-2.51018">
        <ele>117.80000305176</ele>
        <time>2019-12-22T09:19:41.000Z</time>
      </trkpt>
      <trkpt lat="47.29408" lon="-2.51023">
        <ele>117.40000152588</ele>
        <time>2019-12-22T09:19:42.000Z</time>
      </trkpt>
      <trkpt lat="47.29415" lon="-2.51032">
        <ele>117.40000152588</ele>
        <time>2019-12-22T09:19:44.000Z</time>
      </trkpt>
      <trkpt lat="47.29418" lon="-2.51037">
        <ele>117.40000152588</ele>
        <time>2019-12-22T09:19:45.000Z</time>
      </trkpt>
      <trkpt lat="47.29436" lon="-2.51063">
        <ele>117.40000152588</ele>
        <time>2019-12-22T09:19:51.000Z</time>
      </trkpt>
      <trkpt lat="47.29454" lon="-2.51088">
        <ele>117.40000152588</ele>
        <time>2019-12-22T09:19:57.000Z</time>
      </trkpt>
      <trkpt lat="47.29458" lon="-2.51092">
        <ele>117.80000305176</ele>
        <time>2019-12-22T09:19:58.000Z</time>
      </trkpt>
      <trkpt lat="47.29461" lon="-2.51095">
        <ele>118.40000152588</ele>
        <time>2019-12-22T09:19:59.000Z</time>
      </trkpt>
      <trkpt lat="47.29464" lon="-2.511">
        <ele>118.80000305176</ele>
        <time>2019-12-22T09:20:00.000Z</time>
      </trkpt>
      <trkpt lat="47.29467" lon="-2.51104">
        <ele>119.19999694824</ele>
        <time>2019-12-22T09:20:01.000Z</time>
      </trkpt>
      <trkpt lat="47.2947" lon="-2.51108">
        <ele>119.80000305176</ele>
        <time>2019-12-22T09:20:02.000Z</time>
      </trkpt>
      <trkpt lat="47.29493" lon="-2.51139">
        <ele>119.80000305176</ele>
        <time>2019-12-22T09:20:10.000Z</time>
      </trkpt>
      <trkpt lat="47.29498" lon="-2.51149">
        <ele>119.80000305176</ele>
        <time>2019-12-22T09:20:12.000Z</time>
      </trkpt>
      <trkpt lat="47.29503" lon="-2.5116">
        <ele>119.80000305176</ele>
        <time>2019-12-22T09:20:14.000Z</time>
      </trkpt>
      <trkpt lat="47.29506" lon="-2.51171">
        <ele>119.80000305176</ele>
        <time>2019-12-22T09:20:16.000Z</time>
      </trkpt>
      <trkpt lat="47.29518" lon="-2.51216">
        <ele>119.80000305176</ele>
        <time>2019-12-22T09:20:24.000Z</time>
      </trkpt>
      <trkpt lat="47.29523" lon="-2.51233">
        <ele>119.80000305176</ele>
        <time>2019-12-22T09:20:27.000Z</time>
      </trkpt>
      <trkpt lat="47.29529" lon="-2.51256">
        <ele>119.80000305176</ele>
        <time>2019-12-22T09:20:31.000Z</time>
      </trkpt>
      <trkpt lat="47.29531" lon="-2.51262">
        <ele>119.80000305176</ele>
        <time>2019-12-22T09:20:32.000Z</time>
      </trkpt>
      <trkpt lat="47.29539" lon="-2.51285">
        <ele>119.80000305176</ele>
        <time>2019-12-22T09:20:36.000Z</time>
      </trkpt>
      <trkpt lat="47.2955" lon="-2.51315">
        <ele>119.80000305176</ele>
        <time>2019-12-22T09:20:42.000Z</time>
      </trkpt>
      <trkpt lat="47.29565" lon="-2.51324">
        <ele>119.80000305176</ele>
        <time>2019-12-22T09:20:46.000Z</time>
      </trkpt>
      <trkpt lat="47.29569" lon="-2.51326">
        <ele>119.80000305176</ele>
        <time>2019-12-22T09:20:47.000Z</time>
      </trkpt>
      <trkpt lat="47.29597" lon="-2.51341">
        <ele>119.80000305176</ele>
        <time>2019-12-22T09:20:54.000Z</time>
      </trkpt>
      <trkpt lat="47.2962" lon="-2.51361">
        <ele>119.80000305176</ele>
        <time>2019-12-22T09:21:00.000Z</time>
      </trkpt>
      <trkpt lat="47.29643" lon="-2.51381">
        <ele>119.80000305176</ele>
        <time>2019-12-22T09:21:06.000Z</time>
      </trkpt>
      <trkpt lat="47.29652" lon="-2.51388">
        <ele>119.80000305176</ele>
        <time>2019-12-22T09:21:08.000Z</time>
      </trkpt>
      <trkpt lat="47.2968" lon="-2.51412">
        <ele>119.80000305176</ele>
        <time>2019-12-22T09:21:15.000Z</time>
      </trkpt>
      <trkpt lat="47.29687" lon="-2.51419">
        <ele>119.80000305176</ele>
        <time>2019-12-22T09:21:17.000Z</time>
      </trkpt>
      <trkpt lat="47.29699" lon="-2.51428">
        <ele>119.80000305176</ele>
        <time>2019-12-22T09:21:20.000Z</time>
      </trkpt>
      <trkpt lat="47.29703" lon="-2.51431">
        <ele>119.80000305176</ele>
        <time>2019-12-22T09:21:21.000Z</time>
      </trkpt>
      <trkpt lat="47.29732" lon="-2.51449">
        <ele>119.80000305176</ele>
        <time>2019-12-22T09:21:28.000Z</time>
      </trkpt>
      <trkpt lat="47.29756" lon="-2.51464">
        <ele>119.80000305176</ele>
        <time>2019-12-22T09:21:34.000Z</time>
      </trkpt>
      <trkpt lat="47.2976" lon="-2.51467">
        <ele>119.80000305176</ele>
        <time>2019-12-22T09:21:35.000Z</time>
      </trkpt>
      <trkpt lat="47.29786" lon="-2.5148">
        <ele>119.80000305176</ele>
        <time>2019-12-22T09:21:41.000Z</time>
      </trkpt>
      <trkpt lat="47.29794" lon="-2.51483">
        <ele>119.80000305176</ele>
        <time>2019-12-22T09:21:43.000Z</time>
      </trkpt>
      <trkpt lat="47.29807" lon="-2.51487">
        <ele>119.80000305176</ele>
        <time>2019-12-22T09:21:46.000Z</time>
      </trkpt>
      <trkpt lat="47.29812" lon="-2.51502">
        <ele>119.80000305176</ele>
        <time>2019-12-22T09:21:49.000Z</time>
      </trkpt>
      <trkpt lat="47.29811" lon="-2.51507">
        <ele>119.80000305176</ele>
        <time>2019-12-22T09:21:50.000Z</time>
      </trkpt>
      <trkpt lat="47.29815" lon="-2.51521">
        <ele>119.80000305176</ele>
        <time>2019-12-22T09:21:53.000Z</time>
      </trkpt>
      <trkpt lat="47.29818" lon="-2.51526">
        <ele>119.80000305176</ele>
        <time>2019-12-22T09:21:54.000Z</time>
      </trkpt>
      <trkpt lat="47.29825" lon="-2.51543">
        <ele>119.80000305176</ele>
        <time>2019-12-22T09:21:58.000Z</time>
      </trkpt>
      <trkpt lat="47.29828" lon="-2.51551">
        <ele>119.80000305176</ele>
        <time>2019-12-22T09:22:01.000Z</time>
      </trkpt>
      <trkpt lat="47.2983" lon="-2.51552">
        <ele>119.80000305176</ele>
        <time>2019-12-22T09:22:02.000Z</time>
      </trkpt>
      <trkpt lat="47.29836" lon="-2.51555">
        <ele>119.80000305176</ele>
        <time>2019-12-22T09:22:06.000Z</time>
      </trkpt>
      <trkpt lat="47.2984" lon="-2.51557">
        <ele>119.80000305176</ele>
        <time>2019-12-22T09:22:08.000Z</time>
      </trkpt>
      <trkpt lat="47.29847" lon="-2.51555">
        <ele>119.80000305176</ele>
        <time>2019-12-22T09:22:12.000Z</time>
      </trkpt>
      <trkpt lat="47.29853" lon="-2.51552">
        <ele>119.80000305176</ele>
        <time>2019-12-22T09:22:15.000Z</time>
      </trkpt>
      <trkpt lat="47.29868" lon="-2.51548">
        <ele>119.80000305176</ele>
        <time>2019-12-22T09:22:22.000Z</time>
      </trkpt>
      <trkpt lat="47.29871" lon="-2.51548">
        <ele>119.19999694824</ele>
        <time>2019-12-22T09:22:23.000Z</time>
      </trkpt>
      <trkpt lat="47.29873" lon="-2.51548">
        <ele>118.80000305176</ele>
        <time>2019-12-22T09:22:24.000Z</time>
      </trkpt>
      <trkpt lat="47.29876" lon="-2.51549">
        <ele>118.40000152588</ele>
        <time>2019-12-22T09:22:25.000Z</time>
      </trkpt>
      <trkpt lat="47.29878" lon="-2.51552">
        <ele>118</ele>
        <time>2019-12-22T09:22:26.000Z</time>
      </trkpt>
      <trkpt lat="47.2988" lon="-2.51555">
        <ele>117.59999847412</ele>
        <time>2019-12-22T09:22:27.000Z</time>
      </trkpt>
      <trkpt lat="47.29885" lon="-2.51577">
        <ele>117.59999847412</ele>
        <time>2019-12-22T09:22:32.000Z</time>
      </trkpt>
      <trkpt lat="47.29888" lon="-2.51586">
        <ele>118</ele>
        <time>2019-12-22T09:22:34.000Z</time>
      </trkpt>
      <trkpt lat="47.29889" lon="-2.51591">
        <ele>118.40000152588</ele>
        <time>2019-12-22T09:22:35.000Z</time>
      </trkpt>
      <trkpt lat="47.2989" lon="-2.51595">
        <ele>119</ele>
        <time>2019-12-22T09:22:36.000Z</time>
      </trkpt>
      <trkpt lat="47.29891" lon="-2.51599">
        <ele>119.40000152588</ele>
        <time>2019-12-22T09:22:37.000Z</time>
      </trkpt>
      <trkpt lat="47.29892" lon="-2.51603">
        <ele>119.80000305176</ele>
        <time>2019-12-22T09:22:38.000Z</time>
      </trkpt>
      <trkpt lat="47.29895" lon="-2.51614">
        <ele>119.80000305176</ele>
        <time>2019-12-22T09:22:40.000Z</time>
      </trkpt>
      <trkpt lat="47.29901" lon="-2.51641">
        <ele>119.80000305176</ele>
        <time>2019-12-22T09:22:46.000Z</time>
      </trkpt>
      <trkpt lat="47.29907" lon="-2.51668">
        <ele>119.80000305176</ele>
        <time>2019-12-22T09:22:52.000Z</time>
      </trkpt>
      <trkpt lat="47.2992" lon="-2.517">
        <ele>119.80000305176</ele>
        <time>2019-12-22T09:23:00.000Z</time>
      </trkpt>
      <trkpt lat="47.29934" lon="-2.5173">
        <ele>119.80000305176</ele>
        <time>2019-12-22T09:23:08.000Z</time>
      </trkpt>
      <trkpt lat="47.29953" lon="-2.51775">
        <ele>119.80000305176</ele>
        <time>2019-12-22T09:23:19.000Z</time>
      </trkpt>
      <trkpt lat="47.29969" lon="-2.51804">
        <ele>119.80000305176</ele>
        <time>2019-12-22T09:23:27.000Z</time>
      </trkpt>
      <trkpt lat="47.29979" lon="-2.51823">
        <ele>119.80000305176</ele>
        <time>2019-12-22T09:23:33.000Z</time>
      </trkpt>
      <trkpt lat="47.29988" lon="-2.51851">
        <ele>119.80000305176</ele>
        <time>2019-12-22T09:23:39.000Z</time>
      </trkpt>
      <trkpt lat="47.29989" lon="-2.51861">
        <ele>119.80000305176</ele>
        <time>2019-12-22T09:23:41.000Z</time>
      </trkpt>
      <trkpt lat="47.29987" lon="-2.51871">
        <ele>119.80000305176</ele>
        <time>2019-12-22T09:23:43.000Z</time>
      </trkpt>
      <trkpt lat="47.29987" lon="-2.51876">
        <ele>119.80000305176</ele>
        <time>2019-12-22T09:23:44.000Z</time>
      </trkpt>
      <trkpt lat="47.29992" lon="-2.51885">
        <ele>119.80000305176</ele>
        <time>2019-12-22T09:23:46.000Z</time>
      </trkpt>
      <trkpt lat="47.29999" lon="-2.51894">
        <ele>119.80000305176</ele>
        <time>2019-12-22T09:23:49.000Z</time>
      </trkpt>
      <trkpt lat="47.30001" lon="-2.51896">
        <ele>119.80000305176</ele>
        <time>2019-12-22T09:23:50.000Z</time>
      </trkpt>
      <trkpt lat="47.30009" lon="-2.51906">
        <ele>119.80000305176</ele>
        <time>2019-12-22T09:23:55.000Z</time>
      </trkpt>
      <trkpt lat="47.30016" lon="-2.51925">
        <ele>119.80000305176</ele>
        <time>2019-12-22T09:24:00.000Z</time>
      </trkpt>
      <trkpt lat="47.30027" lon="-2.51945">
        <ele>119.80000305176</ele>
        <time>2019-12-22T09:24:05.000Z</time>
      </trkpt>
      <trkpt lat="47.30032" lon="-2.51971">
        <ele>119.80000305176</ele>
        <time>2019-12-22T09:24:10.000Z</time>
      </trkpt>
      <trkpt lat="47.30032" lon="-2.51977">
        <ele>120.19999694824</ele>
        <time>2019-12-22T09:24:11.000Z</time>
      </trkpt>
      <trkpt lat="47.30032" lon="-2.51982">
        <ele>120.80000305176</ele>
        <time>2019-12-22T09:24:12.000Z</time>
      </trkpt>
      <trkpt lat="47.30032" lon="-2.51988">
        <ele>121.19999694824</ele>
        <time>2019-12-22T09:24:13.000Z</time>
      </trkpt>
      <trkpt lat="47.30032" lon="-2.51994">
        <ele>121.59999847412</ele>
        <time>2019-12-22T09:24:14.000Z</time>
      </trkpt>
      <trkpt lat="47.30033" lon="-2.52">
        <ele>122</ele>
        <time>2019-12-22T09:24:15.000Z</time>
      </trkpt>
      <trkpt lat="47.30039" lon="-2.52034">
        <ele>122</ele>
        <time>2019-12-22T09:24:21.000Z</time>
      </trkpt>
      <trkpt lat="47.30041" lon="-2.52061">
        <ele>122</ele>
        <time>2019-12-22T09:24:26.000Z</time>
      </trkpt>
      <trkpt lat="47.30039" lon="-2.52084">
        <ele>122</ele>
        <time>2019-12-22T09:24:31.000Z</time>
      </trkpt>
      <trkpt lat="47.30037" lon="-2.52103">
        <ele>122</ele>
        <time>2019-12-22T09:24:35.000Z</time>
      </trkpt>
      <trkpt lat="47.30038" lon="-2.52109">
        <ele>122</ele>
        <time>2019-12-22T09:24:36.000Z</time>
      </trkpt>
      <trkpt lat="47.30039" lon="-2.52121">
        <ele>122</ele>
        <time>2019-12-22T09:24:38.000Z</time>
      </trkpt>
      <trkpt lat="47.30041" lon="-2.52139">
        <ele>122</ele>
        <time>2019-12-22T09:24:41.000Z</time>
      </trkpt>
      <trkpt lat="47.30045" lon="-2.52163">
        <ele>122</ele>
        <time>2019-12-22T09:24:45.000Z</time>
      </trkpt>
      <trkpt lat="47.30045" lon="-2.52169">
        <ele>122</ele>
        <time>2019-12-22T09:24:46.000Z</time>
      </trkpt>
      <trkpt lat="47.30048" lon="-2.52198">
        <ele>122</ele>
        <time>2019-12-22T09:24:51.000Z</time>
      </trkpt>
      <trkpt lat="47.30049" lon="-2.52204">
        <ele>122</ele>
        <time>2019-12-22T09:24:52.000Z</time>
      </trkpt>
      <trkpt lat="47.3005" lon="-2.5221">
        <ele>122</ele>
        <time>2019-12-22T09:24:53.000Z</time>
      </trkpt>
      <trkpt lat="47.30056" lon="-2.5224">
        <ele>122</ele>
        <time>2019-12-22T09:24:58.000Z</time>
      </trkpt>
      <trkpt lat="47.30057" lon="-2.52246">
        <ele>121.59999847412</ele>
        <time>2019-12-22T09:24:59.000Z</time>
      </trkpt>
      <trkpt lat="47.30058" lon="-2.52253">
        <ele>121.19999694824</ele>
        <time>2019-12-22T09:25:00.000Z</time>
      </trkpt>
      <trkpt lat="47.30059" lon="-2.5226">
        <ele>120.59999847412</ele>
        <time>2019-12-22T09:25:01.000Z</time>
      </trkpt>
      <trkpt lat="47.3006" lon="-2.52268">
        <ele>120.19999694824</ele>
        <time>2019-12-22T09:25:02.000Z</time>
      </trkpt>
      <trkpt lat="47.3006" lon="-2.52274">
        <ele>119.80000305176</ele>
        <time>2019-12-22T09:25:03.000Z</time>
      </trkpt>
      <trkpt lat="47.30061" lon="-2.52281">
        <ele>119.80000305176</ele>
        <time>2019-12-22T09:25:04.000Z</time>
      </trkpt>
      <trkpt lat="47.30063" lon="-2.52289">
        <ele>119.80000305176</ele>
        <time>2019-12-22T09:25:05.000Z</time>
      </trkpt>
      <trkpt lat="47.30065" lon="-2.52304">
        <ele>119.80000305176</ele>
        <time>2019-12-22T09:25:07.000Z</time>
      </trkpt>
      <trkpt lat="47.30066" lon="-2.52311">
        <ele>119.80000305176</ele>
        <time>2019-12-22T09:25:08.000Z</time>
      </trkpt>
      <trkpt lat="47.30069" lon="-2.52336">
        <ele>119.80000305176</ele>
        <time>2019-12-22T09:25:12.000Z</time>
      </trkpt>
      <trkpt lat="47.30071" lon="-2.52349">
        <ele>119.80000305176</ele>
        <time>2019-12-22T09:25:14.000Z</time>
      </trkpt>
      <trkpt lat="47.30073" lon="-2.52375">
        <ele>119.80000305176</ele>
        <time>2019-12-22T09:25:18.000Z</time>
      </trkpt>
      <trkpt lat="47.30073" lon="-2.52388">
        <ele>119.80000305176</ele>
        <time>2019-12-22T09:25:20.000Z</time>
      </trkpt>
      <trkpt lat="47.30074" lon="-2.52394">
        <ele>119.80000305176</ele>
        <time>2019-12-22T09:25:21.000Z</time>
      </trkpt>
      <trkpt lat="47.30075" lon="-2.52414">
        <ele>119.80000305176</ele>
        <time>2019-12-22T09:25:24.000Z</time>
      </trkpt>
      <trkpt lat="47.30077" lon="-2.52427">
        <ele>119.80000305176</ele>
        <time>2019-12-22T09:25:26.000Z</time>
      </trkpt>
      <trkpt lat="47.3008" lon="-2.52461">
        <ele>119.80000305176</ele>
        <time>2019-12-22T09:25:32.000Z</time>
      </trkpt>
      <trkpt lat="47.30082" lon="-2.52475">
        <ele>119.80000305176</ele>
        <time>2019-12-22T09:25:35.000Z</time>
      </trkpt>
      <trkpt lat="47.30084" lon="-2.52477">
        <ele>119.19999694824</ele>
        <time>2019-12-22T09:25:36.000Z</time>
      </trkpt>
      <trkpt lat="47.30087" lon="-2.52479">
        <ele>118.80000305176</ele>
        <time>2019-12-22T09:25:37.000Z</time>
      </trkpt>
      <trkpt lat="47.30089" lon="-2.5248">
        <ele>118.19999694824</ele>
        <time>2019-12-22T09:25:38.000Z</time>
      </trkpt>
      <trkpt lat="47.30092" lon="-2.5248">
        <ele>117.80000305176</ele>
        <time>2019-12-22T09:25:39.000Z</time>
      </trkpt>
      <trkpt lat="47.30096" lon="-2.5248">
        <ele>117.19999694824</ele>
        <time>2019-12-22T09:25:40.000Z</time>
      </trkpt>
      <trkpt lat="47.30122" lon="-2.52479">
        <ele>117.19999694824</ele>
        <time>2019-12-22T09:25:47.000Z</time>
      </trkpt>
      <trkpt lat="47.3014" lon="-2.52473">
        <ele>117.19999694824</ele>
        <time>2019-12-22T09:25:53.000Z</time>
      </trkpt>
      <trkpt lat="47.30153" lon="-2.52467">
        <ele>117.19999694824</ele>
        <time>2019-12-22T09:25:58.000Z</time>
      </trkpt>
      <trkpt lat="47.30164" lon="-2.52466">
        <ele>117.19999694824</ele>
        <time>2019-12-22T09:26:04.000Z</time>
      </trkpt>
      <trkpt lat="47.30166" lon="-2.52466">
        <ele>117.19999694824</ele>
        <time>2019-12-22T09:26:06.000Z</time>
      </trkpt>
      <trkpt lat="47.30167" lon="-2.52465">
        <ele>117.19999694824</ele>
        <time>2019-12-22T09:26:09.000Z</time>
      </trkpt>
      <trkpt lat="47.30165" lon="-2.52463">
        <ele>119.59999847412</ele>
        <time>2019-12-22T09:40:05.000Z</time>
      </trkpt>
      <trkpt lat="47.30162" lon="-2.52463">
        <ele>119.59999847412</ele>
        <time>2019-12-22T09:40:07.000Z</time>
      </trkpt>
      <trkpt lat="47.30157" lon="-2.52464">
        <ele>119.59999847412</ele>
        <time>2019-12-22T09:40:09.000Z</time>
      </trkpt>
      <trkpt lat="47.30146" lon="-2.52465">
        <ele>119.59999847412</ele>
        <time>2019-12-22T09:40:13.000Z</time>
      </trkpt>
      <trkpt lat="47.30127" lon="-2.52471">
        <ele>119.59999847412</ele>
        <time>2019-12-22T09:40:20.000Z</time>
      </trkpt>
      <trkpt lat="47.30119" lon="-2.52484">
        <ele>119.59999847412</ele>
        <time>2019-12-22T09:40:25.000Z</time>
      </trkpt>
      <trkpt lat="47.30119" lon="-2.52502">
        <ele>119.59999847412</ele>
        <time>2019-12-22T09:40:30.000Z</time>
      </trkpt>
      <trkpt lat="47.30121" lon="-2.52537">
        <ele>119.59999847412</ele>
        <time>2019-12-22T09:40:38.000Z</time>
      </trkpt>
      <trkpt lat="47.30118" lon="-2.52568">
        <ele>119.59999847412</ele>
        <time>2019-12-22T09:40:44.000Z</time>
      </trkpt>
      <trkpt lat="47.30113" lon="-2.52605">
        <ele>119.59999847412</ele>
        <time>2019-12-22T09:40:51.000Z</time>
      </trkpt>
      <trkpt lat="47.30107" lon="-2.52646">
        <ele>119.59999847412</ele>
        <time>2019-12-22T09:40:58.000Z</time>
      </trkpt>
      <trkpt lat="47.30104" lon="-2.5267">
        <ele>119.59999847412</ele>
        <time>2019-12-22T09:41:02.000Z</time>
      </trkpt>
      <trkpt lat="47.30101" lon="-2.52689">
        <ele>119.59999847412</ele>
        <time>2019-12-22T09:41:05.000Z</time>
      </trkpt>
      <trkpt lat="47.30096" lon="-2.52723">
        <ele>119.59999847412</ele>
        <time>2019-12-22T09:41:11.000Z</time>
      </trkpt>
      <trkpt lat="47.30091" lon="-2.52752">
        <ele>120</ele>
        <time>2019-12-22T09:41:16.000Z</time>
      </trkpt>
      <trkpt lat="47.30091" lon="-2.52759">
        <ele>120.59999847412</ele>
        <time>2019-12-22T09:41:17.000Z</time>
      </trkpt>
      <trkpt lat="47.30092" lon="-2.52764">
        <ele>121</ele>
        <time>2019-12-22T09:41:18.000Z</time>
      </trkpt>
      <trkpt lat="47.30092" lon="-2.52769">
        <ele>121.40000152588</ele>
        <time>2019-12-22T09:41:19.000Z</time>
      </trkpt>
      <trkpt lat="47.3009" lon="-2.52775">
        <ele>121.80000305176</ele>
        <time>2019-12-22T09:41:20.000Z</time>
      </trkpt>
      <trkpt lat="47.3009" lon="-2.52781">
        <ele>121.40000152588</ele>
        <time>2019-12-22T09:41:21.000Z</time>
      </trkpt>
      <trkpt lat="47.30089" lon="-2.52787">
        <ele>121</ele>
        <time>2019-12-22T09:41:22.000Z</time>
      </trkpt>
      <trkpt lat="47.30088" lon="-2.52793">
        <ele>120.40000152588</ele>
        <time>2019-12-22T09:41:23.000Z</time>
      </trkpt>
      <trkpt lat="47.30086" lon="-2.52799">
        <ele>120</ele>
        <time>2019-12-22T09:41:24.000Z</time>
      </trkpt>
      <trkpt lat="47.30085" lon="-2.52805">
        <ele>119.59999847412</ele>
        <time>2019-12-22T09:41:25.000Z</time>
      </trkpt>
      <trkpt lat="47.30081" lon="-2.52821">
        <ele>119.59999847412</ele>
        <time>2019-12-22T09:41:28.000Z</time>
      </trkpt>
      <trkpt lat="47.30078" lon="-2.52849">
        <ele>120</ele>
        <time>2019-12-22T09:41:33.000Z</time>
      </trkpt>
      <trkpt lat="47.30077" lon="-2.52855">
        <ele>120.40000152588</ele>
        <time>2019-12-22T09:41:34.000Z</time>
      </trkpt>
      <trkpt lat="47.30076" lon="-2.5286">
        <ele>121.19999694824</ele>
        <time>2019-12-22T09:41:35.000Z</time>
      </trkpt>
      <trkpt lat="47.30075" lon="-2.52865">
        <ele>121.59999847412</ele>
        <time>2019-12-22T09:41:36.000Z</time>
      </trkpt>
      <trkpt lat="47.3007" lon="-2.52897">
        <ele>121.59999847412</ele>
        <time>2019-12-22T09:41:42.000Z</time>
      </trkpt>
      <trkpt lat="47.30057" lon="-2.52945">
        <ele>121.59999847412</ele>
        <time>2019-12-22T09:41:51.000Z</time>
      </trkpt>
      <trkpt lat="47.30046" lon="-2.52986">
        <ele>121.59999847412</ele>
        <time>2019-12-22T09:41:59.000Z</time>
      </trkpt>
      <trkpt lat="47.30037" lon="-2.53032">
        <ele>121.59999847412</ele>
        <time>2019-12-22T09:42:07.000Z</time>
      </trkpt>
      <trkpt lat="47.30036" lon="-2.5305">
        <ele>121.59999847412</ele>
        <time>2019-12-22T09:42:10.000Z</time>
      </trkpt>
      <trkpt lat="47.30037" lon="-2.53062">
        <ele>121.59999847412</ele>
        <time>2019-12-22T09:42:12.000Z</time>
      </trkpt>
      <trkpt lat="47.30039" lon="-2.53112">
        <ele>121.59999847412</ele>
        <time>2019-12-22T09:42:20.000Z</time>
      </trkpt>
      <trkpt lat="47.30044" lon="-2.53155">
        <ele>121.59999847412</ele>
        <time>2019-12-22T09:42:27.000Z</time>
      </trkpt>
      <trkpt lat="47.30044" lon="-2.53162">
        <ele>121.59999847412</ele>
        <time>2019-12-22T09:42:28.000Z</time>
      </trkpt>
      <trkpt lat="47.30046" lon="-2.53203">
        <ele>121.59999847412</ele>
        <time>2019-12-22T09:42:35.000Z</time>
      </trkpt>
      <trkpt lat="47.30048" lon="-2.53246">
        <ele>121.59999847412</ele>
        <time>2019-12-22T09:42:42.000Z</time>
      </trkpt>
      <trkpt lat="47.30049" lon="-2.53297">
        <ele>121.59999847412</ele>
        <time>2019-12-22T09:42:50.000Z</time>
      </trkpt>
      <trkpt lat="47.30048" lon="-2.53336">
        <ele>121.59999847412</ele>
        <time>2019-12-22T09:42:56.000Z</time>
      </trkpt>
      <trkpt lat="47.30046" lon="-2.53347">
        <ele>121.59999847412</ele>
        <time>2019-12-22T09:42:58.000Z</time>
      </trkpt>
      <trkpt lat="47.30039" lon="-2.53384">
        <ele>121.59999847412</ele>
        <time>2019-12-22T09:43:04.000Z</time>
      </trkpt>
      <trkpt lat="47.30037" lon="-2.53389">
        <ele>121.59999847412</ele>
        <time>2019-12-22T09:43:05.000Z</time>
      </trkpt>
      <trkpt lat="47.30024" lon="-2.53421">
        <ele>121.59999847412</ele>
        <time>2019-12-22T09:43:11.000Z</time>
      </trkpt>
      <trkpt lat="47.30002" lon="-2.53463">
        <ele>121.59999847412</ele>
        <time>2019-12-22T09:43:19.000Z</time>
      </trkpt>
      <trkpt lat="47.29981" lon="-2.53499">
        <ele>121.59999847412</ele>
        <time>2019-12-22T09:43:26.000Z</time>
      </trkpt>
      <trkpt lat="47.29975" lon="-2.53509">
        <ele>121.59999847412</ele>
        <time>2019-12-22T09:43:28.000Z</time>
      </trkpt>
      <trkpt lat="47.29962" lon="-2.53529">
        <ele>121.59999847412</ele>
        <time>2019-12-22T09:43:32.000Z</time>
      </trkpt>
      <trkpt lat="47.29942" lon="-2.53563">
        <ele>121.59999847412</ele>
        <time>2019-12-22T09:43:39.000Z</time>
      </trkpt>
      <trkpt lat="47.29929" lon="-2.53585">
        <ele>121.59999847412</ele>
        <time>2019-12-22T09:43:43.000Z</time>
      </trkpt>
      <trkpt lat="47.29924" lon="-2.53597">
        <ele>121.59999847412</ele>
        <time>2019-12-22T09:43:45.000Z</time>
      </trkpt>
      <trkpt lat="47.29917" lon="-2.53616">
        <ele>121.59999847412</ele>
        <time>2019-12-22T09:43:48.000Z</time>
      </trkpt>
      <trkpt lat="47.29914" lon="-2.5363">
        <ele>121.19999694824</ele>
        <time>2019-12-22T09:43:50.000Z</time>
      </trkpt>
      <trkpt lat="47.29913" lon="-2.53637">
        <ele>120.80000305176</ele>
        <time>2019-12-22T09:43:51.000Z</time>
      </trkpt>
      <trkpt lat="47.29911" lon="-2.53644">
        <ele>120.40000152588</ele>
        <time>2019-12-22T09:43:52.000Z</time>
      </trkpt>
      <trkpt lat="47.2991" lon="-2.5365">
        <ele>120</ele>
        <time>2019-12-22T09:43:53.000Z</time>
      </trkpt>
      <trkpt lat="47.2991" lon="-2.53658">
        <ele>119.59999847412</ele>
        <time>2019-12-22T09:43:54.000Z</time>
      </trkpt>
      <trkpt lat="47.29908" lon="-2.53686">
        <ele>119.59999847412</ele>
        <time>2019-12-22T09:43:58.000Z</time>
      </trkpt>
      <trkpt lat="47.29909" lon="-2.53693">
        <ele>119.59999847412</ele>
        <time>2019-12-22T09:43:59.000Z</time>
      </trkpt>
      <trkpt lat="47.29913" lon="-2.5373">
        <ele>119.59999847412</ele>
        <time>2019-12-22T09:44:04.000Z</time>
      </trkpt>
      <trkpt lat="47.29923" lon="-2.53786">
        <ele>119.59999847412</ele>
        <time>2019-12-22T09:44:12.000Z</time>
      </trkpt>
      <trkpt lat="47.29931" lon="-2.53839">
        <ele>119.59999847412</ele>
        <time>2019-12-22T09:44:20.000Z</time>
      </trkpt>
      <trkpt lat="47.29937" lon="-2.53886">
        <ele>120.19999694824</ele>
        <time>2019-12-22T09:44:27.000Z</time>
      </trkpt>
      <trkpt lat="47.29937" lon="-2.53893">
        <ele>121.40000152588</ele>
        <time>2019-12-22T09:44:28.000Z</time>
      </trkpt>
      <trkpt lat="47.29938" lon="-2.539">
        <ele>122</ele>
        <time>2019-12-22T09:44:29.000Z</time>
      </trkpt>
      <trkpt lat="47.29938" lon="-2.53906">
        <ele>122.59999847412</ele>
        <time>2019-12-22T09:44:30.000Z</time>
      </trkpt>
      <trkpt lat="47.29938" lon="-2.5392">
        <ele>122.59999847412</ele>
        <time>2019-12-22T09:44:32.000Z</time>
      </trkpt>
      <trkpt lat="47.29937" lon="-2.53948">
        <ele>122.59999847412</ele>
        <time>2019-12-22T09:44:36.000Z</time>
      </trkpt>
      <trkpt lat="47.29931" lon="-2.53988">
        <ele>122.19999694824</ele>
        <time>2019-12-22T09:44:42.000Z</time>
      </trkpt>
      <trkpt lat="47.2993" lon="-2.53994">
        <ele>121.59999847412</ele>
        <time>2019-12-22T09:44:43.000Z</time>
      </trkpt>
      <trkpt lat="47.29928" lon="-2.54">
        <ele>121.19999694824</ele>
        <time>2019-12-22T09:44:44.000Z</time>
      </trkpt>
      <trkpt lat="47.29927" lon="-2.54007">
        <ele>120.80000305176</ele>
        <time>2019-12-22T09:44:45.000Z</time>
      </trkpt>
      <trkpt lat="47.29925" lon="-2.54013">
        <ele>120.40000152588</ele>
        <time>2019-12-22T09:44:46.000Z</time>
      </trkpt>
      <trkpt lat="47.29923" lon="-2.54019">
        <ele>120.40000152588</ele>
        <time>2019-12-22T09:44:47.000Z</time>
      </trkpt>
      <trkpt lat="47.29919" lon="-2.5403">
        <ele>120.40000152588</ele>
        <time>2019-12-22T09:44:49.000Z</time>
      </trkpt>
      <trkpt lat="47.29903" lon="-2.54079">
        <ele>120.40000152588</ele>
        <time>2019-12-22T09:44:57.000Z</time>
      </trkpt>
      <trkpt lat="47.29901" lon="-2.54085">
        <ele>120.40000152588</ele>
        <time>2019-12-22T09:44:58.000Z</time>
      </trkpt>
      <trkpt lat="47.2989" lon="-2.5412">
        <ele>120.40000152588</ele>
        <time>2019-12-22T09:45:04.000Z</time>
      </trkpt>
      <trkpt lat="47.29888" lon="-2.54126">
        <ele>120.40000152588</ele>
        <time>2019-12-22T09:45:05.000Z</time>
      </trkpt>
      <trkpt lat="47.29884" lon="-2.54139">
        <ele>120.40000152588</ele>
        <time>2019-12-22T09:45:07.000Z</time>
      </trkpt>
      <trkpt lat="47.29878" lon="-2.54173">
        <ele>120.40000152588</ele>
        <time>2019-12-22T09:45:12.000Z</time>
      </trkpt>
      <trkpt lat="47.29875" lon="-2.54228">
        <ele>120.40000152588</ele>
        <time>2019-12-22T09:45:20.000Z</time>
      </trkpt>
      <trkpt lat="47.29872" lon="-2.54272">
        <ele>120.40000152588</ele>
        <time>2019-12-22T09:45:27.000Z</time>
      </trkpt>
      <trkpt lat="47.29867" lon="-2.54298">
        <ele>120.40000152588</ele>
        <time>2019-12-22T09:45:31.000Z</time>
      </trkpt>
      <trkpt lat="47.29863" lon="-2.5431">
        <ele>120.40000152588</ele>
        <time>2019-12-22T09:45:33.000Z</time>
      </trkpt>
      <trkpt lat="47.2986" lon="-2.54316">
        <ele>120.40000152588</ele>
        <time>2019-12-22T09:45:34.000Z</time>
      </trkpt>
      <trkpt lat="47.29835" lon="-2.54365">
        <ele>120.40000152588</ele>
        <time>2019-12-22T09:45:43.000Z</time>
      </trkpt>
      <trkpt lat="47.29826" lon="-2.54382">
        <ele>120.40000152588</ele>
        <time>2019-12-22T09:45:46.000Z</time>
      </trkpt>
      <trkpt lat="47.29817" lon="-2.544">
        <ele>120.40000152588</ele>
        <time>2019-12-22T09:45:49.000Z</time>
      </trkpt>
      <trkpt lat="47.2981" lon="-2.54413">
        <ele>120.40000152588</ele>
        <time>2019-12-22T09:45:51.000Z</time>
      </trkpt>
      <trkpt lat="47.29801" lon="-2.54431">
        <ele>120.40000152588</ele>
        <time>2019-12-22T09:45:54.000Z</time>
      </trkpt>
      <trkpt lat="47.2978" lon="-2.54465">
        <ele>120.40000152588</ele>
        <time>2019-12-22T09:46:00.000Z</time>
      </trkpt>
      <trkpt lat="47.29776" lon="-2.5447">
        <ele>120.40000152588</ele>
        <time>2019-12-22T09:46:01.000Z</time>
      </trkpt>
      <trkpt lat="47.29754" lon="-2.54491">
        <ele>120.40000152588</ele>
        <time>2019-12-22T09:46:06.000Z</time>
      </trkpt>
      <trkpt lat="47.29725" lon="-2.54516">
        <ele>120.40000152588</ele>
        <time>2019-12-22T09:46:12.000Z</time>
      </trkpt>
      <trkpt lat="47.29694" lon="-2.54543">
        <ele>120.40000152588</ele>
        <time>2019-12-22T09:46:19.000Z</time>
      </trkpt>
      <trkpt lat="47.29689" lon="-2.54547">
        <ele>120.40000152588</ele>
        <time>2019-12-22T09:46:20.000Z</time>
      </trkpt>
      <trkpt lat="47.29661" lon="-2.54572">
        <ele>120.40000152588</ele>
        <time>2019-12-22T09:46:27.000Z</time>
      </trkpt>
      <trkpt lat="47.29656" lon="-2.54575">
        <ele>120.40000152588</ele>
        <time>2019-12-22T09:46:28.000Z</time>
      </trkpt>
      <trkpt lat="47.29623" lon="-2.54593">
        <ele>120.40000152588</ele>
        <time>2019-12-22T09:46:35.000Z</time>
      </trkpt>
      <trkpt lat="47.29618" lon="-2.54594">
        <ele>120.40000152588</ele>
        <time>2019-12-22T09:46:36.000Z</time>
      </trkpt>
      <trkpt lat="47.29613" lon="-2.54596">
        <ele>120.40000152588</ele>
        <time>2019-12-22T09:46:37.000Z</time>
      </trkpt>
      <trkpt lat="47.29594" lon="-2.54601">
        <ele>120.40000152588</ele>
        <time>2019-12-22T09:46:41.000Z</time>
      </trkpt>
      <trkpt lat="47.29561" lon="-2.54608">
        <ele>120.40000152588</ele>
        <time>2019-12-22T09:46:48.000Z</time>
      </trkpt>
      <trkpt lat="47.29557" lon="-2.54609">
        <ele>120.80000305176</ele>
        <time>2019-12-22T09:46:49.000Z</time>
      </trkpt>
      <trkpt lat="47.29552" lon="-2.5461">
        <ele>121.19999694824</ele>
        <time>2019-12-22T09:46:50.000Z</time>
      </trkpt>
      <trkpt lat="47.29547" lon="-2.54611">
        <ele>121.59999847412</ele>
        <time>2019-12-22T09:46:51.000Z</time>
      </trkpt>
      <trkpt lat="47.29542" lon="-2.54613">
        <ele>122.19999694824</ele>
        <time>2019-12-22T09:46:52.000Z</time>
      </trkpt>
      <trkpt lat="47.29538" lon="-2.54615">
        <ele>122.59999847412</ele>
        <time>2019-12-22T09:46:53.000Z</time>
      </trkpt>
      <trkpt lat="47.29533" lon="-2.54616">
        <ele>123</ele>
        <time>2019-12-22T09:46:54.000Z</time>
      </trkpt>
      <trkpt lat="47.29528" lon="-2.54618">
        <ele>123.80000305176</ele>
        <time>2019-12-22T09:46:55.000Z</time>
      </trkpt>
      <trkpt lat="47.29524" lon="-2.54621">
        <ele>124.19999694824</ele>
        <time>2019-12-22T09:46:56.000Z</time>
      </trkpt>
      <trkpt lat="47.29521" lon="-2.54623">
        <ele>123.80000305176</ele>
        <time>2019-12-22T09:46:57.000Z</time>
      </trkpt>
      <trkpt lat="47.29517" lon="-2.54627">
        <ele>123.40000152588</ele>
        <time>2019-12-22T09:46:58.000Z</time>
      </trkpt>
      <trkpt lat="47.29513" lon="-2.54631">
        <ele>122.80000305176</ele>
        <time>2019-12-22T09:46:59.000Z</time>
      </trkpt>
      <trkpt lat="47.29508" lon="-2.54635">
        <ele>122.40000152588</ele>
        <time>2019-12-22T09:47:00.000Z</time>
      </trkpt>
      <trkpt lat="47.29505" lon="-2.54639">
        <ele>122</ele>
        <time>2019-12-22T09:47:01.000Z</time>
      </trkpt>
      <trkpt lat="47.29498" lon="-2.54647">
        <ele>122.40000152588</ele>
        <time>2019-12-22T09:47:03.000Z</time>
      </trkpt>
      <trkpt lat="47.29494" lon="-2.54652">
        <ele>122.80000305176</ele>
        <time>2019-12-22T09:47:04.000Z</time>
      </trkpt>
      <trkpt lat="47.29491" lon="-2.54655">
        <ele>122.59999847412</ele>
        <time>2019-12-22T09:47:05.000Z</time>
      </trkpt>
      <trkpt lat="47.29487" lon="-2.5466">
        <ele>122.40000152588</ele>
        <time>2019-12-22T09:47:06.000Z</time>
      </trkpt>
      <trkpt lat="47.29483" lon="-2.54663">
        <ele>122.19999694824</ele>
        <time>2019-12-22T09:47:07.000Z</time>
      </trkpt>
      <trkpt lat="47.29479" lon="-2.54666">
        <ele>121.80000305176</ele>
        <time>2019-12-22T09:47:08.000Z</time>
      </trkpt>
      <trkpt lat="47.29475" lon="-2.54669">
        <ele>121.40000152588</ele>
        <time>2019-12-22T09:47:09.000Z</time>
      </trkpt>
      <trkpt lat="47.29471" lon="-2.54672">
        <ele>120.80000305176</ele>
        <time>2019-12-22T09:47:10.000Z</time>
      </trkpt>
      <trkpt lat="47.29467" lon="-2.54674">
        <ele>120.40000152588</ele>
        <time>2019-12-22T09:47:11.000Z</time>
      </trkpt>
      <trkpt lat="47.29463" lon="-2.54676">
        <ele>119.80000305176</ele>
        <time>2019-12-22T09:47:12.000Z</time>
      </trkpt>
      <trkpt lat="47.29454" lon="-2.54678">
        <ele>119.80000305176</ele>
        <time>2019-12-22T09:47:14.000Z</time>
      </trkpt>
      <trkpt lat="47.29431" lon="-2.54681">
        <ele>119.80000305176</ele>
        <time>2019-12-22T09:47:19.000Z</time>
      </trkpt>
      <trkpt lat="47.29393" lon="-2.54682">
        <ele>119.80000305176</ele>
        <time>2019-12-22T09:47:27.000Z</time>
      </trkpt>
      <trkpt lat="47.29359" lon="-2.54685">
        <ele>119.80000305176</ele>
        <time>2019-12-22T09:47:34.000Z</time>
      </trkpt>
      <trkpt lat="47.29339" lon="-2.54686">
        <ele>119.80000305176</ele>
        <time>2019-12-22T09:47:38.000Z</time>
      </trkpt>
      <trkpt lat="47.29328" lon="-2.54686">
        <ele>119.80000305176</ele>
        <time>2019-12-22T09:47:40.000Z</time>
      </trkpt>
      <trkpt lat="47.29298" lon="-2.54688">
        <ele>119.80000305176</ele>
        <time>2019-12-22T09:47:46.000Z</time>
      </trkpt>
      <trkpt lat="47.29273" lon="-2.54686">
        <ele>119.80000305176</ele>
        <time>2019-12-22T09:47:51.000Z</time>
      </trkpt>
      <trkpt lat="47.29263" lon="-2.54683">
        <ele>119.80000305176</ele>
        <time>2019-12-22T09:47:53.000Z</time>
      </trkpt>
      <trkpt lat="47.29249" lon="-2.54673">
        <ele>119.80000305176</ele>
        <time>2019-12-22T09:47:56.000Z</time>
      </trkpt>
      <trkpt lat="47.2924" lon="-2.54665">
        <ele>119.80000305176</ele>
        <time>2019-12-22T09:47:58.000Z</time>
      </trkpt>
      <trkpt lat="47.29236" lon="-2.5466">
        <ele>119.80000305176</ele>
        <time>2019-12-22T09:47:59.000Z</time>
      </trkpt>
      <trkpt lat="47.2921" lon="-2.5463">
        <ele>119.80000305176</ele>
        <time>2019-12-22T09:48:05.000Z</time>
      </trkpt>
      <trkpt lat="47.29182" lon="-2.54593">
        <ele>119.80000305176</ele>
        <time>2019-12-22T09:48:12.000Z</time>
      </trkpt>
      <trkpt lat="47.29177" lon="-2.54589">
        <ele>119.80000305176</ele>
        <time>2019-12-22T09:48:13.000Z</time>
      </trkpt>
      <trkpt lat="47.29153" lon="-2.54572">
        <ele>120.40000152588</ele>
        <time>2019-12-22T09:48:18.000Z</time>
      </trkpt>
      <trkpt lat="47.29148" lon="-2.54568">
        <ele>120.80000305176</ele>
        <time>2019-12-22T09:48:19.000Z</time>
      </trkpt>
      <trkpt lat="47.29143" lon="-2.54565">
        <ele>121.40000152588</ele>
        <time>2019-12-22T09:48:20.000Z</time>
      </trkpt>
      <trkpt lat="47.29138" lon="-2.54561">
        <ele>121.80000305176</ele>
        <time>2019-12-22T09:48:21.000Z</time>
      </trkpt>
      <trkpt lat="47.29132" lon="-2.54557">
        <ele>122.19999694824</ele>
        <time>2019-12-22T09:48:22.000Z</time>
      </trkpt>
      <trkpt lat="47.29117" lon="-2.54546">
        <ele>122.19999694824</ele>
        <time>2019-12-22T09:48:25.000Z</time>
      </trkpt>
      <trkpt lat="47.29107" lon="-2.54537">
        <ele>122.19999694824</ele>
        <time>2019-12-22T09:48:27.000Z</time>
      </trkpt>
      <trkpt lat="47.29094" lon="-2.54518">
        <ele>122.19999694824</ele>
        <time>2019-12-22T09:48:30.000Z</time>
      </trkpt>
      <trkpt lat="47.2909" lon="-2.5451">
        <ele>122.19999694824</ele>
        <time>2019-12-22T09:48:31.000Z</time>
      </trkpt>
      <trkpt lat="47.29083" lon="-2.54485">
        <ele>122.19999694824</ele>
        <time>2019-12-22T09:48:34.000Z</time>
      </trkpt>
      <trkpt lat="47.29081" lon="-2.54467">
        <ele>121.80000305176</ele>
        <time>2019-12-22T09:48:36.000Z</time>
      </trkpt>
      <trkpt lat="47.2908" lon="-2.54457">
        <ele>121.40000152588</ele>
        <time>2019-12-22T09:48:37.000Z</time>
      </trkpt>
      <trkpt lat="47.29079" lon="-2.54448">
        <ele>121</ele>
        <time>2019-12-22T09:48:38.000Z</time>
      </trkpt>
      <trkpt lat="47.29078" lon="-2.54439">
        <ele>120.40000152588</ele>
        <time>2019-12-22T09:48:39.000Z</time>
      </trkpt>
      <trkpt lat="47.29077" lon="-2.54429">
        <ele>120</ele>
        <time>2019-12-22T09:48:40.000Z</time>
      </trkpt>
      <trkpt lat="47.29071" lon="-2.54357">
        <ele>120</ele>
        <time>2019-12-22T09:48:48.000Z</time>
      </trkpt>
      <trkpt lat="47.29061" lon="-2.54305">
        <ele>120</ele>
        <time>2019-12-22T09:48:54.000Z</time>
      </trkpt>
      <trkpt lat="47.29041" lon="-2.54247">
        <ele>120</ele>
        <time>2019-12-22T09:49:01.000Z</time>
      </trkpt>
      <trkpt lat="47.29024" lon="-2.542">
        <ele>120</ele>
        <time>2019-12-22T09:49:07.000Z</time>
      </trkpt>
      <trkpt lat="47.29005" lon="-2.54146">
        <ele>120</ele>
        <time>2019-12-22T09:49:14.000Z</time>
      </trkpt>
      <trkpt lat="47.28987" lon="-2.54083">
        <ele>120</ele>
        <time>2019-12-22T09:49:22.000Z</time>
      </trkpt>
      <trkpt lat="47.28976" lon="-2.54035">
        <ele>120.40000152588</ele>
        <time>2019-12-22T09:49:28.000Z</time>
      </trkpt>
      <trkpt lat="47.28974" lon="-2.54027">
        <ele>120.80000305176</ele>
        <time>2019-12-22T09:49:29.000Z</time>
      </trkpt>
      <trkpt lat="47.28973" lon="-2.54019">
        <ele>121.19999694824</ele>
        <time>2019-12-22T09:49:30.000Z</time>
      </trkpt>
      <trkpt lat="47.28971" lon="-2.54011">
        <ele>121.59999847412</ele>
        <time>2019-12-22T09:49:31.000Z</time>
      </trkpt>
      <trkpt lat="47.28969" lon="-2.54003">
        <ele>122.19999694824</ele>
        <time>2019-12-22T09:49:32.000Z</time>
      </trkpt>
      <trkpt lat="47.28967" lon="-2.53995">
        <ele>122.59999847412</ele>
        <time>2019-12-22T09:49:33.000Z</time>
      </trkpt>
      <trkpt lat="47.28965" lon="-2.53987">
        <ele>123.19999694824</ele>
        <time>2019-12-22T09:49:34.000Z</time>
      </trkpt>
      <trkpt lat="47.28963" lon="-2.53978">
        <ele>123.80000305176</ele>
        <time>2019-12-22T09:49:35.000Z</time>
      </trkpt>
      <trkpt lat="47.28962" lon="-2.53969">
        <ele>124.19999694824</ele>
        <time>2019-12-22T09:49:36.000Z</time>
      </trkpt>
      <trkpt lat="47.28951" lon="-2.53909">
        <ele>124.19999694824</ele>
        <time>2019-12-22T09:49:43.000Z</time>
      </trkpt>
      <trkpt lat="47.28941" lon="-2.53849">
        <ele>124.19999694824</ele>
        <time>2019-12-22T09:49:50.000Z</time>
      </trkpt>
      <trkpt lat="47.28931" lon="-2.5379">
        <ele>124.19999694824</ele>
        <time>2019-12-22T09:49:57.000Z</time>
      </trkpt>
      <trkpt lat="47.2893" lon="-2.53781">
        <ele>124.59999847412</ele>
        <time>2019-12-22T09:49:58.000Z</time>
      </trkpt>
      <trkpt lat="47.28928" lon="-2.53773">
        <ele>125.19999694824</ele>
        <time>2019-12-22T09:49:59.000Z</time>
      </trkpt>
      <trkpt lat="47.28927" lon="-2.53764">
        <ele>125.59999847412</ele>
        <time>2019-12-22T09:50:00.000Z</time>
      </trkpt>
      <trkpt lat="47.28926" lon="-2.53756">
        <ele>126</ele>
        <time>2019-12-22T09:50:01.000Z</time>
      </trkpt>
      <trkpt lat="47.28924" lon="-2.53748">
        <ele>126.40000152588</ele>
        <time>2019-12-22T09:50:02.000Z</time>
      </trkpt>
      <trkpt lat="47.2892" lon="-2.53724">
        <ele>126.40000152588</ele>
        <time>2019-12-22T09:50:05.000Z</time>
      </trkpt>
      <trkpt lat="47.28911" lon="-2.53666">
        <ele>126.40000152588</ele>
        <time>2019-12-22T09:50:12.000Z</time>
      </trkpt>
      <trkpt lat="47.28909" lon="-2.53658">
        <ele>127</ele>
        <time>2019-12-22T09:50:13.000Z</time>
      </trkpt>
      <trkpt lat="47.28908" lon="-2.5365">
        <ele>127.40000152588</ele>
        <time>2019-12-22T09:50:14.000Z</time>
      </trkpt>
      <trkpt lat="47.28907" lon="-2.53642">
        <ele>128.39999389648</ele>
        <time>2019-12-22T09:50:15.000Z</time>
      </trkpt>
      <trkpt lat="47.28906" lon="-2.53634">
        <ele>128.80000305176</ele>
        <time>2019-12-22T09:50:16.000Z</time>
      </trkpt>
      <trkpt lat="47.28902" lon="-2.53611">
        <ele>128.80000305176</ele>
        <time>2019-12-22T09:50:19.000Z</time>
      </trkpt>
      <trkpt lat="47.28898" lon="-2.53588">
        <ele>129.19999694824</ele>
        <time>2019-12-22T09:50:22.000Z</time>
      </trkpt>
      <trkpt lat="47.28896" lon="-2.5358">
        <ele>129.60000610352</ele>
        <time>2019-12-22T09:50:23.000Z</time>
      </trkpt>
      <trkpt lat="47.28895" lon="-2.53573">
        <ele>130</ele>
        <time>2019-12-22T09:50:24.000Z</time>
      </trkpt>
      <trkpt lat="47.28894" lon="-2.53565">
        <ele>130.39999389648</ele>
        <time>2019-12-22T09:50:25.000Z</time>
      </trkpt>
      <trkpt lat="47.28893" lon="-2.53558">
        <ele>130.80000305176</ele>
        <time>2019-12-22T09:50:26.000Z</time>
      </trkpt>
      <trkpt lat="47.28891" lon="-2.5355">
        <ele>131.19999694824</ele>
        <time>2019-12-22T09:50:27.000Z</time>
      </trkpt>
      <trkpt lat="47.2889" lon="-2.53543">
        <ele>131.60000610352</ele>
        <time>2019-12-22T09:50:28.000Z</time>
      </trkpt>
      <trkpt lat="47.28889" lon="-2.53535">
        <ele>132.19999694824</ele>
        <time>2019-12-22T09:50:29.000Z</time>
      </trkpt>
      <trkpt lat="47.28887" lon="-2.53527">
        <ele>132.60000610352</ele>
        <time>2019-12-22T09:50:30.000Z</time>
      </trkpt>
      <trkpt lat="47.28886" lon="-2.53519">
        <ele>133</ele>
        <time>2019-12-22T09:50:31.000Z</time>
      </trkpt>
      <trkpt lat="47.28883" lon="-2.53501">
        <ele>133</ele>
        <time>2019-12-22T09:50:33.000Z</time>
      </trkpt>
      <trkpt lat="47.28876" lon="-2.53463">
        <ele>132.60000610352</ele>
        <time>2019-12-22T09:50:37.000Z</time>
      </trkpt>
      <trkpt lat="47.28875" lon="-2.53453">
        <ele>132</ele>
        <time>2019-12-22T09:50:38.000Z</time>
      </trkpt>
      <trkpt lat="47.28873" lon="-2.53443">
        <ele>131.19999694824</ele>
        <time>2019-12-22T09:50:39.000Z</time>
      </trkpt>
      <trkpt lat="47.28872" lon="-2.53433">
        <ele>130.80000305176</ele>
        <time>2019-12-22T09:50:40.000Z</time>
      </trkpt>
      <trkpt lat="47.28859" lon="-2.53357">
        <ele>130.80000305176</ele>
        <time>2019-12-22T09:50:48.000Z</time>
      </trkpt>
      <trkpt lat="47.28847" lon="-2.53277">
        <ele>130.80000305176</ele>
        <time>2019-12-22T09:50:56.000Z</time>
      </trkpt>
      <trkpt lat="47.28845" lon="-2.53268">
        <ele>130.80000305176</ele>
        <time>2019-12-22T09:50:57.000Z</time>
      </trkpt>
      <trkpt lat="47.28834" lon="-2.5323">
        <ele>130.80000305176</ele>
        <time>2019-12-22T09:51:01.000Z</time>
      </trkpt>
      <trkpt lat="47.28816" lon="-2.53201">
        <ele>130.80000305176</ele>
        <time>2019-12-22T09:51:05.000Z</time>
      </trkpt>
      <trkpt lat="47.28783" lon="-2.53158">
        <ele>130.80000305176</ele>
        <time>2019-12-22T09:51:12.000Z</time>
      </trkpt>
      <trkpt lat="47.28778" lon="-2.53151">
        <ele>130.80000305176</ele>
        <time>2019-12-22T09:51:13.000Z</time>
      </trkpt>
      <trkpt lat="47.28769" lon="-2.53123">
        <ele>130.80000305176</ele>
        <time>2019-12-22T09:51:16.000Z</time>
      </trkpt>
      <trkpt lat="47.28763" lon="-2.5309">
        <ele>130.80000305176</ele>
        <time>2019-12-22T09:51:19.000Z</time>
      </trkpt>
      <trkpt lat="47.2876" lon="-2.53068">
        <ele>130.80000305176</ele>
        <time>2019-12-22T09:51:21.000Z</time>
      </trkpt>
      <trkpt lat="47.28752" lon="-2.52984">
        <ele>130.80000305176</ele>
        <time>2019-12-22T09:51:29.000Z</time>
      </trkpt>
      <trkpt lat="47.28743" lon="-2.52898">
        <ele>130.80000305176</ele>
        <time>2019-12-22T09:51:37.000Z</time>
      </trkpt>
      <trkpt lat="47.28738" lon="-2.52842">
        <ele>130.39999389648</ele>
        <time>2019-12-22T09:51:42.000Z</time>
      </trkpt>
      <trkpt lat="47.28737" lon="-2.52831">
        <ele>130</ele>
        <time>2019-12-22T09:51:43.000Z</time>
      </trkpt>
      <trkpt lat="47.28736" lon="-2.52819">
        <ele>129.60000610352</ele>
        <time>2019-12-22T09:51:44.000Z</time>
      </trkpt>
      <trkpt lat="47.28735" lon="-2.52807">
        <ele>129.19999694824</ele>
        <time>2019-12-22T09:51:45.000Z</time>
      </trkpt>
      <trkpt lat="47.28733" lon="-2.52795">
        <ele>128.80000305176</ele>
        <time>2019-12-22T09:51:46.000Z</time>
      </trkpt>
      <trkpt lat="47.28732" lon="-2.52783">
        <ele>128.39999389648</ele>
        <time>2019-12-22T09:51:47.000Z</time>
      </trkpt>
      <trkpt lat="47.28731" lon="-2.52771">
        <ele>128</ele>
        <time>2019-12-22T09:51:48.000Z</time>
      </trkpt>
      <trkpt lat="47.2873" lon="-2.52758">
        <ele>127.59999847412</ele>
        <time>2019-12-22T09:51:49.000Z</time>
      </trkpt>
      <trkpt lat="47.28729" lon="-2.52746">
        <ele>127.19999694824</ele>
        <time>2019-12-22T09:51:50.000Z</time>
      </trkpt>
      <trkpt lat="47.28728" lon="-2.52734">
        <ele>126.80000305176</ele>
        <time>2019-12-22T09:51:51.000Z</time>
      </trkpt>
      <trkpt lat="47.28727" lon="-2.52721">
        <ele>126.80000305176</ele>
        <time>2019-12-22T09:51:52.000Z</time>
      </trkpt>
      <trkpt lat="47.28723" lon="-2.52683">
        <ele>126.40000152588</ele>
        <time>2019-12-22T09:51:55.000Z</time>
      </trkpt>
      <trkpt lat="47.28721" lon="-2.5267">
        <ele>126</ele>
        <time>2019-12-22T09:51:56.000Z</time>
      </trkpt>
      <trkpt lat="47.2872" lon="-2.52657">
        <ele>125.59999847412</ele>
        <time>2019-12-22T09:51:57.000Z</time>
      </trkpt>
      <trkpt lat="47.28719" lon="-2.52644">
        <ele>125</ele>
        <time>2019-12-22T09:51:58.000Z</time>
      </trkpt>
      <trkpt lat="47.28718" lon="-2.52631">
        <ele>124.59999847412</ele>
        <time>2019-12-22T09:51:59.000Z</time>
      </trkpt>
      <trkpt lat="47.28716" lon="-2.52606">
        <ele>124.59999847412</ele>
        <time>2019-12-22T09:52:01.000Z</time>
      </trkpt>
      <trkpt lat="47.28719" lon="-2.5254">
        <ele>124.59999847412</ele>
        <time>2019-12-22T09:52:06.000Z</time>
      </trkpt>
      <trkpt lat="47.28721" lon="-2.52527">
        <ele>124.19999694824</ele>
        <time>2019-12-22T09:52:07.000Z</time>
      </trkpt>
      <trkpt lat="47.28724" lon="-2.52514">
        <ele>123.80000305176</ele>
        <time>2019-12-22T09:52:08.000Z</time>
      </trkpt>
      <trkpt lat="47.28728" lon="-2.52501">
        <ele>123.40000152588</ele>
        <time>2019-12-22T09:52:09.000Z</time>
      </trkpt>
      <trkpt lat="47.28731" lon="-2.52489">
        <ele>123</ele>
        <time>2019-12-22T09:52:10.000Z</time>
      </trkpt>
      <trkpt lat="47.28734" lon="-2.52477">
        <ele>122.59999847412</ele>
        <time>2019-12-22T09:52:11.000Z</time>
      </trkpt>
      <trkpt lat="47.28745" lon="-2.52422">
        <ele>122.59999847412</ele>
        <time>2019-12-22T09:52:16.000Z</time>
      </trkpt>
      <trkpt lat="47.28743" lon="-2.52379">
        <ele>122.59999847412</ele>
        <time>2019-12-22T09:52:20.000Z</time>
      </trkpt>
      <trkpt lat="47.28741" lon="-2.52369">
        <ele>122.59999847412</ele>
        <time>2019-12-22T09:52:21.000Z</time>
      </trkpt>
      <trkpt lat="47.28739" lon="-2.5236">
        <ele>123</ele>
        <time>2019-12-22T09:52:22.000Z</time>
      </trkpt>
      <trkpt lat="47.28737" lon="-2.5235">
        <ele>123.59999847412</ele>
        <time>2019-12-22T09:52:23.000Z</time>
      </trkpt>
      <trkpt lat="47.28735" lon="-2.5234">
        <ele>124</ele>
        <time>2019-12-22T09:52:24.000Z</time>
      </trkpt>
      <trkpt lat="47.28733" lon="-2.5233">
        <ele>124.40000152588</ele>
        <time>2019-12-22T09:52:25.000Z</time>
      </trkpt>
      <trkpt lat="47.28732" lon="-2.5232">
        <ele>124.80000305176</ele>
        <time>2019-12-22T09:52:26.000Z</time>
      </trkpt>
      <trkpt lat="47.28729" lon="-2.5231">
        <ele>124.80000305176</ele>
        <time>2019-12-22T09:52:27.000Z</time>
      </trkpt>
      <trkpt lat="47.28718" lon="-2.52249">
        <ele>124.80000305176</ele>
        <time>2019-12-22T09:52:33.000Z</time>
      </trkpt>
      <trkpt lat="47.28701" lon="-2.5219">
        <ele>124.80000305176</ele>
        <time>2019-12-22T09:52:39.000Z</time>
      </trkpt>
      <trkpt lat="47.28691" lon="-2.52162">
        <ele>125.19999694824</ele>
        <time>2019-12-22T09:52:42.000Z</time>
      </trkpt>
      <trkpt lat="47.28688" lon="-2.52153">
        <ele>126.19999694824</ele>
        <time>2019-12-22T09:52:43.000Z</time>
      </trkpt>
      <trkpt lat="47.28685" lon="-2.52145">
        <ele>126.59999847412</ele>
        <time>2019-12-22T09:52:44.000Z</time>
      </trkpt>
      <trkpt lat="47.28681" lon="-2.52136">
        <ele>127</ele>
        <time>2019-12-22T09:52:45.000Z</time>
      </trkpt>
      <trkpt lat="47.28656" lon="-2.52066">
        <ele>127</ele>
        <time>2019-12-22T09:52:53.000Z</time>
      </trkpt>
      <trkpt lat="47.28637" lon="-2.51992">
        <ele>127</ele>
        <time>2019-12-22T09:53:01.000Z</time>
      </trkpt>
      <trkpt lat="47.28635" lon="-2.51981">
        <ele>126.59999847412</ele>
        <time>2019-12-22T09:53:02.000Z</time>
      </trkpt>
      <trkpt lat="47.28634" lon="-2.51971">
        <ele>126.19999694824</ele>
        <time>2019-12-22T09:53:03.000Z</time>
      </trkpt>
      <trkpt lat="47.28634" lon="-2.51959">
        <ele>125.80000305176</ele>
        <time>2019-12-22T09:53:04.000Z</time>
      </trkpt>
      <trkpt lat="47.28633" lon="-2.51948">
        <ele>125.40000152588</ele>
        <time>2019-12-22T09:53:05.000Z</time>
      </trkpt>
      <trkpt lat="47.28632" lon="-2.51937">
        <ele>125</ele>
        <time>2019-12-22T09:53:06.000Z</time>
      </trkpt>
      <trkpt lat="47.28624" lon="-2.51865">
        <ele>125</ele>
        <time>2019-12-22T09:53:12.000Z</time>
      </trkpt>
      <trkpt lat="47.2862" lon="-2.51855">
        <ele>124.40000152588</ele>
        <time>2019-12-22T09:53:13.000Z</time>
      </trkpt>
      <trkpt lat="47.28615" lon="-2.51845">
        <ele>124</ele>
        <time>2019-12-22T09:53:14.000Z</time>
      </trkpt>
      <trkpt lat="47.2861" lon="-2.51837">
        <ele>123.59999847412</ele>
        <time>2019-12-22T09:53:15.000Z</time>
      </trkpt>
      <trkpt lat="47.28605" lon="-2.51829">
        <ele>123.19999694824</ele>
        <time>2019-12-22T09:53:16.000Z</time>
      </trkpt>
      <trkpt lat="47.28599" lon="-2.51822">
        <ele>122.80000305176</ele>
        <time>2019-12-22T09:53:17.000Z</time>
      </trkpt>
      <trkpt lat="47.28593" lon="-2.51816">
        <ele>122.80000305176</ele>
        <time>2019-12-22T09:53:18.000Z</time>
      </trkpt>
      <trkpt lat="47.28587" lon="-2.51809">
        <ele>122.80000305176</ele>
        <time>2019-12-22T09:53:19.000Z</time>
      </trkpt>
      <trkpt lat="47.28571" lon="-2.5179">
        <ele>122.80000305176</ele>
        <time>2019-12-22T09:53:22.000Z</time>
      </trkpt>
      <trkpt lat="47.28562" lon="-2.51773">
        <ele>122.80000305176</ele>
        <time>2019-12-22T09:53:24.000Z</time>
      </trkpt>
      <trkpt lat="47.28553" lon="-2.51742">
        <ele>122.80000305176</ele>
        <time>2019-12-22T09:53:27.000Z</time>
      </trkpt>
      <trkpt lat="47.28552" lon="-2.51731">
        <ele>122.80000305176</ele>
        <time>2019-12-22T09:53:28.000Z</time>
      </trkpt>
      <trkpt lat="47.2854" lon="-2.5165">
        <ele>122.40000152588</ele>
        <time>2019-12-22T09:53:35.000Z</time>
      </trkpt>
      <trkpt lat="47.28539" lon="-2.51639">
        <ele>122</ele>
        <time>2019-12-22T09:53:36.000Z</time>
      </trkpt>
      <trkpt lat="47.28538" lon="-2.51627">
        <ele>121.40000152588</ele>
        <time>2019-12-22T09:53:37.000Z</time>
      </trkpt>
      <trkpt lat="47.28537" lon="-2.51616">
        <ele>121</ele>
        <time>2019-12-22T09:53:38.000Z</time>
      </trkpt>
      <trkpt lat="47.28535" lon="-2.51605">
        <ele>120.59999847412</ele>
        <time>2019-12-22T09:53:39.000Z</time>
      </trkpt>
      <trkpt lat="47.28531" lon="-2.51583">
        <ele>120.59999847412</ele>
        <time>2019-12-22T09:53:41.000Z</time>
      </trkpt>
      <trkpt lat="47.28522" lon="-2.51519">
        <ele>120.59999847412</ele>
        <time>2019-12-22T09:53:47.000Z</time>
      </trkpt>
      <trkpt lat="47.28507" lon="-2.51481">
        <ele>120.59999847412</ele>
        <time>2019-12-22T09:53:51.000Z</time>
      </trkpt>
      <trkpt lat="47.2849" lon="-2.51462">
        <ele>120.59999847412</ele>
        <time>2019-12-22T09:53:54.000Z</time>
      </trkpt>
      <trkpt lat="47.28479" lon="-2.51451">
        <ele>120.59999847412</ele>
        <time>2019-12-22T09:53:56.000Z</time>
      </trkpt>
      <trkpt lat="47.28461" lon="-2.51433">
        <ele>120.19999694824</ele>
        <time>2019-12-22T09:53:59.000Z</time>
      </trkpt>
      <trkpt lat="47.28456" lon="-2.51426">
        <ele>119.80000305176</ele>
        <time>2019-12-22T09:54:00.000Z</time>
      </trkpt>
      <trkpt lat="47.28452" lon="-2.51418">
        <ele>119.40000152588</ele>
        <time>2019-12-22T09:54:01.000Z</time>
      </trkpt>
      <trkpt lat="47.28448" lon="-2.51409">
        <ele>119.80000305176</ele>
        <time>2019-12-22T09:54:02.000Z</time>
      </trkpt>
      <trkpt lat="47.28444" lon="-2.514">
        <ele>120</ele>
        <time>2019-12-22T09:54:03.000Z</time>
      </trkpt>
      <trkpt lat="47.28441" lon="-2.5139">
        <ele>120.40000152588</ele>
        <time>2019-12-22T09:54:04.000Z</time>
      </trkpt>
      <trkpt lat="47.2844" lon="-2.5138">
        <ele>120.59999847412</ele>
        <time>2019-12-22T09:54:05.000Z</time>
      </trkpt>
      <trkpt lat="47.28439" lon="-2.5137">
        <ele>121</ele>
        <time>2019-12-22T09:54:06.000Z</time>
      </trkpt>
      <trkpt lat="47.28439" lon="-2.5136">
        <ele>121</ele>
        <time>2019-12-22T09:54:07.000Z</time>
      </trkpt>
      <trkpt lat="47.28436" lon="-2.51334">
        <ele>121</ele>
        <time>2019-12-22T09:54:10.000Z</time>
      </trkpt>
      <trkpt lat="47.28434" lon="-2.51326">
        <ele>121</ele>
        <time>2019-12-22T09:54:11.000Z</time>
      </trkpt>
      <trkpt lat="47.28415" lon="-2.51284">
        <ele>121</ele>
        <time>2019-12-22T09:54:17.000Z</time>
      </trkpt>
      <trkpt lat="47.2841" lon="-2.51278">
        <ele>121</ele>
        <time>2019-12-22T09:54:18.000Z</time>
      </trkpt>
      <trkpt lat="47.28396" lon="-2.51266">
        <ele>121</ele>
        <time>2019-12-22T09:54:21.000Z</time>
      </trkpt>
      <trkpt lat="47.28376" lon="-2.51252">
        <ele>120.59999847412</ele>
        <time>2019-12-22T09:54:25.000Z</time>
      </trkpt>
      <trkpt lat="47.28371" lon="-2.51248">
        <ele>120.19999694824</ele>
        <time>2019-12-22T09:54:26.000Z</time>
      </trkpt>
      <trkpt lat="47.28365" lon="-2.51245">
        <ele>119.80000305176</ele>
        <time>2019-12-22T09:54:27.000Z</time>
      </trkpt>
      <trkpt lat="47.2836" lon="-2.51241">
        <ele>119.19999694824</ele>
        <time>2019-12-22T09:54:28.000Z</time>
      </trkpt>
      <trkpt lat="47.28355" lon="-2.51237">
        <ele>118.80000305176</ele>
        <time>2019-12-22T09:54:29.000Z</time>
      </trkpt>
      <trkpt lat="47.2835" lon="-2.51233">
        <ele>118.80000305176</ele>
        <time>2019-12-22T09:54:30.000Z</time>
      </trkpt>
      <trkpt lat="47.28326" lon="-2.51217">
        <ele>118.80000305176</ele>
        <time>2019-12-22T09:54:34.000Z</time>
      </trkpt>
      <trkpt lat="47.2831" lon="-2.51202">
        <ele>118.80000305176</ele>
        <time>2019-12-22T09:54:37.000Z</time>
      </trkpt>
      <trkpt lat="47.28302" lon="-2.51189">
        <ele>118.80000305176</ele>
        <time>2019-12-22T09:54:39.000Z</time>
      </trkpt>
      <trkpt lat="47.28299" lon="-2.51182">
        <ele>118.80000305176</ele>
        <time>2019-12-22T09:54:40.000Z</time>
      </trkpt>
      <trkpt lat="47.2829" lon="-2.51157">
        <ele>118.80000305176</ele>
        <time>2019-12-22T09:54:43.000Z</time>
      </trkpt>
      <trkpt lat="47.28288" lon="-2.51148">
        <ele>119.40000152588</ele>
        <time>2019-12-22T09:54:44.000Z</time>
      </trkpt>
      <trkpt lat="47.28285" lon="-2.5114">
        <ele>119.80000305176</ele>
        <time>2019-12-22T09:54:45.000Z</time>
      </trkpt>
      <trkpt lat="47.28282" lon="-2.51133">
        <ele>120.19999694824</ele>
        <time>2019-12-22T09:54:46.000Z</time>
      </trkpt>
      <trkpt lat="47.2828" lon="-2.51125">
        <ele>121</ele>
        <time>2019-12-22T09:54:47.000Z</time>
      </trkpt>
      <trkpt lat="47.28278" lon="-2.51117">
        <ele>121.59999847412</ele>
        <time>2019-12-22T09:54:48.000Z</time>
      </trkpt>
      <trkpt lat="47.28275" lon="-2.5111">
        <ele>122</ele>
        <time>2019-12-22T09:54:49.000Z</time>
      </trkpt>
      <trkpt lat="47.28273" lon="-2.51102">
        <ele>122.59999847412</ele>
        <time>2019-12-22T09:54:50.000Z</time>
      </trkpt>
      <trkpt lat="47.2827" lon="-2.51095">
        <ele>123</ele>
        <time>2019-12-22T09:54:51.000Z</time>
      </trkpt>
      <trkpt lat="47.28256" lon="-2.51057">
        <ele>123</ele>
        <time>2019-12-22T09:54:56.000Z</time>
      </trkpt>
      <trkpt lat="47.28254" lon="-2.51048">
        <ele>123</ele>
        <time>2019-12-22T09:54:57.000Z</time>
      </trkpt>
      <trkpt lat="47.28245" lon="-2.51012">
        <ele>122.59999847412</ele>
        <time>2019-12-22T09:55:01.000Z</time>
      </trkpt>
      <trkpt lat="47.28244" lon="-2.51002">
        <ele>122.19999694824</ele>
        <time>2019-12-22T09:55:02.000Z</time>
      </trkpt>
      <trkpt lat="47.28242" lon="-2.50991">
        <ele>121.80000305176</ele>
        <time>2019-12-22T09:55:03.000Z</time>
      </trkpt>
      <trkpt lat="47.28242" lon="-2.50981">
        <ele>121.40000152588</ele>
        <time>2019-12-22T09:55:04.000Z</time>
      </trkpt>
      <trkpt lat="47.2824" lon="-2.50971">
        <ele>121</ele>
        <time>2019-12-22T09:55:05.000Z</time>
      </trkpt>
      <trkpt lat="47.28239" lon="-2.5096">
        <ele>121</ele>
        <time>2019-12-22T09:55:06.000Z</time>
      </trkpt>
      <trkpt lat="47.28228" lon="-2.50895">
        <ele>121</ele>
        <time>2019-12-22T09:55:12.000Z</time>
      </trkpt>
      <trkpt lat="47.28213" lon="-2.50811">
        <ele>121</ele>
        <time>2019-12-22T09:55:20.000Z</time>
      </trkpt>
      <trkpt lat="47.2821" lon="-2.50791">
        <ele>121</ele>
        <time>2019-12-22T09:55:22.000Z</time>
      </trkpt>
      <trkpt lat="47.28209" lon="-2.5074">
        <ele>121</ele>
        <time>2019-12-22T09:55:27.000Z</time>
      </trkpt>
      <trkpt lat="47.28213" lon="-2.50688">
        <ele>121</ele>
        <time>2019-12-22T09:55:32.000Z</time>
      </trkpt>
      <trkpt lat="47.28215" lon="-2.50667">
        <ele>121</ele>
        <time>2019-12-22T09:55:34.000Z</time>
      </trkpt>
      <trkpt lat="47.2822" lon="-2.50647">
        <ele>121</ele>
        <time>2019-12-22T09:55:36.000Z</time>
      </trkpt>
      <trkpt lat="47.28238" lon="-2.50584">
        <ele>121</ele>
        <time>2019-12-22T09:55:42.000Z</time>
      </trkpt>
      <trkpt lat="47.28251" lon="-2.5053">
        <ele>121</ele>
        <time>2019-12-22T09:55:47.000Z</time>
      </trkpt>
      <trkpt lat="47.28256" lon="-2.50508">
        <ele>121</ele>
        <time>2019-12-22T09:55:49.000Z</time>
      </trkpt>
      <trkpt lat="47.28274" lon="-2.50441">
        <ele>121</ele>
        <time>2019-12-22T09:55:56.000Z</time>
      </trkpt>
      <trkpt lat="47.28279" lon="-2.50414">
        <ele>120.59999847412</ele>
        <time>2019-12-22T09:55:59.000Z</time>
      </trkpt>
      <trkpt lat="47.28281" lon="-2.50405">
        <ele>120.19999694824</ele>
        <time>2019-12-22T09:56:00.000Z</time>
      </trkpt>
      <trkpt lat="47.28282" lon="-2.50396">
        <ele>119.40000152588</ele>
        <time>2019-12-22T09:56:01.000Z</time>
      </trkpt>
      <trkpt lat="47.28283" lon="-2.50386">
        <ele>119</ele>
        <time>2019-12-22T09:56:02.000Z</time>
      </trkpt>
      <trkpt lat="47.28283" lon="-2.50377">
        <ele>119</ele>
        <time>2019-12-22T09:56:03.000Z</time>
      </trkpt>
      <trkpt lat="47.28281" lon="-2.5033">
        <ele>119</ele>
        <time>2019-12-22T09:56:08.000Z</time>
      </trkpt>
      <trkpt lat="47.28279" lon="-2.5032">
        <ele>119</ele>
        <time>2019-12-22T09:56:09.000Z</time>
      </trkpt>
      <trkpt lat="47.28274" lon="-2.50303">
        <ele>119</ele>
        <time>2019-12-22T09:56:11.000Z</time>
      </trkpt>
      <trkpt lat="47.28265" lon="-2.50277">
        <ele>119</ele>
        <time>2019-12-22T09:56:14.000Z</time>
      </trkpt>
      <trkpt lat="47.28262" lon="-2.50269">
        <ele>119</ele>
        <time>2019-12-22T09:56:15.000Z</time>
      </trkpt>
      <trkpt lat="47.28253" lon="-2.50257">
        <ele>119</ele>
        <time>2019-12-22T09:56:17.000Z</time>
      </trkpt>
      <trkpt lat="47.28234" lon="-2.50235">
        <ele>119</ele>
        <time>2019-12-22T09:56:21.000Z</time>
      </trkpt>
      <trkpt lat="47.28227" lon="-2.50221">
        <ele>119</ele>
        <time>2019-12-22T09:56:23.000Z</time>
      </trkpt>
      <trkpt lat="47.2821" lon="-2.50179">
        <ele>119</ele>
        <time>2019-12-22T09:56:29.000Z</time>
      </trkpt>
      <trkpt lat="47.28198" lon="-2.5013">
        <ele>119</ele>
        <time>2019-12-22T09:56:35.000Z</time>
      </trkpt>
      <trkpt lat="47.28195" lon="-2.50112">
        <ele>119</ele>
        <time>2019-12-22T09:56:37.000Z</time>
      </trkpt>
      <trkpt lat="47.28189" lon="-2.50084">
        <ele>119</ele>
        <time>2019-12-22T09:56:40.000Z</time>
      </trkpt>
      <trkpt lat="47.28179" lon="-2.50031">
        <ele>119</ele>
        <time>2019-12-22T09:56:46.000Z</time>
      </trkpt>
      <trkpt lat="47.28177" lon="-2.50023">
        <ele>119</ele>
        <time>2019-12-22T09:56:47.000Z</time>
      </trkpt>
      <trkpt lat="47.28171" lon="-2.49998">
        <ele>119</ele>
        <time>2019-12-22T09:56:50.000Z</time>
      </trkpt>
      <trkpt lat="47.2817" lon="-2.49988">
        <ele>119</ele>
        <time>2019-12-22T09:56:51.000Z</time>
      </trkpt>
      <trkpt lat="47.28166" lon="-2.4996">
        <ele>119</ele>
        <time>2019-12-22T09:56:54.000Z</time>
      </trkpt>
      <trkpt lat="47.28161" lon="-2.49944">
        <ele>119</ele>
        <time>2019-12-22T09:56:56.000Z</time>
      </trkpt>
      <trkpt lat="47.28158" lon="-2.49927">
        <ele>119</ele>
        <time>2019-12-22T09:56:58.000Z</time>
      </trkpt>
      <trkpt lat="47.28157" lon="-2.49908">
        <ele>119</ele>
        <time>2019-12-22T09:57:00.000Z</time>
      </trkpt>
      <trkpt lat="47.28153" lon="-2.49872">
        <ele>119</ele>
        <time>2019-12-22T09:57:04.000Z</time>
      </trkpt>
      <trkpt lat="47.28152" lon="-2.49863">
        <ele>119</ele>
        <time>2019-12-22T09:57:05.000Z</time>
      </trkpt>
      <trkpt lat="47.28147" lon="-2.49825">
        <ele>119</ele>
        <time>2019-12-22T09:57:09.000Z</time>
      </trkpt>
      <trkpt lat="47.28146" lon="-2.49815">
        <ele>119</ele>
        <time>2019-12-22T09:57:10.000Z</time>
      </trkpt>
      <trkpt lat="47.28145" lon="-2.49806">
        <ele>119</ele>
        <time>2019-12-22T09:57:11.000Z</time>
      </trkpt>
      <trkpt lat="47.28141" lon="-2.49772">
        <ele>119</ele>
        <time>2019-12-22T09:57:15.000Z</time>
      </trkpt>
      <trkpt lat="47.28134" lon="-2.49723">
        <ele>119.40000152588</ele>
        <time>2019-12-22T09:57:21.000Z</time>
      </trkpt>
      <trkpt lat="47.28133" lon="-2.49715">
        <ele>119.80000305176</ele>
        <time>2019-12-22T09:57:22.000Z</time>
      </trkpt>
      <trkpt lat="47.28132" lon="-2.49706">
        <ele>120.19999694824</ele>
        <time>2019-12-22T09:57:23.000Z</time>
      </trkpt>
      <trkpt lat="47.28131" lon="-2.49698">
        <ele>120.59999847412</ele>
        <time>2019-12-22T09:57:24.000Z</time>
      </trkpt>
      <trkpt lat="47.2813" lon="-2.4969">
        <ele>121</ele>
        <time>2019-12-22T09:57:25.000Z</time>
      </trkpt>
      <trkpt lat="47.28129" lon="-2.49681">
        <ele>121</ele>
        <time>2019-12-22T09:57:26.000Z</time>
      </trkpt>
      <trkpt lat="47.28123" lon="-2.49656">
        <ele>121</ele>
        <time>2019-12-22T09:57:29.000Z</time>
      </trkpt>
      <trkpt lat="47.28108" lon="-2.49629">
        <ele>121</ele>
        <time>2019-12-22T09:57:33.000Z</time>
      </trkpt>
      <trkpt lat="47.28067" lon="-2.49572">
        <ele>121</ele>
        <time>2019-12-22T09:57:42.000Z</time>
      </trkpt>
      <trkpt lat="47.28047" lon="-2.49546">
        <ele>121</ele>
        <time>2019-12-22T09:57:46.000Z</time>
      </trkpt>
      <trkpt lat="47.28037" lon="-2.49534">
        <ele>121</ele>
        <time>2019-12-22T09:57:48.000Z</time>
      </trkpt>
      <trkpt lat="47.28019" lon="-2.4951">
        <ele>121</ele>
        <time>2019-12-22T09:57:52.000Z</time>
      </trkpt>
      <trkpt lat="47.28015" lon="-2.49504">
        <ele>121</ele>
        <time>2019-12-22T09:57:53.000Z</time>
      </trkpt>
      <trkpt lat="47.27991" lon="-2.49471">
        <ele>121</ele>
        <time>2019-12-22T09:57:59.000Z</time>
      </trkpt>
      <trkpt lat="47.27966" lon="-2.49436">
        <ele>121.80000305176</ele>
        <time>2019-12-22T09:58:05.000Z</time>
      </trkpt>
      <trkpt lat="47.27962" lon="-2.4943">
        <ele>122.19999694824</ele>
        <time>2019-12-22T09:58:06.000Z</time>
      </trkpt>
      <trkpt lat="47.27957" lon="-2.49424">
        <ele>122.59999847412</ele>
        <time>2019-12-22T09:58:07.000Z</time>
      </trkpt>
      <trkpt lat="47.27953" lon="-2.49417">
        <ele>123</ele>
        <time>2019-12-22T09:58:08.000Z</time>
      </trkpt>
      <trkpt lat="47.27925" lon="-2.49378">
        <ele>123</ele>
        <time>2019-12-22T09:58:14.000Z</time>
      </trkpt>
      <trkpt lat="47.27884" lon="-2.49322">
        <ele>123</ele>
        <time>2019-12-22T09:58:23.000Z</time>
      </trkpt>
      <trkpt lat="47.27853" lon="-2.49289">
        <ele>123</ele>
        <time>2019-12-22T09:58:29.000Z</time>
      </trkpt>
      <trkpt lat="47.27825" lon="-2.49273">
        <ele>123</ele>
        <time>2019-12-22T09:58:34.000Z</time>
      </trkpt>
      <trkpt lat="47.2782" lon="-2.4927">
        <ele>123</ele>
        <time>2019-12-22T09:58:35.000Z</time>
      </trkpt>
      <trkpt lat="47.27809" lon="-2.49267">
        <ele>123.40000152588</ele>
        <time>2019-12-22T09:58:37.000Z</time>
      </trkpt>
      <trkpt lat="47.27803" lon="-2.49265">
        <ele>123.80000305176</ele>
        <time>2019-12-22T09:58:38.000Z</time>
      </trkpt>
      <trkpt lat="47.27798" lon="-2.49263">
        <ele>124.19999694824</ele>
        <time>2019-12-22T09:58:39.000Z</time>
      </trkpt>
      <trkpt lat="47.27792" lon="-2.49263">
        <ele>124.59999847412</ele>
        <time>2019-12-22T09:58:40.000Z</time>
      </trkpt>
      <trkpt lat="47.27786" lon="-2.49262">
        <ele>125</ele>
        <time>2019-12-22T09:58:41.000Z</time>
      </trkpt>
      <trkpt lat="47.27732" lon="-2.49259">
        <ele>125</ele>
        <time>2019-12-22T09:58:50.000Z</time>
      </trkpt>
      <trkpt lat="47.27695" lon="-2.49256">
        <ele>125</ele>
        <time>2019-12-22T09:58:56.000Z</time>
      </trkpt>
      <trkpt lat="47.27677" lon="-2.49252">
        <ele>124.59999847412</ele>
        <time>2019-12-22T09:58:59.000Z</time>
      </trkpt>
      <trkpt lat="47.27671" lon="-2.49249">
        <ele>124</ele>
        <time>2019-12-22T09:59:00.000Z</time>
      </trkpt>
      <trkpt lat="47.27665" lon="-2.49246">
        <ele>123.59999847412</ele>
        <time>2019-12-22T09:59:01.000Z</time>
      </trkpt>
      <trkpt lat="47.27659" lon="-2.49244">
        <ele>123.19999694824</ele>
        <time>2019-12-22T09:59:02.000Z</time>
      </trkpt>
      <trkpt lat="47.27653" lon="-2.49243">
        <ele>122.59999847412</ele>
        <time>2019-12-22T09:59:03.000Z</time>
      </trkpt>
      <trkpt lat="47.27637" lon="-2.49238">
        <ele>122.59999847412</ele>
        <time>2019-12-22T09:59:06.000Z</time>
      </trkpt>
      <trkpt lat="47.27625" lon="-2.49216">
        <ele>122.59999847412</ele>
        <time>2019-12-22T09:59:09.000Z</time>
      </trkpt>
      <trkpt lat="47.27612" lon="-2.49195">
        <ele>122.59999847412</ele>
        <time>2019-12-22T09:59:12.000Z</time>
      </trkpt>
      <trkpt lat="47.27604" lon="-2.4918">
        <ele>122.59999847412</ele>
        <time>2019-12-22T09:59:14.000Z</time>
      </trkpt>
      <trkpt lat="47.276" lon="-2.49172">
        <ele>122.59999847412</ele>
        <time>2019-12-22T09:59:15.000Z</time>
      </trkpt>
      <trkpt lat="47.27591" lon="-2.49139">
        <ele>122.59999847412</ele>
        <time>2019-12-22T09:59:19.000Z</time>
      </trkpt>
      <trkpt lat="47.27589" lon="-2.49123">
        <ele>122.59999847412</ele>
        <time>2019-12-22T09:59:21.000Z</time>
      </trkpt>
      <trkpt lat="47.27588" lon="-2.49112">
        <ele>122.59999847412</ele>
        <time>2019-12-22T09:59:23.000Z</time>
      </trkpt>
      <trkpt lat="47.27586" lon="-2.49109">
        <ele>122.59999847412</ele>
        <time>2019-12-22T09:59:24.000Z</time>
      </trkpt>
      <trkpt lat="47.27584" lon="-2.49104">
        <ele>122.59999847412</ele>
        <time>2019-12-22T09:59:26.000Z</time>
      </trkpt>
      <trkpt lat="47.27575" lon="-2.49103">
        <ele>122.59999847412</ele>
        <time>2019-12-22T09:59:29.000Z</time>
      </trkpt>
      <trkpt lat="47.27558" lon="-2.49104">
        <ele>122.59999847412</ele>
        <time>2019-12-22T09:59:34.000Z</time>
      </trkpt>
      <trkpt lat="47.27552" lon="-2.49103">
        <ele>122.19999694824</ele>
        <time>2019-12-22T09:59:37.000Z</time>
      </trkpt>
      <trkpt lat="47.27549" lon="-2.49103">
        <ele>121.59999847412</ele>
        <time>2019-12-22T09:59:38.000Z</time>
      </trkpt>
      <trkpt lat="47.27547" lon="-2.491">
        <ele>121.19999694824</ele>
        <time>2019-12-22T09:59:39.000Z</time>
      </trkpt>
      <trkpt lat="47.27546" lon="-2.49096">
        <ele>120.80000305176</ele>
        <time>2019-12-22T09:59:40.000Z</time>
      </trkpt>
      <trkpt lat="47.27545" lon="-2.49091">
        <ele>120.19999694824</ele>
        <time>2019-12-22T09:59:41.000Z</time>
      </trkpt>
      <trkpt lat="47.27544" lon="-2.49087">
        <ele>120.19999694824</ele>
        <time>2019-12-22T09:59:42.000Z</time>
      </trkpt>
      <trkpt lat="47.27541" lon="-2.49067">
        <ele>120.19999694824</ele>
        <time>2019-12-22T09:59:47.000Z</time>
      </trkpt>
      <trkpt lat="47.2754" lon="-2.49062">
        <ele>120.59999847412</ele>
        <time>2019-12-22T09:59:48.000Z</time>
      </trkpt>
      <trkpt lat="47.2754" lon="-2.49058">
        <ele>121.19999694824</ele>
        <time>2019-12-22T09:59:49.000Z</time>
      </trkpt>
      <trkpt lat="47.2754" lon="-2.49052">
        <ele>121.59999847412</ele>
        <time>2019-12-22T09:59:50.000Z</time>
      </trkpt>
      <trkpt lat="47.2754" lon="-2.49047">
        <ele>122</ele>
        <time>2019-12-22T09:59:51.000Z</time>
      </trkpt>
      <trkpt lat="47.27539" lon="-2.49042">
        <ele>122.59999847412</ele>
        <time>2019-12-22T09:59:52.000Z</time>
      </trkpt>
      <trkpt lat="47.27534" lon="-2.4901">
        <ele>122.59999847412</ele>
        <time>2019-12-22T09:59:57.000Z</time>
      </trkpt>
      <trkpt lat="47.27533" lon="-2.49003">
        <ele>122.59999847412</ele>
        <time>2019-12-22T09:59:58.000Z</time>
      </trkpt>
      <trkpt lat="47.2753" lon="-2.48959">
        <ele>122</ele>
        <time>2019-12-22T10:00:03.000Z</time>
      </trkpt>
      <trkpt lat="47.2753" lon="-2.48951">
        <ele>121.59999847412</ele>
        <time>2019-12-22T10:00:04.000Z</time>
      </trkpt>
      <trkpt lat="47.27529" lon="-2.48942">
        <ele>121.19999694824</ele>
        <time>2019-12-22T10:00:05.000Z</time>
      </trkpt>
      <trkpt lat="47.27528" lon="-2.48935">
        <ele>120.59999847412</ele>
        <time>2019-12-22T10:00:06.000Z</time>
      </trkpt>
      <trkpt lat="47.27526" lon="-2.48928">
        <ele>120.19999694824</ele>
        <time>2019-12-22T10:00:07.000Z</time>
      </trkpt>
      <trkpt lat="47.27523" lon="-2.48922">
        <ele>120.19999694824</ele>
        <time>2019-12-22T10:00:08.000Z</time>
      </trkpt>
      <trkpt lat="47.27519" lon="-2.48905">
        <ele>120.19999694824</ele>
        <time>2019-12-22T10:00:11.000Z</time>
      </trkpt>
      <trkpt lat="47.2752" lon="-2.48893">
        <ele>120.80000305176</ele>
        <time>2019-12-22T10:00:13.000Z</time>
      </trkpt>
      <trkpt lat="47.2752" lon="-2.48889">
        <ele>121.19999694824</ele>
        <time>2019-12-22T10:00:14.000Z</time>
      </trkpt>
      <trkpt lat="47.27521" lon="-2.48882">
        <ele>122</ele>
        <time>2019-12-22T10:00:15.000Z</time>
      </trkpt>
      <trkpt lat="47.27522" lon="-2.48874">
        <ele>122.80000305176</ele>
        <time>2019-12-22T10:00:16.000Z</time>
      </trkpt>
      <trkpt lat="47.27524" lon="-2.48866">
        <ele>123.40000152588</ele>
        <time>2019-12-22T10:00:17.000Z</time>
      </trkpt>
      <trkpt lat="47.27526" lon="-2.48859">
        <ele>123.19999694824</ele>
        <time>2019-12-22T10:00:18.000Z</time>
      </trkpt>
      <trkpt lat="47.27529" lon="-2.48851">
        <ele>123</ele>
        <time>2019-12-22T10:00:19.000Z</time>
      </trkpt>
      <trkpt lat="47.27532" lon="-2.48843">
        <ele>122.80000305176</ele>
        <time>2019-12-22T10:00:20.000Z</time>
      </trkpt>
      <trkpt lat="47.27534" lon="-2.48835">
        <ele>122.59999847412</ele>
        <time>2019-12-22T10:00:21.000Z</time>
      </trkpt>
      <trkpt lat="47.27536" lon="-2.48827">
        <ele>122.40000152588</ele>
        <time>2019-12-22T10:00:22.000Z</time>
      </trkpt>
      <trkpt lat="47.27537" lon="-2.48819">
        <ele>122.40000152588</ele>
        <time>2019-12-22T10:00:23.000Z</time>
      </trkpt>
      <trkpt lat="47.27539" lon="-2.48803">
        <ele>122.40000152588</ele>
        <time>2019-12-22T10:00:25.000Z</time>
      </trkpt>
      <trkpt lat="47.2754" lon="-2.48788">
        <ele>122.40000152588</ele>
        <time>2019-12-22T10:00:27.000Z</time>
      </trkpt>
      <trkpt lat="47.27541" lon="-2.48781">
        <ele>122.40000152588</ele>
        <time>2019-12-22T10:00:28.000Z</time>
      </trkpt>
      <trkpt lat="47.27542" lon="-2.48761">
        <ele>122.40000152588</ele>
        <time>2019-12-22T10:00:31.000Z</time>
      </trkpt>
      <trkpt lat="47.27541" lon="-2.48755">
        <ele>122.40000152588</ele>
        <time>2019-12-22T10:00:32.000Z</time>
      </trkpt>
      <trkpt lat="47.2754" lon="-2.48749">
        <ele>122.40000152588</ele>
        <time>2019-12-22T10:00:33.000Z</time>
      </trkpt>
      <trkpt lat="47.27535" lon="-2.48738">
        <ele>122.40000152588</ele>
        <time>2019-12-22T10:00:36.000Z</time>
      </trkpt>
      <trkpt lat="47.27534" lon="-2.4872">
        <ele>122.40000152588</ele>
        <time>2019-12-22T10:00:40.000Z</time>
      </trkpt>
      <trkpt lat="47.27533" lon="-2.48715">
        <ele>122.40000152588</ele>
        <time>2019-12-22T10:00:41.000Z</time>
      </trkpt>
      <trkpt lat="47.27524" lon="-2.48693">
        <ele>122.40000152588</ele>
        <time>2019-12-22T10:00:46.000Z</time>
      </trkpt>
      <trkpt lat="47.27521" lon="-2.48677">
        <ele>122.40000152588</ele>
        <time>2019-12-22T10:00:49.000Z</time>
      </trkpt>
      <trkpt lat="47.27518" lon="-2.48671">
        <ele>122.40000152588</ele>
        <time>2019-12-22T10:00:50.000Z</time>
      </trkpt>
      <trkpt lat="47.27506" lon="-2.48655">
        <ele>122.40000152588</ele>
        <time>2019-12-22T10:00:54.000Z</time>
      </trkpt>
      <trkpt lat="47.27503" lon="-2.48651">
        <ele>122.40000152588</ele>
        <time>2019-12-22T10:00:55.000Z</time>
      </trkpt>
      <trkpt lat="47.275" lon="-2.48645">
        <ele>122.40000152588</ele>
        <time>2019-12-22T10:00:56.000Z</time>
      </trkpt>
      <trkpt lat="47.27491" lon="-2.48625">
        <ele>122.40000152588</ele>
        <time>2019-12-22T10:01:00.000Z</time>
      </trkpt>
      <trkpt lat="47.27489" lon="-2.48619">
        <ele>122.40000152588</ele>
        <time>2019-12-22T10:01:01.000Z</time>
      </trkpt>
      <trkpt lat="47.27479" lon="-2.48594">
        <ele>122.40000152588</ele>
        <time>2019-12-22T10:01:06.000Z</time>
      </trkpt>
      <trkpt lat="47.27475" lon="-2.48568">
        <ele>122.40000152588</ele>
        <time>2019-12-22T10:01:11.000Z</time>
      </trkpt>
      <trkpt lat="47.27469" lon="-2.4855">
        <ele>122.40000152588</ele>
        <time>2019-12-22T10:01:16.000Z</time>
      </trkpt>
      <trkpt lat="47.27469" lon="-2.48546">
        <ele>122.40000152588</ele>
        <time>2019-12-22T10:01:19.000Z</time>
      </trkpt>
      <trkpt lat="47.27469" lon="-2.48545">
        <ele>122.40000152588</ele>
        <time>2019-12-22T10:01:20.000Z</time>
      </trkpt>
      <trkpt lat="47.27469" lon="-2.48543">
        <ele>122.40000152588</ele>
        <time>2019-12-22T10:03:42.000Z</time>
      </trkpt>
      <trkpt lat="47.2747" lon="-2.48537">
        <ele>122.40000152588</ele>
        <time>2019-12-22T10:03:44.000Z</time>
      </trkpt>
      <trkpt lat="47.27471" lon="-2.48514">
        <ele>122.40000152588</ele>
        <time>2019-12-22T10:03:49.000Z</time>
      </trkpt>
      <trkpt lat="47.27469" lon="-2.48478">
        <ele>122.40000152588</ele>
        <time>2019-12-22T10:03:55.000Z</time>
      </trkpt>
      <trkpt lat="47.27468" lon="-2.48467">
        <ele>122.40000152588</ele>
        <time>2019-12-22T10:03:57.000Z</time>
      </trkpt>
      <trkpt lat="47.27465" lon="-2.48441">
        <ele>122.40000152588</ele>
        <time>2019-12-22T10:04:01.000Z</time>
      </trkpt>
      <trkpt lat="47.27463" lon="-2.48434">
        <ele>122.40000152588</ele>
        <time>2019-12-22T10:04:02.000Z</time>
      </trkpt>
      <trkpt lat="47.27456" lon="-2.4841">
        <ele>122.40000152588</ele>
        <time>2019-12-22T10:04:06.000Z</time>
      </trkpt>
      <trkpt lat="47.27441" lon="-2.48367">
        <ele>122.40000152588</ele>
        <time>2019-12-22T10:04:14.000Z</time>
      </trkpt>
      <trkpt lat="47.27433" lon="-2.48336">
        <ele>122.40000152588</ele>
        <time>2019-12-22T10:04:19.000Z</time>
      </trkpt>
      <trkpt lat="47.27432" lon="-2.4833">
        <ele>122.40000152588</ele>
        <time>2019-12-22T10:04:20.000Z</time>
      </trkpt>
      <trkpt lat="47.27425" lon="-2.48272">
        <ele>122.40000152588</ele>
        <time>2019-12-22T10:04:29.000Z</time>
      </trkpt>
      <trkpt lat="47.27419" lon="-2.48239">
        <ele>122.40000152588</ele>
        <time>2019-12-22T10:04:35.000Z</time>
      </trkpt>
      <trkpt lat="47.27413" lon="-2.48198">
        <ele>122.40000152588</ele>
        <time>2019-12-22T10:04:42.000Z</time>
      </trkpt>
      <trkpt lat="47.27411" lon="-2.48172">
        <ele>122.80000305176</ele>
        <time>2019-12-22T10:04:47.000Z</time>
      </trkpt>
      <trkpt lat="47.27411" lon="-2.48168">
        <ele>123.19999694824</ele>
        <time>2019-12-22T10:04:48.000Z</time>
      </trkpt>
      <trkpt lat="47.2741" lon="-2.48163">
        <ele>123.80000305176</ele>
        <time>2019-12-22T10:04:49.000Z</time>
      </trkpt>
      <trkpt lat="47.2741" lon="-2.48159">
        <ele>124.19999694824</ele>
        <time>2019-12-22T10:04:50.000Z</time>
      </trkpt>
      <trkpt lat="47.27409" lon="-2.48155">
        <ele>124.59999847412</ele>
        <time>2019-12-22T10:04:51.000Z</time>
      </trkpt>
      <trkpt lat="47.27406" lon="-2.48144">
        <ele>124.59999847412</ele>
        <time>2019-12-22T10:04:55.000Z</time>
      </trkpt>
      <trkpt lat="47.27405" lon="-2.48143">
        <ele>124.59999847412</ele>
        <time>2019-12-22T10:04:57.000Z</time>
      </trkpt>
      <trkpt lat="47.27405" lon="-2.48142">
        <ele>124.59999847412</ele>
        <time>2019-12-22T10:05:06.000Z</time>
      </trkpt>
      <trkpt lat="47.27405" lon="-2.48139">
        <ele>124.59999847412</ele>
        <time>2019-12-22T10:05:07.000Z</time>
      </trkpt>
      <trkpt lat="47.27398" lon="-2.48126">
        <ele>124.59999847412</ele>
        <time>2019-12-22T10:05:12.000Z</time>
      </trkpt>
      <trkpt lat="47.27395" lon="-2.48124">
        <ele>124.59999847412</ele>
        <time>2019-12-22T10:05:13.000Z</time>
      </trkpt>
      <trkpt lat="47.2738" lon="-2.48111">
        <ele>124.59999847412</ele>
        <time>2019-12-22T10:05:18.000Z</time>
      </trkpt>
      <trkpt lat="47.27367" lon="-2.48104">
        <ele>124.59999847412</ele>
        <time>2019-12-22T10:05:21.000Z</time>
      </trkpt>
      <trkpt lat="47.27361" lon="-2.48098">
        <ele>124.59999847412</ele>
        <time>2019-12-22T10:05:23.000Z</time>
      </trkpt>
      <trkpt lat="47.27358" lon="-2.48095">
        <ele>124.19999694824</ele>
        <time>2019-12-22T10:05:24.000Z</time>
      </trkpt>
      <trkpt lat="47.27355" lon="-2.48093">
        <ele>123.59999847412</ele>
        <time>2019-12-22T10:05:25.000Z</time>
      </trkpt>
      <trkpt lat="47.27352" lon="-2.48094">
        <ele>123.19999694824</ele>
        <time>2019-12-22T10:05:26.000Z</time>
      </trkpt>
      <trkpt lat="47.27347" lon="-2.48095">
        <ele>122.80000305176</ele>
        <time>2019-12-22T10:05:27.000Z</time>
      </trkpt>
      <trkpt lat="47.27343" lon="-2.48095">
        <ele>122.40000152588</ele>
        <time>2019-12-22T10:05:28.000Z</time>
      </trkpt>
      <trkpt lat="47.27339" lon="-2.48095">
        <ele>122.40000152588</ele>
        <time>2019-12-22T10:05:29.000Z</time>
      </trkpt>
      <trkpt lat="47.27323" lon="-2.48094">
        <ele>122.40000152588</ele>
        <time>2019-12-22T10:05:33.000Z</time>
      </trkpt>
      <trkpt lat="47.27312" lon="-2.48094">
        <ele>122</ele>
        <time>2019-12-22T10:05:36.000Z</time>
      </trkpt>
      <trkpt lat="47.27308" lon="-2.48094">
        <ele>121.59999847412</ele>
        <time>2019-12-22T10:05:37.000Z</time>
      </trkpt>
      <trkpt lat="47.27304" lon="-2.48093">
        <ele>121.19999694824</ele>
        <time>2019-12-22T10:05:38.000Z</time>
      </trkpt>
      <trkpt lat="47.273" lon="-2.48093">
        <ele>120.59999847412</ele>
        <time>2019-12-22T10:05:39.000Z</time>
      </trkpt>
      <trkpt lat="47.27296" lon="-2.4809">
        <ele>120.19999694824</ele>
        <time>2019-12-22T10:05:40.000Z</time>
      </trkpt>
      <trkpt lat="47.27286" lon="-2.48087">
        <ele>120.80000305176</ele>
        <time>2019-12-22T10:05:43.000Z</time>
      </trkpt>
      <trkpt lat="47.27284" lon="-2.48087">
        <ele>121.19999694824</ele>
        <time>2019-12-22T10:05:44.000Z</time>
      </trkpt>
      <trkpt lat="47.27281" lon="-2.48086">
        <ele>121.59999847412</ele>
        <time>2019-12-22T10:05:45.000Z</time>
      </trkpt>
      <trkpt lat="47.27279" lon="-2.48086">
        <ele>122</ele>
        <time>2019-12-22T10:05:46.000Z</time>
      </trkpt>
      <trkpt lat="47.27277" lon="-2.48085">
        <ele>122.40000152588</ele>
        <time>2019-12-22T10:05:47.000Z</time>
      </trkpt>
      <trkpt lat="47.27275" lon="-2.48084">
        <ele>122.80000305176</ele>
        <time>2019-12-22T10:05:48.000Z</time>
      </trkpt>
      <trkpt lat="47.27274" lon="-2.48083">
        <ele>123.40000152588</ele>
        <time>2019-12-22T10:05:49.000Z</time>
      </trkpt>
      <trkpt lat="47.27274" lon="-2.48081">
        <ele>124</ele>
        <time>2019-12-22T10:05:50.000Z</time>
      </trkpt>
      <trkpt lat="47.27273" lon="-2.48079">
        <ele>124.80000305176</ele>
        <time>2019-12-22T10:05:51.000Z</time>
      </trkpt>
      <trkpt lat="47.27273" lon="-2.48077">
        <ele>125.40000152588</ele>
        <time>2019-12-22T10:05:52.000Z</time>
      </trkpt>
      <trkpt lat="47.27274" lon="-2.48074">
        <ele>126.19999694824</ele>
        <time>2019-12-22T10:05:53.000Z</time>
      </trkpt>
      <trkpt lat="47.27273" lon="-2.48072">
        <ele>127</ele>
        <time>2019-12-22T10:05:54.000Z</time>
      </trkpt>
      <trkpt lat="47.27273" lon="-2.4807">
        <ele>127</ele>
        <time>2019-12-22T10:05:55.000Z</time>
      </trkpt>
      <trkpt lat="47.27273" lon="-2.48065">
        <ele>127</ele>
        <time>2019-12-22T10:05:58.000Z</time>
      </trkpt>
      <trkpt lat="47.27274" lon="-2.48058">
        <ele>127</ele>
        <time>2019-12-22T10:06:03.000Z</time>
      </trkpt>
      <trkpt lat="47.27273" lon="-2.48066">
        <ele>127</ele>
        <time>2019-12-22T10:09:02.000Z</time>
      </trkpt>
      <trkpt lat="47.27275" lon="-2.4807">
        <ele>127</ele>
        <time>2019-12-22T10:09:04.000Z</time>
      </trkpt>
      <trkpt lat="47.27275" lon="-2.48074">
        <ele>127.40000152588</ele>
        <time>2019-12-22T10:09:05.000Z</time>
      </trkpt>
      <trkpt lat="47.27275" lon="-2.48078">
        <ele>128.19999694824</ele>
        <time>2019-12-22T10:09:06.000Z</time>
      </trkpt>
      <trkpt lat="47.27275" lon="-2.48081">
        <ele>128.60000610352</ele>
        <time>2019-12-22T10:09:07.000Z</time>
      </trkpt>
      <trkpt lat="47.27275" lon="-2.48084">
        <ele>129</ele>
        <time>2019-12-22T10:09:08.000Z</time>
      </trkpt>
      <trkpt lat="47.27276" lon="-2.48088">
        <ele>129</ele>
        <time>2019-12-22T10:09:10.000Z</time>
      </trkpt>
      <trkpt lat="47.27279" lon="-2.48086">
        <ele>129</ele>
        <time>2019-12-22T10:09:12.000Z</time>
      </trkpt>
      <trkpt lat="47.27282" lon="-2.48086">
        <ele>128.39999389648</ele>
        <time>2019-12-22T10:09:13.000Z</time>
      </trkpt>
      <trkpt lat="47.27285" lon="-2.48086">
        <ele>128</ele>
        <time>2019-12-22T10:09:14.000Z</time>
      </trkpt>
      <trkpt lat="47.27289" lon="-2.48088">
        <ele>127.40000152588</ele>
        <time>2019-12-22T10:09:15.000Z</time>
      </trkpt>
      <trkpt lat="47.27294" lon="-2.48089">
        <ele>127</ele>
        <time>2019-12-22T10:09:16.000Z</time>
      </trkpt>
      <trkpt lat="47.273" lon="-2.4809">
        <ele>126.40000152588</ele>
        <time>2019-12-22T10:09:17.000Z</time>
      </trkpt>
      <trkpt lat="47.27319" lon="-2.48092">
        <ele>126.40000152588</ele>
        <time>2019-12-22T10:09:20.000Z</time>
      </trkpt>
      <trkpt lat="47.27325" lon="-2.48093">
        <ele>126</ele>
        <time>2019-12-22T10:09:21.000Z</time>
      </trkpt>
      <trkpt lat="47.27331" lon="-2.48094">
        <ele>125.59999847412</ele>
        <time>2019-12-22T10:09:22.000Z</time>
      </trkpt>
      <trkpt lat="47.27337" lon="-2.48096">
        <ele>124.59999847412</ele>
        <time>2019-12-22T10:09:23.000Z</time>
      </trkpt>
      <trkpt lat="47.27342" lon="-2.48096">
        <ele>123.80000305176</ele>
        <time>2019-12-22T10:09:24.000Z</time>
      </trkpt>
      <trkpt lat="47.27347" lon="-2.48098">
        <ele>123</ele>
        <time>2019-12-22T10:09:25.000Z</time>
      </trkpt>
      <trkpt lat="47.27352" lon="-2.48096">
        <ele>122</ele>
        <time>2019-12-22T10:09:26.000Z</time>
      </trkpt>
      <trkpt lat="47.27356" lon="-2.48094">
        <ele>121.19999694824</ele>
        <time>2019-12-22T10:09:27.000Z</time>
      </trkpt>
      <trkpt lat="47.27366" lon="-2.48093">
        <ele>121.19999694824</ele>
        <time>2019-12-22T10:09:30.000Z</time>
      </trkpt>
      <trkpt lat="47.27374" lon="-2.48096">
        <ele>121.19999694824</ele>
        <time>2019-12-22T10:09:32.000Z</time>
      </trkpt>
      <trkpt lat="47.27381" lon="-2.48103">
        <ele>121.19999694824</ele>
        <time>2019-12-22T10:09:34.000Z</time>
      </trkpt>
      <trkpt lat="47.27385" lon="-2.48107">
        <ele>121.80000305176</ele>
        <time>2019-12-22T10:09:35.000Z</time>
      </trkpt>
      <trkpt lat="47.27389" lon="-2.48111">
        <ele>122.19999694824</ele>
        <time>2019-12-22T10:09:36.000Z</time>
      </trkpt>
      <trkpt lat="47.27393" lon="-2.48116">
        <ele>122.80000305176</ele>
        <time>2019-12-22T10:09:37.000Z</time>
      </trkpt>
      <trkpt lat="47.27396" lon="-2.4812">
        <ele>123.40000152588</ele>
        <time>2019-12-22T10:09:38.000Z</time>
      </trkpt>
      <trkpt lat="47.274" lon="-2.48122">
        <ele>124</ele>
        <time>2019-12-22T10:09:39.000Z</time>
      </trkpt>
      <trkpt lat="47.27404" lon="-2.48125">
        <ele>124.59999847412</ele>
        <time>2019-12-22T10:09:40.000Z</time>
      </trkpt>
      <trkpt lat="47.27408" lon="-2.48126">
        <ele>125.19999694824</ele>
        <time>2019-12-22T10:09:41.000Z</time>
      </trkpt>
      <trkpt lat="47.27412" lon="-2.48126">
        <ele>125.80000305176</ele>
        <time>2019-12-22T10:09:42.000Z</time>
      </trkpt>
      <trkpt lat="47.27416" lon="-2.48126">
        <ele>126.40000152588</ele>
        <time>2019-12-22T10:09:43.000Z</time>
      </trkpt>
      <trkpt lat="47.27421" lon="-2.48127">
        <ele>126</ele>
        <time>2019-12-22T10:09:44.000Z</time>
      </trkpt>
      <trkpt lat="47.27425" lon="-2.48128">
        <ele>125.59999847412</ele>
        <time>2019-12-22T10:09:45.000Z</time>
      </trkpt>
      <trkpt lat="47.27429" lon="-2.48129">
        <ele>125</ele>
        <time>2019-12-22T10:09:46.000Z</time>
      </trkpt>
      <trkpt lat="47.27434" lon="-2.48129">
        <ele>124.59999847412</ele>
        <time>2019-12-22T10:09:47.000Z</time>
      </trkpt>
      <trkpt lat="47.27438" lon="-2.48128">
        <ele>124.19999694824</ele>
        <time>2019-12-22T10:09:48.000Z</time>
      </trkpt>
      <trkpt lat="47.27446" lon="-2.48127">
        <ele>124.19999694824</ele>
        <time>2019-12-22T10:09:50.000Z</time>
      </trkpt>
      <trkpt lat="47.27454" lon="-2.48122">
        <ele>124.59999847412</ele>
        <time>2019-12-22T10:09:52.000Z</time>
      </trkpt>
      <trkpt lat="47.27458" lon="-2.48121">
        <ele>125</ele>
        <time>2019-12-22T10:09:53.000Z</time>
      </trkpt>
      <trkpt lat="47.27461" lon="-2.48119">
        <ele>125.40000152588</ele>
        <time>2019-12-22T10:09:54.000Z</time>
      </trkpt>
      <trkpt lat="47.27465" lon="-2.48117">
        <ele>126.40000152588</ele>
        <time>2019-12-22T10:09:55.000Z</time>
      </trkpt>
      <trkpt lat="47.2748" lon="-2.48112">
        <ele>126.40000152588</ele>
        <time>2019-12-22T10:09:59.000Z</time>
      </trkpt>
      <trkpt lat="47.27484" lon="-2.48111">
        <ele>126.40000152588</ele>
        <time>2019-12-22T10:10:00.000Z</time>
      </trkpt>
      <trkpt lat="47.27488" lon="-2.48104">
        <ele>126.40000152588</ele>
        <time>2019-12-22T10:10:02.000Z</time>
      </trkpt>
      <trkpt lat="47.27489" lon="-2.48102">
        <ele>126.40000152588</ele>
        <time>2019-12-22T10:10:03.000Z</time>
      </trkpt>
      <trkpt lat="47.27485" lon="-2.48085">
        <ele>126.40000152588</ele>
        <time>2019-12-22T10:10:07.000Z</time>
      </trkpt>
      <trkpt lat="47.27483" lon="-2.4808">
        <ele>126.40000152588</ele>
        <time>2019-12-22T10:10:08.000Z</time>
      </trkpt>
      <trkpt lat="47.2748" lon="-2.48075">
        <ele>126.80000305176</ele>
        <time>2019-12-22T10:10:09.000Z</time>
      </trkpt>
      <trkpt lat="47.27477" lon="-2.48068">
        <ele>127.19999694824</ele>
        <time>2019-12-22T10:10:10.000Z</time>
      </trkpt>
      <trkpt lat="47.27474" lon="-2.48062">
        <ele>127.59999847412</ele>
        <time>2019-12-22T10:10:11.000Z</time>
      </trkpt>
      <trkpt lat="47.27471" lon="-2.48056">
        <ele>128</ele>
        <time>2019-12-22T10:10:12.000Z</time>
      </trkpt>
      <trkpt lat="47.27468" lon="-2.4805">
        <ele>128.39999389648</ele>
        <time>2019-12-22T10:10:13.000Z</time>
      </trkpt>
      <trkpt lat="47.27446" lon="-2.48006">
        <ele>128.39999389648</ele>
        <time>2019-12-22T10:10:19.000Z</time>
      </trkpt>
      <trkpt lat="47.27416" lon="-2.47958">
        <ele>128</ele>
        <time>2019-12-22T10:10:25.000Z</time>
      </trkpt>
      <trkpt lat="47.2741" lon="-2.4795">
        <ele>127.59999847412</ele>
        <time>2019-12-22T10:10:26.000Z</time>
      </trkpt>
      <trkpt lat="47.27405" lon="-2.47944">
        <ele>127.19999694824</ele>
        <time>2019-12-22T10:10:27.000Z</time>
      </trkpt>
      <trkpt lat="47.27399" lon="-2.47938">
        <ele>126.80000305176</ele>
        <time>2019-12-22T10:10:28.000Z</time>
      </trkpt>
      <trkpt lat="47.27393" lon="-2.47933">
        <ele>126.40000152588</ele>
        <time>2019-12-22T10:10:29.000Z</time>
      </trkpt>
      <trkpt lat="47.27387" lon="-2.47929">
        <ele>126.40000152588</ele>
        <time>2019-12-22T10:10:30.000Z</time>
      </trkpt>
      <trkpt lat="47.27369" lon="-2.47914">
        <ele>126</ele>
        <time>2019-12-22T10:10:33.000Z</time>
      </trkpt>
      <trkpt lat="47.27364" lon="-2.4791">
        <ele>125.59999847412</ele>
        <time>2019-12-22T10:10:34.000Z</time>
      </trkpt>
      <trkpt lat="47.27358" lon="-2.47906">
        <ele>125.19999694824</ele>
        <time>2019-12-22T10:10:35.000Z</time>
      </trkpt>
      <trkpt lat="47.27353" lon="-2.47901">
        <ele>124.80000305176</ele>
        <time>2019-12-22T10:10:36.000Z</time>
      </trkpt>
      <trkpt lat="47.27347" lon="-2.47897">
        <ele>124.40000152588</ele>
        <time>2019-12-22T10:10:37.000Z</time>
      </trkpt>
      <trkpt lat="47.27341" lon="-2.47892">
        <ele>124.40000152588</ele>
        <time>2019-12-22T10:10:38.000Z</time>
      </trkpt>
      <trkpt lat="47.27304" lon="-2.47862">
        <ele>124.40000152588</ele>
        <time>2019-12-22T10:10:45.000Z</time>
      </trkpt>
      <trkpt lat="47.27267" lon="-2.47827">
        <ele>124.40000152588</ele>
        <time>2019-12-22T10:10:52.000Z</time>
      </trkpt>
      <trkpt lat="47.27248" lon="-2.47801">
        <ele>124.40000152588</ele>
        <time>2019-12-22T10:10:56.000Z</time>
      </trkpt>
      <trkpt lat="47.27241" lon="-2.47787">
        <ele>124.40000152588</ele>
        <time>2019-12-22T10:10:58.000Z</time>
      </trkpt>
      <trkpt lat="47.27219" lon="-2.47736">
        <ele>124.40000152588</ele>
        <time>2019-12-22T10:11:05.000Z</time>
      </trkpt>
      <trkpt lat="47.27207" lon="-2.47678">
        <ele>124.40000152588</ele>
        <time>2019-12-22T10:11:12.000Z</time>
      </trkpt>
      <trkpt lat="47.27204" lon="-2.47652">
        <ele>124.40000152588</ele>
        <time>2019-12-22T10:11:15.000Z</time>
      </trkpt>
      <trkpt lat="47.27201" lon="-2.47616">
        <ele>124.40000152588</ele>
        <time>2019-12-22T10:11:19.000Z</time>
      </trkpt>
      <trkpt lat="47.27196" lon="-2.47549">
        <ele>124.40000152588</ele>
        <time>2019-12-22T10:11:26.000Z</time>
      </trkpt>
      <trkpt lat="47.27192" lon="-2.47522">
        <ele>124.40000152588</ele>
        <time>2019-12-22T10:11:29.000Z</time>
      </trkpt>
      <trkpt lat="47.27187" lon="-2.47495">
        <ele>124.40000152588</ele>
        <time>2019-12-22T10:11:32.000Z</time>
      </trkpt>
      <trkpt lat="47.27181" lon="-2.4748">
        <ele>124.80000305176</ele>
        <time>2019-12-22T10:11:34.000Z</time>
      </trkpt>
      <trkpt lat="47.27179" lon="-2.47473">
        <ele>125.40000152588</ele>
        <time>2019-12-22T10:11:35.000Z</time>
      </trkpt>
      <trkpt lat="47.27177" lon="-2.47465">
        <ele>125.80000305176</ele>
        <time>2019-12-22T10:11:36.000Z</time>
      </trkpt>
      <trkpt lat="47.27174" lon="-2.47458">
        <ele>126.19999694824</ele>
        <time>2019-12-22T10:11:37.000Z</time>
      </trkpt>
      <trkpt lat="47.27171" lon="-2.47451">
        <ele>126.59999847412</ele>
        <time>2019-12-22T10:11:38.000Z</time>
      </trkpt>
      <trkpt lat="47.27147" lon="-2.47393">
        <ele>126.59999847412</ele>
        <time>2019-12-22T10:11:46.000Z</time>
      </trkpt>
      <trkpt lat="47.27133" lon="-2.4734">
        <ele>126.59999847412</ele>
        <time>2019-12-22T10:11:53.000Z</time>
      </trkpt>
      <trkpt lat="47.27127" lon="-2.47288">
        <ele>127.19999694824</ele>
        <time>2019-12-22T10:11:59.000Z</time>
      </trkpt>
      <trkpt lat="47.27126" lon="-2.47279">
        <ele>127.59999847412</ele>
        <time>2019-12-22T10:12:00.000Z</time>
      </trkpt>
      <trkpt lat="47.27126" lon="-2.4727">
        <ele>128</ele>
        <time>2019-12-22T10:12:01.000Z</time>
      </trkpt>
      <trkpt lat="47.27126" lon="-2.47261">
        <ele>128.39999389648</ele>
        <time>2019-12-22T10:12:02.000Z</time>
      </trkpt>
      <trkpt lat="47.27126" lon="-2.47252">
        <ele>128.80000305176</ele>
        <time>2019-12-22T10:12:03.000Z</time>
      </trkpt>
      <trkpt lat="47.27124" lon="-2.47225">
        <ele>128.80000305176</ele>
        <time>2019-12-22T10:12:06.000Z</time>
      </trkpt>
      <trkpt lat="47.27114" lon="-2.47141">
        <ele>128.80000305176</ele>
        <time>2019-12-22T10:12:15.000Z</time>
      </trkpt>
      <trkpt lat="47.27113" lon="-2.47132">
        <ele>128.80000305176</ele>
        <time>2019-12-22T10:12:16.000Z</time>
      </trkpt>
      <trkpt lat="47.27112" lon="-2.47107">
        <ele>128.80000305176</ele>
        <time>2019-12-22T10:12:19.000Z</time>
      </trkpt>
      <trkpt lat="47.2711" lon="-2.47093">
        <ele>128.80000305176</ele>
        <time>2019-12-22T10:12:21.000Z</time>
      </trkpt>
      <trkpt lat="47.2711" lon="-2.47089">
        <ele>128.80000305176</ele>
        <time>2019-12-22T10:12:22.000Z</time>
      </trkpt>
      <trkpt lat="47.271" lon="-2.47086">
        <ele>128.80000305176</ele>
        <time>2019-12-22T10:12:25.000Z</time>
      </trkpt>
      <trkpt lat="47.27097" lon="-2.47087">
        <ele>128.80000305176</ele>
        <time>2019-12-22T10:12:26.000Z</time>
      </trkpt>
      <trkpt lat="47.27084" lon="-2.47091">
        <ele>128.80000305176</ele>
        <time>2019-12-22T10:12:29.000Z</time>
      </trkpt>
      <trkpt lat="47.27071" lon="-2.47095">
        <ele>128.80000305176</ele>
        <time>2019-12-22T10:12:32.000Z</time>
      </trkpt>
      <trkpt lat="47.27034" lon="-2.47107">
        <ele>128.80000305176</ele>
        <time>2019-12-22T10:12:40.000Z</time>
      </trkpt>
      <trkpt lat="47.27009" lon="-2.47113">
        <ele>128.80000305176</ele>
        <time>2019-12-22T10:12:48.000Z</time>
      </trkpt>
      <trkpt lat="47.26996" lon="-2.47121">
        <ele>128.80000305176</ele>
        <time>2019-12-22T10:12:57.000Z</time>
      </trkpt>
      <trkpt lat="47.26992" lon="-2.47125">
        <ele>128.80000305176</ele>
        <time>2019-12-22T10:13:01.000Z</time>
      </trkpt>
      <trkpt lat="47.26989" lon="-2.47128">
        <ele>128.80000305176</ele>
        <time>2019-12-22T10:13:03.000Z</time>
      </trkpt>
      <trkpt lat="47.26988" lon="-2.47129">
        <ele>128.80000305176</ele>
        <time>2019-12-22T10:13:08.000Z</time>
      </trkpt>
      <trkpt lat="47.26988" lon="-2.47129">
        <ele>129.39999389648</ele>
        <time>2019-12-22T10:14:09.000Z</time>
      </trkpt>
      <trkpt lat="47.26991" lon="-2.47126">
        <ele>129.39999389648</ele>
        <time>2019-12-22T10:14:11.000Z</time>
      </trkpt>
      <trkpt lat="47.26993" lon="-2.47125">
        <ele>129.39999389648</ele>
        <time>2019-12-22T10:14:12.000Z</time>
      </trkpt>
      <trkpt lat="47.27009" lon="-2.47115">
        <ele>129.39999389648</ele>
        <time>2019-12-22T10:14:18.000Z</time>
      </trkpt>
      <trkpt lat="47.27035" lon="-2.47107">
        <ele>129.39999389648</ele>
        <time>2019-12-22T10:14:24.000Z</time>
      </trkpt>
      <trkpt lat="47.27054" lon="-2.471">
        <ele>129.39999389648</ele>
        <time>2019-12-22T10:14:30.000Z</time>
      </trkpt>
      <trkpt lat="47.27074" lon="-2.47096">
        <ele>129.39999389648</ele>
        <time>2019-12-22T10:14:36.000Z</time>
      </trkpt>
      <trkpt lat="47.27091" lon="-2.47087">
        <ele>129.39999389648</ele>
        <time>2019-12-22T10:14:42.000Z</time>
      </trkpt>
      <trkpt lat="47.27108" lon="-2.47083">
        <ele>129.39999389648</ele>
        <time>2019-12-22T10:14:47.000Z</time>
      </trkpt>
      <trkpt lat="47.27109" lon="-2.47068">
        <ele>129.39999389648</ele>
        <time>2019-12-22T10:14:50.000Z</time>
      </trkpt>
      <trkpt lat="47.27108" lon="-2.47037">
        <ele>129.39999389648</ele>
        <time>2019-12-22T10:14:54.000Z</time>
      </trkpt>
      <trkpt lat="47.27106" lon="-2.46983">
        <ele>129.39999389648</ele>
        <time>2019-12-22T10:15:00.000Z</time>
      </trkpt>
      <trkpt lat="47.27111" lon="-2.46928">
        <ele>129.39999389648</ele>
        <time>2019-12-22T10:15:06.000Z</time>
      </trkpt>
      <trkpt lat="47.27118" lon="-2.4686">
        <ele>129.39999389648</ele>
        <time>2019-12-22T10:15:13.000Z</time>
      </trkpt>
      <trkpt lat="47.27121" lon="-2.46788">
        <ele>129.39999389648</ele>
        <time>2019-12-22T10:15:20.000Z</time>
      </trkpt>
      <trkpt lat="47.27121" lon="-2.46709">
        <ele>129.39999389648</ele>
        <time>2019-12-22T10:15:27.000Z</time>
      </trkpt>
      <trkpt lat="47.27118" lon="-2.46656">
        <ele>129</ele>
        <time>2019-12-22T10:15:32.000Z</time>
      </trkpt>
      <trkpt lat="47.27117" lon="-2.46645">
        <ele>128.60000610352</ele>
        <time>2019-12-22T10:15:33.000Z</time>
      </trkpt>
      <trkpt lat="47.27117" lon="-2.46634">
        <ele>128.19999694824</ele>
        <time>2019-12-22T10:15:34.000Z</time>
      </trkpt>
      <trkpt lat="47.27116" lon="-2.46623">
        <ele>127.59999847412</ele>
        <time>2019-12-22T10:15:35.000Z</time>
      </trkpt>
      <trkpt lat="47.27116" lon="-2.46612">
        <ele>127.19999694824</ele>
        <time>2019-12-22T10:15:36.000Z</time>
      </trkpt>
      <trkpt lat="47.27116" lon="-2.46601">
        <ele>127.19999694824</ele>
        <time>2019-12-22T10:15:37.000Z</time>
      </trkpt>
      <trkpt lat="47.27115" lon="-2.46568">
        <ele>126.80000305176</ele>
        <time>2019-12-22T10:15:40.000Z</time>
      </trkpt>
      <trkpt lat="47.27114" lon="-2.46556">
        <ele>125.80000305176</ele>
        <time>2019-12-22T10:15:41.000Z</time>
      </trkpt>
      <trkpt lat="47.27113" lon="-2.46545">
        <ele>125.40000152588</ele>
        <time>2019-12-22T10:15:42.000Z</time>
      </trkpt>
      <trkpt lat="47.27112" lon="-2.46533">
        <ele>124.80000305176</ele>
        <time>2019-12-22T10:15:43.000Z</time>
      </trkpt>
      <trkpt lat="47.27111" lon="-2.4651">
        <ele>124.80000305176</ele>
        <time>2019-12-22T10:15:45.000Z</time>
      </trkpt>
      <trkpt lat="47.2711" lon="-2.46499">
        <ele>124.40000152588</ele>
        <time>2019-12-22T10:15:46.000Z</time>
      </trkpt>
      <trkpt lat="47.27109" lon="-2.46487">
        <ele>124</ele>
        <time>2019-12-22T10:15:47.000Z</time>
      </trkpt>
      <trkpt lat="47.27108" lon="-2.46476">
        <ele>123.59999847412</ele>
        <time>2019-12-22T10:15:48.000Z</time>
      </trkpt>
      <trkpt lat="47.27106" lon="-2.46465">
        <ele>123.19999694824</ele>
        <time>2019-12-22T10:15:49.000Z</time>
      </trkpt>
      <trkpt lat="47.27105" lon="-2.46454">
        <ele>122.80000305176</ele>
        <time>2019-12-22T10:15:50.000Z</time>
      </trkpt>
      <trkpt lat="47.27099" lon="-2.46423">
        <ele>122.80000305176</ele>
        <time>2019-12-22T10:15:53.000Z</time>
      </trkpt>
      <trkpt lat="47.27081" lon="-2.46345">
        <ele>122.80000305176</ele>
        <time>2019-12-22T10:16:01.000Z</time>
      </trkpt>
      <trkpt lat="47.27071" lon="-2.46312">
        <ele>122.40000152588</ele>
        <time>2019-12-22T10:16:05.000Z</time>
      </trkpt>
      <trkpt lat="47.27069" lon="-2.46303">
        <ele>121.59999847412</ele>
        <time>2019-12-22T10:16:06.000Z</time>
      </trkpt>
      <trkpt lat="47.27067" lon="-2.46295">
        <ele>121</ele>
        <time>2019-12-22T10:16:07.000Z</time>
      </trkpt>
      <trkpt lat="47.27065" lon="-2.46286">
        <ele>120.59999847412</ele>
        <time>2019-12-22T10:16:08.000Z</time>
      </trkpt>
      <trkpt lat="47.27048" lon="-2.46221">
        <ele>121</ele>
        <time>2019-12-22T10:16:16.000Z</time>
      </trkpt>
      <trkpt lat="47.27046" lon="-2.46214">
        <ele>121.40000152588</ele>
        <time>2019-12-22T10:16:17.000Z</time>
      </trkpt>
      <trkpt lat="47.27044" lon="-2.46206">
        <ele>121.80000305176</ele>
        <time>2019-12-22T10:16:18.000Z</time>
      </trkpt>
      <trkpt lat="47.27042" lon="-2.46199">
        <ele>122.19999694824</ele>
        <time>2019-12-22T10:16:19.000Z</time>
      </trkpt>
      <trkpt lat="47.2704" lon="-2.46191">
        <ele>122.59999847412</ele>
        <time>2019-12-22T10:16:20.000Z</time>
      </trkpt>
      <trkpt lat="47.27032" lon="-2.46161">
        <ele>122.59999847412</ele>
        <time>2019-12-22T10:16:24.000Z</time>
      </trkpt>
      <trkpt lat="47.27017" lon="-2.46107">
        <ele>122.59999847412</ele>
        <time>2019-12-22T10:16:32.000Z</time>
      </trkpt>
      <trkpt lat="47.27008" lon="-2.4607">
        <ele>123</ele>
        <time>2019-12-22T10:16:38.000Z</time>
      </trkpt>
      <trkpt lat="47.27007" lon="-2.46064">
        <ele>123.40000152588</ele>
        <time>2019-12-22T10:16:39.000Z</time>
      </trkpt>
      <trkpt lat="47.27005" lon="-2.46057">
        <ele>123.80000305176</ele>
        <time>2019-12-22T10:16:40.000Z</time>
      </trkpt>
      <trkpt lat="47.27004" lon="-2.46049">
        <ele>124.19999694824</ele>
        <time>2019-12-22T10:16:41.000Z</time>
      </trkpt>
      <trkpt lat="47.27002" lon="-2.46042">
        <ele>124.80000305176</ele>
        <time>2019-12-22T10:16:42.000Z</time>
      </trkpt>
      <trkpt lat="47.26996" lon="-2.46011">
        <ele>124.80000305176</ele>
        <time>2019-12-22T10:16:46.000Z</time>
      </trkpt>
      <trkpt lat="47.26984" lon="-2.45946">
        <ele>124.80000305176</ele>
        <time>2019-12-22T10:16:54.000Z</time>
      </trkpt>
      <trkpt lat="47.26973" lon="-2.45889">
        <ele>124.80000305176</ele>
        <time>2019-12-22T10:17:01.000Z</time>
      </trkpt>
      <trkpt lat="47.26968" lon="-2.45822">
        <ele>124.80000305176</ele>
        <time>2019-12-22T10:17:09.000Z</time>
      </trkpt>
      <trkpt lat="47.26967" lon="-2.45751">
        <ele>124.80000305176</ele>
        <time>2019-12-22T10:17:17.000Z</time>
      </trkpt>
      <trkpt lat="47.26962" lon="-2.45683">
        <ele>124.80000305176</ele>
        <time>2019-12-22T10:17:24.000Z</time>
      </trkpt>
      <trkpt lat="47.2696" lon="-2.45674">
        <ele>124.80000305176</ele>
        <time>2019-12-22T10:17:25.000Z</time>
      </trkpt>
      <trkpt lat="47.26952" lon="-2.4565">
        <ele>124.80000305176</ele>
        <time>2019-12-22T10:17:28.000Z</time>
      </trkpt>
      <trkpt lat="47.26948" lon="-2.45642">
        <ele>124.80000305176</ele>
        <time>2019-12-22T10:17:29.000Z</time>
      </trkpt>
      <trkpt lat="47.26943" lon="-2.45635">
        <ele>124.80000305176</ele>
        <time>2019-12-22T10:17:30.000Z</time>
      </trkpt>
      <trkpt lat="47.26928" lon="-2.45619">
        <ele>124.80000305176</ele>
        <time>2019-12-22T10:17:33.000Z</time>
      </trkpt>
      <trkpt lat="47.26885" lon="-2.45577">
        <ele>124.80000305176</ele>
        <time>2019-12-22T10:17:41.000Z</time>
      </trkpt>
      <trkpt lat="47.26845" lon="-2.45546">
        <ele>124.80000305176</ele>
        <time>2019-12-22T10:17:48.000Z</time>
      </trkpt>
      <trkpt lat="47.26808" lon="-2.45511">
        <ele>124.19999694824</ele>
        <time>2019-12-22T10:17:55.000Z</time>
      </trkpt>
      <trkpt lat="47.26803" lon="-2.45505">
        <ele>123.80000305176</ele>
        <time>2019-12-22T10:17:56.000Z</time>
      </trkpt>
      <trkpt lat="47.26798" lon="-2.45499">
        <ele>123.40000152588</ele>
        <time>2019-12-22T10:17:57.000Z</time>
      </trkpt>
      <trkpt lat="47.26793" lon="-2.45494">
        <ele>123</ele>
        <time>2019-12-22T10:17:58.000Z</time>
      </trkpt>
      <trkpt lat="47.26788" lon="-2.45487">
        <ele>122.59999847412</ele>
        <time>2019-12-22T10:17:59.000Z</time>
      </trkpt>
      <trkpt lat="47.2677" lon="-2.45461">
        <ele>122.59999847412</ele>
        <time>2019-12-22T10:18:03.000Z</time>
      </trkpt>
      <trkpt lat="47.26741" lon="-2.45426">
        <ele>122.59999847412</ele>
        <time>2019-12-22T10:18:09.000Z</time>
      </trkpt>
      <trkpt lat="47.26718" lon="-2.45398">
        <ele>122.59999847412</ele>
        <time>2019-12-22T10:18:14.000Z</time>
      </trkpt>
      <trkpt lat="47.26707" lon="-2.45388">
        <ele>122.59999847412</ele>
        <time>2019-12-22T10:18:16.000Z</time>
      </trkpt>
      <trkpt lat="47.26672" lon="-2.45354">
        <ele>123</ele>
        <time>2019-12-22T10:18:23.000Z</time>
      </trkpt>
      <trkpt lat="47.26667" lon="-2.4535">
        <ele>123.59999847412</ele>
        <time>2019-12-22T10:18:24.000Z</time>
      </trkpt>
      <trkpt lat="47.26662" lon="-2.45345">
        <ele>124</ele>
        <time>2019-12-22T10:18:25.000Z</time>
      </trkpt>
      <trkpt lat="47.26657" lon="-2.4534">
        <ele>124.40000152588</ele>
        <time>2019-12-22T10:18:26.000Z</time>
      </trkpt>
      <trkpt lat="47.26652" lon="-2.45335">
        <ele>124.80000305176</ele>
        <time>2019-12-22T10:18:27.000Z</time>
      </trkpt>
      <trkpt lat="47.26622" lon="-2.45306">
        <ele>124.80000305176</ele>
        <time>2019-12-22T10:18:33.000Z</time>
      </trkpt>
      <trkpt lat="47.26592" lon="-2.45276">
        <ele>124.80000305176</ele>
        <time>2019-12-22T10:18:39.000Z</time>
      </trkpt>
      <trkpt lat="47.26556" lon="-2.45244">
        <ele>124.80000305176</ele>
        <time>2019-12-22T10:18:46.000Z</time>
      </trkpt>
      <trkpt lat="47.2652" lon="-2.45212">
        <ele>124.80000305176</ele>
        <time>2019-12-22T10:18:53.000Z</time>
      </trkpt>
      <trkpt lat="47.26493" lon="-2.45184">
        <ele>124.80000305176</ele>
        <time>2019-12-22T10:18:59.000Z</time>
      </trkpt>
      <trkpt lat="47.26452" lon="-2.45133">
        <ele>124.80000305176</ele>
        <time>2019-12-22T10:19:08.000Z</time>
      </trkpt>
      <trkpt lat="47.26436" lon="-2.45097">
        <ele>124.80000305176</ele>
        <time>2019-12-22T10:19:13.000Z</time>
      </trkpt>
      <trkpt lat="47.26418" lon="-2.45041">
        <ele>124.80000305176</ele>
        <time>2019-12-22T10:19:20.000Z</time>
      </trkpt>
      <trkpt lat="47.26401" lon="-2.44985">
        <ele>124.80000305176</ele>
        <time>2019-12-22T10:19:27.000Z</time>
      </trkpt>
      <trkpt lat="47.26387" lon="-2.44945">
        <ele>124.80000305176</ele>
        <time>2019-12-22T10:19:33.000Z</time>
      </trkpt>
      <trkpt lat="47.26378" lon="-2.44919">
        <ele>124.80000305176</ele>
        <time>2019-12-22T10:19:39.000Z</time>
      </trkpt>
      <trkpt lat="47.26363" lon="-2.44908">
        <ele>124.80000305176</ele>
        <time>2019-12-22T10:19:44.000Z</time>
      </trkpt>
      <trkpt lat="47.26359" lon="-2.44906">
        <ele>124.80000305176</ele>
        <time>2019-12-22T10:19:45.000Z</time>
      </trkpt>
      <trkpt lat="47.26344" lon="-2.44903">
        <ele>124.80000305176</ele>
        <time>2019-12-22T10:19:48.000Z</time>
      </trkpt>
      <trkpt lat="47.26305" lon="-2.44889">
        <ele>124.80000305176</ele>
        <time>2019-12-22T10:19:55.000Z</time>
      </trkpt>
      <trkpt lat="47.263" lon="-2.44886">
        <ele>124.80000305176</ele>
        <time>2019-12-22T10:19:56.000Z</time>
      </trkpt>
      <trkpt lat="47.2628" lon="-2.44866">
        <ele>124.80000305176</ele>
        <time>2019-12-22T10:20:00.000Z</time>
      </trkpt>
      <trkpt lat="47.26276" lon="-2.44859">
        <ele>124.80000305176</ele>
        <time>2019-12-22T10:20:01.000Z</time>
      </trkpt>
      <trkpt lat="47.26272" lon="-2.44852">
        <ele>124.40000152588</ele>
        <time>2019-12-22T10:20:02.000Z</time>
      </trkpt>
      <trkpt lat="47.26269" lon="-2.44845">
        <ele>124</ele>
        <time>2019-12-22T10:20:03.000Z</time>
      </trkpt>
      <trkpt lat="47.26266" lon="-2.44838">
        <ele>123.59999847412</ele>
        <time>2019-12-22T10:20:04.000Z</time>
      </trkpt>
      <trkpt lat="47.26263" lon="-2.44832">
        <ele>123.19999694824</ele>
        <time>2019-12-22T10:20:05.000Z</time>
      </trkpt>
      <trkpt lat="47.2626" lon="-2.44825">
        <ele>122.80000305176</ele>
        <time>2019-12-22T10:20:06.000Z</time>
      </trkpt>
      <trkpt lat="47.26249" lon="-2.44797">
        <ele>122.80000305176</ele>
        <time>2019-12-22T10:20:11.000Z</time>
      </trkpt>
      <trkpt lat="47.26242" lon="-2.44777">
        <ele>123.19999694824</ele>
        <time>2019-12-22T10:20:16.000Z</time>
      </trkpt>
      <trkpt lat="47.26241" lon="-2.44774">
        <ele>123.59999847412</ele>
        <time>2019-12-22T10:20:17.000Z</time>
      </trkpt>
      <trkpt lat="47.26239" lon="-2.44771">
        <ele>124</ele>
        <time>2019-12-22T10:20:18.000Z</time>
      </trkpt>
      <trkpt lat="47.26238" lon="-2.44769">
        <ele>124.40000152588</ele>
        <time>2019-12-22T10:20:19.000Z</time>
      </trkpt>
      <trkpt lat="47.26237" lon="-2.44767">
        <ele>124.80000305176</ele>
        <time>2019-12-22T10:20:20.000Z</time>
      </trkpt>
      <trkpt lat="47.26234" lon="-2.44761">
        <ele>124.80000305176</ele>
        <time>2019-12-22T10:20:23.000Z</time>
      </trkpt>
      <trkpt lat="47.26234" lon="-2.44758">
        <ele>124.80000305176</ele>
        <time>2019-12-22T10:20:24.000Z</time>
      </trkpt>
      <trkpt lat="47.26229" lon="-2.44743">
        <ele>124.80000305176</ele>
        <time>2019-12-22T10:20:29.000Z</time>
      </trkpt>
      <trkpt lat="47.26222" lon="-2.44714">
        <ele>124.80000305176</ele>
        <time>2019-12-22T10:20:37.000Z</time>
      </trkpt>
      <trkpt lat="47.26219" lon="-2.44692">
        <ele>124.80000305176</ele>
        <time>2019-12-22T10:20:42.000Z</time>
      </trkpt>
      <trkpt lat="47.26215" lon="-2.4465">
        <ele>124.80000305176</ele>
        <time>2019-12-22T10:20:48.000Z</time>
      </trkpt>
      <trkpt lat="47.26214" lon="-2.44587">
        <ele>124.80000305176</ele>
        <time>2019-12-22T10:20:56.000Z</time>
      </trkpt>
      <trkpt lat="47.26213" lon="-2.44534">
        <ele>124.80000305176</ele>
        <time>2019-12-22T10:21:03.000Z</time>
      </trkpt>
      <trkpt lat="47.26209" lon="-2.4449">
        <ele>124.80000305176</ele>
        <time>2019-12-22T10:21:09.000Z</time>
      </trkpt>
      <trkpt lat="47.26207" lon="-2.44482">
        <ele>125.19999694824</ele>
        <time>2019-12-22T10:21:10.000Z</time>
      </trkpt>
      <trkpt lat="47.26206" lon="-2.44475">
        <ele>125.59999847412</ele>
        <time>2019-12-22T10:21:11.000Z</time>
      </trkpt>
      <trkpt lat="47.26204" lon="-2.44467">
        <ele>126</ele>
        <time>2019-12-22T10:21:12.000Z</time>
      </trkpt>
      <trkpt lat="47.26202" lon="-2.44459">
        <ele>126.40000152588</ele>
        <time>2019-12-22T10:21:13.000Z</time>
      </trkpt>
      <trkpt lat="47.262" lon="-2.44452">
        <ele>126.80000305176</ele>
        <time>2019-12-22T10:21:14.000Z</time>
      </trkpt>
      <trkpt lat="47.26192" lon="-2.44427">
        <ele>126.80000305176</ele>
        <time>2019-12-22T10:21:17.000Z</time>
      </trkpt>
      <trkpt lat="47.26171" lon="-2.44365">
        <ele>126.80000305176</ele>
        <time>2019-12-22T10:21:24.000Z</time>
      </trkpt>
      <trkpt lat="47.26147" lon="-2.44299">
        <ele>126.80000305176</ele>
        <time>2019-12-22T10:21:32.000Z</time>
      </trkpt>
      <trkpt lat="47.26122" lon="-2.44225">
        <ele>126.80000305176</ele>
        <time>2019-12-22T10:21:41.000Z</time>
      </trkpt>
      <trkpt lat="47.26108" lon="-2.44168">
        <ele>127.40000152588</ele>
        <time>2019-12-22T10:21:48.000Z</time>
      </trkpt>
      <trkpt lat="47.26106" lon="-2.4416">
        <ele>128</ele>
        <time>2019-12-22T10:21:49.000Z</time>
      </trkpt>
      <trkpt lat="47.26105" lon="-2.44152">
        <ele>128.80000305176</ele>
        <time>2019-12-22T10:21:50.000Z</time>
      </trkpt>
      <trkpt lat="47.26103" lon="-2.44144">
        <ele>129.60000610352</ele>
        <time>2019-12-22T10:21:51.000Z</time>
      </trkpt>
      <trkpt lat="47.26102" lon="-2.44136">
        <ele>131.19999694824</ele>
        <time>2019-12-22T10:21:52.000Z</time>
      </trkpt>
      <trkpt lat="47.261" lon="-2.44127">
        <ele>132</ele>
        <time>2019-12-22T10:21:53.000Z</time>
      </trkpt>
      <trkpt lat="47.26093" lon="-2.44092">
        <ele>131.60000610352</ele>
        <time>2019-12-22T10:21:57.000Z</time>
      </trkpt>
      <trkpt lat="47.26091" lon="-2.44083">
        <ele>131.19999694824</ele>
        <time>2019-12-22T10:21:58.000Z</time>
      </trkpt>
      <trkpt lat="47.2609" lon="-2.44074">
        <ele>130.60000610352</ele>
        <time>2019-12-22T10:21:59.000Z</time>
      </trkpt>
      <trkpt lat="47.26089" lon="-2.44065">
        <ele>130.19999694824</ele>
        <time>2019-12-22T10:22:00.000Z</time>
      </trkpt>
      <trkpt lat="47.26087" lon="-2.44056">
        <ele>129.80000305176</ele>
        <time>2019-12-22T10:22:01.000Z</time>
      </trkpt>
      <trkpt lat="47.26081" lon="-2.44011">
        <ele>129.80000305176</ele>
        <time>2019-12-22T10:22:06.000Z</time>
      </trkpt>
      <trkpt lat="47.26077" lon="-2.43973">
        <ele>129.39999389648</ele>
        <time>2019-12-22T10:22:10.000Z</time>
      </trkpt>
      <trkpt lat="47.26076" lon="-2.43963">
        <ele>129</ele>
        <time>2019-12-22T10:22:11.000Z</time>
      </trkpt>
      <trkpt lat="47.26074" lon="-2.43952">
        <ele>128.60000610352</ele>
        <time>2019-12-22T10:22:12.000Z</time>
      </trkpt>
      <trkpt lat="47.26073" lon="-2.43942">
        <ele>128</ele>
        <time>2019-12-22T10:22:13.000Z</time>
      </trkpt>
      <trkpt lat="47.26072" lon="-2.43932">
        <ele>127.59999847412</ele>
        <time>2019-12-22T10:22:14.000Z</time>
      </trkpt>
      <trkpt lat="47.26067" lon="-2.43859">
        <ele>127.19999694824</ele>
        <time>2019-12-22T10:22:21.000Z</time>
      </trkpt>
      <trkpt lat="47.26068" lon="-2.43848">
        <ele>126.80000305176</ele>
        <time>2019-12-22T10:22:22.000Z</time>
      </trkpt>
      <trkpt lat="47.26068" lon="-2.43838">
        <ele>126.40000152588</ele>
        <time>2019-12-22T10:22:23.000Z</time>
      </trkpt>
      <trkpt lat="47.26069" lon="-2.43827">
        <ele>126</ele>
        <time>2019-12-22T10:22:24.000Z</time>
      </trkpt>
      <trkpt lat="47.2607" lon="-2.43817">
        <ele>125.59999847412</ele>
        <time>2019-12-22T10:22:25.000Z</time>
      </trkpt>
      <trkpt lat="47.26073" lon="-2.43797">
        <ele>125.59999847412</ele>
        <time>2019-12-22T10:22:27.000Z</time>
      </trkpt>
      <trkpt lat="47.26086" lon="-2.43718">
        <ele>125.59999847412</ele>
        <time>2019-12-22T10:22:35.000Z</time>
      </trkpt>
      <trkpt lat="47.26087" lon="-2.43708">
        <ele>125.59999847412</ele>
        <time>2019-12-22T10:22:36.000Z</time>
      </trkpt>
      <trkpt lat="47.26088" lon="-2.43687">
        <ele>125.59999847412</ele>
        <time>2019-12-22T10:22:38.000Z</time>
      </trkpt>
      <trkpt lat="47.26087" lon="-2.43667">
        <ele>125.59999847412</ele>
        <time>2019-12-22T10:22:40.000Z</time>
      </trkpt>
      <trkpt lat="47.26076" lon="-2.43631">
        <ele>125.59999847412</ele>
        <time>2019-12-22T10:22:44.000Z</time>
      </trkpt>
      <trkpt lat="47.26064" lon="-2.43607">
        <ele>125.59999847412</ele>
        <time>2019-12-22T10:22:47.000Z</time>
      </trkpt>
      <trkpt lat="47.26056" lon="-2.43593">
        <ele>125.59999847412</ele>
        <time>2019-12-22T10:22:49.000Z</time>
      </trkpt>
      <trkpt lat="47.26028" lon="-2.43537">
        <ele>125.59999847412</ele>
        <time>2019-12-22T10:22:56.000Z</time>
      </trkpt>
      <trkpt lat="47.26002" lon="-2.43467">
        <ele>125.59999847412</ele>
        <time>2019-12-22T10:23:04.000Z</time>
      </trkpt>
      <trkpt lat="47.25977" lon="-2.434">
        <ele>125.59999847412</ele>
        <time>2019-12-22T10:23:12.000Z</time>
      </trkpt>
      <trkpt lat="47.25957" lon="-2.43338">
        <ele>125.59999847412</ele>
        <time>2019-12-22T10:23:19.000Z</time>
      </trkpt>
      <trkpt lat="47.25947" lon="-2.43277">
        <ele>125.19999694824</ele>
        <time>2019-12-22T10:23:25.000Z</time>
      </trkpt>
      <trkpt lat="47.25946" lon="-2.43267">
        <ele>124.80000305176</ele>
        <time>2019-12-22T10:23:26.000Z</time>
      </trkpt>
      <trkpt lat="47.25945" lon="-2.43258">
        <ele>124.40000152588</ele>
        <time>2019-12-22T10:23:27.000Z</time>
      </trkpt>
      <trkpt lat="47.25944" lon="-2.43248">
        <ele>124</ele>
        <time>2019-12-22T10:23:28.000Z</time>
      </trkpt>
      <trkpt lat="47.25943" lon="-2.43238">
        <ele>123.59999847412</ele>
        <time>2019-12-22T10:23:29.000Z</time>
      </trkpt>
      <trkpt lat="47.25941" lon="-2.4322">
        <ele>123.59999847412</ele>
        <time>2019-12-22T10:23:31.000Z</time>
      </trkpt>
      <trkpt lat="47.25942" lon="-2.43164">
        <ele>123.59999847412</ele>
        <time>2019-12-22T10:23:37.000Z</time>
      </trkpt>
      <trkpt lat="47.25943" lon="-2.43119">
        <ele>123.59999847412</ele>
        <time>2019-12-22T10:23:42.000Z</time>
      </trkpt>
      <trkpt lat="47.25945" lon="-2.4311">
        <ele>123.59999847412</ele>
        <time>2019-12-22T10:23:43.000Z</time>
      </trkpt>
      <trkpt lat="47.25952" lon="-2.43068">
        <ele>123.59999847412</ele>
        <time>2019-12-22T10:23:48.000Z</time>
      </trkpt>
      <trkpt lat="47.25956" lon="-2.43052">
        <ele>123.59999847412</ele>
        <time>2019-12-22T10:23:50.000Z</time>
      </trkpt>
      <trkpt lat="47.25959" lon="-2.43016">
        <ele>123.59999847412</ele>
        <time>2019-12-22T10:23:54.000Z</time>
      </trkpt>
      <trkpt lat="47.25959" lon="-2.43007">
        <ele>124</ele>
        <time>2019-12-22T10:23:55.000Z</time>
      </trkpt>
      <trkpt lat="47.25959" lon="-2.42998">
        <ele>124.80000305176</ele>
        <time>2019-12-22T10:23:56.000Z</time>
      </trkpt>
      <trkpt lat="47.25959" lon="-2.42988">
        <ele>125.19999694824</ele>
        <time>2019-12-22T10:23:57.000Z</time>
      </trkpt>
      <trkpt lat="47.25959" lon="-2.42979">
        <ele>125.59999847412</ele>
        <time>2019-12-22T10:23:58.000Z</time>
      </trkpt>
      <trkpt lat="47.25962" lon="-2.42951">
        <ele>125.59999847412</ele>
        <time>2019-12-22T10:24:01.000Z</time>
      </trkpt>
      <trkpt lat="47.25964" lon="-2.42942">
        <ele>125.59999847412</ele>
        <time>2019-12-22T10:24:02.000Z</time>
      </trkpt>
      <trkpt lat="47.25969" lon="-2.42924">
        <ele>125.59999847412</ele>
        <time>2019-12-22T10:24:04.000Z</time>
      </trkpt>
      <trkpt lat="47.25977" lon="-2.429">
        <ele>125.59999847412</ele>
        <time>2019-12-22T10:24:07.000Z</time>
      </trkpt>
      <trkpt lat="47.25981" lon="-2.42882">
        <ele>125.59999847412</ele>
        <time>2019-12-22T10:24:09.000Z</time>
      </trkpt>
      <trkpt lat="47.25983" lon="-2.42864">
        <ele>125.59999847412</ele>
        <time>2019-12-22T10:24:11.000Z</time>
      </trkpt>
      <trkpt lat="47.25983" lon="-2.42806">
        <ele>125.59999847412</ele>
        <time>2019-12-22T10:24:17.000Z</time>
      </trkpt>
      <trkpt lat="47.25981" lon="-2.42724">
        <ele>125.59999847412</ele>
        <time>2019-12-22T10:24:25.000Z</time>
      </trkpt>
      <trkpt lat="47.2598" lon="-2.42693">
        <ele>125.59999847412</ele>
        <time>2019-12-22T10:24:28.000Z</time>
      </trkpt>
      <trkpt lat="47.2597" lon="-2.42621">
        <ele>125.59999847412</ele>
        <time>2019-12-22T10:24:35.000Z</time>
      </trkpt>
      <trkpt lat="47.2597" lon="-2.4257">
        <ele>125.59999847412</ele>
        <time>2019-12-22T10:24:40.000Z</time>
      </trkpt>
      <trkpt lat="47.25981" lon="-2.42521">
        <ele>125.59999847412</ele>
        <time>2019-12-22T10:24:45.000Z</time>
      </trkpt>
      <trkpt lat="47.25992" lon="-2.42461">
        <ele>125.59999847412</ele>
        <time>2019-12-22T10:24:51.000Z</time>
      </trkpt>
      <trkpt lat="47.25994" lon="-2.42402">
        <ele>125.59999847412</ele>
        <time>2019-12-22T10:24:57.000Z</time>
      </trkpt>
      <trkpt lat="47.25993" lon="-2.42392">
        <ele>125.59999847412</ele>
        <time>2019-12-22T10:24:58.000Z</time>
      </trkpt>
      <trkpt lat="47.2598" lon="-2.4236">
        <ele>125.59999847412</ele>
        <time>2019-12-22T10:25:02.000Z</time>
      </trkpt>
      <trkpt lat="47.25976" lon="-2.42354">
        <ele>125.59999847412</ele>
        <time>2019-12-22T10:25:03.000Z</time>
      </trkpt>
      <trkpt lat="47.2595" lon="-2.42315">
        <ele>125.59999847412</ele>
        <time>2019-12-22T10:25:09.000Z</time>
      </trkpt>
      <trkpt lat="47.2593" lon="-2.42267">
        <ele>125.59999847412</ele>
        <time>2019-12-22T10:25:15.000Z</time>
      </trkpt>
      <trkpt lat="47.25919" lon="-2.42207">
        <ele>125.59999847412</ele>
        <time>2019-12-22T10:25:21.000Z</time>
      </trkpt>
      <trkpt lat="47.25911" lon="-2.42121">
        <ele>125.59999847412</ele>
        <time>2019-12-22T10:25:29.000Z</time>
      </trkpt>
      <trkpt lat="47.25908" lon="-2.4209">
        <ele>126</ele>
        <time>2019-12-22T10:25:32.000Z</time>
      </trkpt>
      <trkpt lat="47.25908" lon="-2.4208">
        <ele>126.40000152588</ele>
        <time>2019-12-22T10:25:33.000Z</time>
      </trkpt>
      <trkpt lat="47.25906" lon="-2.42071">
        <ele>126.80000305176</ele>
        <time>2019-12-22T10:25:34.000Z</time>
      </trkpt>
      <trkpt lat="47.25905" lon="-2.42061">
        <ele>127.59999847412</ele>
        <time>2019-12-22T10:25:35.000Z</time>
      </trkpt>
      <trkpt lat="47.25902" lon="-2.42052">
        <ele>127.59999847412</ele>
        <time>2019-12-22T10:25:36.000Z</time>
      </trkpt>
      <trkpt lat="47.25894" lon="-2.42035">
        <ele>127.59999847412</ele>
        <time>2019-12-22T10:25:38.000Z</time>
      </trkpt>
      <trkpt lat="47.25883" lon="-2.42019">
        <ele>127.59999847412</ele>
        <time>2019-12-22T10:25:40.000Z</time>
      </trkpt>
      <trkpt lat="47.25865" lon="-2.41995">
        <ele>127.59999847412</ele>
        <time>2019-12-22T10:25:43.000Z</time>
      </trkpt>
      <trkpt lat="47.25856" lon="-2.41963">
        <ele>127.59999847412</ele>
        <time>2019-12-22T10:25:46.000Z</time>
      </trkpt>
      <trkpt lat="47.25857" lon="-2.41928">
        <ele>127.59999847412</ele>
        <time>2019-12-22T10:25:49.000Z</time>
      </trkpt>
      <trkpt lat="47.25859" lon="-2.41916">
        <ele>127.59999847412</ele>
        <time>2019-12-22T10:25:50.000Z</time>
      </trkpt>
      <trkpt lat="47.25864" lon="-2.41883">
        <ele>127.19999694824</ele>
        <time>2019-12-22T10:25:53.000Z</time>
      </trkpt>
      <trkpt lat="47.25866" lon="-2.41871">
        <ele>126.59999847412</ele>
        <time>2019-12-22T10:25:54.000Z</time>
      </trkpt>
      <trkpt lat="47.25869" lon="-2.41861">
        <ele>126.19999694824</ele>
        <time>2019-12-22T10:25:55.000Z</time>
      </trkpt>
      <trkpt lat="47.25872" lon="-2.4185">
        <ele>125.80000305176</ele>
        <time>2019-12-22T10:25:56.000Z</time>
      </trkpt>
      <trkpt lat="47.25875" lon="-2.4184">
        <ele>125.40000152588</ele>
        <time>2019-12-22T10:25:57.000Z</time>
      </trkpt>
      <trkpt lat="47.25879" lon="-2.4183">
        <ele>125.40000152588</ele>
        <time>2019-12-22T10:25:58.000Z</time>
      </trkpt>
      <trkpt lat="47.25892" lon="-2.41802">
        <ele>125.40000152588</ele>
        <time>2019-12-22T10:26:01.000Z</time>
      </trkpt>
      <trkpt lat="47.2591" lon="-2.41771">
        <ele>125.40000152588</ele>
        <time>2019-12-22T10:26:05.000Z</time>
      </trkpt>
      <trkpt lat="47.25915" lon="-2.41764">
        <ele>125.40000152588</ele>
        <time>2019-12-22T10:26:06.000Z</time>
      </trkpt>
      <trkpt lat="47.25942" lon="-2.41751">
        <ele>125.40000152588</ele>
        <time>2019-12-22T10:26:10.000Z</time>
      </trkpt>
      <trkpt lat="47.25962" lon="-2.41753">
        <ele>125.40000152588</ele>
        <time>2019-12-22T10:26:13.000Z</time>
      </trkpt>
      <trkpt lat="47.25969" lon="-2.41754">
        <ele>125.40000152588</ele>
        <time>2019-12-22T10:26:14.000Z</time>
      </trkpt>
      <trkpt lat="47.26006" lon="-2.41762">
        <ele>125.40000152588</ele>
        <time>2019-12-22T10:26:20.000Z</time>
      </trkpt>
      <trkpt lat="47.26018" lon="-2.41765">
        <ele>125.80000305176</ele>
        <time>2019-12-22T10:26:22.000Z</time>
      </trkpt>
      <trkpt lat="47.26023" lon="-2.41767">
        <ele>126.19999694824</ele>
        <time>2019-12-22T10:26:23.000Z</time>
      </trkpt>
      <trkpt lat="47.26029" lon="-2.41769">
        <ele>127</ele>
        <time>2019-12-22T10:26:24.000Z</time>
      </trkpt>
      <trkpt lat="47.26034" lon="-2.4177">
        <ele>127.40000152588</ele>
        <time>2019-12-22T10:26:25.000Z</time>
      </trkpt>
      <trkpt lat="47.26039" lon="-2.41772">
        <ele>127.40000152588</ele>
        <time>2019-12-22T10:26:26.000Z</time>
      </trkpt>
      <trkpt lat="47.26077" lon="-2.41783">
        <ele>127</ele>
        <time>2019-12-22T10:26:33.000Z</time>
      </trkpt>
      <trkpt lat="47.26083" lon="-2.41784">
        <ele>126.40000152588</ele>
        <time>2019-12-22T10:26:34.000Z</time>
      </trkpt>
      <trkpt lat="47.2609" lon="-2.41786">
        <ele>126</ele>
        <time>2019-12-22T10:26:35.000Z</time>
      </trkpt>
      <trkpt lat="47.26096" lon="-2.41787">
        <ele>125.40000152588</ele>
        <time>2019-12-22T10:26:36.000Z</time>
      </trkpt>
      <trkpt lat="47.26102" lon="-2.41789">
        <ele>125</ele>
        <time>2019-12-22T10:26:37.000Z</time>
      </trkpt>
      <trkpt lat="47.26121" lon="-2.41796">
        <ele>125</ele>
        <time>2019-12-22T10:26:40.000Z</time>
      </trkpt>
      <trkpt lat="47.26155" lon="-2.41813">
        <ele>125</ele>
        <time>2019-12-22T10:26:46.000Z</time>
      </trkpt>
      <trkpt lat="47.26187" lon="-2.41845">
        <ele>125</ele>
        <time>2019-12-22T10:26:52.000Z</time>
      </trkpt>
      <trkpt lat="47.26192" lon="-2.41852">
        <ele>125</ele>
        <time>2019-12-22T10:26:53.000Z</time>
      </trkpt>
      <trkpt lat="47.26208" lon="-2.41871">
        <ele>125</ele>
        <time>2019-12-22T10:26:56.000Z</time>
      </trkpt>
      <trkpt lat="47.26246" lon="-2.41901">
        <ele>125</ele>
        <time>2019-12-22T10:27:02.000Z</time>
      </trkpt>
      <trkpt lat="47.26272" lon="-2.41917">
        <ele>124.59999847412</ele>
        <time>2019-12-22T10:27:06.000Z</time>
      </trkpt>
      <trkpt lat="47.26278" lon="-2.41921">
        <ele>124.19999694824</ele>
        <time>2019-12-22T10:27:07.000Z</time>
      </trkpt>
      <trkpt lat="47.26284" lon="-2.41925">
        <ele>123.80000305176</ele>
        <time>2019-12-22T10:27:08.000Z</time>
      </trkpt>
      <trkpt lat="47.2629" lon="-2.4193">
        <ele>123.40000152588</ele>
        <time>2019-12-22T10:27:09.000Z</time>
      </trkpt>
      <trkpt lat="47.26297" lon="-2.41934">
        <ele>123</ele>
        <time>2019-12-22T10:27:10.000Z</time>
      </trkpt>
      <trkpt lat="47.26303" lon="-2.41938">
        <ele>123</ele>
        <time>2019-12-22T10:27:11.000Z</time>
      </trkpt>
      <trkpt lat="47.26346" lon="-2.41965">
        <ele>123</ele>
        <time>2019-12-22T10:27:18.000Z</time>
      </trkpt>
      <trkpt lat="47.26359" lon="-2.41973">
        <ele>122.59999847412</ele>
        <time>2019-12-22T10:27:20.000Z</time>
      </trkpt>
      <trkpt lat="47.26365" lon="-2.41977">
        <ele>122.19999694824</ele>
        <time>2019-12-22T10:27:21.000Z</time>
      </trkpt>
      <trkpt lat="47.26371" lon="-2.41981">
        <ele>121.80000305176</ele>
        <time>2019-12-22T10:27:22.000Z</time>
      </trkpt>
      <trkpt lat="47.26377" lon="-2.41985">
        <ele>121.40000152588</ele>
        <time>2019-12-22T10:27:23.000Z</time>
      </trkpt>
      <trkpt lat="47.26383" lon="-2.41989">
        <ele>121</ele>
        <time>2019-12-22T10:27:24.000Z</time>
      </trkpt>
      <trkpt lat="47.26394" lon="-2.41997">
        <ele>121</ele>
        <time>2019-12-22T10:27:26.000Z</time>
      </trkpt>
      <trkpt lat="47.2641" lon="-2.42009">
        <ele>121</ele>
        <time>2019-12-22T10:27:29.000Z</time>
      </trkpt>
      <trkpt lat="47.26431" lon="-2.4203">
        <ele>121</ele>
        <time>2019-12-22T10:27:33.000Z</time>
      </trkpt>
      <trkpt lat="47.26467" lon="-2.42069">
        <ele>121</ele>
        <time>2019-12-22T10:27:40.000Z</time>
      </trkpt>
      <trkpt lat="47.26505" lon="-2.42108">
        <ele>121</ele>
        <time>2019-12-22T10:27:47.000Z</time>
      </trkpt>
      <trkpt lat="47.26549" lon="-2.42154">
        <ele>121</ele>
        <time>2019-12-22T10:27:55.000Z</time>
      </trkpt>
      <trkpt lat="47.26583" lon="-2.4218">
        <ele>121</ele>
        <time>2019-12-22T10:28:01.000Z</time>
      </trkpt>
      <trkpt lat="47.26614" lon="-2.42205">
        <ele>121</ele>
        <time>2019-12-22T10:28:07.000Z</time>
      </trkpt>
      <trkpt lat="47.26624" lon="-2.42214">
        <ele>121</ele>
        <time>2019-12-22T10:28:09.000Z</time>
      </trkpt>
      <trkpt lat="47.26637" lon="-2.42228">
        <ele>121</ele>
        <time>2019-12-22T10:28:12.000Z</time>
      </trkpt>
      <trkpt lat="47.26662" lon="-2.4226">
        <ele>121</ele>
        <time>2019-12-22T10:28:18.000Z</time>
      </trkpt>
      <trkpt lat="47.26665" lon="-2.42265">
        <ele>121</ele>
        <time>2019-12-22T10:28:19.000Z</time>
      </trkpt>
      <trkpt lat="47.26681" lon="-2.42285">
        <ele>121</ele>
        <time>2019-12-22T10:28:23.000Z</time>
      </trkpt>
      <trkpt lat="47.2671" lon="-2.42308">
        <ele>121</ele>
        <time>2019-12-22T10:28:29.000Z</time>
      </trkpt>
      <trkpt lat="47.26749" lon="-2.42333">
        <ele>121</ele>
        <time>2019-12-22T10:28:37.000Z</time>
      </trkpt>
      <trkpt lat="47.26768" lon="-2.42349">
        <ele>121</ele>
        <time>2019-12-22T10:28:41.000Z</time>
      </trkpt>
      <trkpt lat="47.26772" lon="-2.42354">
        <ele>121</ele>
        <time>2019-12-22T10:28:42.000Z</time>
      </trkpt>
      <trkpt lat="47.26789" lon="-2.42384">
        <ele>121.40000152588</ele>
        <time>2019-12-22T10:28:47.000Z</time>
      </trkpt>
      <trkpt lat="47.26792" lon="-2.4239">
        <ele>122</ele>
        <time>2019-12-22T10:28:48.000Z</time>
      </trkpt>
      <trkpt lat="47.26796" lon="-2.42396">
        <ele>122.40000152588</ele>
        <time>2019-12-22T10:28:49.000Z</time>
      </trkpt>
      <trkpt lat="47.268" lon="-2.42401">
        <ele>122.80000305176</ele>
        <time>2019-12-22T10:28:50.000Z</time>
      </trkpt>
      <trkpt lat="47.26803" lon="-2.42407">
        <ele>123.40000152588</ele>
        <time>2019-12-22T10:28:51.000Z</time>
      </trkpt>
      <trkpt lat="47.26809" lon="-2.42419">
        <ele>123.40000152588</ele>
        <time>2019-12-22T10:28:53.000Z</time>
      </trkpt>
      <trkpt lat="47.26825" lon="-2.42448">
        <ele>123.40000152588</ele>
        <time>2019-12-22T10:28:58.000Z</time>
      </trkpt>
      <trkpt lat="47.26834" lon="-2.42457">
        <ele>123.40000152588</ele>
        <time>2019-12-22T10:29:00.000Z</time>
      </trkpt>
      <trkpt lat="47.26855" lon="-2.42464">
        <ele>123.40000152588</ele>
        <time>2019-12-22T10:29:04.000Z</time>
      </trkpt>
      <trkpt lat="47.26867" lon="-2.42464">
        <ele>123.40000152588</ele>
        <time>2019-12-22T10:29:06.000Z</time>
      </trkpt>
      <trkpt lat="47.26891" lon="-2.42465">
        <ele>123.40000152588</ele>
        <time>2019-12-22T10:29:10.000Z</time>
      </trkpt>
      <trkpt lat="47.26904" lon="-2.42468">
        <ele>123.40000152588</ele>
        <time>2019-12-22T10:29:12.000Z</time>
      </trkpt>
      <trkpt lat="47.26917" lon="-2.42474">
        <ele>123.40000152588</ele>
        <time>2019-12-22T10:29:14.000Z</time>
      </trkpt>
      <trkpt lat="47.26937" lon="-2.42482">
        <ele>123.40000152588</ele>
        <time>2019-12-22T10:29:17.000Z</time>
      </trkpt>
      <trkpt lat="47.26949" lon="-2.42492">
        <ele>123.40000152588</ele>
        <time>2019-12-22T10:29:19.000Z</time>
      </trkpt>
      <trkpt lat="47.26959" lon="-2.42505">
        <ele>123.40000152588</ele>
        <time>2019-12-22T10:29:21.000Z</time>
      </trkpt>
      <trkpt lat="47.26967" lon="-2.42518">
        <ele>123.40000152588</ele>
        <time>2019-12-22T10:29:23.000Z</time>
      </trkpt>
      <trkpt lat="47.26987" lon="-2.42552">
        <ele>123.40000152588</ele>
        <time>2019-12-22T10:29:28.000Z</time>
      </trkpt>
      <trkpt lat="47.27006" lon="-2.42598">
        <ele>123.40000152588</ele>
        <time>2019-12-22T10:29:34.000Z</time>
      </trkpt>
      <trkpt lat="47.2702" lon="-2.42636">
        <ele>123.40000152588</ele>
        <time>2019-12-22T10:29:39.000Z</time>
      </trkpt>
      <trkpt lat="47.27024" lon="-2.42641">
        <ele>123</ele>
        <time>2019-12-22T10:29:40.000Z</time>
      </trkpt>
      <trkpt lat="47.27029" lon="-2.42646">
        <ele>122.40000152588</ele>
        <time>2019-12-22T10:29:41.000Z</time>
      </trkpt>
      <trkpt lat="47.27034" lon="-2.4265">
        <ele>121.59999847412</ele>
        <time>2019-12-22T10:29:42.000Z</time>
      </trkpt>
      <trkpt lat="47.27039" lon="-2.42654">
        <ele>121</ele>
        <time>2019-12-22T10:29:43.000Z</time>
      </trkpt>
      <trkpt lat="47.27057" lon="-2.4266">
        <ele>121</ele>
        <time>2019-12-22T10:29:46.000Z</time>
      </trkpt>
      <trkpt lat="47.27082" lon="-2.42653">
        <ele>121</ele>
        <time>2019-12-22T10:29:50.000Z</time>
      </trkpt>
      <trkpt lat="47.27094" lon="-2.42648">
        <ele>121</ele>
        <time>2019-12-22T10:29:52.000Z</time>
      </trkpt>
      <trkpt lat="47.27118" lon="-2.42638">
        <ele>121</ele>
        <time>2019-12-22T10:29:56.000Z</time>
      </trkpt>
      <trkpt lat="47.27136" lon="-2.4263">
        <ele>121</ele>
        <time>2019-12-22T10:29:59.000Z</time>
      </trkpt>
      <trkpt lat="47.27148" lon="-2.42624">
        <ele>121</ele>
        <time>2019-12-22T10:30:01.000Z</time>
      </trkpt>
      <trkpt lat="47.27185" lon="-2.42611">
        <ele>121</ele>
        <time>2019-12-22T10:30:07.000Z</time>
      </trkpt>
      <trkpt lat="47.27222" lon="-2.426">
        <ele>121</ele>
        <time>2019-12-22T10:30:13.000Z</time>
      </trkpt>
      <trkpt lat="47.27266" lon="-2.42583">
        <ele>121</ele>
        <time>2019-12-22T10:30:20.000Z</time>
      </trkpt>
      <trkpt lat="47.27308" lon="-2.42562">
        <ele>121</ele>
        <time>2019-12-22T10:30:27.000Z</time>
      </trkpt>
      <trkpt lat="47.2732" lon="-2.42559">
        <ele>121</ele>
        <time>2019-12-22T10:30:29.000Z</time>
      </trkpt>
      <trkpt lat="47.27332" lon="-2.42559">
        <ele>121</ele>
        <time>2019-12-22T10:30:31.000Z</time>
      </trkpt>
      <trkpt lat="47.27369" lon="-2.42555">
        <ele>121</ele>
        <time>2019-12-22T10:30:38.000Z</time>
      </trkpt>
      <trkpt lat="47.27386" lon="-2.42554">
        <ele>121</ele>
        <time>2019-12-22T10:30:41.000Z</time>
      </trkpt>
      <trkpt lat="47.27402" lon="-2.42554">
        <ele>121</ele>
        <time>2019-12-22T10:30:44.000Z</time>
      </trkpt>
      <trkpt lat="47.27408" lon="-2.42554">
        <ele>121</ele>
        <time>2019-12-22T10:30:45.000Z</time>
      </trkpt>
      <trkpt lat="47.27421" lon="-2.42563">
        <ele>121</ele>
        <time>2019-12-22T10:30:48.000Z</time>
      </trkpt>
      <trkpt lat="47.27428" lon="-2.42571">
        <ele>121</ele>
        <time>2019-12-22T10:30:50.000Z</time>
      </trkpt>
      <trkpt lat="47.27436" lon="-2.42579">
        <ele>121</ele>
        <time>2019-12-22T10:30:52.000Z</time>
      </trkpt>
      <trkpt lat="47.27443" lon="-2.42588">
        <ele>121</ele>
        <time>2019-12-22T10:30:54.000Z</time>
      </trkpt>
      <trkpt lat="47.27453" lon="-2.42601">
        <ele>120.59999847412</ele>
        <time>2019-12-22T10:30:57.000Z</time>
      </trkpt>
      <trkpt lat="47.27456" lon="-2.42605">
        <ele>120.19999694824</ele>
        <time>2019-12-22T10:30:58.000Z</time>
      </trkpt>
      <trkpt lat="47.27459" lon="-2.42609">
        <ele>119.80000305176</ele>
        <time>2019-12-22T10:30:59.000Z</time>
      </trkpt>
      <trkpt lat="47.27463" lon="-2.42613">
        <ele>119.40000152588</ele>
        <time>2019-12-22T10:31:00.000Z</time>
      </trkpt>
      <trkpt lat="47.27466" lon="-2.42617">
        <ele>118.80000305176</ele>
        <time>2019-12-22T10:31:01.000Z</time>
      </trkpt>
      <trkpt lat="47.2747" lon="-2.42621">
        <ele>118.80000305176</ele>
        <time>2019-12-22T10:31:02.000Z</time>
      </trkpt>
      <trkpt lat="47.27482" lon="-2.42644">
        <ele>118.80000305176</ele>
        <time>2019-12-22T10:31:06.000Z</time>
      </trkpt>
      <trkpt lat="47.27489" lon="-2.42664">
        <ele>118.80000305176</ele>
        <time>2019-12-22T10:31:09.000Z</time>
      </trkpt>
      <trkpt lat="47.27498" lon="-2.42681">
        <ele>118.80000305176</ele>
        <time>2019-12-22T10:31:12.000Z</time>
      </trkpt>
      <trkpt lat="47.27511" lon="-2.42677">
        <ele>118.80000305176</ele>
        <time>2019-12-22T10:31:15.000Z</time>
      </trkpt>
      <trkpt lat="47.27518" lon="-2.42669">
        <ele>118.80000305176</ele>
        <time>2019-12-22T10:31:17.000Z</time>
      </trkpt>
      <trkpt lat="47.27528" lon="-2.42655">
        <ele>118.80000305176</ele>
        <time>2019-12-22T10:31:20.000Z</time>
      </trkpt>
      <trkpt lat="47.27541" lon="-2.42636">
        <ele>118.80000305176</ele>
        <time>2019-12-22T10:31:25.000Z</time>
      </trkpt>
      <trkpt lat="47.27545" lon="-2.42636">
        <ele>118.80000305176</ele>
        <time>2019-12-22T10:31:26.000Z</time>
      </trkpt>
      <trkpt lat="47.27552" lon="-2.42641">
        <ele>118.80000305176</ele>
        <time>2019-12-22T10:31:28.000Z</time>
      </trkpt>
      <trkpt lat="47.27559" lon="-2.42649">
        <ele>118.80000305176</ele>
        <time>2019-12-22T10:31:30.000Z</time>
      </trkpt>
      <trkpt lat="47.27569" lon="-2.42664">
        <ele>118.80000305176</ele>
        <time>2019-12-22T10:31:33.000Z</time>
      </trkpt>
      <trkpt lat="47.27594" lon="-2.42698">
        <ele>118.80000305176</ele>
        <time>2019-12-22T10:31:40.000Z</time>
      </trkpt>
      <trkpt lat="47.27626" lon="-2.42739">
        <ele>118.80000305176</ele>
        <time>2019-12-22T10:31:49.000Z</time>
      </trkpt>
      <trkpt lat="47.27642" lon="-2.42756">
        <ele>119.40000152588</ele>
        <time>2019-12-22T10:31:53.000Z</time>
      </trkpt>
      <trkpt lat="47.27646" lon="-2.4276">
        <ele>119.80000305176</ele>
        <time>2019-12-22T10:31:54.000Z</time>
      </trkpt>
      <trkpt lat="47.2765" lon="-2.42763">
        <ele>120.19999694824</ele>
        <time>2019-12-22T10:31:55.000Z</time>
      </trkpt>
      <trkpt lat="47.27654" lon="-2.42767">
        <ele>120.59999847412</ele>
        <time>2019-12-22T10:31:56.000Z</time>
      </trkpt>
      <trkpt lat="47.27659" lon="-2.42771">
        <ele>121</ele>
        <time>2019-12-22T10:31:57.000Z</time>
      </trkpt>
      <trkpt lat="47.27663" lon="-2.42775">
        <ele>121</ele>
        <time>2019-12-22T10:31:58.000Z</time>
      </trkpt>
      <trkpt lat="47.2768" lon="-2.4279">
        <ele>121</ele>
        <time>2019-12-22T10:32:02.000Z</time>
      </trkpt>
      <trkpt lat="47.2769" lon="-2.42794">
        <ele>121</ele>
        <time>2019-12-22T10:32:04.000Z</time>
      </trkpt>
      <trkpt lat="47.27708" lon="-2.42799">
        <ele>121</ele>
        <time>2019-12-22T10:32:08.000Z</time>
      </trkpt>
      <trkpt lat="47.27716" lon="-2.42802">
        <ele>121</ele>
        <time>2019-12-22T10:32:10.000Z</time>
      </trkpt>
      <trkpt lat="47.27724" lon="-2.42805">
        <ele>120.59999847412</ele>
        <time>2019-12-22T10:32:12.000Z</time>
      </trkpt>
      <trkpt lat="47.27728" lon="-2.42806">
        <ele>120.19999694824</ele>
        <time>2019-12-22T10:32:13.000Z</time>
      </trkpt>
      <trkpt lat="47.27732" lon="-2.42808">
        <ele>119.80000305176</ele>
        <time>2019-12-22T10:32:14.000Z</time>
      </trkpt>
      <trkpt lat="47.27735" lon="-2.42809">
        <ele>119.19999694824</ele>
        <time>2019-12-22T10:32:15.000Z</time>
      </trkpt>
      <trkpt lat="47.27738" lon="-2.42809">
        <ele>118.80000305176</ele>
        <time>2019-12-22T10:32:16.000Z</time>
      </trkpt>
      <trkpt lat="47.27762" lon="-2.42814">
        <ele>118.80000305176</ele>
        <time>2019-12-22T10:32:22.000Z</time>
      </trkpt>
      <trkpt lat="47.27796" lon="-2.42819">
        <ele>118.80000305176</ele>
        <time>2019-12-22T10:32:30.000Z</time>
      </trkpt>
      <trkpt lat="47.27826" lon="-2.42818">
        <ele>118.80000305176</ele>
        <time>2019-12-22T10:32:37.000Z</time>
      </trkpt>
      <trkpt lat="47.27829" lon="-2.42802">
        <ele>118.80000305176</ele>
        <time>2019-12-22T10:32:40.000Z</time>
      </trkpt>
      <trkpt lat="47.27829" lon="-2.42796">
        <ele>118.80000305176</ele>
        <time>2019-12-22T10:32:41.000Z</time>
      </trkpt>
      <trkpt lat="47.27829" lon="-2.42755">
        <ele>118.80000305176</ele>
        <time>2019-12-22T10:32:47.000Z</time>
      </trkpt>
      <trkpt lat="47.27828" lon="-2.42733">
        <ele>119.19999694824</ele>
        <time>2019-12-22T10:32:50.000Z</time>
      </trkpt>
      <trkpt lat="47.27828" lon="-2.42725">
        <ele>119.59999847412</ele>
        <time>2019-12-22T10:32:51.000Z</time>
      </trkpt>
      <trkpt lat="47.27828" lon="-2.42716">
        <ele>120.19999694824</ele>
        <time>2019-12-22T10:32:52.000Z</time>
      </trkpt>
      <trkpt lat="47.27828" lon="-2.42707">
        <ele>120.59999847412</ele>
        <time>2019-12-22T10:32:53.000Z</time>
      </trkpt>
      <trkpt lat="47.27827" lon="-2.42698">
        <ele>121</ele>
        <time>2019-12-22T10:32:54.000Z</time>
      </trkpt>
      <trkpt lat="47.27824" lon="-2.4265">
        <ele>121</ele>
        <time>2019-12-22T10:32:59.000Z</time>
      </trkpt>
      <trkpt lat="47.27821" lon="-2.42632">
        <ele>120.40000152588</ele>
        <time>2019-12-22T10:33:01.000Z</time>
      </trkpt>
      <trkpt lat="47.2782" lon="-2.42622">
        <ele>120</ele>
        <time>2019-12-22T10:33:02.000Z</time>
      </trkpt>
      <trkpt lat="47.27818" lon="-2.42613">
        <ele>119.59999847412</ele>
        <time>2019-12-22T10:33:03.000Z</time>
      </trkpt>
      <trkpt lat="47.27816" lon="-2.42604">
        <ele>119.19999694824</ele>
        <time>2019-12-22T10:33:04.000Z</time>
      </trkpt>
      <trkpt lat="47.27813" lon="-2.42595">
        <ele>118.80000305176</ele>
        <time>2019-12-22T10:33:05.000Z</time>
      </trkpt>
      <trkpt lat="47.2781" lon="-2.42585">
        <ele>118.80000305176</ele>
        <time>2019-12-22T10:33:06.000Z</time>
      </trkpt>
      <trkpt lat="47.27791" lon="-2.42539">
        <ele>118.80000305176</ele>
        <time>2019-12-22T10:33:11.000Z</time>
      </trkpt>
      <trkpt lat="47.27772" lon="-2.42484">
        <ele>118.80000305176</ele>
        <time>2019-12-22T10:33:17.000Z</time>
      </trkpt>
      <trkpt lat="47.27758" lon="-2.42429">
        <ele>118.80000305176</ele>
        <time>2019-12-22T10:33:23.000Z</time>
      </trkpt>
      <trkpt lat="47.27747" lon="-2.42363">
        <ele>118.80000305176</ele>
        <time>2019-12-22T10:33:30.000Z</time>
      </trkpt>
      <trkpt lat="47.27742" lon="-2.42303">
        <ele>118.80000305176</ele>
        <time>2019-12-22T10:33:36.000Z</time>
      </trkpt>
      <trkpt lat="47.27738" lon="-2.4225">
        <ele>118.80000305176</ele>
        <time>2019-12-22T10:33:41.000Z</time>
      </trkpt>
      <trkpt lat="47.27738" lon="-2.42195">
        <ele>118.80000305176</ele>
        <time>2019-12-22T10:33:46.000Z</time>
      </trkpt>
      <trkpt lat="47.27739" lon="-2.42122">
        <ele>118.80000305176</ele>
        <time>2019-12-22T10:33:53.000Z</time>
      </trkpt>
      <trkpt lat="47.27748" lon="-2.42055">
        <ele>118.80000305176</ele>
        <time>2019-12-22T10:34:00.000Z</time>
      </trkpt>
      <trkpt lat="47.2776" lon="-2.42001">
        <ele>118.80000305176</ele>
        <time>2019-12-22T10:34:06.000Z</time>
      </trkpt>
      <trkpt lat="47.27765" lon="-2.41984">
        <ele>118.80000305176</ele>
        <time>2019-12-22T10:34:08.000Z</time>
      </trkpt>
      <trkpt lat="47.27773" lon="-2.41959">
        <ele>118.80000305176</ele>
        <time>2019-12-22T10:34:11.000Z</time>
      </trkpt>
      <trkpt lat="47.2778" lon="-2.41935">
        <ele>118.80000305176</ele>
        <time>2019-12-22T10:34:14.000Z</time>
      </trkpt>
      <trkpt lat="47.27791" lon="-2.41899">
        <ele>118.80000305176</ele>
        <time>2019-12-22T10:34:18.000Z</time>
      </trkpt>
      <trkpt lat="47.27798" lon="-2.41882">
        <ele>119.19999694824</ele>
        <time>2019-12-22T10:34:20.000Z</time>
      </trkpt>
      <trkpt lat="47.27801" lon="-2.41874">
        <ele>119.59999847412</ele>
        <time>2019-12-22T10:34:21.000Z</time>
      </trkpt>
      <trkpt lat="47.27804" lon="-2.41865">
        <ele>120.19999694824</ele>
        <time>2019-12-22T10:34:22.000Z</time>
      </trkpt>
      <trkpt lat="47.27808" lon="-2.41857">
        <ele>120.59999847412</ele>
        <time>2019-12-22T10:34:23.000Z</time>
      </trkpt>
      <trkpt lat="47.27811" lon="-2.41849">
        <ele>121</ele>
        <time>2019-12-22T10:34:24.000Z</time>
      </trkpt>
      <trkpt lat="47.27814" lon="-2.41841">
        <ele>121</ele>
        <time>2019-12-22T10:34:25.000Z</time>
      </trkpt>
      <trkpt lat="47.27824" lon="-2.41817">
        <ele>121</ele>
        <time>2019-12-22T10:34:28.000Z</time>
      </trkpt>
      <trkpt lat="47.27842" lon="-2.41773">
        <ele>120.59999847412</ele>
        <time>2019-12-22T10:34:34.000Z</time>
      </trkpt>
      <trkpt lat="47.27844" lon="-2.4177">
        <ele>120.19999694824</ele>
        <time>2019-12-22T10:34:35.000Z</time>
      </trkpt>
      <trkpt lat="47.27846" lon="-2.41767">
        <ele>119.80000305176</ele>
        <time>2019-12-22T10:34:36.000Z</time>
      </trkpt>
      <trkpt lat="47.27847" lon="-2.41764">
        <ele>119.40000152588</ele>
        <time>2019-12-22T10:34:37.000Z</time>
      </trkpt>
      <trkpt lat="47.27848" lon="-2.41761">
        <ele>119</ele>
        <time>2019-12-22T10:34:38.000Z</time>
      </trkpt>
      <trkpt lat="47.27852" lon="-2.41749">
        <ele>119</ele>
        <time>2019-12-22T10:34:43.000Z</time>
      </trkpt>
      <trkpt lat="47.2786" lon="-2.41737">
        <ele>119</ele>
        <time>2019-12-22T10:34:48.000Z</time>
      </trkpt>
      <trkpt lat="47.2787" lon="-2.41713">
        <ele>119</ele>
        <time>2019-12-22T10:34:54.000Z</time>
      </trkpt>
      <trkpt lat="47.2788" lon="-2.41694">
        <ele>119</ele>
        <time>2019-12-22T10:34:57.000Z</time>
      </trkpt>
      <trkpt lat="47.27884" lon="-2.41686">
        <ele>119</ele>
        <time>2019-12-22T10:34:58.000Z</time>
      </trkpt>
      <trkpt lat="47.279" lon="-2.41652">
        <ele>119</ele>
        <time>2019-12-22T10:35:03.000Z</time>
      </trkpt>
      <trkpt lat="47.27919" lon="-2.41613">
        <ele>119</ele>
        <time>2019-12-22T10:35:09.000Z</time>
      </trkpt>
      <trkpt lat="47.27934" lon="-2.41584">
        <ele>119</ele>
        <time>2019-12-22T10:35:14.000Z</time>
      </trkpt>
      <trkpt lat="47.27942" lon="-2.41566">
        <ele>119</ele>
        <time>2019-12-22T10:35:17.000Z</time>
      </trkpt>
      <trkpt lat="47.27946" lon="-2.41556">
        <ele>119</ele>
        <time>2019-12-22T10:35:19.000Z</time>
      </trkpt>
      <trkpt lat="47.27952" lon="-2.41543">
        <ele>119</ele>
        <time>2019-12-22T10:35:21.000Z</time>
      </trkpt>
      <trkpt lat="47.27962" lon="-2.41519">
        <ele>119</ele>
        <time>2019-12-22T10:35:24.000Z</time>
      </trkpt>
      <trkpt lat="47.27978" lon="-2.41461">
        <ele>119</ele>
        <time>2019-12-22T10:35:31.000Z</time>
      </trkpt>
      <trkpt lat="47.27985" lon="-2.41438">
        <ele>119.40000152588</ele>
        <time>2019-12-22T10:35:34.000Z</time>
      </trkpt>
      <trkpt lat="47.27986" lon="-2.4143">
        <ele>119.80000305176</ele>
        <time>2019-12-22T10:35:35.000Z</time>
      </trkpt>
      <trkpt lat="47.27988" lon="-2.41422">
        <ele>120.19999694824</ele>
        <time>2019-12-22T10:35:36.000Z</time>
      </trkpt>
      <trkpt lat="47.27989" lon="-2.41414">
        <ele>120.59999847412</ele>
        <time>2019-12-22T10:35:37.000Z</time>
      </trkpt>
      <trkpt lat="47.27991" lon="-2.41407">
        <ele>121</ele>
        <time>2019-12-22T10:35:38.000Z</time>
      </trkpt>
      <trkpt lat="47.27991" lon="-2.41399">
        <ele>121</ele>
        <time>2019-12-22T10:35:39.000Z</time>
      </trkpt>
      <trkpt lat="47.27993" lon="-2.41384">
        <ele>121</ele>
        <time>2019-12-22T10:35:41.000Z</time>
      </trkpt>
      <trkpt lat="47.27995" lon="-2.41376">
        <ele>121</ele>
        <time>2019-12-22T10:35:42.000Z</time>
      </trkpt>
      <trkpt lat="47.28003" lon="-2.41315">
        <ele>121</ele>
        <time>2019-12-22T10:35:49.000Z</time>
      </trkpt>
      <trkpt lat="47.28016" lon="-2.41255">
        <ele>121</ele>
        <time>2019-12-22T10:35:56.000Z</time>
      </trkpt>
      <trkpt lat="47.28032" lon="-2.41198">
        <ele>121</ele>
        <time>2019-12-22T10:36:03.000Z</time>
      </trkpt>
      <trkpt lat="47.28044" lon="-2.41144">
        <ele>121</ele>
        <time>2019-12-22T10:36:09.000Z</time>
      </trkpt>
      <trkpt lat="47.28055" lon="-2.4108">
        <ele>121</ele>
        <time>2019-12-22T10:36:16.000Z</time>
      </trkpt>
      <trkpt lat="47.28068" lon="-2.41026">
        <ele>121</ele>
        <time>2019-12-22T10:36:22.000Z</time>
      </trkpt>
      <trkpt lat="47.28084" lon="-2.40961">
        <ele>121</ele>
        <time>2019-12-22T10:36:30.000Z</time>
      </trkpt>
      <trkpt lat="47.2809" lon="-2.40936">
        <ele>121</ele>
        <time>2019-12-22T10:36:34.000Z</time>
      </trkpt>
      <trkpt lat="47.28089" lon="-2.40929">
        <ele>121</ele>
        <time>2019-12-22T10:36:35.000Z</time>
      </trkpt>
      <trkpt lat="47.2808" lon="-2.40912">
        <ele>121</ele>
        <time>2019-12-22T10:36:38.000Z</time>
      </trkpt>
      <trkpt lat="47.28076" lon="-2.40906">
        <ele>121</ele>
        <time>2019-12-22T10:36:39.000Z</time>
      </trkpt>
      <trkpt lat="47.28057" lon="-2.40871">
        <ele>121</ele>
        <time>2019-12-22T10:36:44.000Z</time>
      </trkpt>
      <trkpt lat="47.28038" lon="-2.40836">
        <ele>121</ele>
        <time>2019-12-22T10:36:50.000Z</time>
      </trkpt>
      <trkpt lat="47.28027" lon="-2.40822">
        <ele>121</ele>
        <time>2019-12-22T10:36:54.000Z</time>
      </trkpt>
      <trkpt lat="47.28022" lon="-2.40813">
        <ele>121</ele>
        <time>2019-12-22T10:36:58.000Z</time>
      </trkpt>
      <trkpt lat="47.28021" lon="-2.40813">
        <ele>121</ele>
        <time>2019-12-22T10:36:59.000Z</time>
      </trkpt>
      <trkpt lat="47.28018" lon="-2.40815">
        <ele>121</ele>
        <time>2019-12-22T10:37:02.000Z</time>
      </trkpt>
      <trkpt lat="47.28019" lon="-2.40815">
        <ele>121</ele>
        <time>2019-12-22T10:37:03.000Z</time>
      </trkpt>
      <trkpt lat="47.28026" lon="-2.40811">
        <ele>121</ele>
        <time>2019-12-22T10:41:20.000Z</time>
      </trkpt>
      <trkpt lat="47.28026" lon="-2.40807">
        <ele>121</ele>
        <time>2019-12-22T10:41:22.000Z</time>
      </trkpt>
      <trkpt lat="47.2803" lon="-2.40796">
        <ele>121</ele>
        <time>2019-12-22T10:41:26.000Z</time>
      </trkpt>
      <trkpt lat="47.2803" lon="-2.40793">
        <ele>121</ele>
        <time>2019-12-22T10:41:27.000Z</time>
      </trkpt>
      <trkpt lat="47.28035" lon="-2.40773">
        <ele>121</ele>
        <time>2019-12-22T10:41:33.000Z</time>
      </trkpt>
      <trkpt lat="47.28037" lon="-2.40769">
        <ele>121</ele>
        <time>2019-12-22T10:41:35.000Z</time>
      </trkpt>
      <trkpt lat="47.28038" lon="-2.4076">
        <ele>121</ele>
        <time>2019-12-22T10:41:38.000Z</time>
      </trkpt>
      <trkpt lat="47.2804" lon="-2.40745">
        <ele>121</ele>
        <time>2019-12-22T10:41:42.000Z</time>
      </trkpt>
      <trkpt lat="47.28047" lon="-2.40711">
        <ele>121</ele>
        <time>2019-12-22T10:41:49.000Z</time>
      </trkpt>
      <trkpt lat="47.28054" lon="-2.40692">
        <ele>121</ele>
        <time>2019-12-22T10:41:52.000Z</time>
      </trkpt>
      <trkpt lat="47.28055" lon="-2.40678">
        <ele>121</ele>
        <time>2019-12-22T10:41:54.000Z</time>
      </trkpt>
      <trkpt lat="47.28055" lon="-2.40663">
        <ele>121</ele>
        <time>2019-12-22T10:41:56.000Z</time>
      </trkpt>
      <trkpt lat="47.2805" lon="-2.40634">
        <ele>121</ele>
        <time>2019-12-22T10:42:00.000Z</time>
      </trkpt>
      <trkpt lat="47.28047" lon="-2.40619">
        <ele>121</ele>
        <time>2019-12-22T10:42:02.000Z</time>
      </trkpt>
      <trkpt lat="47.28049" lon="-2.40604">
        <ele>121</ele>
        <time>2019-12-22T10:42:04.000Z</time>
      </trkpt>
      <trkpt lat="47.28057" lon="-2.40568">
        <ele>121.40000152588</ele>
        <time>2019-12-22T10:42:09.000Z</time>
      </trkpt>
      <trkpt lat="47.28058" lon="-2.4056">
        <ele>121.80000305176</ele>
        <time>2019-12-22T10:42:10.000Z</time>
      </trkpt>
      <trkpt lat="47.2806" lon="-2.40554">
        <ele>122.19999694824</ele>
        <time>2019-12-22T10:42:11.000Z</time>
      </trkpt>
      <trkpt lat="47.28061" lon="-2.40547">
        <ele>122.59999847412</ele>
        <time>2019-12-22T10:42:12.000Z</time>
      </trkpt>
      <trkpt lat="47.28063" lon="-2.4054">
        <ele>123</ele>
        <time>2019-12-22T10:42:13.000Z</time>
      </trkpt>
      <trkpt lat="47.28068" lon="-2.40515">
        <ele>123</ele>
        <time>2019-12-22T10:42:17.000Z</time>
      </trkpt>
      <trkpt lat="47.28078" lon="-2.4048">
        <ele>123</ele>
        <time>2019-12-22T10:42:23.000Z</time>
      </trkpt>
      <trkpt lat="47.28083" lon="-2.40469">
        <ele>123</ele>
        <time>2019-12-22T10:42:25.000Z</time>
      </trkpt>
      <trkpt lat="47.28095" lon="-2.4045">
        <ele>123</ele>
        <time>2019-12-22T10:42:29.000Z</time>
      </trkpt>
      <trkpt lat="47.28103" lon="-2.40434">
        <ele>123</ele>
        <time>2019-12-22T10:42:32.000Z</time>
      </trkpt>
      <trkpt lat="47.28109" lon="-2.40415">
        <ele>123</ele>
        <time>2019-12-22T10:42:35.000Z</time>
      </trkpt>
      <trkpt lat="47.28111" lon="-2.40395">
        <ele>123</ele>
        <time>2019-12-22T10:42:38.000Z</time>
      </trkpt>
      <trkpt lat="47.28114" lon="-2.40374">
        <ele>123</ele>
        <time>2019-12-22T10:42:41.000Z</time>
      </trkpt>
      <trkpt lat="47.28121" lon="-2.40315">
        <ele>123</ele>
        <time>2019-12-22T10:42:50.000Z</time>
      </trkpt>
      <trkpt lat="47.2813" lon="-2.40237">
        <ele>123</ele>
        <time>2019-12-22T10:43:01.000Z</time>
      </trkpt>
      <trkpt lat="47.28137" lon="-2.40187">
        <ele>123</ele>
        <time>2019-12-22T10:43:07.000Z</time>
      </trkpt>
      <trkpt lat="47.28141" lon="-2.40143">
        <ele>123</ele>
        <time>2019-12-22T10:43:12.000Z</time>
      </trkpt>
      <trkpt lat="47.28143" lon="-2.40126">
        <ele>123</ele>
        <time>2019-12-22T10:43:14.000Z</time>
      </trkpt>
      <trkpt lat="47.2815" lon="-2.40042">
        <ele>123</ele>
        <time>2019-12-22T10:43:23.000Z</time>
      </trkpt>
      <trkpt lat="47.28154" lon="-2.39987">
        <ele>123</ele>
        <time>2019-12-22T10:43:29.000Z</time>
      </trkpt>
      <trkpt lat="47.28157" lon="-2.3995">
        <ele>123</ele>
        <time>2019-12-22T10:43:33.000Z</time>
      </trkpt>
      <trkpt lat="47.28157" lon="-2.3994">
        <ele>123</ele>
        <time>2019-12-22T10:43:34.000Z</time>
      </trkpt>
      <trkpt lat="47.28162" lon="-2.39863">
        <ele>123</ele>
        <time>2019-12-22T10:43:42.000Z</time>
      </trkpt>
      <trkpt lat="47.28168" lon="-2.39786">
        <ele>123</ele>
        <time>2019-12-22T10:43:50.000Z</time>
      </trkpt>
      <trkpt lat="47.28172" lon="-2.39699">
        <ele>123</ele>
        <time>2019-12-22T10:43:59.000Z</time>
      </trkpt>
      <trkpt lat="47.28175" lon="-2.39622">
        <ele>123</ele>
        <time>2019-12-22T10:44:07.000Z</time>
      </trkpt>
      <trkpt lat="47.28177" lon="-2.39534">
        <ele>123</ele>
        <time>2019-12-22T10:44:16.000Z</time>
      </trkpt>
      <trkpt lat="47.28178" lon="-2.39451">
        <ele>123</ele>
        <time>2019-12-22T10:44:25.000Z</time>
      </trkpt>
      <trkpt lat="47.28178" lon="-2.39441">
        <ele>123</ele>
        <time>2019-12-22T10:44:26.000Z</time>
      </trkpt>
      <trkpt lat="47.28178" lon="-2.39375">
        <ele>123</ele>
        <time>2019-12-22T10:44:33.000Z</time>
      </trkpt>
      <trkpt lat="47.28178" lon="-2.39298">
        <ele>123</ele>
        <time>2019-12-22T10:44:41.000Z</time>
      </trkpt>
      <trkpt lat="47.28176" lon="-2.39262">
        <ele>123</ele>
        <time>2019-12-22T10:44:46.000Z</time>
      </trkpt>
      <trkpt lat="47.28176" lon="-2.39249">
        <ele>123</ele>
        <time>2019-12-22T10:44:51.000Z</time>
      </trkpt>
      <trkpt lat="47.28177" lon="-2.39248">
        <ele>123</ele>
        <time>2019-12-22T10:44:53.000Z</time>
      </trkpt>
      <trkpt lat="47.28177" lon="-2.39246">
        <ele>123</ele>
        <time>2019-12-22T10:45:38.000Z</time>
      </trkpt>
      <trkpt lat="47.28177" lon="-2.39244">
        <ele>123</ele>
        <time>2019-12-22T10:45:39.000Z</time>
      </trkpt>
      <trkpt lat="47.28177" lon="-2.39224">
        <ele>123</ele>
        <time>2019-12-22T10:45:44.000Z</time>
      </trkpt>
      <trkpt lat="47.28174" lon="-2.39188">
        <ele>123</ele>
        <time>2019-12-22T10:45:49.000Z</time>
      </trkpt>
      <trkpt lat="47.28169" lon="-2.39124">
        <ele>123</ele>
        <time>2019-12-22T10:45:56.000Z</time>
      </trkpt>
      <trkpt lat="47.28162" lon="-2.39036">
        <ele>123</ele>
        <time>2019-12-22T10:46:05.000Z</time>
      </trkpt>
      <trkpt lat="47.28155" lon="-2.38969">
        <ele>123</ele>
        <time>2019-12-22T10:46:12.000Z</time>
      </trkpt>
      <trkpt lat="47.28142" lon="-2.38919">
        <ele>123</ele>
        <time>2019-12-22T10:46:17.000Z</time>
      </trkpt>
      <trkpt lat="47.28137" lon="-2.38897">
        <ele>123</ele>
        <time>2019-12-22T10:46:19.000Z</time>
      </trkpt>
      <trkpt lat="47.28133" lon="-2.38863">
        <ele>123</ele>
        <time>2019-12-22T10:46:22.000Z</time>
      </trkpt>
      <trkpt lat="47.28127" lon="-2.3878">
        <ele>123</ele>
        <time>2019-12-22T10:46:29.000Z</time>
      </trkpt>
      <trkpt lat="47.2812" lon="-2.38706">
        <ele>123</ele>
        <time>2019-12-22T10:46:35.000Z</time>
      </trkpt>
      <trkpt lat="47.28113" lon="-2.38631">
        <ele>123</ele>
        <time>2019-12-22T10:46:41.000Z</time>
      </trkpt>
      <trkpt lat="47.28105" lon="-2.38544">
        <ele>123</ele>
        <time>2019-12-22T10:46:48.000Z</time>
      </trkpt>
      <trkpt lat="47.28103" lon="-2.38532">
        <ele>123</ele>
        <time>2019-12-22T10:46:49.000Z</time>
      </trkpt>
      <trkpt lat="47.2809" lon="-2.38454">
        <ele>123</ele>
        <time>2019-12-22T10:46:55.000Z</time>
      </trkpt>
      <trkpt lat="47.28088" lon="-2.38441">
        <ele>123</ele>
        <time>2019-12-22T10:46:56.000Z</time>
      </trkpt>
      <trkpt lat="47.28074" lon="-2.38362">
        <ele>123</ele>
        <time>2019-12-22T10:47:02.000Z</time>
      </trkpt>
      <trkpt lat="47.28061" lon="-2.38297">
        <ele>123</ele>
        <time>2019-12-22T10:47:07.000Z</time>
      </trkpt>
      <trkpt lat="47.28046" lon="-2.38219">
        <ele>123</ele>
        <time>2019-12-22T10:47:13.000Z</time>
      </trkpt>
      <trkpt lat="47.28043" lon="-2.38206">
        <ele>123</ele>
        <time>2019-12-22T10:47:14.000Z</time>
      </trkpt>
      <trkpt lat="47.28029" lon="-2.38128">
        <ele>123</ele>
        <time>2019-12-22T10:47:20.000Z</time>
      </trkpt>
      <trkpt lat="47.28019" lon="-2.38076">
        <ele>123</ele>
        <time>2019-12-22T10:47:24.000Z</time>
      </trkpt>
      <trkpt lat="47.28003" lon="-2.3799">
        <ele>123</ele>
        <time>2019-12-22T10:47:31.000Z</time>
      </trkpt>
      <trkpt lat="47.27999" lon="-2.37966">
        <ele>123</ele>
        <time>2019-12-22T10:47:33.000Z</time>
      </trkpt>
      <trkpt lat="47.27983" lon="-2.37881">
        <ele>123</ele>
        <time>2019-12-22T10:47:40.000Z</time>
      </trkpt>
      <trkpt lat="47.2798" lon="-2.3787">
        <ele>123</ele>
        <time>2019-12-22T10:47:41.000Z</time>
      </trkpt>
      <trkpt lat="47.2797" lon="-2.37807">
        <ele>123</ele>
        <time>2019-12-22T10:47:47.000Z</time>
      </trkpt>
      <trkpt lat="47.27966" lon="-2.37787">
        <ele>123</ele>
        <time>2019-12-22T10:47:49.000Z</time>
      </trkpt>
      <trkpt lat="47.27962" lon="-2.37767">
        <ele>123</ele>
        <time>2019-12-22T10:47:51.000Z</time>
      </trkpt>
      <trkpt lat="47.27959" lon="-2.37757">
        <ele>123</ele>
        <time>2019-12-22T10:47:52.000Z</time>
      </trkpt>
      <trkpt lat="47.2795" lon="-2.37728">
        <ele>123</ele>
        <time>2019-12-22T10:47:55.000Z</time>
      </trkpt>
      <trkpt lat="47.27945" lon="-2.37708">
        <ele>123</ele>
        <time>2019-12-22T10:47:57.000Z</time>
      </trkpt>
      <trkpt lat="47.27928" lon="-2.37636">
        <ele>123</ele>
        <time>2019-12-22T10:48:04.000Z</time>
      </trkpt>
      <trkpt lat="47.27909" lon="-2.37554">
        <ele>123</ele>
        <time>2019-12-22T10:48:12.000Z</time>
      </trkpt>
      <trkpt lat="47.27889" lon="-2.37471">
        <ele>123</ele>
        <time>2019-12-22T10:48:20.000Z</time>
      </trkpt>
      <trkpt lat="47.27872" lon="-2.374">
        <ele>123</ele>
        <time>2019-12-22T10:48:27.000Z</time>
      </trkpt>
      <trkpt lat="47.27852" lon="-2.37321">
        <ele>123</ele>
        <time>2019-12-22T10:48:35.000Z</time>
      </trkpt>
      <trkpt lat="47.27849" lon="-2.37311">
        <ele>123</ele>
        <time>2019-12-22T10:48:36.000Z</time>
      </trkpt>
      <trkpt lat="47.27829" lon="-2.37237">
        <ele>123</ele>
        <time>2019-12-22T10:48:43.000Z</time>
      </trkpt>
      <trkpt lat="47.27827" lon="-2.37225">
        <ele>123</ele>
        <time>2019-12-22T10:48:44.000Z</time>
      </trkpt>
      <trkpt lat="47.27823" lon="-2.37206">
        <ele>123</ele>
        <time>2019-12-22T10:48:46.000Z</time>
      </trkpt>
      <trkpt lat="47.27817" lon="-2.3719">
        <ele>123</ele>
        <time>2019-12-22T10:48:48.000Z</time>
      </trkpt>
      <trkpt lat="47.27816" lon="-2.37181">
        <ele>123</ele>
        <time>2019-12-22T10:48:49.000Z</time>
      </trkpt>
      <trkpt lat="47.27814" lon="-2.37164">
        <ele>123</ele>
        <time>2019-12-22T10:48:51.000Z</time>
      </trkpt>
      <trkpt lat="47.27805" lon="-2.37138">
        <ele>123</ele>
        <time>2019-12-22T10:48:54.000Z</time>
      </trkpt>
      <trkpt lat="47.27802" lon="-2.37129">
        <ele>123</ele>
        <time>2019-12-22T10:48:55.000Z</time>
      </trkpt>
      <trkpt lat="47.27779" lon="-2.37045">
        <ele>123</ele>
        <time>2019-12-22T10:49:03.000Z</time>
      </trkpt>
      <trkpt lat="47.27758" lon="-2.36969">
        <ele>123</ele>
        <time>2019-12-22T10:49:10.000Z</time>
      </trkpt>
      <trkpt lat="47.27755" lon="-2.36959">
        <ele>123</ele>
        <time>2019-12-22T10:49:11.000Z</time>
      </trkpt>
      <trkpt lat="47.27733" lon="-2.36884">
        <ele>123</ele>
        <time>2019-12-22T10:49:18.000Z</time>
      </trkpt>
      <trkpt lat="47.27723" lon="-2.36851">
        <ele>123</ele>
        <time>2019-12-22T10:49:21.000Z</time>
      </trkpt>
      <trkpt lat="47.27699" lon="-2.36771">
        <ele>123</ele>
        <time>2019-12-22T10:49:28.000Z</time>
      </trkpt>
      <trkpt lat="47.27695" lon="-2.3676">
        <ele>123</ele>
        <time>2019-12-22T10:49:29.000Z</time>
      </trkpt>
      <trkpt lat="47.27666" lon="-2.36679">
        <ele>123</ele>
        <time>2019-12-22T10:49:36.000Z</time>
      </trkpt>
      <trkpt lat="47.27654" lon="-2.36645">
        <ele>123</ele>
        <time>2019-12-22T10:49:39.000Z</time>
      </trkpt>
      <trkpt lat="47.27633" lon="-2.36583">
        <ele>123</ele>
        <time>2019-12-22T10:49:44.000Z</time>
      </trkpt>
      <trkpt lat="47.27605" lon="-2.36502">
        <ele>123</ele>
        <time>2019-12-22T10:49:50.000Z</time>
      </trkpt>
      <trkpt lat="47.27601" lon="-2.36488">
        <ele>123</ele>
        <time>2019-12-22T10:49:51.000Z</time>
      </trkpt>
      <trkpt lat="47.27569" lon="-2.36407">
        <ele>123</ele>
        <time>2019-12-22T10:49:57.000Z</time>
      </trkpt>
      <trkpt lat="47.27538" lon="-2.36326">
        <ele>123</ele>
        <time>2019-12-22T10:50:03.000Z</time>
      </trkpt>
      <trkpt lat="47.27534" lon="-2.36313">
        <ele>123</ele>
        <time>2019-12-22T10:50:04.000Z</time>
      </trkpt>
      <trkpt lat="47.27509" lon="-2.36248">
        <ele>123</ele>
        <time>2019-12-22T10:50:09.000Z</time>
      </trkpt>
      <trkpt lat="47.2748" lon="-2.36175">
        <ele>123</ele>
        <time>2019-12-22T10:50:15.000Z</time>
      </trkpt>
      <trkpt lat="47.27461" lon="-2.36119">
        <ele>123</ele>
        <time>2019-12-22T10:50:20.000Z</time>
      </trkpt>
      <trkpt lat="47.27458" lon="-2.36108">
        <ele>123</ele>
        <time>2019-12-22T10:50:21.000Z</time>
      </trkpt>
      <trkpt lat="47.27448" lon="-2.36089">
        <ele>123</ele>
        <time>2019-12-22T10:50:23.000Z</time>
      </trkpt>
      <trkpt lat="47.27444" lon="-2.36079">
        <ele>123</ele>
        <time>2019-12-22T10:50:24.000Z</time>
      </trkpt>
      <trkpt lat="47.27433" lon="-2.36049">
        <ele>123</ele>
        <time>2019-12-22T10:50:27.000Z</time>
      </trkpt>
      <trkpt lat="47.27415" lon="-2.36005">
        <ele>123</ele>
        <time>2019-12-22T10:50:32.000Z</time>
      </trkpt>
      <trkpt lat="47.27395" lon="-2.35955">
        <ele>123</ele>
        <time>2019-12-22T10:50:38.000Z</time>
      </trkpt>
      <trkpt lat="47.27368" lon="-2.35886">
        <ele>123</ele>
        <time>2019-12-22T10:50:46.000Z</time>
      </trkpt>
      <trkpt lat="47.27364" lon="-2.35878">
        <ele>123</ele>
        <time>2019-12-22T10:50:47.000Z</time>
      </trkpt>
      <trkpt lat="47.27337" lon="-2.3581">
        <ele>123</ele>
        <time>2019-12-22T10:50:55.000Z</time>
      </trkpt>
      <trkpt lat="47.27327" lon="-2.35784">
        <ele>122.59999847412</ele>
        <time>2019-12-22T10:50:58.000Z</time>
      </trkpt>
      <trkpt lat="47.27325" lon="-2.35775">
        <ele>122.19999694824</ele>
        <time>2019-12-22T10:50:59.000Z</time>
      </trkpt>
      <trkpt lat="47.27322" lon="-2.35767">
        <ele>121.80000305176</ele>
        <time>2019-12-22T10:51:00.000Z</time>
      </trkpt>
      <trkpt lat="47.27319" lon="-2.35759">
        <ele>121.40000152588</ele>
        <time>2019-12-22T10:51:01.000Z</time>
      </trkpt>
      <trkpt lat="47.27315" lon="-2.35752">
        <ele>121</ele>
        <time>2019-12-22T10:51:02.000Z</time>
      </trkpt>
      <trkpt lat="47.27306" lon="-2.35736">
        <ele>121</ele>
        <time>2019-12-22T10:51:05.000Z</time>
      </trkpt>
      <trkpt lat="47.27304" lon="-2.35731">
        <ele>121</ele>
        <time>2019-12-22T10:51:06.000Z</time>
      </trkpt>
      <trkpt lat="47.27303" lon="-2.35726">
        <ele>121</ele>
        <time>2019-12-22T10:51:07.000Z</time>
      </trkpt>
      <trkpt lat="47.27298" lon="-2.35707">
        <ele>121</ele>
        <time>2019-12-22T10:51:10.000Z</time>
      </trkpt>
      <trkpt lat="47.27292" lon="-2.35695">
        <ele>121</ele>
        <time>2019-12-22T10:51:12.000Z</time>
      </trkpt>
      <trkpt lat="47.27281" lon="-2.35675">
        <ele>121</ele>
        <time>2019-12-22T10:51:15.000Z</time>
      </trkpt>
      <trkpt lat="47.27259" lon="-2.35626">
        <ele>121</ele>
        <time>2019-12-22T10:51:22.000Z</time>
      </trkpt>
      <trkpt lat="47.27229" lon="-2.3556">
        <ele>121</ele>
        <time>2019-12-22T10:51:31.000Z</time>
      </trkpt>
      <trkpt lat="47.272" lon="-2.35496">
        <ele>121</ele>
        <time>2019-12-22T10:51:40.000Z</time>
      </trkpt>
      <trkpt lat="47.2717" lon="-2.35439">
        <ele>121</ele>
        <time>2019-12-22T10:51:48.000Z</time>
      </trkpt>
      <trkpt lat="47.27149" lon="-2.35397">
        <ele>121.40000152588</ele>
        <time>2019-12-22T10:51:54.000Z</time>
      </trkpt>
      <trkpt lat="47.27145" lon="-2.3539">
        <ele>121.80000305176</ele>
        <time>2019-12-22T10:51:55.000Z</time>
      </trkpt>
      <trkpt lat="47.27141" lon="-2.35383">
        <ele>122.59999847412</ele>
        <time>2019-12-22T10:51:56.000Z</time>
      </trkpt>
      <trkpt lat="47.27137" lon="-2.35375">
        <ele>123</ele>
        <time>2019-12-22T10:51:57.000Z</time>
      </trkpt>
      <trkpt lat="47.271" lon="-2.35315">
        <ele>123</ele>
        <time>2019-12-22T10:52:06.000Z</time>
      </trkpt>
      <trkpt lat="47.27067" lon="-2.35263">
        <ele>122.59999847412</ele>
        <time>2019-12-22T10:52:14.000Z</time>
      </trkpt>
      <trkpt lat="47.27063" lon="-2.35257">
        <ele>122.19999694824</ele>
        <time>2019-12-22T10:52:15.000Z</time>
      </trkpt>
      <trkpt lat="47.27059" lon="-2.3525">
        <ele>121.80000305176</ele>
        <time>2019-12-22T10:52:16.000Z</time>
      </trkpt>
      <trkpt lat="47.27054" lon="-2.35244">
        <ele>121.40000152588</ele>
        <time>2019-12-22T10:52:17.000Z</time>
      </trkpt>
      <trkpt lat="47.2705" lon="-2.35237">
        <ele>120.80000305176</ele>
        <time>2019-12-22T10:52:18.000Z</time>
      </trkpt>
      <trkpt lat="47.27016" lon="-2.35184">
        <ele>120.80000305176</ele>
        <time>2019-12-22T10:52:26.000Z</time>
      </trkpt>
      <trkpt lat="47.26977" lon="-2.35124">
        <ele>120.80000305176</ele>
        <time>2019-12-22T10:52:35.000Z</time>
      </trkpt>
      <trkpt lat="47.26969" lon="-2.3511">
        <ele>120.80000305176</ele>
        <time>2019-12-22T10:52:37.000Z</time>
      </trkpt>
      <trkpt lat="47.26939" lon="-2.35065">
        <ele>120.80000305176</ele>
        <time>2019-12-22T10:52:44.000Z</time>
      </trkpt>
      <trkpt lat="47.26898" lon="-2.35003">
        <ele>120.80000305176</ele>
        <time>2019-12-22T10:52:54.000Z</time>
      </trkpt>
      <trkpt lat="47.26894" lon="-2.34997">
        <ele>120.80000305176</ele>
        <time>2019-12-22T10:52:55.000Z</time>
      </trkpt>
      <trkpt lat="47.26865" lon="-2.34953">
        <ele>120.80000305176</ele>
        <time>2019-12-22T10:53:02.000Z</time>
      </trkpt>
      <trkpt lat="47.26824" lon="-2.3489">
        <ele>120.80000305176</ele>
        <time>2019-12-22T10:53:12.000Z</time>
      </trkpt>
      <trkpt lat="47.26819" lon="-2.34884">
        <ele>120.80000305176</ele>
        <time>2019-12-22T10:53:13.000Z</time>
      </trkpt>
      <trkpt lat="47.26786" lon="-2.34835">
        <ele>120.80000305176</ele>
        <time>2019-12-22T10:53:21.000Z</time>
      </trkpt>
      <trkpt lat="47.26776" lon="-2.34817">
        <ele>120.80000305176</ele>
        <time>2019-12-22T10:53:24.000Z</time>
      </trkpt>
      <trkpt lat="47.26766" lon="-2.34804">
        <ele>120.80000305176</ele>
        <time>2019-12-22T10:53:27.000Z</time>
      </trkpt>
      <trkpt lat="47.26764" lon="-2.348">
        <ele>120.80000305176</ele>
        <time>2019-12-22T10:53:28.000Z</time>
      </trkpt>
      <trkpt lat="47.26766" lon="-2.34793">
        <ele>120.80000305176</ele>
        <time>2019-12-22T10:53:30.000Z</time>
      </trkpt>
      <trkpt lat="47.26777" lon="-2.34782">
        <ele>120.80000305176</ele>
        <time>2019-12-22T10:53:34.000Z</time>
      </trkpt>
      <trkpt lat="47.26784" lon="-2.34773">
        <ele>120.80000305176</ele>
        <time>2019-12-22T10:53:36.000Z</time>
      </trkpt>
      <trkpt lat="47.26796" lon="-2.34757">
        <ele>121.40000152588</ele>
        <time>2019-12-22T10:53:39.000Z</time>
      </trkpt>
      <trkpt lat="47.268" lon="-2.34752">
        <ele>121.80000305176</ele>
        <time>2019-12-22T10:53:40.000Z</time>
      </trkpt>
      <trkpt lat="47.26804" lon="-2.34747">
        <ele>122.19999694824</ele>
        <time>2019-12-22T10:53:41.000Z</time>
      </trkpt>
      <trkpt lat="47.26809" lon="-2.34741">
        <ele>122.59999847412</ele>
        <time>2019-12-22T10:53:42.000Z</time>
      </trkpt>
      <trkpt lat="47.26813" lon="-2.34735">
        <ele>123</ele>
        <time>2019-12-22T10:53:43.000Z</time>
      </trkpt>
      <trkpt lat="47.26817" lon="-2.34729">
        <ele>123</ele>
        <time>2019-12-22T10:53:44.000Z</time>
      </trkpt>
      <trkpt lat="47.26822" lon="-2.34724">
        <ele>123</ele>
        <time>2019-12-22T10:53:45.000Z</time>
      </trkpt>
      <trkpt lat="47.26843" lon="-2.347">
        <ele>123</ele>
        <time>2019-12-22T10:53:50.000Z</time>
      </trkpt>
      <trkpt lat="47.26868" lon="-2.34674">
        <ele>123</ele>
        <time>2019-12-22T10:53:56.000Z</time>
      </trkpt>
      <trkpt lat="47.26876" lon="-2.34665">
        <ele>123</ele>
        <time>2019-12-22T10:53:58.000Z</time>
      </trkpt>
      <trkpt lat="47.26882" lon="-2.34653">
        <ele>123.40000152588</ele>
        <time>2019-12-22T10:54:00.000Z</time>
      </trkpt>
      <trkpt lat="47.26884" lon="-2.34647">
        <ele>124</ele>
        <time>2019-12-22T10:54:01.000Z</time>
      </trkpt>
      <trkpt lat="47.26885" lon="-2.3464">
        <ele>124.40000152588</ele>
        <time>2019-12-22T10:54:02.000Z</time>
      </trkpt>
      <trkpt lat="47.26887" lon="-2.34634">
        <ele>124.80000305176</ele>
        <time>2019-12-22T10:54:03.000Z</time>
      </trkpt>
      <trkpt lat="47.26888" lon="-2.34627">
        <ele>125.19999694824</ele>
        <time>2019-12-22T10:54:04.000Z</time>
      </trkpt>
      <trkpt lat="47.26891" lon="-2.34613">
        <ele>125.19999694824</ele>
        <time>2019-12-22T10:54:06.000Z</time>
      </trkpt>
      <trkpt lat="47.26894" lon="-2.34594">
        <ele>125.19999694824</ele>
        <time>2019-12-22T10:54:09.000Z</time>
      </trkpt>
      <trkpt lat="47.26899" lon="-2.34571">
        <ele>125.59999847412</ele>
        <time>2019-12-22T10:54:13.000Z</time>
      </trkpt>
      <trkpt lat="47.269" lon="-2.34566">
        <ele>126.19999694824</ele>
        <time>2019-12-22T10:54:14.000Z</time>
      </trkpt>
      <trkpt lat="47.26903" lon="-2.34561">
        <ele>126.59999847412</ele>
        <time>2019-12-22T10:54:15.000Z</time>
      </trkpt>
      <trkpt lat="47.26906" lon="-2.34557">
        <ele>127</ele>
        <time>2019-12-22T10:54:16.000Z</time>
      </trkpt>
      <trkpt lat="47.2691" lon="-2.34555">
        <ele>127.40000152588</ele>
        <time>2019-12-22T10:54:17.000Z</time>
      </trkpt>
      <trkpt lat="47.26931" lon="-2.34544">
        <ele>127.40000152588</ele>
        <time>2019-12-22T10:54:22.000Z</time>
      </trkpt>
      <trkpt lat="47.26939" lon="-2.34539">
        <ele>127.40000152588</ele>
        <time>2019-12-22T10:54:24.000Z</time>
      </trkpt>
      <trkpt lat="47.26956" lon="-2.34531">
        <ele>127.40000152588</ele>
        <time>2019-12-22T10:54:28.000Z</time>
      </trkpt>
      <trkpt lat="47.26971" lon="-2.34524">
        <ele>127.40000152588</ele>
        <time>2019-12-22T10:54:32.000Z</time>
      </trkpt>
      <trkpt lat="47.2698" lon="-2.34518">
        <ele>127.40000152588</ele>
        <time>2019-12-22T10:54:36.000Z</time>
      </trkpt>
      <trkpt lat="47.26984" lon="-2.34518">
        <ele>127.40000152588</ele>
        <time>2019-12-22T10:54:39.000Z</time>
      </trkpt>
      <trkpt lat="47.26985" lon="-2.34518">
        <ele>127.40000152588</ele>
        <time>2019-12-22T10:54:41.000Z</time>
      </trkpt>
      <trkpt lat="47.26992" lon="-2.34515">
        <ele>127.40000152588</ele>
        <time>2019-12-22T10:54:45.000Z</time>
      </trkpt>
      <trkpt lat="47.26995" lon="-2.34514">
        <ele>127.40000152588</ele>
        <time>2019-12-22T10:54:47.000Z</time>
      </trkpt>
      <trkpt lat="47.26999" lon="-2.34512">
        <ele>127.40000152588</ele>
        <time>2019-12-22T10:54:50.000Z</time>
      </trkpt>
      <trkpt lat="47.27002" lon="-2.3451">
        <ele>127.40000152588</ele>
        <time>2019-12-22T10:54:52.000Z</time>
      </trkpt>
      <trkpt lat="47.27011" lon="-2.34503">
        <ele>127.40000152588</ele>
        <time>2019-12-22T10:54:58.000Z</time>
      </trkpt>
      <trkpt lat="47.27017" lon="-2.34497">
        <ele>127.40000152588</ele>
        <time>2019-12-22T10:55:03.000Z</time>
      </trkpt>
      <trkpt lat="47.27016" lon="-2.34502">
        <ele>127.40000152588</ele>
        <time>2019-12-22T10:55:07.000Z</time>
      </trkpt>
      <trkpt lat="47.27014" lon="-2.34504">
        <ele>127.40000152588</ele>
        <time>2019-12-22T10:55:08.000Z</time>
      </trkpt>
      <trkpt lat="47.2701" lon="-2.34509">
        <ele>127.40000152588</ele>
        <time>2019-12-22T10:55:14.000Z</time>
      </trkpt>
      <trkpt lat="47.27002" lon="-2.34514">
        <ele>127.40000152588</ele>
        <time>2019-12-22T10:55:21.000Z</time>
      </trkpt>
      <trkpt lat="47.26996" lon="-2.34514">
        <ele>127.40000152588</ele>
        <time>2019-12-22T10:55:25.000Z</time>
      </trkpt>
      <trkpt lat="47.26994" lon="-2.34512">
        <ele>127.40000152588</ele>
        <time>2019-12-22T10:55:27.000Z</time>
      </trkpt>
      <trkpt lat="47.26994" lon="-2.3451">
        <ele>127.40000152588</ele>
        <time>2019-12-22T10:55:28.000Z</time>
      </trkpt>
      <trkpt lat="47.26994" lon="-2.34504">
        <ele>127.40000152588</ele>
        <time>2019-12-22T10:55:32.000Z</time>
      </trkpt>
      <trkpt lat="47.26993" lon="-2.34501">
        <ele>127.40000152588</ele>
        <time>2019-12-22T10:55:35.000Z</time>
      </trkpt>
      <trkpt lat="47.26994" lon="-2.3449">
        <ele>127.59999847412</ele>
        <time>2019-12-22T11:37:39.000Z</time>
      </trkpt>
      <trkpt lat="47.26992" lon="-2.3449">
        <ele>127.59999847412</ele>
        <time>2019-12-22T11:37:40.000Z</time>
      </trkpt>
      <trkpt lat="47.26981" lon="-2.34482">
        <ele>127.59999847412</ele>
        <time>2019-12-22T11:37:45.000Z</time>
      </trkpt>
      <trkpt lat="47.2698" lon="-2.34479">
        <ele>127.59999847412</ele>
        <time>2019-12-22T11:37:46.000Z</time>
      </trkpt>
      <trkpt lat="47.26974" lon="-2.34462">
        <ele>127.59999847412</ele>
        <time>2019-12-22T11:37:50.000Z</time>
      </trkpt>
      <trkpt lat="47.26967" lon="-2.34436">
        <ele>127.59999847412</ele>
        <time>2019-12-22T11:37:56.000Z</time>
      </trkpt>
      <trkpt lat="47.26962" lon="-2.34414">
        <ele>127.19999694824</ele>
        <time>2019-12-22T11:38:01.000Z</time>
      </trkpt>
      <trkpt lat="47.26961" lon="-2.34411">
        <ele>126.80000305176</ele>
        <time>2019-12-22T11:38:02.000Z</time>
      </trkpt>
      <trkpt lat="47.2696" lon="-2.34407">
        <ele>125.80000305176</ele>
        <time>2019-12-22T11:38:03.000Z</time>
      </trkpt>
      <trkpt lat="47.26959" lon="-2.34404">
        <ele>125.40000152588</ele>
        <time>2019-12-22T11:38:04.000Z</time>
      </trkpt>
      <trkpt lat="47.26954" lon="-2.34384">
        <ele>125.40000152588</ele>
        <time>2019-12-22T11:38:09.000Z</time>
      </trkpt>
      <trkpt lat="47.26943" lon="-2.34346">
        <ele>125.40000152588</ele>
        <time>2019-12-22T11:38:18.000Z</time>
      </trkpt>
      <trkpt lat="47.2694" lon="-2.34327">
        <ele>125.40000152588</ele>
        <time>2019-12-22T11:38:23.000Z</time>
      </trkpt>
      <trkpt lat="47.2694" lon="-2.34325">
        <ele>125.40000152588</ele>
        <time>2019-12-22T11:38:24.000Z</time>
      </trkpt>
      <trkpt lat="47.26935" lon="-2.34318">
        <ele>125.40000152588</ele>
        <time>2019-12-22T11:38:27.000Z</time>
      </trkpt>
      <trkpt lat="47.26925" lon="-2.34308">
        <ele>125.40000152588</ele>
        <time>2019-12-22T11:38:31.000Z</time>
      </trkpt>
      <trkpt lat="47.26909" lon="-2.34294">
        <ele>125.40000152588</ele>
        <time>2019-12-22T11:38:36.000Z</time>
      </trkpt>
      <trkpt lat="47.26907" lon="-2.34292">
        <ele>125.40000152588</ele>
        <time>2019-12-22T11:38:37.000Z</time>
      </trkpt>
      <trkpt lat="47.26899" lon="-2.34286">
        <ele>125.80000305176</ele>
        <time>2019-12-22T11:38:40.000Z</time>
      </trkpt>
      <trkpt lat="47.26897" lon="-2.34284">
        <ele>126.40000152588</ele>
        <time>2019-12-22T11:38:41.000Z</time>
      </trkpt>
      <trkpt lat="47.26894" lon="-2.34281">
        <ele>126.80000305176</ele>
        <time>2019-12-22T11:38:42.000Z</time>
      </trkpt>
      <trkpt lat="47.26891" lon="-2.34279">
        <ele>127.19999694824</ele>
        <time>2019-12-22T11:38:43.000Z</time>
      </trkpt>
      <trkpt lat="47.26888" lon="-2.34277">
        <ele>127.59999847412</ele>
        <time>2019-12-22T11:38:44.000Z</time>
      </trkpt>
      <trkpt lat="47.26872" lon="-2.34266">
        <ele>127.19999694824</ele>
        <time>2019-12-22T11:38:48.000Z</time>
      </trkpt>
      <trkpt lat="47.26867" lon="-2.34263">
        <ele>126.59999847412</ele>
        <time>2019-12-22T11:38:49.000Z</time>
      </trkpt>
      <trkpt lat="47.26862" lon="-2.3426">
        <ele>126.19999694824</ele>
        <time>2019-12-22T11:38:50.000Z</time>
      </trkpt>
      <trkpt lat="47.26856" lon="-2.34256">
        <ele>125.19999694824</ele>
        <time>2019-12-22T11:38:51.000Z</time>
      </trkpt>
      <trkpt lat="47.26844" lon="-2.34249">
        <ele>125.19999694824</ele>
        <time>2019-12-22T11:38:53.000Z</time>
      </trkpt>
      <trkpt lat="47.26816" lon="-2.34227">
        <ele>125.19999694824</ele>
        <time>2019-12-22T11:38:58.000Z</time>
      </trkpt>
      <trkpt lat="47.26784" lon="-2.34203">
        <ele>125.19999694824</ele>
        <time>2019-12-22T11:39:04.000Z</time>
      </trkpt>
      <trkpt lat="47.26751" lon="-2.34179">
        <ele>125.19999694824</ele>
        <time>2019-12-22T11:39:10.000Z</time>
      </trkpt>
      <trkpt lat="47.26716" lon="-2.34153">
        <ele>125.19999694824</ele>
        <time>2019-12-22T11:39:16.000Z</time>
      </trkpt>
      <trkpt lat="47.26706" lon="-2.34145">
        <ele>125.59999847412</ele>
        <time>2019-12-22T11:39:18.000Z</time>
      </trkpt>
      <trkpt lat="47.26701" lon="-2.34142">
        <ele>126</ele>
        <time>2019-12-22T11:39:19.000Z</time>
      </trkpt>
      <trkpt lat="47.26696" lon="-2.34139">
        <ele>126.40000152588</ele>
        <time>2019-12-22T11:39:20.000Z</time>
      </trkpt>
      <trkpt lat="47.2669" lon="-2.34135">
        <ele>126.80000305176</ele>
        <time>2019-12-22T11:39:21.000Z</time>
      </trkpt>
      <trkpt lat="47.26683" lon="-2.3413">
        <ele>127.40000152588</ele>
        <time>2019-12-22T11:39:22.000Z</time>
      </trkpt>
      <trkpt lat="47.26677" lon="-2.34125">
        <ele>127.40000152588</ele>
        <time>2019-12-22T11:39:23.000Z</time>
      </trkpt>
      <trkpt lat="47.2663" lon="-2.34091">
        <ele>127.40000152588</ele>
        <time>2019-12-22T11:39:31.000Z</time>
      </trkpt>
      <trkpt lat="47.2662" lon="-2.34082">
        <ele>127.40000152588</ele>
        <time>2019-12-22T11:39:33.000Z</time>
      </trkpt>
      <trkpt lat="47.26607" lon="-2.34071">
        <ele>127.40000152588</ele>
        <time>2019-12-22T11:39:36.000Z</time>
      </trkpt>
      <trkpt lat="47.26597" lon="-2.34065">
        <ele>127.40000152588</ele>
        <time>2019-12-22T11:39:38.000Z</time>
      </trkpt>
      <trkpt lat="47.26584" lon="-2.34058">
        <ele>127.40000152588</ele>
        <time>2019-12-22T11:39:41.000Z</time>
      </trkpt>
      <trkpt lat="47.26544" lon="-2.34044">
        <ele>127.40000152588</ele>
        <time>2019-12-22T11:39:47.000Z</time>
      </trkpt>
      <trkpt lat="47.26512" lon="-2.34042">
        <ele>127.40000152588</ele>
        <time>2019-12-22T11:39:52.000Z</time>
      </trkpt>
      <trkpt lat="47.26472" lon="-2.34036">
        <ele>127.40000152588</ele>
        <time>2019-12-22T11:39:58.000Z</time>
      </trkpt>
      <trkpt lat="47.26437" lon="-2.34029">
        <ele>127.40000152588</ele>
        <time>2019-12-22T11:40:04.000Z</time>
      </trkpt>
      <trkpt lat="47.26431" lon="-2.34028">
        <ele>126.80000305176</ele>
        <time>2019-12-22T11:40:05.000Z</time>
      </trkpt>
      <trkpt lat="47.26425" lon="-2.34026">
        <ele>126</ele>
        <time>2019-12-22T11:40:06.000Z</time>
      </trkpt>
      <trkpt lat="47.26418" lon="-2.34025">
        <ele>125.40000152588</ele>
        <time>2019-12-22T11:40:07.000Z</time>
      </trkpt>
      <trkpt lat="47.26413" lon="-2.34023">
        <ele>125</ele>
        <time>2019-12-22T11:40:08.000Z</time>
      </trkpt>
      <trkpt lat="47.26389" lon="-2.34017">
        <ele>125</ele>
        <time>2019-12-22T11:40:12.000Z</time>
      </trkpt>
      <trkpt lat="47.2634" lon="-2.34006">
        <ele>125</ele>
        <time>2019-12-22T11:40:20.000Z</time>
      </trkpt>
      <trkpt lat="47.26295" lon="-2.33995">
        <ele>125</ele>
        <time>2019-12-22T11:40:27.000Z</time>
      </trkpt>
      <trkpt lat="47.26245" lon="-2.33984">
        <ele>125</ele>
        <time>2019-12-22T11:40:34.000Z</time>
      </trkpt>
      <trkpt lat="47.26229" lon="-2.33981">
        <ele>125</ele>
        <time>2019-12-22T11:40:36.000Z</time>
      </trkpt>
      <trkpt lat="47.26205" lon="-2.33976">
        <ele>125</ele>
        <time>2019-12-22T11:40:39.000Z</time>
      </trkpt>
      <trkpt lat="47.26157" lon="-2.33964">
        <ele>125</ele>
        <time>2019-12-22T11:40:46.000Z</time>
      </trkpt>
      <trkpt lat="47.26151" lon="-2.33962">
        <ele>124.59999847412</ele>
        <time>2019-12-22T11:40:47.000Z</time>
      </trkpt>
      <trkpt lat="47.26145" lon="-2.33961">
        <ele>124</ele>
        <time>2019-12-22T11:40:48.000Z</time>
      </trkpt>
      <trkpt lat="47.26139" lon="-2.33961">
        <ele>123.59999847412</ele>
        <time>2019-12-22T11:40:49.000Z</time>
      </trkpt>
      <trkpt lat="47.26133" lon="-2.3396">
        <ele>123.19999694824</ele>
        <time>2019-12-22T11:40:50.000Z</time>
      </trkpt>
      <trkpt lat="47.26127" lon="-2.33959">
        <ele>122.80000305176</ele>
        <time>2019-12-22T11:40:51.000Z</time>
      </trkpt>
      <trkpt lat="47.26089" lon="-2.33949">
        <ele>122.80000305176</ele>
        <time>2019-12-22T11:40:57.000Z</time>
      </trkpt>
      <trkpt lat="47.26046" lon="-2.33936">
        <ele>122.80000305176</ele>
        <time>2019-12-22T11:41:04.000Z</time>
      </trkpt>
      <trkpt lat="47.26008" lon="-2.33927">
        <ele>122.80000305176</ele>
        <time>2019-12-22T11:41:10.000Z</time>
      </trkpt>
      <trkpt lat="47.25973" lon="-2.33918">
        <ele>122.80000305176</ele>
        <time>2019-12-22T11:41:16.000Z</time>
      </trkpt>
      <trkpt lat="47.25962" lon="-2.33917">
        <ele>122.80000305176</ele>
        <time>2019-12-22T11:41:18.000Z</time>
      </trkpt>
      <trkpt lat="47.25952" lon="-2.33917">
        <ele>122.80000305176</ele>
        <time>2019-12-22T11:41:20.000Z</time>
      </trkpt>
      <trkpt lat="47.25947" lon="-2.33906">
        <ele>122.80000305176</ele>
        <time>2019-12-22T11:41:22.000Z</time>
      </trkpt>
      <trkpt lat="47.25948" lon="-2.339">
        <ele>122.19999694824</ele>
        <time>2019-12-22T11:41:23.000Z</time>
      </trkpt>
      <trkpt lat="47.2595" lon="-2.33893">
        <ele>121.80000305176</ele>
        <time>2019-12-22T11:41:24.000Z</time>
      </trkpt>
      <trkpt lat="47.25954" lon="-2.33887">
        <ele>121.40000152588</ele>
        <time>2019-12-22T11:41:25.000Z</time>
      </trkpt>
      <trkpt lat="47.25957" lon="-2.3388">
        <ele>121</ele>
        <time>2019-12-22T11:41:26.000Z</time>
      </trkpt>
      <trkpt lat="47.25961" lon="-2.33873">
        <ele>120.59999847412</ele>
        <time>2019-12-22T11:41:27.000Z</time>
      </trkpt>
      <trkpt lat="47.2597" lon="-2.33851">
        <ele>120.59999847412</ele>
        <time>2019-12-22T11:41:30.000Z</time>
      </trkpt>
      <trkpt lat="47.25988" lon="-2.33796">
        <ele>120.59999847412</ele>
        <time>2019-12-22T11:41:37.000Z</time>
      </trkpt>
      <trkpt lat="47.26002" lon="-2.33749">
        <ele>120.59999847412</ele>
        <time>2019-12-22T11:41:42.000Z</time>
      </trkpt>
      <trkpt lat="47.26014" lon="-2.33713">
        <ele>120.59999847412</ele>
        <time>2019-12-22T11:41:46.000Z</time>
      </trkpt>
      <trkpt lat="47.26019" lon="-2.33694">
        <ele>120.59999847412</ele>
        <time>2019-12-22T11:41:48.000Z</time>
      </trkpt>
      <trkpt lat="47.26021" lon="-2.33685">
        <ele>120.59999847412</ele>
        <time>2019-12-22T11:41:49.000Z</time>
      </trkpt>
      <trkpt lat="47.2603" lon="-2.33667">
        <ele>120.59999847412</ele>
        <time>2019-12-22T11:41:52.000Z</time>
      </trkpt>
      <trkpt lat="47.2604" lon="-2.33666">
        <ele>120.59999847412</ele>
        <time>2019-12-22T11:41:54.000Z</time>
      </trkpt>
      <trkpt lat="47.26044" lon="-2.33666">
        <ele>120.59999847412</ele>
        <time>2019-12-22T11:41:55.000Z</time>
      </trkpt>
      <trkpt lat="47.26051" lon="-2.33665">
        <ele>120.59999847412</ele>
        <time>2019-12-22T11:41:58.000Z</time>
      </trkpt>
      <trkpt lat="47.26054" lon="-2.33666">
        <ele>120.59999847412</ele>
        <time>2019-12-22T11:41:59.000Z</time>
      </trkpt>
      <trkpt lat="47.26056" lon="-2.33666">
        <ele>120.59999847412</ele>
        <time>2019-12-22T11:42:00.000Z</time>
      </trkpt>
      <trkpt lat="47.26061" lon="-2.33657">
        <ele>120.59999847412</ele>
        <time>2019-12-22T11:42:02.000Z</time>
      </trkpt>
      <trkpt lat="47.26065" lon="-2.33645">
        <ele>120.59999847412</ele>
        <time>2019-12-22T11:42:04.000Z</time>
      </trkpt>
      <trkpt lat="47.26067" lon="-2.33638">
        <ele>120.59999847412</ele>
        <time>2019-12-22T11:42:05.000Z</time>
      </trkpt>
      <trkpt lat="47.2607" lon="-2.33632">
        <ele>120.59999847412</ele>
        <time>2019-12-22T11:42:06.000Z</time>
      </trkpt>
      <trkpt lat="47.2608" lon="-2.33609">
        <ele>120.59999847412</ele>
        <time>2019-12-22T11:42:09.000Z</time>
      </trkpt>
      <trkpt lat="47.26082" lon="-2.33601">
        <ele>120.59999847412</ele>
        <time>2019-12-22T11:42:10.000Z</time>
      </trkpt>
      <trkpt lat="47.26098" lon="-2.33548">
        <ele>120.59999847412</ele>
        <time>2019-12-22T11:42:16.000Z</time>
      </trkpt>
      <trkpt lat="47.26118" lon="-2.33491">
        <ele>120.59999847412</ele>
        <time>2019-12-22T11:42:23.000Z</time>
      </trkpt>
      <trkpt lat="47.2613" lon="-2.33459">
        <ele>120.59999847412</ele>
        <time>2019-12-22T11:42:28.000Z</time>
      </trkpt>
      <trkpt lat="47.26134" lon="-2.33448">
        <ele>120.59999847412</ele>
        <time>2019-12-22T11:42:32.000Z</time>
      </trkpt>
      <trkpt lat="47.26137" lon="-2.33435">
        <ele>120.59999847412</ele>
        <time>2019-12-22T11:42:35.000Z</time>
      </trkpt>
      <trkpt lat="47.26136" lon="-2.33429">
        <ele>120.59999847412</ele>
        <time>2019-12-22T11:42:36.000Z</time>
      </trkpt>
      <trkpt lat="47.26126" lon="-2.33414">
        <ele>120.59999847412</ele>
        <time>2019-12-22T11:42:39.000Z</time>
      </trkpt>
      <trkpt lat="47.26122" lon="-2.33411">
        <ele>120.59999847412</ele>
        <time>2019-12-22T11:42:40.000Z</time>
      </trkpt>
      <trkpt lat="47.26118" lon="-2.33406">
        <ele>120.59999847412</ele>
        <time>2019-12-22T11:42:41.000Z</time>
      </trkpt>
      <trkpt lat="47.26107" lon="-2.33391">
        <ele>120.59999847412</ele>
        <time>2019-12-22T11:42:44.000Z</time>
      </trkpt>
      <trkpt lat="47.26096" lon="-2.33378">
        <ele>120.59999847412</ele>
        <time>2019-12-22T11:42:48.000Z</time>
      </trkpt>
      <trkpt lat="47.26082" lon="-2.33369">
        <ele>120.59999847412</ele>
        <time>2019-12-22T11:42:52.000Z</time>
      </trkpt>
      <trkpt lat="47.26072" lon="-2.3334">
        <ele>120.59999847412</ele>
        <time>2019-12-22T11:42:56.000Z</time>
      </trkpt>
      <trkpt lat="47.26052" lon="-2.3328">
        <ele>120.59999847412</ele>
        <time>2019-12-22T11:43:03.000Z</time>
      </trkpt>
      <trkpt lat="47.26027" lon="-2.33209">
        <ele>120.59999847412</ele>
        <time>2019-12-22T11:43:11.000Z</time>
      </trkpt>
      <trkpt lat="47.26024" lon="-2.332">
        <ele>120.59999847412</ele>
        <time>2019-12-22T11:43:12.000Z</time>
      </trkpt>
      <trkpt lat="47.26005" lon="-2.33146">
        <ele>120.59999847412</ele>
        <time>2019-12-22T11:43:18.000Z</time>
      </trkpt>
      <trkpt lat="47.25982" lon="-2.33081">
        <ele>120.59999847412</ele>
        <time>2019-12-22T11:43:25.000Z</time>
      </trkpt>
      <trkpt lat="47.25959" lon="-2.3302">
        <ele>120.59999847412</ele>
        <time>2019-12-22T11:43:32.000Z</time>
      </trkpt>
      <trkpt lat="47.25934" lon="-2.32947">
        <ele>120.59999847412</ele>
        <time>2019-12-22T11:43:40.000Z</time>
      </trkpt>
      <trkpt lat="47.25908" lon="-2.32876">
        <ele>120.59999847412</ele>
        <time>2019-12-22T11:43:48.000Z</time>
      </trkpt>
      <trkpt lat="47.25884" lon="-2.32804">
        <ele>120.59999847412</ele>
        <time>2019-12-22T11:43:56.000Z</time>
      </trkpt>
      <trkpt lat="47.25879" lon="-2.32786">
        <ele>120.59999847412</ele>
        <time>2019-12-22T11:43:58.000Z</time>
      </trkpt>
      <trkpt lat="47.25857" lon="-2.32714">
        <ele>120.59999847412</ele>
        <time>2019-12-22T11:44:06.000Z</time>
      </trkpt>
      <trkpt lat="47.25842" lon="-2.32659">
        <ele>120.59999847412</ele>
        <time>2019-12-22T11:44:12.000Z</time>
      </trkpt>
      <trkpt lat="47.25826" lon="-2.32594">
        <ele>120.59999847412</ele>
        <time>2019-12-22T11:44:19.000Z</time>
      </trkpt>
      <trkpt lat="47.25811" lon="-2.32538">
        <ele>120.59999847412</ele>
        <time>2019-12-22T11:44:25.000Z</time>
      </trkpt>
      <trkpt lat="47.25798" lon="-2.32487">
        <ele>120.59999847412</ele>
        <time>2019-12-22T11:44:31.000Z</time>
      </trkpt>
      <trkpt lat="47.25801" lon="-2.32465">
        <ele>120.59999847412</ele>
        <time>2019-12-22T11:44:34.000Z</time>
      </trkpt>
      <trkpt lat="47.25816" lon="-2.32456">
        <ele>120.59999847412</ele>
        <time>2019-12-22T11:44:37.000Z</time>
      </trkpt>
      <trkpt lat="47.25831" lon="-2.32465">
        <ele>120.59999847412</ele>
        <time>2019-12-22T11:44:40.000Z</time>
      </trkpt>
      <trkpt lat="47.25855" lon="-2.32471">
        <ele>120.59999847412</ele>
        <time>2019-12-22T11:44:44.000Z</time>
      </trkpt>
      <trkpt lat="47.25862" lon="-2.32471">
        <ele>120.59999847412</ele>
        <time>2019-12-22T11:44:45.000Z</time>
      </trkpt>
      <trkpt lat="47.25882" lon="-2.32468">
        <ele>120.59999847412</ele>
        <time>2019-12-22T11:44:48.000Z</time>
      </trkpt>
      <trkpt lat="47.25889" lon="-2.32465">
        <ele>120.59999847412</ele>
        <time>2019-12-22T11:44:49.000Z</time>
      </trkpt>
      <trkpt lat="47.25907" lon="-2.32448">
        <ele>120.59999847412</ele>
        <time>2019-12-22T11:44:52.000Z</time>
      </trkpt>
      <trkpt lat="47.25913" lon="-2.32441">
        <ele>120.59999847412</ele>
        <time>2019-12-22T11:44:53.000Z</time>
      </trkpt>
      <trkpt lat="47.25948" lon="-2.32397">
        <ele>120.59999847412</ele>
        <time>2019-12-22T11:44:59.000Z</time>
      </trkpt>
      <trkpt lat="47.25982" lon="-2.32353">
        <ele>120.59999847412</ele>
        <time>2019-12-22T11:45:05.000Z</time>
      </trkpt>
      <trkpt lat="47.26017" lon="-2.32309">
        <ele>120.59999847412</ele>
        <time>2019-12-22T11:45:11.000Z</time>
      </trkpt>
      <trkpt lat="47.26052" lon="-2.32271">
        <ele>120.59999847412</ele>
        <time>2019-12-22T11:45:17.000Z</time>
      </trkpt>
      <trkpt lat="47.26088" lon="-2.32225">
        <ele>120.59999847412</ele>
        <time>2019-12-22T11:45:24.000Z</time>
      </trkpt>
      <trkpt lat="47.26101" lon="-2.32202">
        <ele>120.59999847412</ele>
        <time>2019-12-22T11:45:27.000Z</time>
      </trkpt>
      <trkpt lat="47.26114" lon="-2.32177">
        <ele>120.59999847412</ele>
        <time>2019-12-22T11:45:30.000Z</time>
      </trkpt>
      <trkpt lat="47.26135" lon="-2.32123">
        <ele>120.59999847412</ele>
        <time>2019-12-22T11:45:36.000Z</time>
      </trkpt>
      <trkpt lat="47.26137" lon="-2.32113">
        <ele>120.59999847412</ele>
        <time>2019-12-22T11:45:37.000Z</time>
      </trkpt>
      <trkpt lat="47.26144" lon="-2.32085">
        <ele>120.59999847412</ele>
        <time>2019-12-22T11:45:40.000Z</time>
      </trkpt>
      <trkpt lat="47.26157" lon="-2.32037">
        <ele>120.59999847412</ele>
        <time>2019-12-22T11:45:45.000Z</time>
      </trkpt>
      <trkpt lat="47.26158" lon="-2.32027">
        <ele>120.59999847412</ele>
        <time>2019-12-22T11:45:46.000Z</time>
      </trkpt>
      <trkpt lat="47.2616" lon="-2.31997">
        <ele>120.59999847412</ele>
        <time>2019-12-22T11:45:49.000Z</time>
      </trkpt>
      <trkpt lat="47.26155" lon="-2.31959">
        <ele>120.59999847412</ele>
        <time>2019-12-22T11:45:53.000Z</time>
      </trkpt>
      <trkpt lat="47.26148" lon="-2.319">
        <ele>120.59999847412</ele>
        <time>2019-12-22T11:45:59.000Z</time>
      </trkpt>
      <trkpt lat="47.2614" lon="-2.31846">
        <ele>120.59999847412</ele>
        <time>2019-12-22T11:46:05.000Z</time>
      </trkpt>
      <trkpt lat="47.26135" lon="-2.31801">
        <ele>120.59999847412</ele>
        <time>2019-12-22T11:46:10.000Z</time>
      </trkpt>
      <trkpt lat="47.2613" lon="-2.3175">
        <ele>120.59999847412</ele>
        <time>2019-12-22T11:46:16.000Z</time>
      </trkpt>
      <trkpt lat="47.26125" lon="-2.31688">
        <ele>120.59999847412</ele>
        <time>2019-12-22T11:46:23.000Z</time>
      </trkpt>
      <trkpt lat="47.26124" lon="-2.31679">
        <ele>120.59999847412</ele>
        <time>2019-12-22T11:46:24.000Z</time>
      </trkpt>
      <trkpt lat="47.26118" lon="-2.31652">
        <ele>120.59999847412</ele>
        <time>2019-12-22T11:46:27.000Z</time>
      </trkpt>
      <trkpt lat="47.26117" lon="-2.31634">
        <ele>120.59999847412</ele>
        <time>2019-12-22T11:46:29.000Z</time>
      </trkpt>
      <trkpt lat="47.26119" lon="-2.3162">
        <ele>120.59999847412</ele>
        <time>2019-12-22T11:46:31.000Z</time>
      </trkpt>
      <trkpt lat="47.26131" lon="-2.31613">
        <ele>120.59999847412</ele>
        <time>2019-12-22T11:46:34.000Z</time>
      </trkpt>
      <trkpt lat="47.26135" lon="-2.31613">
        <ele>120.59999847412</ele>
        <time>2019-12-22T11:46:35.000Z</time>
      </trkpt>
      <trkpt lat="47.26156" lon="-2.31608">
        <ele>120.59999847412</ele>
        <time>2019-12-22T11:46:39.000Z</time>
      </trkpt>
      <trkpt lat="47.26188" lon="-2.31595">
        <ele>120.59999847412</ele>
        <time>2019-12-22T11:46:45.000Z</time>
      </trkpt>
      <trkpt lat="47.2621" lon="-2.31591">
        <ele>120.59999847412</ele>
        <time>2019-12-22T11:46:49.000Z</time>
      </trkpt>
      <trkpt lat="47.26216" lon="-2.31593">
        <ele>120.59999847412</ele>
        <time>2019-12-22T11:46:50.000Z</time>
      </trkpt>
      <trkpt lat="47.26232" lon="-2.31603">
        <ele>120.59999847412</ele>
        <time>2019-12-22T11:46:53.000Z</time>
      </trkpt>
      <trkpt lat="47.26237" lon="-2.31607">
        <ele>120.59999847412</ele>
        <time>2019-12-22T11:46:54.000Z</time>
      </trkpt>
      <trkpt lat="47.26242" lon="-2.31611">
        <ele>120.59999847412</ele>
        <time>2019-12-22T11:46:55.000Z</time>
      </trkpt>
      <trkpt lat="47.26255" lon="-2.3163">
        <ele>120.59999847412</ele>
        <time>2019-12-22T11:46:58.000Z</time>
      </trkpt>
      <trkpt lat="47.26266" lon="-2.31648">
        <ele>120.59999847412</ele>
        <time>2019-12-22T11:47:01.000Z</time>
      </trkpt>
      <trkpt lat="47.26269" lon="-2.31655">
        <ele>121</ele>
        <time>2019-12-22T11:47:02.000Z</time>
      </trkpt>
      <trkpt lat="47.26272" lon="-2.31661">
        <ele>121.40000152588</ele>
        <time>2019-12-22T11:47:03.000Z</time>
      </trkpt>
      <trkpt lat="47.26276" lon="-2.31667">
        <ele>121.80000305176</ele>
        <time>2019-12-22T11:47:04.000Z</time>
      </trkpt>
      <trkpt lat="47.26279" lon="-2.31673">
        <ele>122.19999694824</ele>
        <time>2019-12-22T11:47:05.000Z</time>
      </trkpt>
      <trkpt lat="47.26283" lon="-2.3168">
        <ele>122.80000305176</ele>
        <time>2019-12-22T11:47:06.000Z</time>
      </trkpt>
      <trkpt lat="47.26292" lon="-2.31699">
        <ele>122.80000305176</ele>
        <time>2019-12-22T11:47:09.000Z</time>
      </trkpt>
      <trkpt lat="47.26299" lon="-2.3171">
        <ele>122.80000305176</ele>
        <time>2019-12-22T11:47:11.000Z</time>
      </trkpt>
      <trkpt lat="47.26307" lon="-2.31715">
        <ele>122.80000305176</ele>
        <time>2019-12-22T11:47:13.000Z</time>
      </trkpt>
      <trkpt lat="47.26311" lon="-2.31714">
        <ele>122.40000152588</ele>
        <time>2019-12-22T11:47:14.000Z</time>
      </trkpt>
      <trkpt lat="47.26315" lon="-2.31712">
        <ele>122</ele>
        <time>2019-12-22T11:47:15.000Z</time>
      </trkpt>
      <trkpt lat="47.26319" lon="-2.3171">
        <ele>121.59999847412</ele>
        <time>2019-12-22T11:47:16.000Z</time>
      </trkpt>
      <trkpt lat="47.26322" lon="-2.31708">
        <ele>121</ele>
        <time>2019-12-22T11:47:17.000Z</time>
      </trkpt>
      <trkpt lat="47.26326" lon="-2.31706">
        <ele>120.59999847412</ele>
        <time>2019-12-22T11:47:18.000Z</time>
      </trkpt>
      <trkpt lat="47.26333" lon="-2.31701">
        <ele>120.59999847412</ele>
        <time>2019-12-22T11:47:20.000Z</time>
      </trkpt>
      <trkpt lat="47.26335" lon="-2.31696">
        <ele>120.59999847412</ele>
        <time>2019-12-22T11:47:21.000Z</time>
      </trkpt>
      <trkpt lat="47.26343" lon="-2.31687">
        <ele>120.59999847412</ele>
        <time>2019-12-22T11:47:24.000Z</time>
      </trkpt>
      <trkpt lat="47.26355" lon="-2.31679">
        <ele>121.19999694824</ele>
        <time>2019-12-22T11:47:28.000Z</time>
      </trkpt>
      <trkpt lat="47.26358" lon="-2.31677">
        <ele>121.59999847412</ele>
        <time>2019-12-22T11:47:29.000Z</time>
      </trkpt>
      <trkpt lat="47.26362" lon="-2.31676">
        <ele>122.40000152588</ele>
        <time>2019-12-22T11:47:30.000Z</time>
      </trkpt>
      <trkpt lat="47.26365" lon="-2.31675">
        <ele>122.80000305176</ele>
        <time>2019-12-22T11:47:31.000Z</time>
      </trkpt>
      <trkpt lat="47.26377" lon="-2.31671">
        <ele>122.80000305176</ele>
        <time>2019-12-22T11:47:34.000Z</time>
      </trkpt>
      <trkpt lat="47.26381" lon="-2.31669">
        <ele>122.80000305176</ele>
        <time>2019-12-22T11:47:35.000Z</time>
      </trkpt>
      <trkpt lat="47.26395" lon="-2.31661">
        <ele>122.80000305176</ele>
        <time>2019-12-22T11:47:39.000Z</time>
      </trkpt>
      <trkpt lat="47.2641" lon="-2.31651">
        <ele>122.80000305176</ele>
        <time>2019-12-22T11:47:44.000Z</time>
      </trkpt>
      <trkpt lat="47.2641" lon="-2.31636">
        <ele>122.80000305176</ele>
        <time>2019-12-22T11:47:47.000Z</time>
      </trkpt>
      <trkpt lat="47.2641" lon="-2.3163">
        <ele>122.80000305176</ele>
        <time>2019-12-22T11:47:48.000Z</time>
      </trkpt>
      <trkpt lat="47.26411" lon="-2.31605">
        <ele>122.80000305176</ele>
        <time>2019-12-22T11:47:52.000Z</time>
      </trkpt>
      <trkpt lat="47.26411" lon="-2.31599">
        <ele>122.80000305176</ele>
        <time>2019-12-22T11:47:53.000Z</time>
      </trkpt>
      <trkpt lat="47.2641" lon="-2.31568">
        <ele>122.80000305176</ele>
        <time>2019-12-22T11:47:59.000Z</time>
      </trkpt>
      <trkpt lat="47.2641" lon="-2.31563">
        <ele>123.19999694824</ele>
        <time>2019-12-22T11:48:00.000Z</time>
      </trkpt>
      <trkpt lat="47.2641" lon="-2.3156">
        <ele>123.59999847412</ele>
        <time>2019-12-22T11:48:01.000Z</time>
      </trkpt>
      <trkpt lat="47.26412" lon="-2.31557">
        <ele>124</ele>
        <time>2019-12-22T11:48:02.000Z</time>
      </trkpt>
      <trkpt lat="47.26415" lon="-2.31556">
        <ele>124.59999847412</ele>
        <time>2019-12-22T11:48:03.000Z</time>
      </trkpt>
      <trkpt lat="47.26417" lon="-2.31555">
        <ele>125</ele>
        <time>2019-12-22T11:48:04.000Z</time>
      </trkpt>
      <trkpt lat="47.26419" lon="-2.31555">
        <ele>125</ele>
        <time>2019-12-22T11:48:06.000Z</time>
      </trkpt>
      <trkpt lat="47.26423" lon="-2.31552">
        <ele>125.80000305176</ele>
        <time>2019-12-22T11:48:22.000Z</time>
      </trkpt>
      <trkpt lat="47.26425" lon="-2.31552">
        <ele>126.19999694824</ele>
        <time>2019-12-22T11:48:23.000Z</time>
      </trkpt>
      <trkpt lat="47.26426" lon="-2.31552">
        <ele>126.59999847412</ele>
        <time>2019-12-22T11:48:24.000Z</time>
      </trkpt>
      <trkpt lat="47.26428" lon="-2.31552">
        <ele>127</ele>
        <time>2019-12-22T11:48:25.000Z</time>
      </trkpt>
      <trkpt lat="47.26429" lon="-2.31553">
        <ele>127</ele>
        <time>2019-12-22T11:48:29.000Z</time>
      </trkpt>
      <trkpt lat="47.26428" lon="-2.31553">
        <ele>127</ele>
        <time>2019-12-22T11:48:31.000Z</time>
      </trkpt>
      <trkpt lat="47.26425" lon="-2.31555">
        <ele>127</ele>
        <time>2019-12-22T11:48:33.000Z</time>
      </trkpt>
      <trkpt lat="47.26425" lon="-2.31556">
        <ele>127</ele>
        <time>2019-12-22T11:48:34.000Z</time>
      </trkpt>
      <trkpt lat="47.26422" lon="-2.31559">
        <ele>122.19999694824</ele>
        <time>2019-12-22T11:50:54.000Z</time>
      </trkpt>
      <trkpt lat="47.26424" lon="-2.3156">
        <ele>122.19999694824</ele>
        <time>2019-12-22T11:50:55.000Z</time>
      </trkpt>
      <trkpt lat="47.26433" lon="-2.31563">
        <ele>122.19999694824</ele>
        <time>2019-12-22T11:51:01.000Z</time>
      </trkpt>
    </trkseg>
  </trk>
</gpx>